# Wetter Temperatur Luftdruck Luftfeuchtigkeit Sichtweite Windgeschwindigkeit Windrichtung Zeit
1 Clouds 32 1010 70 10000 5.66 260 11:48 22.04.2021
2 Clouds 32 1010 70 10000 5.66 260 11:25 22.04.2021
3 Clouds 32 1011 70 10000 5.14 250 10:46 22.04.2021
4 Clouds 32 1011 70 10000 5.14 250 10:27 22.04.2021
5 Clouds 32 1012 66 10000 5.66 250 09:58 22.04.2021
6 Clouds 32 1012 66 10000 5.66 250 09:31 22.04.2021
7 Clouds 32 1012 66 10000 5.14 250 08:45 22.04.2021
8 Clouds 31 1013 70 10000 4.63 220 08:23 22.04.2021
9 Clouds 31 1013 70 10000 4.63 220 07:47 22.04.2021
10 Clouds 31 1013 70 10000 4.63 220 07:29 22.04.2021
11 Clouds 31 1012 66 10000 5.14 220 06:41 22.04.2021
12 Clouds 31 1012 74 10000 4.12 220 05:53 22.04.2021
13 Clouds 29 1011 74 10000 3.6 210 05:20 22.04.2021
14 Clouds 29 1009 79 10000 5.14 210 01:58 22.04.2021
15 Clouds 29 1010 74 10000 4.63 220 23:55 21.04.2021
16 Clouds 29 1010 74 10000 4.63 220 23:37 21.04.2021
17 Clouds 29 1010 79 10000 5.14 210 22:48 21.04.2021
18 Clouds 29 1010 79 10000 5.14 210 22:25 21.04.2021
19 Clouds 29 1012 74 10000 4.12 210 21:59 21.04.2021
20 Clouds 29 1012 74 10000 4.12 210 21:40 21.04.2021
21 Clouds 29 1012 74 10000 4.12 210 21:19 21.04.2021
22 Clouds 29 1012 74 10000 4.12 210 20:24 21.04.2021
23 Clouds 29 1012 74 10000 4.12 210 19:46 21.04.2021
24 Clouds 29 1012 74 10000 4.12 210 19:27 21.04.2021
25 Clouds 29 1012 74 10000 3.09 220 18:50 21.04.2021
26 Clouds 29 1012 74 10000 3.09 220 18:32 21.04.2021
27 Clouds 30 1011 70 10000 4.12 230 17:58 21.04.2021
28 Clouds 30 1011 70 10000 4.12 230 17:39 21.04.2021
29 Clouds 30 1011 70 10000 4.12 230 17:20 21.04.2021
30 Clouds 30 1011 70 10000 4.12 230 16:38 21.04.2021
31 Clouds 30 1010 70 10000 3.6 240 15:46 21.04.2021
32 Clouds 31 1009 66 10000 4.12 220 15:20 21.04.2021
33 Clouds 31 1009 66 10000 4.12 220 14:44 21.04.2021
34 Clouds 31 1009 66 10000 4.12 220 14:24 21.04.2021
35 Clouds 32 1009 62 10000 3.6 210 13:49 21.04.2021
36 Clouds 32 1009 66 10000 4.12 200 13:21 21.04.2021
37 Clouds 32 1009 66 10000 4.12 200 12:41 21.04.2021
38 Clouds 31 1010 70 10000 3.6 220 12:18 21.04.2021
39 Clouds 31 1010 70 10000 3.6 220 11:41 21.04.2021
40 Clouds 31 1011 70 10000 5.14 240 11:22 21.04.2021
41 Clouds 31 1011 70 10000 5.14 240 10:39 21.04.2021
42 Clouds 31 1012 70 10000 4.12 240 09:56 21.04.2021
43 Clouds 30 1012 70 10000 4.63 240 09:21 21.04.2021
44 Clouds 30 1012 70 10000 4.63 240 08:46 21.04.2021
45 Clouds 30 1012 70 10000 4.63 240 08:24 21.04.2021
46 Clouds 30 1013 74 10000 4.12 230 07:52 21.04.2021
47 Clouds 30 1013 74 10000 4.12 230 07:28 21.04.2021
48 Clouds 30 1012 74 10000 4.12 230 05:57 21.04.2021
49 Clouds 29 1009 74 10000 4.63 250 01:51 21.04.2021
50 Clouds 29 1009 79 10000 4.12 260 00:20 21.04.2021
51 Clouds 29 1009 79 10000 4.12 260 23:39 20.04.2021
52 Clouds 29 1010 79 10000 3.6 250 22:49 20.04.2021
53 Clouds 29 1010 79 10000 3.6 250 22:24 20.04.2021
54 Clouds 29 1010 79 10000 3.6 240 21:56 20.04.2021
55 Clouds 29 1010 79 10000 3.6 240 21:33 20.04.2021
56 Clouds 29 1011 79 10000 2.06 250 20:59 20.04.2021
57 Clouds 29 1011 79 10000 2.06 250 20:38 20.04.2021
58 Clouds 29 1011 79 10000 2.06 280 20:18 20.04.2021
59 Clouds 29 1011 79 10000 2.06 280 19:46 20.04.2021
60 Clouds 29 1011 79 10000 2.06 280 19:28 20.04.2021
61 Clouds 29 1011 74 10000 2.57 250 18:46 20.04.2021
62 Clouds 29 1011 74 10000 2.57 250 18:28 20.04.2021
63 Clouds 29 1010 74 10000 3.09 260 17:41 20.04.2021
64 Clouds 29 1010 74 10000 3.09 260 16:51 20.04.2021
65 Clouds 29 1010 74 10000 3.09 260 16:28 20.04.2021
66 Clouds 30 1009 70 10000 2.57 240 15:36 20.04.2021
67 Clouds 31 1009 66 10000 2.57 260 15:18 20.04.2021
68 Clouds 31 1009 66 10000 2.57 260 14:39 20.04.2021
69 Clouds 31 1008 66 10000 5.14 260 14:20 20.04.2021
70 Clouds 31 1008 66 10000 5.14 260 13:28 20.04.2021
71 Clouds 31 1008 66 10000 4.63 250 12:53 20.04.2021
72 Clouds 31 1008 66 10000 4.63 250 12:24 20.04.2021
73 Clouds 32 1009 66 10000 5.66 250 11:46 20.04.2021
74 Clouds 32 1009 66 10000 5.66 250 11:25 20.04.2021
75 Clouds 32 1009 66 10000 5.14 250 10:48 20.04.2021
76 Clouds 32 1009 66 10000 5.14 250 10:24 20.04.2021
77 Clouds 32 1010 66 10000 4.63 250 09:47 20.04.2021
78 Clouds 31 1011 70 10000 4.63 260 09:18 20.04.2021
79 Clouds 31 1011 70 10000 4.63 260 08:42 20.04.2021
80 Clouds 31 1011 66 10000 4.12 260 07:53 20.04.2021
81 Clouds 31 1011 66 10000 4.12 260 07:31 20.04.2021
82 Clouds 30 1011 70 10000 4.12 220 05:42 20.04.2021
83 Clouds 29 1010 70 10000 3.09 230 04:43 20.04.2021
84 Clouds 28 1010 78 10000 2.57 230 03:34 20.04.2021
85 Clouds 28 1009 78 10000 1.54 240 00:50 20.04.2021
86 Clouds 28 1009 78 10000 1.54 240 23:52 19.04.2021
87 Clouds 28 1009 78 10000 1.54 240 23:29 19.04.2021
88 Clouds 28 1010 78 10000 2.06 230 22:39 19.04.2021
89 Clouds 28 1011 78 10000 1.54 210 22:19 19.04.2021
90 Clouds 28 1011 78 10000 1.54 210 21:38 19.04.2021
91 Clouds 29 1011 74 10000 2.06 210 21:20 19.04.2021
92 Clouds 29 1011 74 10000 2.06 210 20:41 19.04.2021
93 Clouds 29 1011 74 10000 3.09 210 20:20 19.04.2021
94 Clouds 29 1011 74 10000 3.09 210 19:46 19.04.2021
95 Clouds 29 1011 74 10000 3.09 210 19:25 19.04.2021
96 Clouds 29 1011 74 10000 2.06 210 18:48 19.04.2021
97 Clouds 29 1011 74 10000 2.06 210 18:48 19.04.2021
98 Clouds 29 1011 74 10000 2.06 210 18:24 19.04.2021
99 Clouds 29 1010 74 10000 2.57 230 17:58 19.04.2021
100 Clouds 29 1010 74 10000 2.57 230 17:39 19.04.2021
101 Clouds 30 1010 70 10000 2.57 230 17:20 19.04.2021
102 Clear 28 1011 62 10000 1.39 227 16:41 19.04.2021
103 Clouds 31 1009 70 10000 2.57 200 16:21 19.04.2021
104 Clouds 31 1009 70 10000 2.57 200 15:40 19.04.2021
105 Clouds 31 1009 70 10000 3.09 200 15:22 19.04.2021
106 Clouds 31 1009 70 10000 3.09 200 14:38 19.04.2021
107 Clouds 32 1009 66 10000 3.09 200 14:19 19.04.2021
108 Clouds 32 1009 66 10000 3.09 200 13:44 19.04.2021
109 Clouds 32 1009 66 10000 3.09 200 13:24 19.04.2021
110 Clouds 32 1009 66 10000 3.6 200 12:43 19.04.2021
111 Clouds 32 1009 62 10000 4.12 200 12:23 19.04.2021
112 Clouds 32 1009 62 10000 4.12 200 11:54 19.04.2021
113 Clouds 32 1009 62 10000 4.12 200 11:26 19.04.2021
114 Clouds 32 1010 62 10000 4.63 200 10:47 19.04.2021
115 Clouds 32 1010 62 10000 4.63 200 10:25 19.04.2021
116 Clouds 32 1011 66 10000 4.12 210 09:50 19.04.2021
117 Clouds 32 1011 66 10000 4.12 210 09:30 19.04.2021
118 Clouds 32 1012 62 10000 4.12 200 08:58 19.04.2021
119 Clouds 32 1012 62 10000 4.12 200 08:28 19.04.2021
120 Clouds 31 1013 66 10000 3.6 200 07:48 19.04.2021
121 Clouds 31 1013 66 10000 3.6 200 07:19 19.04.2021
122 Clouds 31 1013 66 10000 3.6 200 06:36 19.04.2021
123 Clouds 28 1011 78 10000 4.12 210 02:35 19.04.2021
124 Clouds 28 1010 78 10000 4.12 210 01:26 19.04.2021
125 Clouds 29 1011 74 10000 4.63 210 23:55 18.04.2021
126 Clouds 29 1012 74 10000 4.63 200 23:18 18.04.2021
127 Clouds 29 1012 74 10000 4.63 200 22:48 18.04.2021
128 Clouds 29 1012 74 10000 4.63 200 22:29 18.04.2021
129 Clouds 29 1012 79 10000 5.14 210 21:40 18.04.2021
130 Clouds 29 1013 79 10000 5.14 210 21:18 18.04.2021
131 Clouds 29 1013 79 10000 5.14 210 20:40 18.04.2021
132 Clouds 29 1013 79 10000 4.12 210 20:20 18.04.2021
133 Clouds 29 1013 79 10000 4.12 210 19:49 18.04.2021
134 Clouds 29 1013 79 10000 4.12 210 19:29 18.04.2021
135 Clouds 29 1013 79 10000 2.57 200 18:54 18.04.2021
136 Clouds 29 1013 79 10000 2.57 200 18:31 18.04.2021
137 Clouds 29 1013 79 10000 2.57 180 17:55 18.04.2021
138 Clouds 29 1013 79 10000 2.57 180 17:37 18.04.2021
139 Clouds 30 1012 70 10000 3.09 190 17:18 18.04.2021
140 Clouds 30 1012 70 10000 3.09 190 16:41 18.04.2021
141 Clouds 30 1011 74 10000 3.09 190 15:59 18.04.2021
142 Clouds 30 1011 74 10000 3.09 190 15:39 18.04.2021
143 Clouds 30 1011 74 10000 4.12 200 15:19 18.04.2021
144 Clouds 30 1011 74 10000 4.12 200 14:42 18.04.2021
145 Clouds 30 1011 74 10000 4.12 210 14:19 18.04.2021
146 Clouds 30 1011 74 10000 4.12 210 13:50 18.04.2021
147 Clouds 30 1011 74 10000 4.12 210 13:30 18.04.2021
148 Clouds 31 1011 70 10000 3.09 210 12:39 18.04.2021
149 Clouds 33 1011 66 10000 4.63 200 12:20 18.04.2021
150 Clouds 33 1011 66 10000 4.63 200 11:41 18.04.2021
151 Clouds 32 1012 70 10000 3.6 200 11:20 18.04.2021
152 Clouds 32 1012 70 10000 3.6 200 10:45 18.04.2021
153 Clouds 32 1013 66 10000 4.12 200 10:19 18.04.2021
154 Clouds 32 1013 66 10000 4.12 200 09:41 18.04.2021
155 Clouds 31 1013 70 10000 4.12 180 09:23 18.04.2021
156 Clouds 31 1013 70 10000 4.12 180 08:47 18.04.2021
157 Clouds 31 1013 70 10000 4.12 180 08:28 18.04.2021
158 Clouds 31 1013 79 10000 3.6 200 07:41 18.04.2021
159 Clouds 30 1014 84 10000 3.6 160 06:56 18.04.2021
160 Clouds 29 1013 84 10000 2.57 160 05:39 18.04.2021
161 Clouds 28 1014 71 10000 4.3 194 05:21 18.04.2021
162 Clouds 27 1012 83 8000 4.12 220 02:24 18.04.2021
163 Clouds 28 1011 83 8000 7.2 220 01:31 18.04.2021
164 Clouds 28 1011 83 8000 7.2 220 00:28 18.04.2021
165 Clouds 29 1011 79 10000 4.12 250 23:27 17.04.2021
166 Clouds 29 1012 84 10000 3.6 260 22:49 17.04.2021
167 Clouds 29 1012 84 10000 3.6 260 22:49 17.04.2021
168 Clouds 29 1012 84 10000 3.6 260 22:29 17.04.2021
169 Clouds 29 1012 79 10000 3.09 270 21:45 17.04.2021
170 Clouds 29 1012 79 10000 3.09 270 21:24 17.04.2021
171 Clouds 29 1013 79 10000 3.6 240 20:41 17.04.2021
172 Clouds 29 1013 79 10000 3.09 230 20:23 17.04.2021
173 Clouds 29 1013 79 10000 3.09 230 19:42 17.04.2021
174 Clouds 29 1013 79 10000 3.09 240 19:20 17.04.2021
175 Clouds 29 1013 79 10000 3.09 240 18:49 17.04.2021
176 Clouds 29 1013 79 10000 3.09 240 18:23 17.04.2021
177 Clouds 29 1012 79 10000 3.6 240 17:42 17.04.2021
178 Clouds 30 1011 74 10000 3.6 250 17:21 17.04.2021
179 Clouds 30 1011 74 10000 3.6 250 16:40 17.04.2021
180 Clouds 30 1010 74 10000 3.6 250 16:22 17.04.2021
181 Clouds 31 1009 70 10000 2.57 250 15:22 17.04.2021
182 Clouds 31 1009 70 10000 2.57 250 14:44 17.04.2021
183 Clouds 32 1009 66 10000 3.6 260 14:20 17.04.2021
184 Clouds 32 1009 66 10000 3.6 260 13:43 17.04.2021
185 Clouds 32 1009 66 10000 4.63 260 12:55 17.04.2021
186 Clouds 32 1009 66 10000 4.63 260 12:32 17.04.2021
187 Clouds 32 1010 66 10000 4.63 260 11:51 17.04.2021
188 Clouds 32 1010 66 10000 4.63 260 11:32 17.04.2021
189 Clouds 32 1010 66 10000 4.12 250 10:51 17.04.2021
190 Clouds 32 1010 66 10000 4.12 250 10:33 17.04.2021
191 Clouds 32 1011 66 10000 4.63 250 09:47 17.04.2021
192 Clouds 31 1012 70 10000 3.09 270 08:54 17.04.2021
193 Clouds 31 1012 70 10000 3.09 270 08:29 17.04.2021
194 Clouds 32 1012 66 10000 3.09 250 07:45 17.04.2021
195 Clouds 29 1012 79 10000 2.57 250 05:42 17.04.2021
196 Clouds 28 1010 83 10000 2.57 230 03:43 17.04.2021
197 Clouds 28 1009 78 10000 3.09 240 00:56 17.04.2021
198 Clouds 28 1009 78 10000 3.09 240 00:30 17.04.2021
199 Clouds 28 1010 83 10000 3.09 240 23:58 16.04.2021
200 Clouds 28 1010 83 10000 3.09 240 23:34 16.04.2021
201 Clouds 28 1010 83 10000 2.57 230 22:51 16.04.2021
202 Clouds 28 1011 83 10000 2.57 240 22:23 16.04.2021
203 Clouds 28 1011 83 10000 2.57 240 21:56 16.04.2021
204 Clouds 28 1011 83 10000 2.57 240 21:38 16.04.2021
205 Clouds 29 1012 79 10000 3.09 250 20:55 16.04.2021
206 Clouds 29 1012 79 10000 3.09 250 20:36 16.04.2021
207 Clouds 29 1012 79 10000 3.6 250 19:58 16.04.2021
208 Clouds 29 1012 79 10000 3.6 250 19:40 16.04.2021
209 Clouds 29 1011 79 10000 4.63 260 18:49 16.04.2021
210 Clouds 29 1011 79 10000 4.63 260 18:23 16.04.2021
211 Clouds 29 1011 79 10000 5.14 260 17:48 16.04.2021
212 Clouds 29 1010 79 10000 4.63 260 17:19 16.04.2021
213 Clouds 29 1010 79 10000 4.63 260 16:44 16.04.2021
214 Clouds 29 1010 79 10000 4.12 260 16:26 16.04.2021
215 Clouds 29 1010 79 10000 4.12 260 15:54 16.04.2021
216 Clouds 29 1010 79 10000 4.12 260 15:29 16.04.2021
217 Clouds 30 1009 74 10000 4.12 270 14:43 16.04.2021
218 Clouds 30 1009 74 10000 5.14 250 14:20 16.04.2021
219 Clouds 30 1009 74 10000 5.14 250 13:54 16.04.2021
220 Clouds 31 1009 70 10000 7.72 250 13:22 16.04.2021
221 Clouds 31 1009 70 10000 7.72 250 12:53 16.04.2021
222 Clouds 31 1009 70 10000 7.72 250 12:33 16.04.2021
223 Clouds 32 1009 66 10000 4.63 260 11:59 16.04.2021
224 Clouds 32 1009 66 10000 4.63 260 11:38 16.04.2021
225 Clouds 30 1010 74 10000 5.66 270 11:19 16.04.2021
226 Rain 30 1010 74 10000 5.66 270 10:40 16.04.2021
227 Rain 29 1011 84 10000 6.17 270 10:20 16.04.2021
228 Rain 29 1011 84 10000 6.17 270 09:44 16.04.2021
229 Clouds 28 1012 83 9000 5.66 280 09:21 16.04.2021
230 Clouds 28 1012 83 9000 5.66 280 08:42 16.04.2021
231 Clouds 30 1012 74 10000 5.14 250 08:18 16.04.2021
232 Clouds 30 1012 74 10000 5.14 250 07:41 16.04.2021
233 Clouds 30 1012 74 10000 4.12 240 07:18 16.04.2021
234 Clouds 30 1012 74 10000 4.12 240 06:35 16.04.2021
235 Clouds 29 1010 74 10000 3.6 230 05:31 16.04.2021
236 Clouds 28 1009 83 10000 3.6 200 01:40 16.04.2021
237 Clouds 29 1009 74 10000 5.14 190 00:44 16.04.2021
238 Clouds 29 1009 74 10000 3.6 190 00:20 16.04.2021
239 Clouds 29 1009 74 10000 3.6 190 23:51 15.04.2021
240 Clouds 29 1009 74 10000 3.6 190 23:27 15.04.2021
241 Clouds 29 1010 79 10000 3.09 200 22:49 15.04.2021
242 Clouds 29 1010 79 10000 3.09 200 22:23 15.04.2021
243 Clouds 28 1010 72 10000 4.3 218 21:43 15.04.2021
244 Clouds 29 1011 74 10000 3.09 230 21:25 15.04.2021
245 Clouds 29 1011 74 10000 3.09 230 20:48 15.04.2021
246 Clouds 29 1011 74 10000 3.09 230 20:25 15.04.2021
247 Clouds 29 1012 74 10000 3.09 250 19:47 15.04.2021
248 Clouds 29 1012 74 10000 3.09 250 19:28 15.04.2021
249 Clouds 29 1011 74 10000 4.12 250 18:59 15.04.2021
250 Clouds 29 1011 74 10000 4.12 250 18:37 15.04.2021
251 Clouds 29 1010 74 10000 3.6 240 18:18 15.04.2021
252 Clouds 29 1010 74 10000 3.6 240 17:51 15.04.2021
253 Clouds 29 1010 74 10000 3.6 240 17:29 15.04.2021
254 Clouds 29 1009 74 10000 3.6 260 16:44 15.04.2021
255 Clouds 29 1009 74 10000 3.6 260 16:24 15.04.2021
256 Clouds 30 1009 70 10000 4.12 250 15:47 15.04.2021
257 Clouds 30 1009 70 10000 4.12 250 15:27 15.04.2021
258 Clouds 31 1008 66 10000 4.12 250 14:44 15.04.2021
259 Clouds 31 1008 66 10000 4.12 250 14:25 15.04.2021
260 Clouds 32 1008 66 10000 5.14 250 13:48 15.04.2021
261 Clouds 32 1008 66 10000 5.14 250 13:25 15.04.2021
262 Clouds 32 1008 62 10000 4.12 250 12:50 15.04.2021
263 Clouds 32 1008 62 10000 4.12 250 12:26 15.04.2021
264 Clouds 32 1009 62 10000 4.63 250 11:48 15.04.2021
265 Clouds 32 1009 62 10000 4.63 250 11:27 15.04.2021
266 Clouds 31 1010 66 10000 5.14 260 10:58 15.04.2021
267 Clouds 31 1010 66 10000 5.14 260 10:39 15.04.2021
268 Clouds 31 1011 66 10000 4.12 230 10:20 15.04.2021
269 Clouds 31 1011 66 10000 4.12 230 09:30 15.04.2021
270 Clouds 32 1011 66 10000 5.66 210 08:53 15.04.2021
271 Clouds 32 1011 66 10000 5.66 210 08:30 15.04.2021
272 Clouds 29 1012 79 10000 6.69 240 07:36 15.04.2021
273 Clouds 30 1012 74 10000 3.6 220 06:56 15.04.2021
274 Clouds 30 1012 74 10000 3.6 220 06:35 15.04.2021
275 Clouds 27 1011 89 10000 3.6 240 04:55 15.04.2021
276 Clouds 28 1010 83 10000 3.6 220 03:59 15.04.2021
277 Clouds 29 1010 79 10000 3.09 250 23:59 14.04.2021
278 Clouds 29 1010 79 10000 3.09 250 23:32 14.04.2021
279 Clouds 29 1010 84 10000 3.09 250 22:57 14.04.2021
280 Clouds 29 1010 84 10000 3.09 250 22:37 14.04.2021
281 Clouds 29 1011 79 10000 3.09 250 22:19 14.04.2021
282 Clouds 29 1011 79 10000 3.09 250 21:40 14.04.2021
283 Clouds 29 1012 84 10000 2.06 260 21:22 14.04.2021
284 Clouds 29 1012 84 10000 2.06 260 20:39 14.04.2021
285 Clouds 29 1012 70 10000 2.47 260 20:20 14.04.2021
286 Clouds 29 1012 70 10000 2.47 260 19:44 14.04.2021
287 Clouds 29 1011 79 10000 3.09 250 19:19 14.04.2021
288 Clouds 29 1011 79 10000 3.09 250 18:50 14.04.2021
289 Clouds 29 1010 84 10000 3.09 250 18:19 14.04.2021
290 Clouds 29 1010 84 10000 3.09 250 17:55 14.04.2021
291 Clouds 29 1010 84 10000 3.09 250 17:24 14.04.2021
292 Clouds 29 1009 79 10000 3.6 250 16:46 14.04.2021
293 Clouds 30 1008 74 10000 3.6 250 16:22 14.04.2021
294 Clouds 29 1011 68 10000 2.28 273 15:41 14.04.2021
295 Clouds 29 1010 68 10000 2.45 274 15:22 14.04.2021
296 Clouds 29 1010 68 10000 2.45 274 14:44 14.04.2021
297 Clouds 29 1010 68 10000 2.45 274 14:44 14.04.2021
298 Clouds 32 1008 70 10000 4.63 260 14:22 14.04.2021
299 Clouds 32 1008 70 10000 4.63 260 13:49 14.04.2021
300 Clouds 32 1008 70 10000 4.63 250 12:58 14.04.2021
301 Clouds 32 1008 70 10000 4.63 250 12:35 14.04.2021
302 Clouds 31 1009 74 10000 3.6 260 11:42 14.04.2021
303 Clouds 31 1009 74 10000 3.6 260 11:24 14.04.2021
304 Clouds 30 1010 79 10000 3.6 270 10:35 14.04.2021
305 Clouds 27 1011 89 10000 2.57 360 09:59 14.04.2021
306 Clouds 27 1011 89 10000 2.57 360 09:41 14.04.2021
307 Clouds 31 1012 74 10000 2.57 220 09:19 14.04.2021
308 Clouds 31 1012 74 10000 2.57 220 08:34 14.04.2021
309 Clouds 30 1012 79 10000 2.06 220 07:56 14.04.2021
310 Clouds 30 1012 74 10000 2.06 270 06:46 14.04.2021
311 Clouds 30 1011 74 10000 1.54 270 06:23 14.04.2021
312 Clouds 28 1010 83 10000 1.03 0 03:58 14.04.2021
313 Clouds 28 1009 89 10000 1.54 290 01:41 14.04.2021
314 Clouds 28 1009 83 10000 1.03 0 00:34 14.04.2021
315 Clouds 29 1010 79 10000 1.54 290 23:39 13.04.2021
316 Clouds 29 1010 84 10000 2.06 270 22:59 13.04.2021
317 Clouds 29 1010 84 10000 2.06 270 22:40 13.04.2021
318 Clouds 29 1011 84 10000 2.06 270 22:18 13.04.2021
319 Clouds 29 1011 84 10000 2.06 270 21:44 13.04.2021
320 Clouds 29 1012 84 10000 2.06 270 21:24 13.04.2021
321 Clouds 29 1012 84 10000 2.06 270 20:41 13.04.2021
322 Clouds 29 1012 84 10000 2.06 280 20:21 13.04.2021
323 Clouds 29 1012 84 10000 2.06 280 19:43 13.04.2021
324 Clouds 29 1012 84 10000 2.06 280 19:23 13.04.2021
325 Clouds 30 1011 74 10000 2.57 280 18:37 13.04.2021
326 Clouds 29 1011 84 10000 3.09 290 17:54 13.04.2021
327 Clouds 29 1011 84 10000 3.09 290 17:36 13.04.2021
328 Clouds 30 1010 79 10000 2.57 290 17:18 13.04.2021
329 Clouds 30 1010 79 10000 2.57 290 16:42 13.04.2021
330 Clouds 30 1009 79 10000 2.57 270 16:20 13.04.2021
331 Clouds 30 1009 79 10000 2.57 270 15:42 13.04.2021
332 Clouds 31 1009 74 10000 2.57 290 15:21 13.04.2021
333 Clouds 31 1009 74 10000 2.57 290 14:46 13.04.2021
334 Clouds 32 1009 70 10000 2.57 290 14:19 13.04.2021
335 Clouds 32 1009 70 10000 2.57 290 13:45 13.04.2021
336 Clouds 32 1009 70 10000 2.57 290 13:24 13.04.2021
337 Clouds 32 1009 66 10000 3.09 290 12:56 13.04.2021
338 Clouds 32 1009 66 10000 3.09 290 12:27 13.04.2021
339 Clouds 32 1010 70 10000 2.57 290 11:55 13.04.2021
340 Clouds 32 1010 70 10000 2.57 290 11:29 13.04.2021
341 Clouds 32 1010 70 10000 2.57 290 10:47 13.04.2021
342 Clouds 31 1011 74 10000 3.09 280 10:21 13.04.2021
343 Clouds 31 1011 74 10000 3.09 280 09:56 13.04.2021
344 Clouds 31 1011 74 10000 3.09 280 09:36 13.04.2021
345 Clouds 32 1012 70 10000 4.12 270 08:54 13.04.2021
346 Clouds 32 1012 70 10000 4.12 270 08:36 13.04.2021
347 Clouds 31 1012 70 10000 1.54 260 08:18 13.04.2021
348 Clouds 31 1012 70 10000 1.54 260 07:35 13.04.2021
349 Clouds 30 1012 74 10000 2.06 270 06:31 13.04.2021
350 Clouds 29 1011 79 10000 2.57 230 04:45 13.04.2021
351 Clouds 29 1009 79 10000 3.09 240 01:37 13.04.2021
352 Clouds 29 1010 84 10000 2.57 260 00:18 13.04.2021
353 Clouds 29 1010 84 10000 2.57 260 23:42 12.04.2021
354 Clouds 29 1011 84 10000 1.54 270 23:20 12.04.2021
355 Clouds 29 1011 84 10000 1.54 270 22:38 12.04.2021
356 Clouds 29 1012 84 10000 2.06 270 21:57 12.04.2021
357 Clouds 29 1012 84 10000 2.06 270 21:38 12.04.2021
358 Clouds 29 1013 84 10000 2.06 290 21:19 12.04.2021
359 Clouds 29 1013 84 10000 2.06 290 20:38 12.04.2021
360 Clouds 29 1013 84 10000 2.06 280 20:20 12.04.2021
361 Clouds 29 1013 84 10000 2.06 280 19:43 12.04.2021
362 Clouds 29 1012 84 10000 2.57 270 19:23 12.04.2021
363 Clouds 29 1012 84 10000 2.57 270 18:56 12.04.2021
364 Clouds 29 1012 84 10000 2.57 270 18:37 12.04.2021
365 Clouds 29 1011 84 10000 2.06 280 18:18 12.04.2021
366 Clouds 29 1011 84 10000 2.06 280 17:42 12.04.2021
367 Clouds 30 1011 79 10000 2.06 300 17:20 12.04.2021
368 Clouds 30 1011 79 10000 2.06 300 16:44 12.04.2021
369 Clouds 30 1011 79 10000 2.06 300 16:26 12.04.2021
370 Clouds 30 1010 79 10000 2.57 270 15:48 12.04.2021
371 Clouds 31 1009 74 10000 2.57 300 15:21 12.04.2021
372 Clouds 31 1009 74 10000 2.57 300 14:49 12.04.2021
373 Clouds 31 1009 74 10000 2.57 300 14:29 12.04.2021
374 Clouds 32 1009 66 10000 2.06 300 13:45 12.04.2021
375 Clouds 32 1010 66 10000 2.57 300 13:22 12.04.2021
376 Clouds 32 1010 66 10000 2.57 300 12:44 12.04.2021
377 Clouds 32 1010 66 10000 2.57 300 12:24 12.04.2021
378 Clouds 32 1010 70 10000 2.57 300 11:53 12.04.2021
379 Clouds 32 1011 66 10000 2.57 300 10:56 12.04.2021
380 Clouds 32 1011 66 10000 2.57 300 10:38 12.04.2021
381 Clouds 32 1012 70 10000 3.09 270 10:20 12.04.2021
382 Clouds 32 1012 70 10000 3.09 270 09:40 12.04.2021
383 Clouds 32 1012 70 10000 2.57 300 08:59 12.04.2021
384 Clouds 32 1012 70 10000 2.57 300 08:30 12.04.2021
385 Clouds 31 1013 70 9000 2.57 300 07:32 12.04.2021
386 Clouds 30 1013 79 7000 1.54 280 06:57 12.04.2021
387 Clouds 30 1012 79 10000 1.54 290 05:51 12.04.2021
388 Clouds 28 1011 83 10000 1.54 230 03:58 12.04.2021
389 Clouds 29 1010 79 10000 1.03 0 00:51 12.04.2021
390 Clouds 29 1010 79 10000 1.03 0 00:24 12.04.2021
391 Clouds 29 1010 79 10000 1.03 0 00:24 12.04.2021
392 Clouds 29 1010 79 10000 1.03 0 23:46 11.04.2021
393 Clouds 29 1010 79 10000 1.03 0 23:23 11.04.2021
394 Clouds 29 1012 79 10000 1.03 0 22:45 11.04.2021
395 Clouds 29 1012 79 10000 1.03 0 22:22 11.04.2021
396 Clouds 29 1012 79 10000 1.03 0 21:46 11.04.2021
397 Clouds 29 1012 79 10000 1.03 0 21:27 11.04.2021
398 Clouds 29 1012 79 10000 1.03 0 20:55 11.04.2021
399 Clouds 29 1012 79 10000 1.03 0 20:29 11.04.2021
400 Clouds 29 1012 84 10000 1.54 290 19:54 11.04.2021
401 Clouds 29 1012 84 10000 1.54 290 19:36 11.04.2021
402 Clouds 29 1012 84 10000 2.06 290 19:18 11.04.2021
403 Clouds 29 1012 84 10000 2.06 290 18:42 11.04.2021
404 Clouds 29 1012 84 10000 2.06 290 18:24 11.04.2021
405 Clouds 30 1011 79 10000 2.57 280 17:46 11.04.2021
406 Clouds 30 1011 79 10000 2.57 280 17:27 11.04.2021
407 Clouds 31 1010 74 10000 2.57 290 16:50 11.04.2021
408 Clouds 31 1009 70 10000 2.57 280 16:23 11.04.2021
409 Clouds 31 1009 70 10000 2.57 280 15:54 11.04.2021
410 Clouds 31 1009 70 10000 2.57 280 15:27 11.04.2021
411 Clouds 31 1009 70 10000 2.57 280 15:27 11.04.2021
412 Clouds 31 1009 70 10000 2.57 280 15:27 11.04.2021
413 Clouds 31 1009 70 10000 2.57 280 14:59 11.04.2021
414 Clouds 31 1009 70 10000 2.57 280 14:41 11.04.2021
415 Clouds 32 1009 66 10000 2.57 270 13:52 11.04.2021
416 Clouds 32 1009 66 10000 2.57 270 13:31 11.04.2021
417 Clouds 32 1009 70 10000 2.57 270 12:54 11.04.2021
418 Clouds 33 1010 66 10000 3.09 280 12:21 11.04.2021
419 Clouds 33 1010 66 10000 3.09 280 11:52 11.04.2021
420 Clouds 33 1010 66 10000 3.09 280 11:24 11.04.2021
421 Clouds 32 1010 70 10000 3.09 280 10:49 11.04.2021
422 Clouds 32 1010 70 10000 3.09 280 10:31 11.04.2021
423 Clouds 31 1011 74 10000 3.09 270 09:57 11.04.2021
424 Clouds 31 1011 74 10000 3.09 270 09:33 11.04.2021
425 Clouds 32 1012 70 10000 2.06 250 08:54 11.04.2021
426 Clouds 32 1012 70 10000 2.06 250 08:25 11.04.2021
427 Clouds 30 1012 74 10000 2.06 260 07:22 11.04.2021
428 Clouds 30 1012 74 10000 2.06 260 06:51 11.04.2021
429 Clouds 29 1011 79 10000 1.54 260 05:43 11.04.2021
430 Clouds 29 1011 84 10000 2.57 250 05:21 11.04.2021
431 Clouds 29 1011 84 10000 2.57 250 04:34 11.04.2021
432 Clouds 29 1009 84 10000 3.6 250 01:56 11.04.2021
433 Clouds 29 1009 84 10000 3.6 250 00:39 11.04.2021
434 Clouds 29 1009 89 10000 3.6 220 23:48 10.04.2021
435 Clouds 29 1009 89 10000 3.6 220 23:26 10.04.2021
436 Clouds 29 1010 84 10000 3.09 220 22:43 10.04.2021
437 Clouds 29 1011 79 10000 2.57 220 22:21 10.04.2021
438 Clouds 29 1011 79 10000 2.57 220 21:41 10.04.2021
439 Clouds 29 1012 79 10000 2.57 230 21:21 10.04.2021
440 Clouds 29 1012 79 10000 2.57 230 20:46 10.04.2021
441 Clouds 29 1012 79 10000 2.57 230 20:24 10.04.2021
442 Clouds 29 1012 79 10000 3.09 230 19:45 10.04.2021
443 Clouds 29 1012 79 10000 3.09 230 19:25 10.04.2021
444 Clouds 30 1011 74 10000 3.6 230 18:52 10.04.2021
445 Clouds 30 1011 74 10000 3.6 230 18:31 10.04.2021
446 Clouds 30 1011 74 10000 3.6 230 18:30 10.04.2021
447 Clouds 30 1011 74 10000 3.09 240 17:40 10.04.2021
448 Clouds 30 1010 74 10000 3.09 240 17:20 10.04.2021
449 Clouds 30 1010 74 10000 3.09 240 16:30 10.04.2021
450 Clouds 30 1009 74 10000 3.6 250 15:55 10.04.2021
451 Clouds 30 1009 74 10000 3.6 250 15:32 10.04.2021
452 Clouds 31 1008 70 10000 3.09 240 14:47 10.04.2021
453 Clouds 32 1008 70 10000 3.6 260 14:21 10.04.2021
454 Clouds 32 1008 70 10000 3.6 260 13:43 10.04.2021
455 Clouds 33 1008 66 10000 2.57 260 12:55 10.04.2021
456 Clouds 33 1008 66 10000 2.57 260 12:34 10.04.2021
457 Clouds 32 1009 70 9000 3.6 250 11:52 10.04.2021
458 Clouds 32 1009 70 9000 3.6 250 11:26 10.04.2021
459 Clouds 32 1010 70 9000 3.6 260 10:53 10.04.2021
460 Clouds 32 1010 70 9000 3.6 260 10:31 10.04.2021
461 Clouds 30 1011 74 9000 3.6 270 09:59 10.04.2021
462 Clouds 30 1011 74 9000 3.6 270 09:28 10.04.2021
463 Clouds 30 1011 79 9000 3.6 260 08:49 10.04.2021
464 Clouds 30 1011 79 9000 3.6 260 08:29 10.04.2021
465 Clouds 30 1011 79 9000 3.6 260 08:29 10.04.2021
466 Clouds 31 1011 74 9000 3.6 260 07:52 10.04.2021
467 Clouds 31 1011 70 9000 3.6 240 07:21 10.04.2021
468 Clouds 31 1011 70 9000 3.6 240 06:27 10.04.2021
469 Clouds 29 1009 84 10000 3.6 230 04:42 10.04.2021
470 Clouds 29 1008 79 10000 3.09 220 02:54 10.04.2021
471 Clouds 29 1008 79 10000 3.09 220 02:35 10.04.2021
472 Clouds 29 1007 79 10000 3.6 240 00:50 10.04.2021
473 Clouds 29 1007 79 10000 3.6 240 00:29 10.04.2021
474 Clouds 29 1008 79 10000 3.6 240 23:44 09.04.2021
475 Clouds 29 1008 79 10000 3.6 240 23:19 09.04.2021
476 Clouds 29 1008 79 10000 3.6 240 22:42 09.04.2021
477 Clouds 29 1008 79 10000 3.6 240 22:24 09.04.2021
478 Clouds 29 1009 84 10000 3.6 250 21:39 09.04.2021
479 Clouds 29 1010 84 10000 3.09 260 21:19 09.04.2021
480 Clouds 29 1010 84 10000 3.09 260 20:45 09.04.2021
481 Clouds 29 1010 84 10000 3.09 260 20:23 09.04.2021
482 Clouds 29 1010 84 10000 3.09 260 19:57 09.04.2021
483 Clouds 29 1010 84 10000 3.09 260 19:38 09.04.2021
484 Clouds 29 1010 79 10000 4.12 290 19:20 09.04.2021
485 Clouds 29 1010 79 10000 4.12 290 18:41 09.04.2021
486 Clouds 29 1009 79 10000 4.12 250 18:19 09.04.2021
487 Clouds 29 1009 79 10000 4.12 250 17:41 09.04.2021
488 Clouds 29 1008 79 10000 4.12 250 17:21 09.04.2021
489 Clouds 29 1008 79 10000 4.12 250 16:39 09.04.2021
490 Clouds 30 1008 74 10000 4.12 250 15:59 09.04.2021
491 Clouds 30 1008 74 10000 4.12 250 15:40 09.04.2021
492 Clouds 30 1007 70 10000 2.57 250 15:19 09.04.2021
493 Clouds 30 1007 70 10000 2.57 250 14:42 09.04.2021
494 Clouds 29 1007 74 10000 3.09 250 13:57 09.04.2021
495 Clouds 29 1007 74 10000 3.09 250 13:38 09.04.2021
496 Clear 28 1008 72 10000 4.18 299 13:19 09.04.2021
497 Clear 28 1008 72 10000 4.18 299 12:39 09.04.2021
498 Clouds 31 1008 70 10000 3.6 220 11:48 09.04.2021
499 Clouds 31 1008 70 10000 3.6 220 11:23 09.04.2021
500 Clouds 30 1009 79 10000 5.14 190 10:49 09.04.2021
501 Clouds 30 1009 79 10000 5.14 190 10:30 09.04.2021
502 Clouds 31 1010 74 10000 4.63 230 09:51 09.04.2021
503 Clouds 31 1010 74 10000 4.63 230 09:25 09.04.2021
504 Clouds 31 1010 74 10000 3.6 290 08:53 09.04.2021
505 Clouds 29 1011 84 10000 3.09 290 08:22 09.04.2021
506 Clouds 31 1011 74 10000 3.6 250 07:21 09.04.2021
507 Clouds 30 1010 79 10000 3.6 260 06:21 09.04.2021
508 Clouds 29 1008 79 10000 4.12 260 03:54 09.04.2021
509 Clouds 29 1007 79 10000 5.14 260 02:27 09.04.2021
510 Clouds 29 1007 79 10000 5.66 250 00:38 09.04.2021
511 Clouds 29 1008 79 10000 6.17 250 00:20 09.04.2021
512 Clouds 29 1008 79 10000 6.17 250 23:30 08.04.2021
513 Clouds 29 1009 79 10000 6.17 250 22:46 08.04.2021
514 Clouds 29 1009 79 10000 6.17 250 22:26 08.04.2021
515 Clouds 29 1010 79 10000 4.63 250 21:58 08.04.2021
516 Clouds 29 1010 79 10000 4.63 250 21:38 08.04.2021
517 Clouds 29 1010 79 10000 5.14 250 21:19 08.04.2021
518 Clouds 29 1010 79 10000 5.14 250 20:53 08.04.2021
519 Clouds 29 1010 79 10000 5.14 250 20:32 08.04.2021
520 Clouds 29 1011 79 10000 4.63 250 19:57 08.04.2021
521 Clouds 29 1011 79 10000 4.63 250 19:24 08.04.2021
522 Clouds 29 1010 79 10000 5.14 270 18:52 08.04.2021
523 Clouds 29 1010 79 10000 5.14 270 18:24 08.04.2021
524 Clouds 29 1010 84 10000 5.14 260 17:52 08.04.2021
525 Clouds 29 1010 84 10000 5.14 260 17:26 08.04.2021
526 Clouds 30 1009 74 10000 5.66 260 16:57 08.04.2021
527 Clouds 30 1009 74 10000 5.66 260 16:36 08.04.2021
528 Clouds 30 1008 74 10000 5.66 270 15:55 08.04.2021
529 Clouds 30 1008 74 10000 5.66 270 15:36 08.04.2021
530 Clouds 31 1008 70 10000 5.66 270 15:18 08.04.2021
531 Clouds 31 1008 70 10000 5.66 270 14:39 08.04.2021
532 Clouds 31 1008 70 10000 5.14 270 14:19 08.04.2021
533 Clouds 31 1008 70 10000 5.14 270 13:43 08.04.2021
534 Clouds 32 1008 66 10000 6.17 280 13:23 08.04.2021
535 Clouds 32 1008 66 10000 6.17 280 12:49 08.04.2021
536 Clouds 32 1008 66 10000 6.17 280 12:30 08.04.2021
537 Clouds 32 1009 66 10000 5.66 280 11:56 08.04.2021
538 Clouds 32 1010 66 10000 5.14 260 11:21 08.04.2021
539 Clouds 32 1010 66 10000 5.14 260 10:43 08.04.2021
540 Clouds 32 1010 66 10000 5.14 260 10:24 08.04.2021
541 Clouds 31 1011 70 10000 5.14 260 09:43 08.04.2021
542 Clouds 31 1011 74 10000 5.14 270 08:53 08.04.2021
543 Clouds 31 1011 74 10000 5.14 270 08:35 08.04.2021
544 Clouds 32 1012 66 10000 4.12 280 07:59 08.04.2021
545 Clouds 32 1012 66 10000 4.12 280 07:40 08.04.2021
546 Clouds 29 1010 79 10000 4.63 250 04:51 08.04.2021
547 Clouds 28 1009 83 10000 4.12 250 01:25 08.04.2021
548 Clouds 29 1009 79 10000 4.63 260 00:30 08.04.2021
549 Clouds 29 1009 79 10000 4.63 260 23:45 07.04.2021
550 Clouds 29 1010 84 10000 4.12 260 23:22 07.04.2021
551 Clouds 29 1010 84 10000 4.12 260 22:55 07.04.2021
552 Clouds 29 1010 84 10000 4.12 260 22:35 07.04.2021
553 Clouds 29 1011 79 10000 4.12 260 21:53 07.04.2021
554 Clouds 29 1011 79 10000 4.12 260 21:32 07.04.2021
555 Clouds 29 1012 79 10000 3.6 260 20:49 07.04.2021
556 Clouds 29 1012 79 10000 3.6 260 20:27 07.04.2021
557 Clouds 29 1012 79 10000 3.09 270 19:50 07.04.2021
558 Clouds 29 1012 79 10000 3.09 270 19:31 07.04.2021
559 Clouds 29 1012 79 10000 3.09 280 18:56 07.04.2021
560 Clouds 29 1011 79 10000 2.57 300 18:22 07.04.2021
561 Clouds 29 1011 79 10000 2.57 300 17:59 07.04.2021
562 Clouds 29 1011 79 10000 2.57 300 17:40 07.04.2021
563 Clouds 29 1011 79 10000 2.57 290 16:59 07.04.2021
564 Clouds 29 1011 79 10000 2.57 290 16:39 07.04.2021
565 Clouds 30 1010 74 10000 3.6 290 16:20 07.04.2021
566 Clouds 30 1010 74 10000 3.6 290 15:50 07.04.2021
567 Clouds 30 1010 74 10000 3.6 290 15:25 07.04.2021
568 Clouds 30 1010 74 10000 3.6 290 15:25 07.04.2021
569 Clouds 31 1009 74 10000 3.6 300 14:35 07.04.2021
570 Clouds 31 1009 70 10000 4.12 270 13:55 07.04.2021
571 Clouds 31 1009 70 10000 4.12 270 13:28 07.04.2021
572 Clouds 32 1009 66 10000 4.12 290 12:58 07.04.2021
573 Clouds 32 1009 66 10000 4.12 290 12:39 07.04.2021
574 Clouds 31 1010 74 10000 4.63 270 12:18 07.04.2021
575 Clouds 31 1010 74 10000 4.63 270 11:39 07.04.2021
576 Clouds 32 1012 66 10000 4.63 300 11:20 07.04.2021
577 Clouds 32 1012 66 10000 4.63 300 10:33 07.04.2021
578 Clouds 32 1012 70 10000 4.12 280 09:46 07.04.2021
579 Clouds 32 1012 70 10000 4.12 280 09:28 07.04.2021
580 Clouds 32 1012 66 10000 3.6 270 08:51 07.04.2021
581 Clouds 32 1012 66 10000 3.6 270 08:26 07.04.2021
582 Clouds 31 1013 70 10000 3.6 280 07:48 07.04.2021
583 Clouds 31 1013 70 10000 3.6 280 07:28 07.04.2021
584 Clouds 31 1013 70 10000 3.09 270 06:39 07.04.2021
585 Clouds 29 1011 79 10000 3.09 290 04:37 07.04.2021
586 Clouds 29 1010 79 10000 3.09 270 01:21 07.04.2021
587 Clouds 29 1009 79 10000 3.6 280 23:47 06.04.2021
588 Clouds 29 1010 79 10000 3.09 280 23:22 06.04.2021
589 Clouds 29 1010 79 10000 3.09 280 22:50 06.04.2021
590 Clouds 29 1011 79 10000 3.09 270 22:21 06.04.2021
591 Clouds 29 1011 79 10000 3.09 270 21:44 06.04.2021
592 Clouds 29 1011 79 10000 3.09 270 21:24 06.04.2021
593 Clouds 29 1011 79 10000 3.09 270 20:58 06.04.2021
594 Clouds 29 1011 79 10000 3.09 270 20:39 06.04.2021
595 Clouds 29 1011 79 10000 2.57 280 20:19 06.04.2021
596 Clouds 29 1011 79 10000 2.57 280 19:42 06.04.2021
597 Clouds 29 1011 79 10000 2.57 280 19:24 06.04.2021
598 Clouds 29 1011 79 10000 2.06 310 18:43 06.04.2021
599 Clouds 30 1010 74 10000 2.06 300 18:20 06.04.2021
600 Clouds 30 1010 74 10000 2.06 300 17:45 06.04.2021
601 Clouds 29 1010 79 10000 3.09 300 17:20 06.04.2021
602 Clouds 29 1010 79 10000 3.09 300 16:49 06.04.2021
603 Clouds 29 1010 79 10000 3.09 300 16:27 06.04.2021
604 Clouds 30 1009 74 10000 2.57 320 15:27 06.04.2021
605 Clouds 31 1008 79 10000 3.09 310 14:50 06.04.2021
606 Clouds 31 1008 79 10000 3.09 310 14:31 06.04.2021
607 Clouds 32 1008 66 10000 3.09 330 13:55 06.04.2021
608 Clouds 32 1008 66 10000 3.09 330 13:37 06.04.2021
609 Clouds 32 1009 66 10000 3.6 340 13:18 06.04.2021
610 Clouds 32 1009 66 10000 3.6 340 12:38 06.04.2021
611 Clouds 32 1009 66 10000 3.6 340 12:19 06.04.2021
612 Clouds 32 1009 66 10000 3.6 340 11:45 06.04.2021
613 Clouds 32 1009 66 10000 3.09 340 11:20 06.04.2021
614 Clouds 32 1009 66 10000 3.09 340 10:46 06.04.2021
615 Clouds 32 1010 66 10000 3.09 320 10:22 06.04.2021
616 Clouds 32 1010 66 10000 3.09 320 09:47 06.04.2021
617 Clouds 32 1010 66 10000 3.09 320 09:26 06.04.2021
618 Clouds 31 1011 70 10000 2.57 320 08:34 06.04.2021
619 Clouds 31 1011 70 10000 3.09 320 07:33 06.04.2021
620 Clouds 31 1011 70 10000 3.6 330 06:55 06.04.2021
621 Clouds 29 1010 79 10000 4.12 330 05:18 06.04.2021
622 Clouds 29 1008 79 10000 4.63 290 01:54 06.04.2021
623 Clouds 29 1008 79 10000 5.66 290 00:43 06.04.2021
624 Clouds 29 1008 79 10000 6.17 290 00:20 06.04.2021
625 Clouds 29 1008 79 10000 6.17 290 23:42 05.04.2021
626 Clouds 29 1009 79 10000 5.14 290 23:19 05.04.2021
627 Clouds 29 1009 79 10000 5.14 290 22:43 05.04.2021
628 Clouds 29 1009 79 10000 5.14 290 22:24 05.04.2021
629 Clouds 29 1010 79 10000 5.66 290 21:39 05.04.2021
630 Clouds 29 1010 79 10000 5.66 290 21:20 05.04.2021
631 Clouds 29 1010 79 10000 5.66 290 20:42 05.04.2021
632 Clouds 29 1011 79 10000 5.66 300 20:23 05.04.2021
633 Clouds 29 1010 79 10000 6.17 300 19:39 05.04.2021
634 Clouds 29 1010 79 10000 6.17 300 19:19 05.04.2021
635 Clouds 29 1010 79 10000 6.17 300 19:19 05.04.2021
636 Clouds 29 1011 66 10000 5.13 316 18:43 05.04.2021
637 Clouds 30 1009 74 10000 4.12 320 18:25 05.04.2021
638 Clouds 30 1009 74 10000 4.12 320 17:55 05.04.2021
639 Clouds 30 1009 74 10000 4.12 320 17:36 05.04.2021
640 Clouds 29 1010 71 10000 5.56 317 17:18 05.04.2021
641 Clouds 29 1010 71 10000 5.56 317 16:39 05.04.2021
642 Clouds 28 1010 73 10000 5.7 320 16:19 05.04.2021
643 Clouds 28 1010 73 10000 5.7 320 15:47 05.04.2021
644 Clouds 29 1009 71 10000 5.99 325 15:22 05.04.2021
645 Clouds 31 1007 74 10000 3.6 330 14:36 05.04.2021
646 Clouds 31 1007 74 10000 3.6 330 13:59 05.04.2021
647 Clouds 31 1007 74 10000 3.6 330 13:31 05.04.2021
648 Clouds 31 1007 74 10000 6.17 330 12:48 05.04.2021
649 Clouds 31 1007 74 10000 6.17 330 12:26 05.04.2021
650 Clouds 31 1007 74 10000 6.17 330 12:26 05.04.2021
651 Clouds 32 1008 66 10000 5.14 330 11:53 05.04.2021
652 Clouds 32 1008 66 10000 5.14 330 11:32 05.04.2021
653 Clouds 32 1009 66 10000 5.14 340 10:57 05.04.2021
654 Clouds 32 1009 66 10000 5.14 340 10:36 05.04.2021
655 Clouds 32 1010 70 10000 4.12 340 09:49 05.04.2021
656 Clouds 32 1010 70 10000 4.12 340 09:26 05.04.2021
657 Clouds 32 1011 70 10000 4.63 350 08:59 05.04.2021
658 Clouds 32 1011 70 10000 4.63 350 08:37 05.04.2021
659 Clouds 32 1011 66 10000 4.63 350 08:19 05.04.2021
660 Clouds 32 1011 66 10000 4.63 350 07:33 05.04.2021
661 Clouds 29 1009 84 10000 3.6 330 03:58 05.04.2021
662 Clouds 29 1008 84 10000 4.12 310 01:34 05.04.2021
663 Clouds 29 1009 84 10000 4.12 310 00:20 05.04.2021
664 Clouds 29 1009 84 10000 4.12 310 23:37 04.04.2021
665 Clouds 29 1010 84 10000 4.12 320 23:18 04.04.2021
666 Clouds 29 1010 84 10000 4.12 320 22:45 04.04.2021
667 Clouds 29 1010 84 10000 4.12 320 22:26 04.04.2021
668 Clouds 29 1010 84 10000 4.12 320 21:23 04.04.2021
669 Clouds 29 1011 84 10000 4.63 320 20:47 04.04.2021
670 Clouds 29 1011 84 10000 4.63 320 20:23 04.04.2021
671 Clouds 29 1011 84 10000 4.63 320 19:42 04.04.2021
672 Clouds 29 1011 79 10000 4.12 300 19:20 04.04.2021
673 Clouds 29 1011 79 10000 4.12 300 18:56 04.04.2021
674 Clouds 29 1011 79 10000 4.12 300 18:36 04.04.2021
675 Clouds 29 1010 84 10000 5.14 300 18:18 04.04.2021
676 Clouds 29 1010 84 10000 5.14 300 17:25 04.04.2021
677 Clouds 30 1009 70 10000 6.69 300 16:58 04.04.2021
678 Clouds 30 1009 70 10000 6.69 300 16:40 04.04.2021
679 Clouds 30 1009 70 10000 6.69 300 15:56 04.04.2021
680 Clouds 30 1009 70 10000 6.69 300 15:32 04.04.2021
681 Clouds 31 1008 74 10000 5.14 320 14:42 04.04.2021
682 Clouds 31 1008 74 10000 5.14 320 14:24 04.04.2021
683 Clouds 31 1008 74 10000 5.14 320 14:24 04.04.2021
684 Clouds 31 1011 74 10000 5.14 320 13:28 04.04.2021
685 Clouds 31 1011 74 10000 5.14 320 13:28 04.04.2021
686 Clouds 31 1008 74 10000 4.63 320 12:52 04.04.2021
687 Clouds 31 1008 74 10000 4.63 320 12:28 04.04.2021
688 Clouds 31 1009 74 10000 4.63 310 11:51 04.04.2021
689 Clouds 31 1009 74 10000 4.63 310 11:31 04.04.2021
690 Clouds 31 1009 74 10000 5.66 290 10:55 04.04.2021
691 Clouds 31 1009 74 10000 5.66 290 10:32 04.04.2021
692 Clouds 31 1010 70 10000 3.6 320 09:52 04.04.2021
693 Clouds 31 1010 70 10000 3.6 320 09:24 04.04.2021
694 Clouds 31 1011 74 10000 3.09 320 08:49 04.04.2021
695 Clouds 31 1011 74 10000 3.09 320 08:49 04.04.2021
696 Clouds 31 1011 74 10000 3.09 320 08:31 04.04.2021
697 Clouds 29 1011 84 10000 3.6 310 07:21 04.04.2021
698 Clouds 29 1011 84 10000 3.6 310 06:33 04.04.2021
699 Clouds 28 1010 83 10000 4.63 340 04:34 04.04.2021
700 Clouds 28 1008 89 10000 5.66 270 01:21 04.04.2021
701 Clear 28 1008 76 10000 5.09 301 00:19 04.04.2021
702 Clear 28 1008 76 10000 5.09 301 23:47 03.04.2021
703 Clouds 29 1009 84 10000 3.09 300 23:18 03.04.2021
704 Clouds 29 1009 84 10000 3.09 300 22:48 03.04.2021
705 Clouds 29 1010 84 10000 2.06 310 22:19 03.04.2021
706 Clouds 29 1010 84 10000 2.06 310 21:47 03.04.2021
707 Clouds 29 1010 84 10000 2.06 310 21:47 03.04.2021
708 Clouds 29 1011 84 10000 4.63 290 21:23 03.04.2021
709 Clouds 29 1011 84 10000 4.63 290 20:49 03.04.2021
710 Clouds 29 1011 84 10000 4.63 290 20:27 03.04.2021
711 Clouds 29 1011 84 10000 2.06 290 19:50 03.04.2021
712 Clouds 29 1011 84 10000 2.06 290 19:24 03.04.2021
713 Clouds 29 1010 79 10000 2.57 310 18:48 03.04.2021
714 Clouds 29 1010 79 10000 2.57 310 18:30 03.04.2021
715 Clouds 28 1010 83 10000 5.14 270 17:51 03.04.2021
716 Clouds 28 1010 83 10000 5.14 270 17:25 03.04.2021
717 Clouds 28 1009 83 10000 6.17 300 16:51 03.04.2021
718 Clouds 28 1008 83 10000 6.17 290 16:21 03.04.2021
719 Clouds 28 1008 83 10000 6.17 290 15:50 03.04.2021
720 Clouds 28 1008 83 10000 7.2 310 15:22 03.04.2021
721 Clouds 28 1008 83 10000 7.2 310 14:44 03.04.2021
722 Clouds 28 1008 83 10000 7.2 310 14:24 03.04.2021
723 Clouds 29 1007 79 10000 5.14 260 13:51 03.04.2021
724 Clouds 29 1007 79 10000 5.14 260 13:24 03.04.2021
725 Clouds 31 1007 79 10000 7.72 260 12:56 03.04.2021
726 Clouds 31 1007 79 10000 7.72 260 12:32 03.04.2021
727 Clouds 32 1008 74 10000 7.72 260 11:39 03.04.2021
728 Clouds 32 1009 74 10000 7.72 260 11:19 03.04.2021
729 Clouds 32 1009 74 10000 7.72 260 10:43 03.04.2021
730 Clouds 31 1010 70 10000 7.72 260 10:22 03.04.2021
731 Clouds 31 1010 70 10000 7.72 260 09:29 03.04.2021
732 Clouds 32 1010 79 10000 4.63 250 08:59 03.04.2021
733 Clouds 32 1010 79 10000 4.63 250 08:31 03.04.2021
734 Clouds 31 1011 79 10000 5.66 250 07:30 03.04.2021
735 Clouds 31 1011 79 10000 5.14 250 06:50 03.04.2021
736 Clouds 29 1008 84 10000 5.14 260 03:53 03.04.2021
737 Clouds 29 1008 84 10000 6.69 270 02:53 03.04.2021
738 Clouds 29 1008 84 10000 6.69 270 02:27 03.04.2021
739 Clouds 29 1007 89 10000 5.14 270 00:31 03.04.2021
740 Clouds 29 1008 84 10000 5.14 260 23:55 02.04.2021
741 Clouds 29 1008 84 10000 5.14 260 23:27 02.04.2021
742 Clouds 29 1009 84 10000 5.14 260 22:56 02.04.2021
743 Clouds 29 1009 84 10000 5.14 260 22:37 02.04.2021
744 Clouds 29 1009 84 10000 5.14 270 21:54 02.04.2021
745 Clouds 29 1009 84 10000 5.14 270 21:36 02.04.2021
746 Clouds 29 1010 84 10000 5.66 250 21:18 02.04.2021
747 Clouds 29 1010 84 10000 5.66 250 21:18 02.04.2021
748 Clouds 29 1010 84 10000 5.66 250 20:36 02.04.2021
749 Clouds 29 1010 89 10000 5.66 270 20:18 02.04.2021
750 Clouds 29 1010 89 10000 5.66 270 19:40 02.04.2021
751 Clouds 30 1010 84 10000 5.66 270 19:21 02.04.2021
752 Clouds 30 1010 84 10000 5.66 270 18:42 02.04.2021
753 Clouds 30 1010 84 10000 5.66 270 18:23 02.04.2021
754 Clouds 30 1009 84 10000 6.69 270 17:45 02.04.2021
755 Clouds 30 1008 84 10000 7.2 270 17:22 02.04.2021
756 Clouds 30 1008 84 10000 7.2 270 16:23 02.04.2021
757 Clouds 29 1007 89 10000 6.69 270 15:43 02.04.2021
758 Clouds 30 1007 84 10000 5.14 270 15:19 02.04.2021
759 Clouds 30 1007 84 10000 5.14 270 14:33 02.04.2021
760 Clouds 31 1007 79 10000 7.2 270 13:47 02.04.2021
761 Clouds 31 1007 79 10000 7.2 270 13:27 02.04.2021
762 Clouds 31 1007 79 10000 6.17 270 12:47 02.04.2021
763 Clouds 31 1008 74 10000 5.66 270 12:20 02.04.2021
764 Clouds 31 1008 74 10000 5.66 270 11:58 02.04.2021
765 Clouds 31 1008 79 10000 6.69 260 11:21 02.04.2021
766 Clouds 31 1008 79 10000 6.69 260 10:51 02.04.2021
767 Clouds 31 1008 79 10000 6.69 260 10:32 02.04.2021
768 Clouds 31 1008 79 10000 6.69 260 10:32 02.04.2021
769 Clouds 32 1009 74 10000 5.66 260 09:55 02.04.2021
770 Clouds 32 1009 74 10000 5.66 260 09:37 02.04.2021
771 Clouds 32 1010 74 10000 5.14 250 09:18 02.04.2021
772 Clouds 32 1010 74 10000 5.14 250 08:34 02.04.2021
773 Clouds 31 1010 74 10000 4.63 270 07:42 02.04.2021
774 Clouds 31 1010 74 10000 4.12 270 07:18 02.04.2021
775 Clouds 30 1010 79 10000 4.63 280 06:22 02.04.2021
776 Clouds 28 1008 89 10000 3.6 270 02:51 02.04.2021
777 Clouds 29 1007 84 10000 4.12 240 00:54 02.04.2021
778 Clouds 29 1007 84 10000 4.12 240 00:54 02.04.2021
779 Clouds 29 1007 84 10000 4.12 240 00:33 02.04.2021
780 Clouds 29 1008 84 10000 4.12 260 23:42 01.04.2021
781 Clouds 29 1008 84 10000 4.12 260 23:24 01.04.2021
782 Clouds 29 1009 84 10000 4.12 280 22:22 01.04.2021
783 Clouds 29 1009 84 10000 4.12 280 21:52 01.04.2021
784 Clouds 29 1009 84 10000 4.12 280 21:29 01.04.2021
785 Clouds 29 1010 84 10000 4.12 280 21:00 01.04.2021
786 Clouds 29 1010 84 10000 4.12 280 20:33 01.04.2021
787 Clouds 29 1010 84 10000 4.63 290 19:57 01.04.2021
788 Clouds 29 1010 84 10000 4.63 290 19:39 01.04.2021
789 Clouds 29 1010 84 10000 3.6 300 18:51 01.04.2021
790 Clouds 29 1008 84 10000 4.12 280 18:19 01.04.2021
791 Clouds 29 1008 84 10000 4.12 280 17:58 01.04.2021
792 Clouds 29 1008 84 10000 4.12 280 17:38 01.04.2021
793 Clouds 29 1008 84 10000 4.12 290 17:19 01.04.2021
794 Clouds 29 1008 84 10000 4.12 290 16:41 01.04.2021
795 Clouds 30 1008 79 10000 4.12 280 15:49 01.04.2021
796 Clouds 30 1008 79 10000 4.63 280 15:23 01.04.2021
797 Clouds 30 1008 79 10000 4.63 280 14:51 01.04.2021
798 Clouds 30 1008 79 10000 4.63 280 14:29 01.04.2021
799 Clouds 30 1008 84 10000 5.14 290 13:58 01.04.2021
800 Clouds 30 1008 84 10000 5.14 290 13:32 01.04.2021
801 Clouds 31 1007 79 10000 5.66 270 12:58 01.04.2021
802 Clouds 31 1007 79 10000 5.66 270 12:37 01.04.2021
803 Clouds 31 1008 79 10000 6.17 280 12:18 01.04.2021
804 Clouds 31 1008 79 10000 6.17 280 11:42 01.04.2021
805 Clouds 31 1008 79 10000 6.17 280 11:18 01.04.2021
806 Clouds 31 1008 79 10000 6.17 280 10:46 01.04.2021
807 Clouds 31 1008 79 10000 6.17 280 10:25 01.04.2021
808 Clouds 31 1009 79 10000 6.17 280 09:32 01.04.2021
809 Clouds 30 1010 79 10000 6.69 270 08:54 01.04.2021
810 Clouds 30 1010 79 10000 6.69 270 08:32 01.04.2021
811 Rain 30 1010 84 10000 6.69 300 07:22 01.04.2021
812 Clouds 30 1010 84 10000 6.69 300 06:56 01.04.2021
813 Clouds 29 1009 84 10000 6.17 310 06:20 01.04.2021
814 Clouds 29 1007 84 10000 6.69 300 03:20 01.04.2021
815 Clouds 29 1006 84 10000 5.66 320 00:23 01.04.2021
816 Clouds 29 1006 84 10000 5.66 320 23:44 31.03.2021
817 Clouds 29 1007 84 10000 5.14 320 22:56 31.03.2021
818 Clouds 29 1007 84 10000 5.14 320 22:37 31.03.2021
819 Clouds 29 1008 84 10000 5.14 310 22:18 31.03.2021
820 Clouds 29 1008 84 10000 5.14 310 21:40 31.03.2021
821 Clouds 29 1009 84 10000 5.14 330 21:19 31.03.2021
822 Clouds 29 1009 84 10000 5.14 330 21:19 31.03.2021
823 Clouds 29 1009 84 10000 5.14 330 20:41 31.03.2021
824 Clouds 29 1009 84 10000 4.12 310 20:22 31.03.2021
825 Clouds 29 1009 84 10000 4.12 310 19:42 31.03.2021
826 Clouds 29 1008 84 10000 4.63 320 19:21 31.03.2021
827 Clouds 29 1008 84 10000 4.63 320 18:57 31.03.2021
828 Clouds 29 1008 84 10000 4.63 320 18:38 31.03.2021
829 Clouds 29 1007 84 10000 4.63 310 17:44 31.03.2021
830 Clouds 29 1007 84 10000 4.63 310 17:25 31.03.2021
831 Clouds 29 1007 84 10000 4.12 300 16:55 31.03.2021
832 Clouds 29 1007 84 10000 4.12 300 16:36 31.03.2021
833 Clouds 29 1006 84 10000 5.66 290 15:58 31.03.2021
834 Clouds 29 1006 84 10000 5.66 290 15:40 31.03.2021
835 Clouds 29 1006 84 10000 6.17 290 15:18 31.03.2021
836 Clouds 29 1006 84 10000 6.17 290 14:41 31.03.2021
837 Clouds 30 1006 79 10000 4.12 300 14:18 31.03.2021
838 Clouds 30 1006 79 10000 4.12 300 13:24 31.03.2021
839 Clouds 30 1006 79 10000 4.63 290 12:41 31.03.2021
840 Clouds 29 1006 84 10000 4.63 310 12:19 31.03.2021
841 Clouds 29 1006 84 10000 4.63 310 11:39 31.03.2021
842 Clouds 29 1007 84 10000 2.57 330 11:19 31.03.2021
843 Clouds 29 1007 84 10000 2.57 330 10:44 31.03.2021
844 Clouds 29 1008 84 10000 2.57 250 10:22 31.03.2021
845 Clouds 29 1008 84 10000 2.57 250 09:33 31.03.2021
846 Clouds 31 1008 79 10000 2.57 260 08:48 31.03.2021
847 Clouds 31 1008 79 10000 2.57 260 08:30 31.03.2021
848 Clouds 31 1008 79 10000 2.57 260 08:30 31.03.2021
849 Clouds 30 1009 79 10000 5.66 240 07:41 31.03.2021
850 Clouds 29 1008 84 10000 6.17 270 05:55 31.03.2021
851 Clouds 29 1006 84 10000 5.14 250 02:44 31.03.2021
852 Clouds 29 1005 84 10000 5.14 240 00:54 31.03.2021
853 Clouds 29 1005 84 10000 5.14 240 00:26 31.03.2021
854 Clouds 29 1006 79 10000 4.63 250 23:58 30.03.2021
855 Clouds 29 1006 79 10000 4.63 250 23:27 30.03.2021
856 Clouds 29 1007 79 10000 4.63 250 22:55 30.03.2021
857 Clouds 29 1007 79 10000 4.63 250 22:37 30.03.2021
858 Clouds 29 1008 79 10000 4.12 250 22:19 30.03.2021
859 Clouds 29 1008 79 10000 4.12 250 22:19 30.03.2021
860 Clouds 29 1008 79 10000 4.12 250 21:42 30.03.2021
861 Clouds 29 1009 79 10000 4.12 240 21:19 30.03.2021
862 Clouds 29 1009 79 10000 4.12 240 20:48 30.03.2021
863 Clouds 29 1009 79 10000 4.12 240 20:27 30.03.2021
864 Clouds 29 1009 79 10000 3.6 220 19:48 30.03.2021
865 Clouds 29 1008 79 10000 3.6 240 19:22 30.03.2021
866 Clouds 29 1008 79 10000 3.6 240 18:34 30.03.2021
867 Clouds 29 1008 79 10000 5.66 240 17:51 30.03.2021
868 Clouds 29 1008 79 10000 5.66 240 17:32 30.03.2021
869 Clouds 29 1007 79 10000 5.66 250 16:47 30.03.2021
870 Clouds 29 1007 79 10000 5.66 250 16:28 30.03.2021
871 Clouds 30 1006 74 10000 5.14 230 15:43 30.03.2021
872 Clouds 30 1005 74 10000 5.66 220 15:20 30.03.2021
873 Clouds 30 1005 74 10000 5.66 220 14:46 30.03.2021
874 Clouds 29 1005 71 10000 4.26 258 14:21 30.03.2021
875 Clouds 29 1005 71 10000 4.26 258 13:51 30.03.2021
876 Clouds 29 1005 71 10000 4.26 258 13:30 30.03.2021
877 Clouds 32 1005 70 10000 4.12 200 12:42 30.03.2021
878 Clouds 32 1005 70 10000 4.12 200 12:23 30.03.2021
879 Clouds 32 1005 70 10000 4.12 170 11:48 30.03.2021
880 Clouds 32 1006 70 10000 3.6 160 11:21 30.03.2021
881 Clouds 32 1006 70 10000 3.6 160 10:43 30.03.2021
882 Clouds 30 1007 74 10000 4.12 170 10:20 30.03.2021
883 Clouds 30 1007 74 10000 4.12 170 09:43 30.03.2021
884 Clouds 30 1007 74 10000 4.12 170 09:24 30.03.2021
885 Clouds 31 1008 74 10000 3.6 150 08:51 30.03.2021
886 Clouds 31 1008 74 10000 3.6 150 08:32 30.03.2021
887 Clouds 30 1008 74 10000 2.57 140 07:50 30.03.2021
888 Clouds 30 1009 79 10000 2.57 150 07:21 30.03.2021
889 Clouds 29 1008 79 10000 1.54 140 05:25 30.03.2021
890 Clouds 28 1008 83 10000 2.57 190 03:23 30.03.2021
891 Clouds 28 1008 83 10000 3.09 220 00:22 30.03.2021
892 Clouds 28 1008 83 10000 3.09 220 23:28 29.03.2021
893 Clouds 28 1008 83 10000 3.09 230 22:43 29.03.2021
894 Clouds 28 1009 83 10000 4.63 240 21:59 29.03.2021
895 Clouds 28 1009 83 10000 4.63 240 21:37 29.03.2021
896 Clouds 28 1010 89 10000 3.6 250 20:59 29.03.2021
897 Clouds 28 1010 89 10000 3.6 250 20:38 29.03.2021
898 Clouds 28 1010 78 10000 5.14 240 20:20 29.03.2021
899 Clouds 28 1010 78 10000 5.14 240 19:45 29.03.2021
900 Clouds 28 1010 78 10000 4.63 240 19:18 29.03.2021
901 Clouds 28 1010 78 10000 4.63 240 18:40 29.03.2021
902 Clouds 28 1009 78 10000 4.12 240 18:20 29.03.2021
903 Clouds 28 1009 78 10000 4.12 240 17:39 29.03.2021
904 Clouds 28 1009 78 10000 2.57 230 16:59 29.03.2021
905 Clouds 28 1009 78 10000 2.57 230 16:35 29.03.2021
906 Clouds 28 1008 78 9000 5.66 230 15:52 29.03.2021
907 Rain 28 1008 78 9000 5.66 230 15:34 29.03.2021
908 Clouds 28 1007 83 9000 6.17 230 14:55 29.03.2021
909 Rain 28 1007 83 9000 6.17 230 14:33 29.03.2021
910 Clouds 28 1006 74 9000 6.17 220 13:52 29.03.2021
911 Clouds 28 1006 74 9000 6.17 220 13:26 29.03.2021
912 Clouds 26 1007 83 9000 7.72 220 12:50 29.03.2021
913 Clouds 25 1008 94 7000 6.17 220 12:21 29.03.2021
914 Rain 25 1008 94 7000 6.17 220 11:40 29.03.2021
915 Rain 26 1010 94 8000 12.35 210 11:22 29.03.2021
916 Clouds 26 1010 94 8000 12.35 210 10:36 29.03.2021
917 Clouds 29 1011 79 9000 9.77 200 09:44 29.03.2021
918 Clouds 27 1011 89 9000 11.83 210 08:59 29.03.2021
919 Clouds 27 1011 89 9000 11.83 210 08:28 29.03.2021
920 Rain 26 1012 89 9000 14.4 170 07:41 29.03.2021
921 Rain 27 1011 89 7000 12.35 170 06:42 29.03.2021
922 Rain 28 1008 83 10000 4.63 130 03:59 29.03.2021
923 Clouds 28 1007 83 10000 3.09 130 01:58 29.03.2021
924 Clouds 28 1007 83 10000 3.09 130 00:23 29.03.2021
925 Clouds 28 1007 83 10000 3.09 130 23:50 28.03.2021
926 Clouds 28 1008 83 10000 3.09 150 23:19 28.03.2021
927 Clouds 28 1008 83 10000 3.09 150 22:41 28.03.2021
928 Clouds 28 1009 83 10000 4.12 150 22:21 28.03.2021
929 Clouds 28 1009 83 10000 4.12 150 21:42 28.03.2021
930 Clouds 28 1010 83 10000 3.09 150 21:23 28.03.2021
931 Clouds 28 1010 83 10000 3.09 150 20:50 28.03.2021
932 Clouds 28 1010 89 10000 5.14 150 20:31 28.03.2021
933 Clouds 28 1010 89 10000 5.14 150 19:46 28.03.2021
934 Clouds 28 1010 89 10000 5.14 150 19:23 28.03.2021
935 Clouds 28 1010 78 10000 4.12 180 18:58 28.03.2021
936 Clouds 28 1010 78 10000 4.12 180 18:32 28.03.2021
937 Clouds 29 1009 84 10000 6.17 170 17:56 28.03.2021
938 Clouds 29 1009 84 10000 6.17 170 17:34 28.03.2021
939 Clouds 29 1007 79 10000 2.57 140 16:55 28.03.2021
940 Clouds 29 1007 79 10000 2.57 140 16:24 28.03.2021
941 Clouds 30 1007 74 10000 2.57 140 15:48 28.03.2021
942 Clouds 30 1006 74 10000 3.09 140 15:22 28.03.2021
943 Clouds 30 1006 74 10000 3.09 140 14:39 28.03.2021
944 Clouds 30 1006 79 10000 3.09 100 13:55 28.03.2021
945 Clouds 30 1006 79 10000 3.09 100 13:34 28.03.2021
946 Clouds 31 1006 74 10000 2.57 130 12:55 28.03.2021
947 Clouds 31 1006 74 10000 2.57 130 12:34 28.03.2021
948 Clouds 32 1007 70 10000 3.09 170 11:50 28.03.2021
949 Clouds 32 1007 70 10000 3.09 170 11:32 28.03.2021
950 Clouds 32 1008 70 10000 3.09 170 10:47 28.03.2021
951 Clouds 32 1008 70 10000 3.09 170 10:28 28.03.2021
952 Clouds 32 1008 70 10000 2.57 170 09:49 28.03.2021
953 Clouds 32 1008 70 10000 2.57 170 09:25 28.03.2021
954 Clouds 31 1009 74 10000 2.57 150 08:47 28.03.2021
955 Clouds 31 1010 74 10000 3.09 150 07:52 28.03.2021
956 Clouds 31 1010 74 10000 3.09 150 07:34 28.03.2021
957 Clouds 28 1008 83 10000 2.57 160 05:19 28.03.2021
958 Clouds 27 1007 89 10000 2.06 140 01:50 28.03.2021
959 Clouds 28 1007 83 10000 2.57 110 00:25 28.03.2021
960 Clouds 27 1007 89 10000 2.57 90 23:48 27.03.2021
961 Clouds 27 1007 89 10000 2.57 90 23:29 27.03.2021
962 Rain 27 1008 89 10000 2.06 90 22:38 27.03.2021
963 Rain 27 1009 89 10000 2.57 100 22:18 27.03.2021
964 Rain 27 1009 89 10000 2.57 100 21:41 27.03.2021
965 Clouds 28 1009 83 10000 1.54 120 21:20 27.03.2021
966 Clouds 28 1009 83 10000 1.54 120 20:50 27.03.2021
967 Clouds 28 1009 83 10000 1.54 120 20:31 27.03.2021
968 Clouds 28 1010 83 10000 2.06 120 19:45 27.03.2021
969 Clouds 28 1010 83 10000 2.06 120 19:23 27.03.2021
970 Clouds 28 1010 78 10000 2.06 140 18:56 27.03.2021
971 Clouds 28 1010 78 10000 2.06 140 18:37 27.03.2021
972 Clouds 28 1010 83 10000 2.06 130 18:18 27.03.2021
973 Clouds 28 1010 83 10000 2.06 130 17:28 27.03.2021
974 Clouds 28 1009 83 10000 2.57 130 16:53 27.03.2021
975 Clouds 28 1009 83 10000 2.57 130 16:31 27.03.2021
976 Rain 28 1008 83 10000 2.57 150 15:58 27.03.2021
977 Clouds 28 1008 83 10000 2.57 150 15:36 27.03.2021
978 Clouds 28 1008 89 10000 2.06 150 14:54 27.03.2021
979 Rain 28 1007 89 10000 3.09 150 14:22 27.03.2021
980 Rain 28 1007 89 10000 3.09 150 13:27 27.03.2021
981 Rain 28 1006 89 8000 3.6 150 13:00 27.03.2021
982 Rain 28 1006 89 8000 3.6 150 12:35 27.03.2021
983 Rain 27 1007 89 8000 5.14 150 11:47 27.03.2021
984 Rain 27 1007 89 8000 5.14 150 11:28 27.03.2021
985 Rain 25 1008 94 6000 3.6 160 10:48 27.03.2021
986 Rain 25 1008 94 6000 3.6 160 10:28 27.03.2021
987 Rain 29 1008 79 8000 8.23 150 09:41 27.03.2021
988 Rain 27 1009 94 8000 10.8 150 09:18 27.03.2021
989 Rain 27 1009 94 8000 10.8 150 08:33 27.03.2021
990 Clouds 27 1009 89 8000 6.69 130 07:36 27.03.2021
991 Rain 26 1010 89 8000 6.69 130 06:58 27.03.2021
992 Rain 26 1010 89 8000 6.69 130 06:34 27.03.2021
993 Rain 29 1010 72 10000 6.4 91 04:40 27.03.2021
994 Rain 28 1006 83 10000 5.66 100 00:56 27.03.2021
995 Clouds 28 1006 83 10000 5.66 100 00:31 27.03.2021
996 Rain 28 1006 83 8000 7.2 90 23:58 26.03.2021
997 Rain 29 1007 84 10000 6.17 90 23:22 26.03.2021
998 Rain 29 1007 84 10000 6.17 90 22:36 26.03.2021
999 Rain 29 1007 84 10000 4.63 80 21:40 26.03.2021
1000 Rain 29 1008 84 10000 5.14 80 21:22 26.03.2021
1001 Clouds 29 1008 84 10000 5.14 80 20:49 26.03.2021
1002 Clouds 29 1008 84 10000 5.14 80 20:30 26.03.2021
1003 Clouds 29 1008 84 10000 5.14 80 20:30 26.03.2021
1004 Clouds 29 1008 84 10000 5.14 80 20:30 26.03.2021
1005 Clouds 29 1009 84 10000 4.12 70 19:50 26.03.2021
1006 Clouds 29 1009 84 10000 4.12 70 19:30 26.03.2021
1007 Clouds 29 1009 84 10000 3.6 40 18:47 26.03.2021
1008 Clouds 29 1009 84 10000 3.6 40 18:28 26.03.2021
1009 Clouds 30 1009 74 10000 5.66 50 17:50 26.03.2021
1010 Rain 30 1008 74 10000 4.12 50 17:18 26.03.2021
1011 Rain 30 1008 74 10000 4.12 50 16:34 26.03.2021
1012 Clouds 30 1007 74 10000 4.12 40 15:59 26.03.2021
1013 Clouds 30 1007 74 10000 4.12 40 15:26 26.03.2021
1014 Clouds 30 1007 74 10000 4.63 50 14:39 26.03.2021
1015 Clouds 30 1006 74 10000 4.12 70 13:43 26.03.2021
1016 Clouds 31 1006 70 10000 4.63 70 13:22 26.03.2021
1017 Clouds 31 1006 70 10000 4.63 70 12:35 26.03.2021
1018 Clouds 31 1006 70 10000 4.63 70 11:47 26.03.2021
1019 Clouds 31 1006 70 10000 4.63 70 11:27 26.03.2021
1020 Clouds 32 1007 66 10000 4.63 70 10:42 26.03.2021
1021 Clouds 32 1008 66 10000 3.6 80 10:19 26.03.2021
1022 Clouds 32 1008 66 10000 3.6 80 09:41 26.03.2021
1023 Clouds 31 1009 74 10000 3.09 90 08:48 26.03.2021
1024 Clouds 31 1009 74 10000 3.09 90 08:26 26.03.2021
1025 Clouds 31 1009 70 10000 3.09 80 07:43 26.03.2021
1026 Clouds 31 1010 70 10000 2.57 70 07:21 26.03.2021
1027 Clouds 31 1010 70 10000 2.57 70 06:55 26.03.2021
1028 Clouds 31 1010 74 10000 2.57 70 05:32 26.03.2021
1029 Clouds 28 1008 83 10000 3.09 80 03:28 26.03.2021
1030 Clouds 27 1007 89 10000 1.54 80 00:50 26.03.2021
1031 Clouds 27 1007 89 10000 2.57 70 23:49 25.03.2021
1032 Clouds 27 1007 89 10000 2.57 70 23:30 25.03.2021
1033 Clouds 27 1007 89 10000 3.49 83 22:40 25.03.2021
1034 Clouds 28 1007 74 10000 3.82 84 22:18 25.03.2021
1035 Clouds 28 1007 74 10000 3.82 84 21:45 25.03.2021
1036 Clouds 27 1009 83 10000 1.54 120 21:24 25.03.2021
1037 Clouds 27 1009 83 10000 1.54 120 20:38 25.03.2021
1038 Clouds 27 1010 83 10000 3.6 130 20:18 25.03.2021
1039 Clouds 27 1010 83 10000 3.6 130 19:40 25.03.2021
1040 Clouds 26 1010 89 10000 4.63 110 19:21 25.03.2021
1041 Clouds 26 1010 89 10000 4.63 110 18:40 25.03.2021
1042 Clouds 30 1009 74 10000 4.63 70 18:22 25.03.2021
1043 Clouds 30 1009 74 10000 4.63 70 17:38 25.03.2021
1044 Clouds 29 1009 79 10000 4.12 70 16:59 25.03.2021
1045 Clouds 29 1009 79 10000 4.12 70 16:36 25.03.2021
1046 Clouds 29 1008 79 10000 3.6 60 15:52 25.03.2021
1047 Clouds 29 1008 79 10000 3.6 60 15:27 25.03.2021
1048 Clouds 30 1007 74 10000 3.09 70 14:59 25.03.2021
1049 Clouds 30 1007 74 10000 3.09 70 14:40 25.03.2021
1050 Clouds 30 1006 74 10000 2.57 70 13:38 25.03.2021
1051 Clouds 30 1006 74 10000 3.6 60 13:19 25.03.2021
1052 Clouds 30 1006 74 10000 3.6 60 12:37 25.03.2021
1053 Clouds 31 1006 74 10000 4.12 70 12:18 25.03.2021
1054 Clouds 31 1006 74 10000 4.12 70 11:44 25.03.2021
1055 Clouds 31 1006 74 10000 4.12 70 11:26 25.03.2021
1056 Clouds 31 1007 74 10000 4.63 60 10:49 25.03.2021
1057 Clouds 31 1008 74 10000 4.63 70 10:21 25.03.2021
1058 Clouds 31 1008 74 10000 4.63 70 09:53 25.03.2021
1059 Clouds 31 1008 74 10000 4.63 70 09:35 25.03.2021
1060 Clouds 31 1008 74 10000 4.63 70 09:35 25.03.2021
1061 Clouds 31 1010 74 10000 5.14 90 08:37 25.03.2021
1062 Clouds 28 1010 72 10000 5.35 59 07:51 25.03.2021
1063 Clouds 30 1011 74 10000 3.6 80 06:57 25.03.2021
1064 Clouds 30 1011 74 10000 3.6 80 06:24 25.03.2021
1065 Clouds 30 1011 74 10000 3.09 80 05:46 25.03.2021
1066 Clouds 26 1009 89 10000 0.51 0 02:28 25.03.2021
1067 Clouds 26 1008 89 10000 1.54 140 00:21 25.03.2021
1068 Clouds 26 1008 89 10000 1.54 140 23:48 24.03.2021
1069 Clouds 26 1008 89 10000 1.54 140 23:23 24.03.2021
1070 Clouds 26 1008 89 10000 1.54 140 22:41 24.03.2021
1071 Clouds 27 1009 83 10000 2.06 90 22:19 24.03.2021
1072 Clouds 27 1009 83 10000 2.06 90 21:41 24.03.2021
1073 Clouds 27 1010 89 10000 2.57 90 21:20 24.03.2021
1074 Clouds 27 1010 89 10000 2.57 90 20:41 24.03.2021
1075 Clouds 26 1010 89 10000 2.06 150 20:19 24.03.2021
1076 Clouds 26 1010 89 10000 2.06 150 19:34 24.03.2021
1077 Clouds 26 1011 89 10000 2.06 140 18:58 24.03.2021
1078 Clouds 26 1011 89 10000 2.06 140 18:39 24.03.2021
1079 Clouds 26 1010 83 8000 2.57 120 18:19 24.03.2021
1080 Clouds 26 1010 83 8000 2.57 120 17:41 24.03.2021
1081 Clouds 26 1010 83 8000 3.6 120 17:22 24.03.2021
1082 Clouds 26 1010 83 8000 3.6 120 16:42 24.03.2021
1083 Clouds 26 1010 83 8000 3.6 120 16:23 24.03.2021
1084 Clouds 26 1010 89 8000 4.63 130 15:43 24.03.2021
1085 Clouds 26 1010 89 8000 4.63 130 15:23 24.03.2021
1086 Rain 25 1010 94 7000 4.63 130 14:42 24.03.2021
1087 Rain 25 1010 94 7000 4.63 130 14:23 24.03.2021
1088 Clouds 28 1008 69 10000 3.92 27 13:50 24.03.2021
1089 Rain 28 1008 69 10000 4.61 31 13:25 24.03.2021
1090 Rain 28 1008 69 10000 4.61 31 12:41 24.03.2021
1091 Rain 28 1008 68 10000 3.58 26 12:21 24.03.2021
1092 Rain 28 1008 68 10000 3.58 26 11:42 24.03.2021
1093 Rain 30 1009 74 8000 2.06 260 10:53 24.03.2021
1094 Rain 30 1009 74 8000 2.06 260 10:35 24.03.2021
1095 Rain 31 1009 74 8000 2.57 300 09:58 24.03.2021
1096 Rain 31 1009 74 8000 2.57 300 09:38 24.03.2021
1097 Clouds 29 1010 84 8000 4.63 320 09:18 24.03.2021
1098 Clouds 29 1010 84 8000 4.63 320 08:47 24.03.2021
1099 Clouds 29 1010 84 8000 4.63 320 08:24 24.03.2021
1100 Clouds 32 1011 70 8000 1.54 70 07:31 24.03.2021
1101 Clouds 30 1012 74 8000 3.6 150 06:51 24.03.2021
1102 Clouds 28 1009 89 8000 2.06 170 03:21 24.03.2021
1103 Clouds 28 1008 89 8000 2.06 130 00:47 24.03.2021
1104 Clouds 28 1008 89 8000 2.06 100 23:56 23.03.2021
1105 Clouds 28 1008 89 8000 2.57 100 23:21 23.03.2021
1106 Clouds 28 1008 89 8000 2.57 100 22:52 23.03.2021
1107 Clouds 28 1008 89 8000 2.57 100 22:28 23.03.2021
1108 Clouds 27 1009 73 10000 1.44 65 21:49 23.03.2021
1109 Clouds 27 1009 73 10000 1.44 65 21:31 23.03.2021
1110 Clouds 28 1010 72 10000 1.91 54 20:47 23.03.2021
1111 Clouds 29 1011 84 10000 2.57 110 20:29 23.03.2021
1112 Clouds 29 1011 84 10000 2.57 110 19:57 23.03.2021
1113 Clouds 29 1011 84 10000 2.57 110 19:27 23.03.2021
1114 Clouds 29 1011 84 8000 2.57 110 18:59 23.03.2021
1115 Clouds 29 1011 84 8000 2.57 110 18:37 23.03.2021
1116 Clouds 29 1011 84 8000 3.09 90 18:18 23.03.2021
1117 Clouds 29 1011 84 8000 3.09 90 17:43 23.03.2021
1118 Clouds 29 1010 89 8000 2.57 90 17:21 23.03.2021
1119 Clouds 29 1010 89 8000 2.57 90 16:26 23.03.2021
1120 Clouds 30 1009 79 8000 2.06 90 15:50 23.03.2021
1121 Clouds 30 1008 79 8000 2.57 90 15:23 23.03.2021
1122 Clouds 30 1008 79 8000 2.57 90 14:48 23.03.2021
1123 Clouds 30 1008 79 8000 4.12 80 14:19 23.03.2021
1124 Clouds 30 1008 79 8000 4.12 80 13:47 23.03.2021
1125 Rain 30 1008 79 8000 4.12 80 13:24 23.03.2021
1126 Rain 31 1007 74 8000 2.57 360 12:45 23.03.2021
1127 Rain 31 1007 74 8000 2.57 360 12:26 23.03.2021
1128 Clouds 31 1008 74 8000 2.57 360 11:48 23.03.2021
1129 Clouds 31 1008 79 8000 2.57 350 11:21 23.03.2021
1130 Clouds 31 1008 79 8000 2.57 350 10:42 23.03.2021
1131 Clouds 31 1010 74 8000 2.57 360 10:20 23.03.2021
1132 Clouds 31 1010 74 8000 2.57 360 09:51 23.03.2021
1133 Clouds 31 1010 74 8000 2.57 360 09:23 23.03.2021
1134 Clouds 31 1010 74 8000 2.57 320 08:55 23.03.2021
1135 Clouds 31 1010 74 8000 2.57 320 08:37 23.03.2021
1136 Clouds 31 1011 74 8000 2.57 320 08:18 23.03.2021
1137 Clouds 31 1011 74 8000 2.57 320 07:27 23.03.2021
1138 Clouds 31 1012 70 8000 1.54 310 06:52 23.03.2021
1139 Clouds 29 1010 84 8000 2.06 290 03:24 23.03.2021
1140 Clouds 28 1009 89 8000 2.06 270 02:29 23.03.2021
1141 Clouds 28 1008 89 7000 1.54 350 23:47 22.03.2021
1142 Clouds 29 1009 79 7000 1.54 360 22:59 22.03.2021
1143 Clouds 29 1009 79 7000 1.54 360 22:40 22.03.2021
1144 Clouds 29 1009 84 7000 1.54 360 22:20 22.03.2021
1145 Clouds 29 1009 84 7000 1.54 360 21:46 22.03.2021
1146 Clouds 29 1009 84 7000 1.54 360 21:26 22.03.2021
1147 Clouds 29 1010 84 7000 1.54 10 20:42 22.03.2021
1148 Clouds 29 1010 84 7000 1.54 10 20:24 22.03.2021
1149 Clear 28 1010 73 10000 2.75 6 19:58 22.03.2021
1150 Clear 28 1010 73 10000 2.75 6 19:58 22.03.2021
1151 Clear 28 1010 73 10000 2.75 6 19:38 22.03.2021
1152 Clear 29 1011 72 10000 2.49 11 19:19 22.03.2021
1153 Clouds 29 1011 69 10000 2.77 22 18:41 22.03.2021
1154 Clouds 29 1011 68 10000 2.75 26 18:22 22.03.2021
1155 Clouds 29 1011 68 10000 2.75 26 18:22 22.03.2021
1156 Clouds 29 1011 68 10000 2.75 26 17:49 22.03.2021
1157 Clouds 30 1008 74 7000 2.57 340 17:22 22.03.2021
1158 Clouds 30 1008 74 7000 2.57 340 16:55 22.03.2021
1159 Clouds 30 1008 74 7000 2.57 340 16:36 22.03.2021
1160 Clouds 30 1008 74 7000 2.57 340 15:42 22.03.2021
1161 Clouds 30 1008 74 7000 2.57 340 15:23 22.03.2021
1162 Clouds 30 1008 74 7000 2.57 340 14:57 22.03.2021
1163 Clouds 30 1008 74 7000 2.57 340 14:34 22.03.2021
1164 Clouds 29 1009 69 10000 4.03 351 13:50 22.03.2021
1165 Clouds 31 1007 70 7000 3.6 340 13:29 22.03.2021
1166 Clouds 29 1008 68 10000 3.88 353 12:58 22.03.2021
1167 Clouds 32 1008 70 7000 3.6 330 12:26 22.03.2021
1168 Clouds 29 1008 67 10000 3.8 347 11:51 22.03.2021
1169 Clouds 31 1008 74 7000 3.09 320 11:30 22.03.2021
1170 Clouds 31 1008 74 7000 3.09 320 10:57 22.03.2021
1171 Clouds 31 1008 74 7000 3.09 320 10:37 22.03.2021
1172 Clouds 31 1009 74 7000 2.57 310 10:18 22.03.2021
1173 Clouds 31 1009 74 7000 2.57 310 09:34 22.03.2021
1174 Rain 31 1010 74 7000 2.57 320 08:55 22.03.2021
1175 Clouds 31 1010 74 7000 2.57 320 08:37 22.03.2021
1176 Clouds 31 1011 74 6000 2.57 300 08:19 22.03.2021
1177 Clouds 31 1011 74 6000 2.57 300 07:41 22.03.2021
1178 Clouds 31 1011 74 6000 2.57 300 06:52 22.03.2021
1179 Clouds 29 1010 79 6000 2.57 280 05:18 22.03.2021
1180 Clouds 28 1007 83 8000 3.09 280 00:55 22.03.2021
1181 Clouds 29 1007 79 8000 2.57 290 00:20 22.03.2021
1182 Clouds 29 1007 79 8000 2.57 290 23:47 21.03.2021
1183 Clouds 29 1008 79 8000 2.57 280 23:18 21.03.2021
1184 Clouds 29 1008 79 8000 2.57 280 22:54 21.03.2021
1185 Clouds 29 1008 84 8000 3.09 270 21:45 21.03.2021
1186 Clouds 29 1008 84 8000 3.09 270 21:27 21.03.2021
1187 Clouds 29 1009 84 8000 2.57 270 20:57 21.03.2021
1188 Clouds 29 1009 84 8000 2.57 270 20:39 21.03.2021
1189 Clouds 29 1010 84 8000 2.06 290 20:21 21.03.2021
1190 Clouds 29 1010 84 8000 2.06 290 19:49 21.03.2021
1191 Clouds 29 1010 84 8000 2.57 250 19:20 21.03.2021
1192 Clouds 29 1010 84 8000 2.57 250 18:46 21.03.2021
1193 Clouds 29 1010 84 8000 2.57 250 18:27 21.03.2021
1194 Clouds 29 1009 84 8000 2.06 270 17:45 21.03.2021
1195 Clouds 29 1009 84 8000 3.09 260 17:19 21.03.2021
1196 Clouds 29 1009 84 8000 3.09 260 16:54 21.03.2021
1197 Clouds 29 1009 84 8000 3.09 260 16:28 21.03.2021
1198 Clouds 29 1008 79 8000 3.09 270 15:49 21.03.2021
1199 Clouds 29 1008 79 8000 3.09 270 15:23 21.03.2021
1200 Clouds 30 1007 74 8000 3.09 270 14:59 21.03.2021
1201 Clouds 30 1007 74 8000 3.09 270 14:40 21.03.2021
1202 Clouds 31 1006 74 8000 3.09 270 14:21 21.03.2021
1203 Clouds 31 1006 74 8000 3.09 270 13:52 21.03.2021
1204 Clouds 31 1006 74 7000 2.57 290 12:46 21.03.2021
1205 Clouds 31 1006 74 7000 2.57 290 12:26 21.03.2021
1206 Clouds 32 1006 66 7000 2.57 290 11:49 21.03.2021
1207 Clouds 32 1006 66 7000 2.57 290 11:27 21.03.2021
1208 Clouds 32 1007 66 7000 3.6 280 10:54 21.03.2021
1209 Clouds 32 1007 66 7000 3.6 280 10:34 21.03.2021
1210 Clouds 32 1008 66 7000 4.12 280 09:57 21.03.2021
1211 Clouds 32 1008 66 7000 4.12 280 09:38 21.03.2021
1212 Clouds 32 1008 66 7000 4.12 280 09:38 21.03.2021
1213 Clouds 32 1008 66 7000 4.12 280 09:38 21.03.2021
1214 Clouds 32 1008 66 7000 4.12 280 09:38 21.03.2021
1215 Clouds 31 1009 74 7000 3.6 280 09:19 21.03.2021
1216 Clouds 31 1009 74 7000 3.6 280 08:39 21.03.2021
1217 Clouds 31 1010 74 7000 3.6 280 08:20 21.03.2021
1218 Clouds 31 1010 74 7000 3.6 280 07:36 21.03.2021
1219 Clouds 31 1010 70 7000 2.57 290 06:50 21.03.2021
1220 Clouds 29 1009 79 7000 3.6 290 04:58 21.03.2021
1221 Clouds 29 1009 79 7000 3.6 290 04:58 21.03.2021
1222 Clouds 28 1007 83 10000 3.09 270 01:00 21.03.2021
1223 Clouds 28 1007 83 10000 3.09 270 00:39 21.03.2021
1224 Clouds 28 1007 83 10000 3.09 260 00:21 21.03.2021
1225 Clouds 28 1007 83 10000 3.09 260 23:47 20.03.2021
1226 Clouds 28 1008 83 10000 3.09 240 23:20 20.03.2021
1227 Clouds 28 1008 83 10000 3.09 240 22:50 20.03.2021
1228 Clouds 28 1008 83 10000 3.09 250 22:21 20.03.2021
1229 Clouds 28 1008 83 10000 3.09 250 21:45 20.03.2021
1230 Clouds 28 1008 83 10000 3.09 250 21:24 20.03.2021
1231 Clouds 29 1009 79 10000 3.6 240 20:44 20.03.2021
1232 Clouds 29 1010 79 10000 3.09 240 20:22 20.03.2021
1233 Clouds 29 1010 79 10000 3.09 240 19:48 20.03.2021
1234 Clouds 29 1010 79 10000 3.09 240 19:26 20.03.2021
1235 Clouds 29 1010 79 10000 2.57 250 18:49 20.03.2021
1236 Clouds 29 1010 79 10000 2.57 250 18:26 20.03.2021
1237 Clouds 29 1010 79 10000 2.06 270 17:54 20.03.2021
1238 Clouds 29 1010 79 10000 2.06 270 17:32 20.03.2021
1239 Clouds 29 1009 79 10000 2.57 270 16:46 20.03.2021
1240 Clouds 29 1008 79 10000 2.57 280 16:21 20.03.2021
1241 Clouds 29 1008 79 10000 2.57 280 16:21 20.03.2021
1242 Clouds 29 1008 79 10000 2.57 280 15:59 20.03.2021
1243 Clouds 29 1008 79 10000 2.57 280 15:39 20.03.2021
1244 Clouds 30 1007 74 10000 2.06 270 14:48 20.03.2021
1245 Clouds 30 1007 74 10000 2.06 270 14:28 20.03.2021
1246 Clouds 31 1007 70 10000 1.54 290 13:40 20.03.2021
1247 Clouds 31 1007 70 10000 2.06 310 12:59 20.03.2021
1248 Clouds 31 1007 70 10000 2.06 310 12:27 20.03.2021
1249 Clouds 31 1007 70 10000 2.06 310 12:27 20.03.2021
1250 Clouds 31 1007 70 10000 2.06 310 12:27 20.03.2021
1251 Clouds 31 1007 66 8000 2.06 320 11:50 20.03.2021
1252 Rain 31 1007 66 8000 2.06 320 11:29 20.03.2021
1253 Rain 31 1007 70 8000 2.57 330 10:56 20.03.2021
1254 Rain 31 1007 70 8000 2.57 330 10:37 20.03.2021
1255 Clouds 32 1009 70 8000 2.57 340 10:18 20.03.2021
1256 Clouds 32 1009 70 8000 2.57 340 09:29 20.03.2021
1257 Clouds 32 1009 70 8000 2.57 340 08:59 20.03.2021
1258 Clouds 32 1009 70 8000 2.57 340 08:39 20.03.2021
1259 Clouds 31 1010 74 8000 2.57 340 07:54 20.03.2021
1260 Clouds 31 1010 74 8000 2.57 340 07:32 20.03.2021
1261 Clouds 31 1010 74 8000 3.09 350 06:55 20.03.2021
1262 Clouds 31 1010 74 8000 3.09 350 06:27 20.03.2021
1263 Clouds 29 1009 79 8000 2.57 10 04:24 20.03.2021
1264 Clouds 28 1009 83 8000 2.06 10 03:42 20.03.2021
1265 Clouds 28 1008 68 10000 1.88 3 00:36 20.03.2021
1266 Clouds 28 1008 68 10000 1.93 1 23:32 19.03.2021
1267 Clouds 28 1008 68 10000 1.91 6 22:59 19.03.2021
1268 Clouds 28 1008 68 10000 1.91 6 22:38 19.03.2021
1269 Clouds 28 1008 68 10000 1.96 14 22:20 19.03.2021
1270 Clouds 28 1008 68 10000 1.96 14 22:20 19.03.2021
1271 Clouds 29 1011 79 10000 1.54 250 21:23 19.03.2021
1272 Clouds 29 1011 79 10000 1.54 250 21:00 19.03.2021
1273 Clouds 29 1011 79 10000 1.54 250 20:40 19.03.2021
1274 Clouds 28 1010 69 10000 2.57 25 20:22 19.03.2021
1275 Clouds 28 1010 69 10000 2.57 25 19:46 19.03.2021
1276 Clouds 29 1011 79 10000 1.54 200 19:20 19.03.2021
1277 Clouds 29 1011 79 10000 1.54 200 18:42 19.03.2021
1278 Clouds 29 1011 74 10000 1.03 0 18:20 19.03.2021
1279 Clouds 29 1011 74 10000 1.03 0 17:55 19.03.2021
1280 Clouds 29 1011 74 10000 1.03 0 17:33 19.03.2021
1281 Clouds 29 1011 69 10000 3.19 30 16:56 19.03.2021
1282 Clouds 29 1009 79 10000 2.06 10 16:31 19.03.2021
1283 Clouds 29 1009 79 10000 2.06 10 15:58 19.03.2021
1284 Clouds 29 1009 79 10000 2.06 10 15:28 19.03.2021
1285 Clouds 29 1008 84 10000 1.54 290 14:48 19.03.2021
1286 Clouds 29 1008 84 10000 1.54 290 14:28 19.03.2021
1287 Clouds 30 1008 79 10000 1.54 310 13:42 19.03.2021
1288 Clouds 31 1009 74 10000 2.06 320 13:18 19.03.2021
1289 Clouds 31 1009 74 10000 2.06 320 12:38 19.03.2021
1290 Clouds 31 1007 74 10000 2.06 330 11:53 19.03.2021
1291 Clouds 31 1008 74 10000 2.57 330 10:59 19.03.2021
1292 Clouds 31 1008 74 10000 2.57 330 10:40 19.03.2021
1293 Clouds 31 1009 74 10000 2.06 360 10:19 19.03.2021
1294 Clouds 31 1009 74 10000 2.06 360 09:43 19.03.2021
1295 Clouds 30 1009 74 10000 2.06 360 09:22 19.03.2021
1296 Clouds 30 1009 74 10000 2.06 360 08:47 19.03.2021
1297 Clouds 30 1009 74 10000 2.06 360 08:25 19.03.2021
1298 Clouds 31 1010 70 10000 3.09 80 07:43 19.03.2021
1299 Clouds 31 1011 74 10000 1.03 0 06:58 19.03.2021
1300 Clouds 30 1011 70 10000 2.57 140 05:19 19.03.2021
1301 Clouds 28 1009 72 10000 2.6 53 00:58 19.03.2021
1302 Clouds 27 1008 83 10000 1.03 0 23:51 18.03.2021
1303 Clouds 27 1008 83 10000 1.03 0 23:26 18.03.2021
1304 Clouds 28 1009 83 10000 1.03 0 22:44 18.03.2021
1305 Clouds 28 1009 83 10000 1.03 0 22:25 18.03.2021
1306 Clouds 28 1009 89 10000 3.6 160 21:40 18.03.2021
1307 Clouds 29 1010 79 10000 0.51 0 21:21 18.03.2021
1308 Rain 29 1010 79 10000 0.51 0 20:39 18.03.2021
1309 Rain 29 1011 79 10000 2.06 30 20:20 18.03.2021
1310 Rain 29 1011 79 10000 2.06 30 19:42 18.03.2021
1311 Clouds 29 1011 79 10000 2.06 20 19:22 18.03.2021
1312 Clouds 29 1011 79 10000 2.06 20 18:41 18.03.2021
1313 Clouds 30 1010 74 10000 2.57 10 17:54 18.03.2021
1314 Clouds 30 1010 74 10000 2.57 10 17:26 18.03.2021
1315 Clouds 30 1010 74 10000 2.06 10 16:52 18.03.2021
1316 Clouds 30 1010 74 10000 2.06 10 16:32 18.03.2021
1317 Clouds 30 1009 74 10000 2.57 20 15:58 18.03.2021
1318 Clouds 30 1009 74 10000 2.57 20 15:40 18.03.2021
1319 Clouds 30 1008 74 10000 2.57 10 15:18 18.03.2021
1320 Clouds 30 1008 74 10000 2.57 10 14:41 18.03.2021
1321 Clouds 31 1008 70 10000 2.57 330 14:19 18.03.2021
1322 Clouds 31 1008 70 10000 2.57 330 13:37 18.03.2021
1323 Clouds 31 1008 70 10000 2.57 340 13:19 18.03.2021
1324 Clouds 31 1008 70 10000 2.57 340 12:37 18.03.2021
1325 Clouds 31 1008 70 10000 2.57 340 12:37 18.03.2021
1326 Clouds 32 1008 66 10000 2.06 320 12:19 18.03.2021
1327 Clouds 32 1008 66 10000 2.06 320 11:44 18.03.2021
1328 Clouds 31 1008 70 10000 1.54 360 11:20 18.03.2021
1329 Clouds 31 1008 70 10000 1.54 360 10:41 18.03.2021
1330 Clouds 30 1009 74 10000 2.57 330 10:23 18.03.2021
1331 Clouds 30 1009 74 10000 2.57 330 09:45 18.03.2021
1332 Clouds 30 1009 74 10000 2.57 330 09:26 18.03.2021
1333 Clouds 31 1010 70 10000 2.57 330 08:45 18.03.2021
1334 Clouds 31 1010 70 10000 2.57 330 08:23 18.03.2021
1335 Clouds 31 1011 70 10000 2.06 340 07:45 18.03.2021
1336 Clouds 31 1011 70 10000 1.54 80 06:44 18.03.2021
1337 Clouds 31 1011 70 10000 1.54 80 06:25 18.03.2021
1338 Clouds 31 1011 70 10000 2.06 60 05:26 18.03.2021
1339 Clouds 28 1008 83 10000 2.57 100 00:48 18.03.2021
1340 Clouds 28 1008 83 10000 3.09 100 23:37 17.03.2021
1341 Clouds 29 1009 79 10000 3.09 100 22:42 17.03.2021
1342 Clouds 29 1009 79 10000 3.09 100 22:23 17.03.2021
1343 Clouds 29 1009 79 10000 4.12 90 21:51 17.03.2021
1344 Clouds 29 1009 79 10000 4.12 90 21:32 17.03.2021
1345 Clouds 29 1010 79 10000 4.63 90 20:54 17.03.2021
1346 Clouds 29 1010 79 10000 4.63 90 20:54 17.03.2021
1347 Clouds 29 1010 79 10000 4.63 90 20:36 17.03.2021
1348 Clouds 29 1010 79 10000 5.14 90 20:18 17.03.2021
1349 Clouds 29 1010 79 10000 5.14 90 19:40 17.03.2021
1350 Clouds 29 1010 79 10000 5.14 80 19:19 17.03.2021
1351 Clouds 29 1010 79 10000 5.14 80 18:50 17.03.2021
1352 Clouds 29 1010 79 10000 5.14 80 18:32 17.03.2021
1353 Clouds 29 1010 84 10000 4.12 70 17:42 17.03.2021
1354 Clouds 29 1009 79 10000 4.12 70 17:22 17.03.2021
1355 Clouds 29 1009 79 10000 4.12 70 16:43 17.03.2021
1356 Clouds 29 1008 79 10000 4.12 70 16:21 17.03.2021
1357 Clouds 29 1008 79 10000 4.12 70 15:46 17.03.2021
1358 Clouds 29 1008 79 10000 4.12 70 15:28 17.03.2021
1359 Clouds 30 1008 74 10000 4.12 70 14:40 17.03.2021
1360 Clouds 30 1007 74 9000 3.6 70 14:20 17.03.2021
1361 Clouds 30 1007 74 9000 3.6 70 13:55 17.03.2021
1362 Clouds 30 1007 74 9000 3.6 70 13:25 17.03.2021
1363 Clouds 30 1007 74 9000 3.6 70 12:48 17.03.2021
1364 Clouds 30 1007 74 9000 3.6 70 12:27 17.03.2021
1365 Clouds 30 1007 74 9000 3.6 70 11:42 17.03.2021
1366 Clouds 31 1008 70 9000 3.09 70 11:23 17.03.2021
1367 Clouds 31 1008 70 9000 3.09 70 10:53 17.03.2021
1368 Clouds 31 1008 70 9000 3.09 70 10:24 17.03.2021
1369 Clouds 31 1009 66 9000 4.63 80 09:46 17.03.2021
1370 Clouds 31 1009 70 9000 4.12 60 09:20 17.03.2021
1371 Clouds 31 1009 70 9000 4.12 60 08:53 17.03.2021
1372 Clouds 31 1009 70 9000 4.12 60 08:33 17.03.2021
1373 Clouds 31 1010 70 9000 5.14 60 07:46 17.03.2021
1374 Rain 31 1011 70 9000 3.6 40 06:59 17.03.2021
1375 Clouds 31 1011 70 9000 3.6 40 06:36 17.03.2021
1376 Clouds 27 1009 83 10000 3.09 20 04:19 17.03.2021
1377 Clouds 28 1009 63 10000 3.58 24 02:44 17.03.2021
1378 Clouds 28 1008 78 10000 2.06 350 00:39 17.03.2021
1379 Clouds 27 1008 83 10000 2.06 10 23:27 16.03.2021
1380 Clouds 27 1009 89 10000 2.06 10 22:47 16.03.2021
1381 Clouds 27 1009 89 10000 2.06 10 22:28 16.03.2021
1382 Clouds 28 1010 83 10000 2.06 20 21:45 16.03.2021
1383 Clouds 28 1010 83 10000 2.06 20 21:27 16.03.2021
1384 Clouds 28 1011 83 10000 1.03 0 20:58 16.03.2021
1385 Clouds 28 1011 89 10000 2.06 330 20:20 16.03.2021
1386 Clouds 28 1011 89 10000 2.06 330 19:57 16.03.2021
1387 Clouds 28 1011 89 10000 2.06 330 19:39 16.03.2021
1388 Clouds 28 1011 89 9000 2.06 330 19:19 16.03.2021
1389 Clouds 28 1011 89 9000 2.06 330 18:40 16.03.2021
1390 Clouds 27 1011 94 9000 2.06 20 18:21 16.03.2021
1391 Clouds 27 1011 94 9000 2.06 20 17:46 16.03.2021
1392 Clouds 27 1011 94 9000 2.06 20 17:26 16.03.2021
1393 Clouds 29 1010 79 9000 2.57 30 16:51 16.03.2021
1394 Clouds 29 1010 79 9000 2.57 30 16:28 16.03.2021
1395 Clouds 29 1010 84 9000 3.6 20 15:47 16.03.2021
1396 Clouds 30 1009 74 10000 2.57 20 15:21 16.03.2021
1397 Clouds 30 1009 74 10000 2.57 20 14:58 16.03.2021
1398 Clouds 30 1009 74 10000 2.57 20 14:40 16.03.2021
1399 Clouds 30 1008 74 10000 2.57 60 14:20 16.03.2021
1400 Clouds 30 1008 74 10000 2.57 60 13:47 16.03.2021
1401 Clouds 30 1008 74 10000 2.57 60 13:25 16.03.2021
1402 Clouds 30 1007 74 10000 3.09 80 12:51 16.03.2021
1403 Clouds 30 1007 74 10000 3.09 80 12:33 16.03.2021
1404 Clouds 31 1008 74 10000 3.09 80 11:43 16.03.2021
1405 Clouds 31 1010 74 10000 5.3 39 11:22 16.03.2021
1406 Clouds 31 1010 74 10000 5.54 37 10:28 16.03.2021
1407 Clouds 31 1010 74 10000 5.54 37 09:57 16.03.2021
1408 Clouds 31 1010 74 10000 5.54 37 09:37 16.03.2021
1409 Clouds 31 1011 74 10000 3.6 80 09:18 16.03.2021
1410 Clouds 31 1011 74 10000 3.6 80 08:45 16.03.2021
1411 Clouds 31 1011 74 10000 3.6 80 08:26 16.03.2021
1412 Clouds 30 1011 79 10000 2.57 90 07:36 16.03.2021
1413 Clouds 29 1012 84 10000 2.57 110 06:40 16.03.2021
1414 Clouds 29 1012 79 10000 1.54 80 05:59 16.03.2021
1415 Clouds 29 1012 79 10000 1.54 80 05:34 16.03.2021
1416 Clouds 26 1009 94 7000 1.03 0 02:45 16.03.2021
1417 Clouds 26 1009 94 7000 1.03 0 02:24 16.03.2021
1418 Clouds 25 1009 94 4000 5.14 70 23:59 15.03.2021
1419 Clouds 25 1009 94 4000 5.14 70 23:29 15.03.2021
1420 Clouds 28 1008 73 10000 4.47 67 22:55 15.03.2021
1421 Clouds 27 1010 89 10000 2.57 120 22:36 15.03.2021
1422 Clouds 27 1010 89 10000 2.57 120 21:58 15.03.2021
1423 Rain 27 1010 89 10000 2.57 120 21:38 15.03.2021
1424 Rain 27 1011 89 10000 2.57 70 21:20 15.03.2021
1425 Clouds 27 1011 89 10000 2.57 70 20:43 15.03.2021
1426 Clouds 27 1011 89 10000 2.57 70 20:43 15.03.2021
1427 Clouds 27 1011 89 10000 2.57 70 20:24 15.03.2021
1428 Clouds 28 1010 73 10000 5.21 58 19:53 15.03.2021
1429 Clouds 28 1011 83 10000 3.09 70 19:34 15.03.2021
1430 Clouds 28 1011 83 10000 3.09 70 18:57 15.03.2021
1431 Clouds 28 1011 83 10000 3.09 70 18:33 15.03.2021
1432 Clouds 27 1010 89 7000 4.12 160 17:56 15.03.2021
1433 Clouds 27 1010 89 7000 4.12 160 17:38 15.03.2021
1434 Rain 28 1009 83 10000 3.09 80 17:19 15.03.2021
1435 Rain 28 1009 83 10000 3.09 80 16:41 15.03.2021
1436 Clouds 27 1009 83 10000 5.14 60 15:48 15.03.2021
1437 Clouds 27 1009 83 10000 5.14 60 15:27 15.03.2021
1438 Clouds 30 1008 74 10000 5.14 80 14:46 15.03.2021
1439 Clouds 30 1008 74 10000 5.14 80 14:28 15.03.2021
1440 Clouds 31 1007 70 10000 4.63 90 13:58 15.03.2021
1441 Clouds 31 1007 70 10000 4.63 90 13:35 15.03.2021
1442 Clouds 31 1007 74 10000 5.14 90 12:51 15.03.2021
1443 Clouds 31 1007 74 10000 5.14 80 12:20 15.03.2021
1444 Clouds 31 1007 74 10000 5.14 80 11:59 15.03.2021
1445 Clouds 31 1007 74 10000 5.14 80 11:40 15.03.2021
1446 Clouds 31 1008 74 10000 3.6 80 11:21 15.03.2021
1447 Clouds 31 1008 74 10000 3.6 80 10:39 15.03.2021
1448 Clouds 31 1009 74 10000 3.6 90 10:21 15.03.2021
1449 Clouds 31 1009 74 10000 3.6 90 09:40 15.03.2021
1450 Clouds 32 1010 70 10000 4.12 90 09:21 15.03.2021
1451 Clouds 32 1010 70 10000 4.12 90 08:45 15.03.2021
1452 Clouds 32 1011 70 10000 5.66 90 08:22 15.03.2021
1453 Clouds 32 1011 70 10000 5.66 90 07:34 15.03.2021
1454 Clouds 31 1011 74 10000 4.63 100 06:52 15.03.2021
1455 Clouds 30 1011 74 10000 5.14 100 05:36 15.03.2021
1456 Clouds 27 1008 89 10000 3.6 130 03:20 15.03.2021
1457 Clouds 26 1008 94 10000 2.06 150 00:27 15.03.2021
1458 Clouds 26 1008 94 10000 2.06 150 23:24 14.03.2021
1459 Clouds 28 1008 89 10000 2.06 180 22:49 14.03.2021
1460 Clouds 28 1008 89 10000 2.06 180 22:28 14.03.2021
1461 Clouds 28 1009 89 10000 2.06 150 21:53 14.03.2021
1462 Rain 28 1009 89 10000 2.06 150 21:24 14.03.2021
1463 Rain 28 1010 89 10000 3.6 150 20:52 14.03.2021
1464 Rain 28 1010 89 10000 3.6 150 20:52 14.03.2021
1465 Rain 28 1010 89 10000 3.6 150 20:31 14.03.2021
1466 Rain 27 1010 94 10000 4.63 150 19:59 14.03.2021
1467 Rain 27 1010 94 10000 4.63 150 19:59 14.03.2021
1468 Rain 27 1010 94 10000 4.63 150 19:41 14.03.2021
1469 Rain 29 1011 70 10000 3.34 80 19:18 14.03.2021
1470 Rain 29 1011 70 10000 3.34 80 19:18 14.03.2021
1471 Rain 29 1010 84 10000 4.12 90 18:37 14.03.2021
1472 Clouds 29 1010 84 10000 4.12 90 17:54 14.03.2021
1473 Clouds 29 1010 84 10000 4.12 90 17:36 14.03.2021
1474 Clouds 29 1009 79 10000 4.63 70 17:18 14.03.2021
1475 Clouds 29 1009 79 10000 4.63 70 16:40 14.03.2021
1476 Clouds 29 1009 79 10000 4.12 80 16:20 14.03.2021
1477 Clouds 29 1009 79 10000 4.12 80 15:45 14.03.2021
1478 Clouds 29 1008 79 10000 4.12 80 14:52 14.03.2021
1479 Clouds 29 1008 79 10000 4.12 80 14:31 14.03.2021
1480 Clouds 29 1008 84 10000 4.63 110 13:55 14.03.2021
1481 Clouds 29 1008 84 10000 4.63 110 13:36 14.03.2021
1482 Clouds 27 1009 78 10000 6.88 121 12:59 14.03.2021
1483 Clouds 27 1009 78 10000 6.88 121 12:41 14.03.2021
1484 Rain 30 1008 74 10000 5.66 110 12:22 14.03.2021
1485 Clouds 30 1008 74 10000 5.66 110 11:39 14.03.2021
1486 Clouds 32 1009 66 10000 5.14 90 11:19 14.03.2021
1487 Clouds 32 1009 66 10000 5.14 90 10:38 14.03.2021
1488 Clouds 32 1010 66 10000 5.14 110 10:20 14.03.2021
1489 Clouds 32 1010 66 10000 5.14 110 09:57 14.03.2021
1490 Clouds 32 1010 66 10000 5.14 110 09:39 14.03.2021
1491 Clouds 32 1010 66 10000 5.66 90 09:20 14.03.2021
1492 Clouds 32 1010 66 10000 5.66 90 08:37 14.03.2021
1493 Clouds 31 1011 74 10000 5.66 90 07:58 14.03.2021
1494 Clouds 31 1011 74 10000 5.66 90 07:28 14.03.2021
1495 Clouds 30 1011 79 10000 6.69 90 05:38 14.03.2021
1496 Clouds 27 1009 94 9000 2.57 40 01:29 14.03.2021
1497 Clouds 28 1009 83 9000 2.57 20 00:42 14.03.2021
1498 Clouds 29 1009 79 10000 5.66 80 00:18 14.03.2021
1499 Clouds 29 1009 79 10000 5.66 80 23:40 13.03.2021
1500 Clouds 28 1009 78 10000 6.27 52 23:19 13.03.2021
1501 Clouds 28 1009 78 10000 6.27 52 22:46 13.03.2021
1502 Clouds 28 1010 83 10000 7.2 80 22:21 13.03.2021
1503 Clouds 28 1010 83 10000 7.2 80 21:35 13.03.2021
1504 Clouds 28 1010 78 10000 7.1 57 20:59 13.03.2021
1505 Clouds 28 1010 78 10000 7.1 57 20:41 13.03.2021
1506 Clouds 29 1011 79 10000 6.17 100 20:23 13.03.2021
1507 Clouds 29 1011 79 10000 6.17 100 19:44 13.03.2021
1508 Clouds 29 1011 79 10000 6.17 100 19:24 13.03.2021
1509 Clouds 29 1011 79 10000 5.66 90 18:42 13.03.2021
1510 Clouds 29 1011 79 10000 6.17 90 18:20 13.03.2021
1511 Clouds 29 1011 79 10000 6.17 90 17:51 13.03.2021
1512 Clouds 29 1011 79 10000 6.17 90 17:31 13.03.2021
1513 Clouds 29 1011 84 10000 5.66 80 16:53 13.03.2021
1514 Clouds 29 1011 84 10000 5.66 80 16:35 13.03.2021
1515 Clouds 30 1010 74 10000 3.6 80 15:56 13.03.2021
1516 Clouds 30 1010 74 10000 5.66 100 15:19 13.03.2021
1517 Clouds 30 1010 74 10000 5.66 100 14:41 13.03.2021
1518 Clouds 31 1009 70 10000 4.63 100 14:21 13.03.2021
1519 Clouds 31 1009 70 10000 4.63 100 13:28 13.03.2021
1520 Clouds 32 1009 70 10000 5.14 110 12:53 13.03.2021
1521 Clouds 32 1009 70 10000 5.14 110 12:35 13.03.2021
1522 Clouds 31 1009 74 10000 3.6 110 11:57 13.03.2021
1523 Clouds 31 1009 74 10000 3.6 110 11:38 13.03.2021
1524 Clouds 31 1009 74 10000 3.6 110 11:19 13.03.2021
1525 Clouds 31 1009 74 10000 3.6 110 10:31 13.03.2021
1526 Clouds 32 1011 70 10000 6.17 110 09:59 13.03.2021
1527 Clouds 32 1011 70 10000 6.17 110 09:33 13.03.2021
1528 Clouds 32 1012 66 10000 4.63 110 08:54 13.03.2021
1529 Clouds 32 1012 66 10000 4.63 110 08:54 13.03.2021
1530 Clouds 32 1012 66 10000 6.17 110 08:21 13.03.2021
1531 Clouds 32 1012 66 10000 6.17 110 07:57 13.03.2021
1532 Clouds 32 1012 66 10000 6.17 110 07:33 13.03.2021
1533 Clouds 31 1013 70 10000 6.17 110 05:30 13.03.2021
1534 Clouds 28 1010 83 10000 5.66 120 02:20 13.03.2021
1535 Clouds 28 1010 78 10000 6.17 110 00:33 13.03.2021
1536 Clouds 28 1010 78 10000 6.69 110 23:46 12.03.2021
1537 Clouds 28 1010 78 10000 6.69 110 23:26 12.03.2021
1538 Clouds 28 1010 83 10000 5.66 110 22:32 12.03.2021
1539 Clouds 28 1011 83 10000 5.66 100 21:58 12.03.2021
1540 Clouds 28 1011 83 10000 5.66 100 21:38 12.03.2021
1541 Clouds 28 1012 83 10000 6.69 90 21:19 12.03.2021
1542 Clouds 28 1012 83 10000 6.69 90 20:48 12.03.2021
1543 Clouds 28 1012 83 10000 6.69 90 20:24 12.03.2021
1544 Clouds 28 1013 78 10000 6.17 90 19:45 12.03.2021
1545 Clouds 28 1013 78 10000 6.17 90 19:27 12.03.2021
1546 Clouds 29 1013 74 10000 7.2 100 18:53 12.03.2021
1547 Clouds 29 1013 74 10000 7.2 100 18:29 12.03.2021
1548 Clouds 29 1013 79 10000 5.66 110 17:45 12.03.2021
1549 Clouds 29 1013 79 10000 5.66 110 17:27 12.03.2021
1550 Clouds 29 1012 79 10000 7.2 80 16:49 12.03.2021
1551 Clouds 29 1012 79 10000 7.2 80 16:28 12.03.2021
1552 Rain 29 1011 79 10000 4.12 80 15:40 12.03.2021
1553 Clouds 29 1010 74 10000 5.14 80 15:18 12.03.2021
1554 Clouds 29 1010 74 10000 5.14 80 14:40 12.03.2021
1555 Clouds 29 1010 74 10000 6.69 70 14:18 12.03.2021
1556 Clouds 29 1010 74 10000 6.69 70 13:40 12.03.2021
1557 Clouds 31 1010 70 10000 5.14 70 13:19 12.03.2021
1558 Clouds 31 1010 70 10000 5.14 70 12:49 12.03.2021
1559 Clouds 31 1010 70 10000 5.14 70 12:28 12.03.2021
1560 Clouds 30 1010 79 10000 4.63 70 11:54 12.03.2021
1561 Clouds 30 1010 79 10000 4.63 70 11:25 12.03.2021
1562 Clouds 31 1010 70 10000 5.14 70 10:57 12.03.2021
1563 Clouds 31 1010 70 10000 5.14 70 10:28 12.03.2021
1564 Clouds 32 1011 66 10000 5.66 90 09:58 12.03.2021
1565 Clouds 32 1011 66 10000 5.66 90 09:28 12.03.2021
1566 Clouds 32 1012 66 10000 5.14 100 08:51 12.03.2021
1567 Clouds 32 1012 66 10000 5.14 100 08:33 12.03.2021
1568 Clouds 31 1013 70 10000 3.6 100 07:41 12.03.2021
1569 Clouds 31 1013 70 10000 6.17 100 07:18 12.03.2021
1570 Clouds 31 1013 70 10000 6.17 100 06:39 12.03.2021
1571 Clouds 28 1011 78 10000 4.63 100 03:29 12.03.2021
1572 Clouds 28 1009 78 10000 5.66 100 00:52 12.03.2021
1573 Clouds 27 1009 83 10000 6.17 90 23:40 11.03.2021
1574 Clouds 27 1009 89 10000 5.66 60 22:58 11.03.2021
1575 Clouds 27 1009 89 10000 5.66 60 22:36 11.03.2021
1576 Clouds 27 1010 83 9000 7.2 60 21:59 11.03.2021
1577 Clouds 27 1010 83 9000 7.2 60 21:41 11.03.2021
1578 Clouds 27 1011 83 10000 7.72 70 21:20 11.03.2021
1579 Clouds 27 1011 83 10000 7.72 70 20:48 11.03.2021
1580 Clouds 27 1012 83 10000 7.2 60 20:21 11.03.2021
1581 Clouds 27 1012 83 10000 7.2 60 19:47 11.03.2021
1582 Clouds 27 1012 83 10000 7.2 60 19:29 11.03.2021
1583 Clouds 27 1013 83 10000 6.17 50 18:49 11.03.2021
1584 Clouds 27 1013 83 10000 6.17 50 18:31 11.03.2021
1585 Clouds 25 1013 88 10000 3.09 20 17:45 11.03.2021
1586 Clouds 25 1013 88 10000 3.09 20 17:27 11.03.2021
1587 Clouds 26 1013 83 10000 2.06 20 16:31 11.03.2021
1588 Clouds 26 1012 83 10000 2.06 290 15:50 11.03.2021
1589 Rain 26 1011 83 10000 2.57 250 15:31 11.03.2021
1590 Clouds 26 1011 83 10000 2.57 250 14:57 11.03.2021
1591 Rain 26 1011 83 10000 2.57 250 14:37 11.03.2021
1592 Clouds 28 1011 70 10000 3.31 4 14:18 11.03.2021
1593 Rain 28 1011 70 10000 3.31 4 13:42 11.03.2021
1594 Rain 25 1011 88 7000 3.6 180 13:20 11.03.2021
1595 Rain 25 1011 88 7000 3.6 180 12:44 11.03.2021
1596 Clouds 25 1011 88 7000 3.6 180 12:26 11.03.2021
1597 Rain 24 1011 94 6000 3.09 160 11:45 11.03.2021
1598 Rain 24 1011 94 6000 3.09 160 11:27 11.03.2021
1599 Rain 27 1009 73 10000 2.83 56 10:44 11.03.2021
1600 Rain 28 1010 72 10000 2.81 64 10:21 11.03.2021
1601 Clouds 28 1010 72 10000 2.81 64 09:45 11.03.2021
1602 Rain 28 1011 70 10000 1.53 84 09:24 11.03.2021
1603 Clouds 28 1011 70 10000 1.53 84 08:47 11.03.2021
1604 Clouds 28 1014 78 10000 4.63 350 08:20 11.03.2021
1605 Clouds 28 1014 78 10000 4.63 350 07:34 11.03.2021
1606 Clouds 31 1013 66 10000 3.09 170 06:50 11.03.2021
1607 Clouds 31 1013 66 10000 3.09 170 06:50 11.03.2021
1608 Clouds 31 1013 66 10000 3.09 170 06:31 11.03.2021
1609 -273 0 0 0 0 0 04:47 11.03.2021
1610 -273 0 0 0 0 0 01:39 11.03.2021
1611 -273 0 0 0 0 0 23:53 10.03.2021
1612 Clouds 27 1010 89 9000 4.12 90 23:51 10.03.2021
1613 Clouds 27 1010 83 9000 3.6 60 23:21 10.03.2021
1614 Clouds 27 1010 83 9000 3.6 60 22:39 10.03.2021
1615 Clouds 27 1011 89 9000 3.6 70 21:47 10.03.2021
1616 Clouds 27 1011 89 9000 3.6 70 21:27 10.03.2021
1617 Clouds 27 1012 83 9000 2.06 50 20:58 10.03.2021
1618 Clouds 27 1012 83 9000 2.06 50 20:39 10.03.2021
1619 Clouds 27 1013 89 9000 1.54 50 20:20 10.03.2021
1620 Clouds 27 1013 89 9000 1.54 50 19:40 10.03.2021
1621 Clouds 28 1013 76 10000 2.65 91 19:20 10.03.2021
1622 Clouds 27 1013 83 9000 2.57 50 18:38 10.03.2021
1623 Clouds 27 1013 83 9000 2.57 50 18:19 10.03.2021
1624 Clouds 27 1013 83 9000 2.57 50 17:42 10.03.2021
1625 Clouds 27 1012 83 9000 2.57 10 17:20 10.03.2021
1626 Clouds 27 1012 83 9000 2.57 10 16:53 10.03.2021
1627 Clouds 27 1012 83 9000 2.57 10 16:30 10.03.2021
1628 Clouds 26 1011 89 9000 2.57 350 15:59 10.03.2021
1629 Clouds 26 1011 89 9000 2.57 350 15:38 10.03.2021
1630 Clouds 27 1011 83 9000 4.12 320 15:20 10.03.2021
1631 Clouds 27 1011 83 9000 4.12 320 14:38 10.03.2021
1632 Clouds 27 1010 94 9000 2.06 290 14:19 10.03.2021
1633 Clouds 27 1010 94 9000 2.06 290 13:35 10.03.2021
1634 Clouds 27 1009 94 9000 3.6 170 12:53 10.03.2021
1635 Clouds 27 1009 94 9000 3.6 170 12:32 10.03.2021
1636 Clouds 26 1009 94 9000 5.66 180 11:58 10.03.2021
1637 Clouds 26 1009 94 9000 5.66 180 11:30 10.03.2021
1638 Rain 28 1009 67 10000 2.13 163 10:56 10.03.2021
1639 Rain 31 1011 74 10000 6.69 150 10:34 10.03.2021
1640 Clouds 31 1011 74 10000 6.69 150 09:57 10.03.2021
1641 Clouds 31 1011 74 10000 6.69 150 09:39 10.03.2021
1642 Clouds 29 1012 84 9000 6.69 150 09:19 10.03.2021
1643 Clouds 29 1012 84 9000 6.69 150 08:45 10.03.2021
1644 Clouds 29 1012 84 9000 6.69 150 08:27 10.03.2021
1645 Clouds 30 1012 79 10000 3.09 120 07:46 10.03.2021
1646 Clouds 30 1012 79 10000 3.09 120 07:25 10.03.2021
1647 Clouds 31 1013 79 10000 3.6 140 06:52 10.03.2021
1648 Clouds 26 1010 94 10000 3.09 140 02:45 10.03.2021
1649 Rain 27 1010 89 10000 5.66 200 00:39 10.03.2021
1650 Clouds 28 1010 83 10000 1.03 0 23:47 09.03.2021
1651 Clouds 29 1010 79 10000 4.63 80 22:58 09.03.2021
1652 Clouds 29 1010 79 10000 4.63 80 22:38 09.03.2021
1653 Clouds 29 1011 79 10000 5.66 90 22:18 09.03.2021
1654 Clouds 29 1011 79 10000 5.66 90 21:42 09.03.2021
1655 Clouds 29 1012 79 10000 6.17 90 21:22 09.03.2021
1656 Clouds 29 1012 79 10000 6.17 90 20:56 09.03.2021
1657 Clouds 29 1012 79 10000 6.17 90 20:37 09.03.2021
1658 Clouds 29 1012 84 10000 6.69 90 20:18 09.03.2021
1659 Clouds 29 1012 84 10000 6.69 90 19:43 09.03.2021
1660 Clouds 29 1012 84 10000 6.69 90 19:24 09.03.2021
1661 Clouds 29 1012 84 10000 6.17 90 18:42 09.03.2021
1662 Clouds 29 1012 84 10000 6.17 70 18:19 09.03.2021
1663 Clouds 29 1012 84 10000 6.17 70 17:46 09.03.2021
1664 Clouds 29 1012 84 10000 6.17 70 17:26 09.03.2021
1665 Clouds 29 1011 79 10000 6.69 80 16:41 09.03.2021
1666 Clouds 29 1010 84 10000 7.2 70 16:21 09.03.2021
1667 Clouds 29 1010 84 10000 7.2 70 15:56 09.03.2021
1668 Clouds 29 1010 84 10000 7.2 70 15:28 09.03.2021
1669 Clouds 29 1010 84 10000 5.14 70 14:52 09.03.2021
1670 Clouds 29 1010 84 10000 5.14 70 14:26 09.03.2021
1671 Rain 31 1009 79 10000 4.63 70 13:43 09.03.2021
1672 Rain 31 1009 74 10000 5.66 80 13:21 09.03.2021
1673 Clouds 31 1009 74 10000 5.66 80 12:54 09.03.2021
1674 Clouds 31 1009 74 10000 5.66 80 12:54 09.03.2021
1675 Clouds 31 1009 74 10000 5.66 80 12:36 09.03.2021
1676 Clouds 31 1009 74 10000 6.69 90 11:45 09.03.2021
1677 Clouds 30 1009 79 10000 5.66 90 11:22 09.03.2021
1678 Clouds 30 1009 79 10000 5.66 90 10:59 09.03.2021
1679 Clouds 30 1009 79 10000 5.66 90 10:39 09.03.2021
1680 Clouds 31 1010 74 10000 4.63 90 10:21 09.03.2021
1681 Clouds 31 1010 74 10000 4.63 90 09:47 09.03.2021
1682 Rain 31 1010 74 10000 4.63 90 09:27 09.03.2021
1683 Rain 31 1012 74 10000 3.09 140 08:57 09.03.2021
1684 Rain 31 1012 74 10000 3.09 140 08:33 09.03.2021
1685 Clouds 31 1012 74 10000 4.12 200 07:47 09.03.2021
1686 Clouds 31 1012 74 10000 4.12 200 07:27 09.03.2021
1687 Clouds 29 1013 79 10000 4.63 200 06:59 09.03.2021
1688 Clouds 29 1013 84 10000 7.2 210 05:53 09.03.2021
1689 Clouds 26 1009 89 8000 0.51 0 01:43 09.03.2021
1690 Clouds 28 1009 83 10000 3.6 80 23:58 08.03.2021
1691 Clouds 28 1009 83 10000 3.6 80 23:39 08.03.2021
1692 Rain 29 1009 79 10000 4.63 40 23:19 08.03.2021
1693 Clouds 29 1009 79 10000 4.63 40 22:40 08.03.2021
1694 Clouds 29 1009 79 10000 4.63 40 22:40 08.03.2021
1695 Clouds 29 1010 84 10000 4.63 40 22:21 08.03.2021
1696 Clouds 29 1010 84 10000 4.63 40 21:50 08.03.2021
1697 Clouds 29 1010 84 10000 4.63 40 21:50 08.03.2021
1698 Clouds 29 1010 84 10000 4.63 40 21:29 08.03.2021
1699 Clouds 28 1010 75 10000 4.4 29 20:43 08.03.2021
1700 Clouds 29 1012 79 10000 4.12 40 20:22 08.03.2021
1701 Clouds 29 1012 79 10000 4.12 40 19:53 08.03.2021
1702 Clouds 29 1012 79 10000 4.12 40 19:27 08.03.2021
1703 Clouds 29 1011 79 10000 5.14 50 18:38 08.03.2021
1704 Clouds 29 1011 74 10000 4.63 50 18:19 08.03.2021
1705 Clouds 29 1011 74 10000 4.63 50 17:46 08.03.2021
1706 Clouds 29 1011 74 10000 4.63 50 17:24 08.03.2021
1707 Clouds 29 1010 74 10000 4.12 50 16:44 08.03.2021
1708 Clouds 29 1010 74 10000 4.12 50 16:25 08.03.2021
1709 Clouds 29 1009 74 10000 3.6 50 15:47 08.03.2021
1710 Clouds 29 1009 74 10000 3.6 50 15:24 08.03.2021
1711 Clouds 30 1008 74 10000 4.63 50 14:22 08.03.2021
1712 Clouds 30 1008 74 10000 4.63 50 13:58 08.03.2021
1713 Clouds 30 1008 74 10000 4.63 50 13:24 08.03.2021
1714 Clouds 30 1008 74 10000 3.09 50 12:59 08.03.2021
1715 Clouds 30 1008 74 10000 3.09 50 12:40 08.03.2021
1716 Clouds 31 1009 70 10000 3.6 360 12:20 08.03.2021
1717 Clouds 31 1009 70 10000 3.6 360 11:35 08.03.2021
1718 Clouds 31 1009 70 10000 3.6 50 10:58 08.03.2021
1719 Clouds 31 1009 70 10000 3.6 50 10:40 08.03.2021
1720 Clouds 30 1010 74 10000 2.06 360 10:19 08.03.2021
1721 Clouds 30 1010 74 10000 2.06 360 09:30 08.03.2021
1722 Clouds 31 1011 74 10000 2.57 360 08:54 08.03.2021
1723 Clouds 31 1011 74 10000 2.57 360 08:27 08.03.2021
1724 Clouds 31 1012 74 9000 2.57 360 07:23 08.03.2021
1725 Clouds 31 1012 74 9000 2.57 360 06:38 08.03.2021
1726 Clouds 28 1010 83 10000 2.06 10 02:59 08.03.2021
1727 Clouds 28 1009 83 10000 2.06 20 00:43 08.03.2021
1728 Clouds 28 1009 83 9000 2.06 20 23:54 07.03.2021
1729 Clouds 28 1009 83 9000 2.06 20 23:28 07.03.2021
1730 Clouds 28 1010 83 9000 1.54 20 22:59 07.03.2021
1731 Clouds 28 1010 83 9000 1.54 20 22:40 07.03.2021
1732 Clouds 28 1010 78 8000 1.54 30 22:20 07.03.2021
1733 Clouds 28 1010 78 8000 1.54 30 21:42 07.03.2021
1734 Clouds 28 1010 78 8000 1.54 30 21:23 07.03.2021
1735 Clouds 29 1011 74 8000 2.57 30 20:43 07.03.2021
1736 Clouds 29 1011 74 8000 2.57 30 20:24 07.03.2021
1737 Clouds 29 1012 74 8000 3.09 30 19:56 07.03.2021
1738 Clouds 29 1012 74 8000 3.09 30 19:37 07.03.2021
1739 Clouds 29 1012 74 8000 4.12 30 19:19 07.03.2021
1740 Clouds 29 1012 74 8000 4.12 30 18:40 07.03.2021
1741 Clouds 29 1012 79 8000 3.6 30 18:19 07.03.2021
1742 Clouds 29 1012 79 8000 3.6 30 17:39 07.03.2021
1743 Clouds 29 1011 79 8000 4.12 30 17:20 07.03.2021
1744 Clouds 29 1011 79 8000 4.12 30 16:54 07.03.2021
1745 Clouds 29 1011 79 8000 4.12 30 16:36 07.03.2021
1746 Clouds 29 1011 79 8000 4.12 30 16:36 07.03.2021
1747 Clouds 29 1010 79 8000 4.63 30 16:18 07.03.2021
1748 Clouds 29 1010 79 8000 4.63 30 15:41 07.03.2021
1749 Clouds 30 1009 74 8000 4.12 60 15:20 07.03.2021
1750 Clouds 30 1009 74 8000 4.12 60 14:30 07.03.2021
1751 Clouds 30 1009 74 8000 4.12 60 14:30 07.03.2021
1752 Clouds 30 1009 74 8000 4.63 60 13:59 07.03.2021
1753 Clouds 30 1009 74 8000 4.63 60 13:39 07.03.2021
1754 Clouds 31 1009 70 8000 5.14 60 13:18 07.03.2021
1755 Clouds 31 1009 70 8000 5.14 60 12:43 07.03.2021
1756 Clouds 31 1009 70 8000 5.14 60 12:24 07.03.2021
1757 Clouds 32 1009 66 7000 5.66 60 11:25 07.03.2021
1758 Clouds 32 1009 62 7000 5.66 70 10:59 07.03.2021
1759 Clouds 32 1009 62 7000 5.66 70 10:38 07.03.2021
1760 Clouds 32 1010 66 7000 5.66 70 09:59 07.03.2021
1761 Clouds 32 1010 66 7000 5.66 70 09:39 07.03.2021
1762 Clouds 32 1011 66 7000 5.66 70 09:20 07.03.2021
1763 Clouds 32 1011 66 7000 5.66 70 08:45 07.03.2021
1764 Clouds 31 1012 66 7000 5.14 60 08:22 07.03.2021
1765 Clouds 31 1012 66 7000 5.14 60 07:23 07.03.2021
1766 Clouds 27 1011 83 10000 3.6 70 02:40 07.03.2021
1767 Clouds 28 1010 78 10000 4.63 70 00:36 07.03.2021
1768 Clouds 28 1010 78 10000 4.63 60 23:41 06.03.2021
1769 Clouds 28 1010 78 10000 4.63 70 23:22 06.03.2021
1770 Clouds 28 1010 78 10000 4.63 70 22:47 06.03.2021
1771 Clouds 28 1010 78 10000 4.63 70 22:25 06.03.2021
1772 Clouds 28 1011 83 10000 4.63 70 21:52 06.03.2021
1773 Clouds 28 1012 83 10000 4.12 60 21:21 06.03.2021
1774 Clouds 28 1012 83 10000 4.12 60 20:48 06.03.2021
1775 Clouds 28 1012 83 10000 4.12 60 20:26 06.03.2021
1776 Clouds 29 1013 74 10000 5.14 70 19:41 06.03.2021
1777 Clouds 29 1013 74 10000 4.63 70 19:19 06.03.2021
1778 Clouds 29 1013 74 10000 4.63 70 18:45 06.03.2021
1779 Clouds 29 1013 74 10000 4.12 60 18:23 06.03.2021
1780 Clouds 29 1013 74 10000 4.12 60 17:55 06.03.2021
1781 Clouds 29 1013 74 10000 4.12 60 17:37 06.03.2021
1782 Clouds 29 1012 74 10000 4.63 60 17:18 06.03.2021
1783 Clouds 29 1012 74 10000 4.63 60 16:39 06.03.2021
1784 Clouds 29 1011 74 10000 3.6 70 16:20 06.03.2021
1785 Clouds 29 1011 74 10000 3.6 70 15:41 06.03.2021
1786 Clouds 30 1010 74 10000 4.12 70 15:23 06.03.2021
1787 Clouds 30 1010 74 10000 4.12 70 14:33 06.03.2021
1788 Clouds 31 1010 70 10000 2.57 70 13:57 06.03.2021
1789 Clouds 31 1010 70 10000 2.57 70 13:39 06.03.2021
1790 Clouds 31 1010 70 10000 3.6 60 13:19 06.03.2021
1791 Clouds 31 1010 70 10000 3.6 60 12:44 06.03.2021
1792 Clouds 32 1010 66 10000 4.63 70 12:19 06.03.2021
1793 Clouds 32 1010 66 10000 4.63 70 11:48 06.03.2021
1794 Clouds 32 1011 66 9000 5.66 60 11:21 06.03.2021
1795 Clouds 32 1011 66 9000 5.66 60 10:48 06.03.2021
1796 Clouds 32 1011 70 9000 5.66 70 10:18 06.03.2021
1797 Clouds 32 1011 70 9000 5.66 70 09:41 06.03.2021
1798 Clouds 32 1012 70 9000 5.66 80 09:19 06.03.2021
1799 Clouds 32 1012 70 9000 5.66 80 08:36 06.03.2021
1800 Clouds 32 1013 66 9000 5.14 60 07:57 06.03.2021
1801 Clouds 32 1013 66 9000 5.14 60 07:23 06.03.2021
1802 Clouds 31 1013 74 9000 4.63 70 06:55 06.03.2021
1803 Clouds 31 1013 74 9000 4.12 80 05:34 06.03.2021
1804 Clouds 28 1011 83 10000 4.12 80 02:38 06.03.2021
1805 Clouds 28 1011 83 10000 4.63 90 00:47 06.03.2021
1806 Clouds 28 1011 83 10000 5.14 90 23:53 05.03.2021
1807 Clouds 28 1011 83 10000 5.14 90 23:29 05.03.2021
1808 Clouds 28 1011 83 10000 4.63 90 22:46 05.03.2021
1809 Clouds 28 1011 83 10000 4.63 90 22:23 05.03.2021
1810 Clouds 28 1012 83 10000 5.14 90 21:54 05.03.2021
1811 Clouds 28 1012 83 10000 5.14 90 21:34 05.03.2021
1812 Clouds 28 1012 83 10000 5.14 90 20:55 05.03.2021
1813 Clouds 28 1012 83 10000 5.14 90 20:37 05.03.2021
1814 Clouds 29 1013 79 10000 5.66 90 20:19 05.03.2021
1815 Clouds 29 1013 79 10000 5.66 90 19:36 05.03.2021
1816 Clouds 29 1013 79 10000 5.14 90 19:18 05.03.2021
1817 Clouds 29 1013 79 10000 5.14 90 18:42 05.03.2021
1818 Clouds 29 1013 79 10000 5.14 90 18:42 05.03.2021
1819 Clouds 29 1012 79 10000 5.66 90 18:23 05.03.2021
1820 Clouds 29 1012 79 10000 5.66 90 17:37 05.03.2021
1821 Clouds 29 1012 79 10000 5.66 90 17:37 05.03.2021
1822 Clouds 29 1011 79 10000 5.66 90 16:58 05.03.2021
1823 Clouds 29 1011 79 10000 5.66 90 16:38 05.03.2021
1824 Clouds 29 1011 79 10000 5.14 90 16:20 05.03.2021
1825 Clouds 29 1011 79 10000 5.14 90 15:46 05.03.2021
1826 Clouds 29 1011 79 10000 5.14 90 15:23 05.03.2021
1827 Clouds 30 1010 74 10000 6.17 90 14:39 05.03.2021
1828 Clouds 31 1009 70 10000 5.66 90 13:59 05.03.2021
1829 Clouds 31 1009 70 10000 6.17 90 13:22 05.03.2021
1830 Clouds 31 1009 70 10000 6.17 90 12:56 05.03.2021
1831 Clouds 31 1009 70 10000 6.17 100 12:23 05.03.2021
1832 Clouds 31 1009 70 10000 6.17 100 11:37 05.03.2021
1833 Clouds 31 1010 70 10000 5.14 100 11:18 05.03.2021
1834 Clouds 31 1010 70 10000 5.14 100 10:41 05.03.2021
1835 Clouds 32 1011 66 10000 6.17 100 10:23 05.03.2021
1836 Clouds 32 1011 66 10000 6.17 100 09:49 05.03.2021
1837 Clouds 32 1011 66 10000 6.17 100 09:27 05.03.2021
1838 Clouds 32 1012 66 9000 5.66 100 08:45 05.03.2021
1839 Clouds 32 1012 66 9000 5.66 100 08:26 05.03.2021
1840 Clouds 32 1012 62 9000 5.66 100 07:44 05.03.2021
1841 Clouds 32 1012 62 9000 5.66 100 07:24 05.03.2021
1842 Clear 31 1013 66 9000 5.66 100 06:32 05.03.2021
1843 Clouds 29 1011 74 8000 4.63 110 03:34 05.03.2021
1844 Clouds 28 1010 78 8000 6.17 110 00:49 05.03.2021
1845 Clouds 28 1010 74 8000 6.69 110 23:37 04.03.2021
1846 Clouds 28 1010 78 8000 6.69 110 22:47 04.03.2021
1847 Clouds 28 1010 78 8000 6.69 110 22:25 04.03.2021
1848 Clouds 29 1010 74 8000 8.23 100 21:47 04.03.2021
1849 Clouds 29 1010 74 8000 8.23 100 21:28 04.03.2021
1850 Clouds 29 1011 74 8000 7.72 100 20:42 04.03.2021
1851 Clouds 29 1011 74 8000 7.72 100 20:23 04.03.2021
1852 Clouds 29 1011 74 8000 7.2 90 19:58 04.03.2021
1853 Clouds 29 1011 74 8000 7.2 90 19:39 04.03.2021
1854 Clouds 29 1011 79 8000 6.69 80 19:19 04.03.2021
1855 Clouds 29 1011 79 8000 6.69 80 18:45 04.03.2021
1856 Clouds 29 1011 79 8000 6.69 80 18:23 04.03.2021
1857 Clouds 29 1010 79 8000 6.17 80 17:46 04.03.2021
1858 Clouds 29 1010 79 8000 6.17 80 17:27 04.03.2021
1859 Clouds 29 1010 74 8000 6.17 80 16:46 04.03.2021
1860 Clouds 29 1010 74 8000 6.17 80 16:25 04.03.2021
1861 Clouds 29 1009 74 8000 5.14 50 15:50 04.03.2021
1862 Clouds 29 1009 74 8000 5.14 50 15:31 04.03.2021
1863 Clouds 29 1008 74 8000 5.14 60 14:48 04.03.2021
1864 Clouds 29 1008 74 8000 5.14 60 14:26 04.03.2021
1865 Clouds 30 1008 70 8000 5.14 70 13:47 04.03.2021
1866 Clouds 30 1007 70 8000 5.66 70 13:29 04.03.2021
1867 Clouds 30 1007 70 8000 5.66 70 12:49 04.03.2021
1868 Clouds 30 1007 70 8000 5.66 70 12:31 04.03.2021
1869 Clouds 31 1007 62 8000 5.14 70 11:43 04.03.2021
1870 Clouds 31 1007 62 8000 5.14 70 11:23 04.03.2021
1871 Clouds 31 1008 62 8000 5.14 70 10:47 04.03.2021
1872 Clouds 31 1008 62 8000 5.14 70 10:26 04.03.2021
1873 Clouds 31 1009 62 8000 4.63 70 09:37 04.03.2021
1874 Clouds 31 1010 58 8000 4.63 60 08:59 04.03.2021
1875 Clouds 31 1010 58 8000 4.63 60 08:34 04.03.2021
1876 Clouds 31 1011 58 8000 4.12 80 07:53 04.03.2021
1877 Clouds 30 1012 62 8000 4.63 70 07:21 04.03.2021
1878 Clouds 30 1012 62 8000 4.63 70 06:24 04.03.2021
1879 Clouds 27 1009 69 8000 4.12 60 02:49 04.03.2021
1880 Clouds 28 1009 69 8000 5.66 70 01:40 04.03.2021
1881 Clouds 28 1009 69 8000 5.66 70 22:44 03.03.2021
1882 Clouds 28 1009 69 8000 5.66 70 22:26 03.03.2021
1883 Clouds 28 1010 74 8000 5.66 70 21:43 03.03.2021
1884 Clouds 28 1010 74 8000 5.66 70 21:24 03.03.2021
1885 Clouds 28 1010 74 8000 6.69 70 20:58 03.03.2021
1886 Clouds 28 1010 74 8000 6.69 70 20:40 03.03.2021
1887 Clouds 29 1011 74 8000 5.14 70 19:59 03.03.2021
1888 Clouds 29 1011 74 8000 5.14 70 19:40 03.03.2021
1889 Clouds 29 1011 74 8000 5.66 70 19:20 03.03.2021
1890 Clouds 29 1011 74 8000 5.66 70 18:46 03.03.2021
1891 Clouds 29 1010 70 8000 5.14 70 18:21 03.03.2021
1892 Clouds 29 1010 70 8000 5.14 70 17:43 03.03.2021
1893 Clouds 29 1010 70 8000 5.66 70 17:18 03.03.2021
1894 Clouds 29 1010 70 8000 5.66 70 17:18 03.03.2021
1895 Clouds 29 1010 70 8000 5.66 70 16:44 03.03.2021
1896 Clouds 29 1010 70 8000 5.66 70 16:23 03.03.2021
1897 Clouds 29 1009 74 8000 5.14 60 15:34 03.03.2021
1898 Clouds 29 1008 74 8000 5.14 60 14:58 03.03.2021
1899 Clouds 29 1008 74 8000 5.14 60 14:30 03.03.2021
1900 Clouds 30 1008 66 8000 5.14 70 13:53 03.03.2021
1901 Clouds 30 1008 66 8000 5.14 70 13:33 03.03.2021
1902 Clouds 31 1008 62 8000 5.14 60 12:46 03.03.2021
1903 Clouds 31 1008 62 8000 5.14 60 12:46 03.03.2021
1904 Clouds 31 1008 62 8000 5.14 60 12:28 03.03.2021
1905 Clouds 31 1008 62 8000 5.14 80 11:48 03.03.2021
1906 Clouds 31 1008 62 8000 5.14 80 11:28 03.03.2021
1907 Clouds 31 1009 62 8000 5.66 70 10:53 03.03.2021
1908 Clouds 31 1009 62 8000 5.66 70 10:32 03.03.2021
1909 Clouds 32 1010 58 8000 5.14 70 09:53 03.03.2021
1910 Clouds 32 1010 58 8000 5.14 70 09:35 03.03.2021
1911 Clouds 31 1011 62 8000 5.14 70 08:46 03.03.2021
1912 Clouds 31 1012 62 8000 5.14 70 08:22 03.03.2021
1913 Clouds 31 1012 62 8000 5.14 70 07:50 03.03.2021
1914 Clouds 31 1012 62 8000 5.14 60 06:51 03.03.2021
1915 Clouds 30 1013 62 8000 5.66 70 05:49 03.03.2021
1916 Clouds 29 1012 70 8000 4.63 50 04:59 03.03.2021
1917 Clouds 29 1012 70 8000 4.63 50 04:35 03.03.2021
1918 Clouds 28 1011 69 9000 3.6 40 03:51 03.03.2021
1919 Clouds 28 1009 74 10000 3.09 60 00:18 03.03.2021
1920 Clouds 28 1009 74 10000 3.09 60 23:31 02.03.2021
1921 Clouds 28 1010 74 10000 4.12 40 22:43 02.03.2021
1922 Clouds 28 1010 74 10000 4.12 60 22:20 02.03.2021
1923 Clouds 28 1010 74 10000 4.12 60 21:41 02.03.2021
1924 Clouds 28 1011 74 10000 4.12 60 21:22 02.03.2021
1925 Clouds 28 1011 74 10000 4.12 60 20:49 02.03.2021
1926 Clouds 28 1011 74 10000 4.12 60 20:23 02.03.2021
1927 Clouds 28 1011 74 10000 5.14 60 19:58 02.03.2021
1928 Clouds 28 1011 74 10000 5.14 60 19:58 02.03.2021
1929 Clouds 28 1011 74 10000 5.14 60 19:39 02.03.2021
1930 Clouds 29 1011 70 10000 5.14 60 19:21 02.03.2021
1931 Clouds 29 1011 70 10000 5.14 60 18:41 02.03.2021
1932 Clouds 29 1011 70 10000 5.14 50 18:21 02.03.2021
1933 Clouds 29 1011 70 10000 5.14 50 17:50 02.03.2021
1934 Clouds 29 1011 70 10000 5.14 50 17:30 02.03.2021
1935 Clouds 29 1011 70 10000 6.17 50 16:57 02.03.2021
1936 Clouds 29 1011 70 10000 6.17 50 16:33 02.03.2021
1937 Clouds 29 1010 74 10000 5.14 50 15:51 02.03.2021
1938 Clouds 29 1010 74 10000 5.14 50 15:25 02.03.2021
1939 Clouds 30 1009 70 10000 6.69 60 14:24 02.03.2021
1940 Clouds 30 1009 70 10000 6.69 60 13:57 02.03.2021
1941 Clouds 30 1009 70 10000 6.69 60 13:38 02.03.2021
1942 Clouds 31 1009 66 10000 4.12 60 13:20 02.03.2021
1943 Clouds 31 1009 66 10000 4.12 60 12:30 02.03.2021
1944 Clouds 32 1010 62 10000 4.63 70 11:54 02.03.2021
1945 Clouds 32 1010 62 10000 4.63 70 11:36 02.03.2021
1946 Clouds 31 1010 66 10000 4.63 90 11:18 02.03.2021
1947 Clouds 31 1010 66 10000 4.63 90 10:32 02.03.2021
1948 Clouds 32 1011 66 10000 3.6 90 09:59 02.03.2021
1949 Clouds 32 1011 66 10000 3.6 90 09:39 02.03.2021
1950 Clouds 32 1012 66 10000 4.63 90 09:18 02.03.2021
1951 Clouds 32 1012 66 10000 4.63 90 08:38 02.03.2021
1952 Clouds 31 1012 66 10000 5.14 90 07:53 02.03.2021
1953 Clouds 31 1012 66 10000 5.14 90 07:26 02.03.2021
1954 Clouds 31 1013 66 10000 5.14 90 06:32 02.03.2021
1955 Clouds 30 1013 70 10000 5.66 90 05:44 02.03.2021
1956 Clouds 30 1013 70 10000 5.66 90 05:24 02.03.2021
1957 Clouds 28 1011 74 10000 4.63 80 01:44 02.03.2021
1958 Clouds 28 1011 74 10000 4.63 80 01:23 02.03.2021
1959 Clouds 28 1011 78 10000 4.12 70 23:55 01.03.2021
1960 Clouds 28 1011 78 10000 4.12 70 23:22 01.03.2021
1961 Clouds 28 1011 78 10000 4.12 70 23:22 01.03.2021
1962 Clouds 28 1011 78 10000 4.12 70 22:40 01.03.2021
1963 Clouds 28 1012 78 10000 2.57 60 22:21 01.03.2021
1964 Clouds 28 1012 78 10000 2.57 60 21:45 01.03.2021
1965 Clouds 28 1012 78 10000 2.57 60 21:23 01.03.2021
1966 Clouds 29 1012 74 10000 3.09 70 20:46 01.03.2021
1967 Clouds 29 1012 74 10000 3.09 70 20:27 01.03.2021
1968 Clouds 29 1013 74 10000 3.09 50 19:51 01.03.2021
1969 Clouds 29 1013 74 10000 3.09 50 19:32 01.03.2021
1970 Clouds 29 1013 79 10000 2.57 60 18:45 01.03.2021
1971 Clouds 29 1012 79 10000 2.57 50 18:24 01.03.2021
1972 Clouds 29 1012 79 10000 2.57 50 17:49 01.03.2021
1973 Clouds 29 1012 79 10000 2.57 50 17:25 01.03.2021
1974 Clouds 30 1012 74 10000 2.57 20 16:57 01.03.2021
1975 Clouds 30 1012 74 10000 2.57 20 16:38 01.03.2021
1976 Clouds 29 1011 79 10000 2.57 350 16:20 01.03.2021
1977 Clouds 29 1011 79 10000 2.57 350 15:38 01.03.2021
1978 Clouds 30 1011 74 10000 2.06 360 15:18 01.03.2021
1979 Clouds 30 1011 74 10000 2.06 360 14:41 01.03.2021
1980 Clouds 31 1010 66 10000 2.57 350 14:22 01.03.2021
1981 Clouds 31 1010 66 10000 2.57 350 13:39 01.03.2021
1982 Clouds 31 1010 66 10000 2.57 340 13:20 01.03.2021
1983 Clouds 31 1010 66 10000 2.57 340 12:43 01.03.2021
1984 Clouds 31 1010 66 10000 2.57 340 12:25 01.03.2021
1985 Clouds 31 1010 66 10000 2.57 320 11:57 01.03.2021
1986 Clouds 31 1010 66 10000 2.57 320 11:29 01.03.2021
1987 Clouds 32 1010 66 10000 2.57 330 10:42 01.03.2021
1988 Clouds 31 1011 70 10000 2.57 340 10:22 01.03.2021
1989 Clouds 31 1011 70 10000 2.57 340 09:53 01.03.2021
1990 Clouds 31 1011 70 10000 2.57 340 09:34 01.03.2021
1991 Clouds 31 1012 70 7000 2.57 330 08:56 01.03.2021
1992 Clouds 31 1012 70 7000 2.57 330 08:32 01.03.2021
1993 Clouds 31 1013 66 7000 2.57 300 07:32 01.03.2021
1994 Clouds 31 1013 66 7000 2.06 280 06:25 01.03.2021
1995 Clouds 28 1011 78 9000 3.6 250 02:40 01.03.2021
1996 Clouds 28 1010 83 9000 4.63 250 23:49 28.02.2021
1997 Clouds 28 1010 83 9000 4.12 260 23:20 28.02.2021
1998 Clouds 28 1010 83 9000 4.12 260 22:42 28.02.2021
1999 Clouds 28 1011 83 9000 4.12 250 22:20 28.02.2021
2000 Clouds 28 1011 83 9000 4.12 250 21:45 28.02.2021
2001 Clouds 28 1011 83 9000 4.12 250 21:23 28.02.2021
2002 Clouds 29 1011 79 9000 3.6 260 20:46 28.02.2021
2003 Clouds 29 1011 79 9000 3.6 260 20:27 28.02.2021
2004 Clouds 29 1011 79 9000 3.09 260 19:47 28.02.2021
2005 Clouds 29 1011 79 9000 3.09 260 19:27 28.02.2021
2006 Clouds 29 1011 79 9000 3.09 270 18:47 28.02.2021
2007 Clouds 29 1011 79 9000 3.09 270 18:28 28.02.2021
2008 Clouds 29 1011 79 9000 3.09 270 18:28 28.02.2021
2009 Clouds 29 1010 79 9000 2.57 260 17:58 28.02.2021
2010 Clouds 29 1010 79 9000 2.57 260 17:38 28.02.2021
2011 Clouds 29 1009 79 9000 2.57 270 17:20 28.02.2021
2012 Clouds 29 1009 79 9000 2.57 270 16:48 28.02.2021
2013 Clouds 29 1009 79 9000 2.57 270 16:29 28.02.2021
2014 Clouds 29 1009 79 9000 2.06 270 15:51 28.02.2021
2015 Clouds 29 1009 79 9000 2.06 270 15:28 28.02.2021
2016 Clouds 30 1008 74 9000 1.03 0 14:58 28.02.2021
2017 Clouds 30 1008 74 9000 1.03 0 14:35 28.02.2021
2018 Clouds 30 1007 74 9000 1.54 340 13:59 28.02.2021
2019 Clouds 30 1007 74 9000 1.54 340 13:38 28.02.2021
2020 Clouds 31 1006 74 9000 1.54 10 13:19 28.02.2021
2021 Clouds 31 1006 74 9000 1.54 10 12:53 28.02.2021
2022 Clouds 31 1006 74 9000 1.54 10 12:35 28.02.2021
2023 Clouds 31 1006 70 9000 1.54 310 11:57 28.02.2021
2024 Clouds 31 1006 70 9000 1.54 310 11:39 28.02.2021
2025 Clouds 31 1007 70 9000 2.06 290 11:19 28.02.2021
2026 Clouds 31 1007 70 9000 2.06 290 10:40 28.02.2021
2027 Clouds 30 1008 74 9000 1.54 210 10:20 28.02.2021
2028 Clouds 28 1007 66 10000 2.17 33 09:40 28.02.2021
2029 Clouds 30 1009 74 9000 1.54 230 09:20 28.02.2021
2030 Clouds 30 1009 74 9000 1.54 230 08:44 28.02.2021
2031 Clouds 30 1009 74 9000 1.54 230 08:25 28.02.2021
2032 Clouds 31 1010 70 9000 2.06 270 07:46 28.02.2021
2033 Clouds 31 1010 70 9000 2.06 270 07:25 28.02.2021
2034 Clouds 31 1010 70 9000 1.54 270 06:24 28.02.2021
2035 Clouds 29 1010 79 9000 2.06 200 05:20 28.02.2021
2036 Clouds 27 1008 89 10000 1.03 0 02:29 28.02.2021
2037 Clouds 27 1008 89 10000 0.36 270 01:35 28.02.2021
2038 Clouds 27 1007 89 10000 0.44 24 00:42 28.02.2021
2039 Clouds 27 1007 89 10000 1.17 346 23:58 27.02.2021
2040 Clouds 27 1007 89 10000 1.17 346 23:39 27.02.2021
2041 Clouds 27 1008 89 10000 2.11 346 23:18 27.02.2021
2042 Clouds 27 1008 89 10000 2.11 346 22:42 27.02.2021
2043 Clouds 28 1008 83 10000 1.03 0 22:18 27.02.2021
2044 Clouds 28 1008 83 10000 1.03 0 21:38 27.02.2021
2045 Clouds 28 1009 83 10000 1.03 0 21:18 27.02.2021
2046 Clouds 28 1009 83 10000 1.03 0 20:46 27.02.2021
2047 Clouds 28 1009 83 10000 1.03 0 20:25 27.02.2021
2048 Clouds 28 1010 83 10000 2.06 360 19:43 27.02.2021
2049 Clouds 28 1010 83 10000 2.06 360 19:24 27.02.2021
2050 Clouds 28 1009 83 10000 2.06 360 18:42 27.02.2021
2051 Clouds 29 1009 79 10000 2.57 360 18:21 27.02.2021
2052 Clouds 29 1009 79 10000 2.57 360 17:45 27.02.2021
2053 Clouds 29 1008 79 10000 2.57 360 17:21 27.02.2021
2054 Clouds 29 1008 79 10000 2.57 360 16:59 27.02.2021
2055 Clouds 29 1008 79 10000 2.57 360 16:41 27.02.2021
2056 Clouds 29 1008 79 10000 2.57 360 16:23 27.02.2021
2057 Clouds 29 1007 79 10000 3.6 20 15:39 27.02.2021
2058 Clouds 30 1006 74 10000 4.12 10 14:52 27.02.2021
2059 Clouds 30 1006 74 10000 4.12 10 14:32 27.02.2021
2060 Clouds 31 1006 70 10000 4.12 360 13:56 27.02.2021
2061 Clouds 31 1006 70 10000 4.12 360 13:33 27.02.2021
2062 Clouds 31 1006 70 10000 3.6 360 12:57 27.02.2021
2063 Clouds 31 1006 70 10000 3.6 360 12:36 27.02.2021
2064 Clouds 31 1006 74 10000 3.09 340 12:18 27.02.2021
2065 Clouds 31 1006 74 10000 3.09 340 11:42 27.02.2021
2066 Clouds 31 1007 74 10000 3.09 330 11:23 27.02.2021
2067 Clouds 31 1007 74 10000 3.09 330 10:46 27.02.2021
2068 Clouds 31 1007 74 10000 3.09 330 10:27 27.02.2021
2069 Clouds 31 1010 70 9000 3.09 310 09:48 27.02.2021
2070 Clouds 31 1009 74 9000 3.09 300 09:26 27.02.2021
2071 Clouds 31 1009 74 9000 3.09 300 08:41 27.02.2021
2072 Clouds 30 1010 74 9000 3.09 320 08:21 27.02.2021
2073 Clouds 30 1010 74 9000 3.09 320 07:41 27.02.2021
2074 Clouds 29 1010 79 9000 2.06 300 04:47 27.02.2021
2075 Clouds 28 1008 83 9000 2.06 300 00:54 27.02.2021
2076 Clouds 28 1009 83 9000 2.57 310 23:54 26.02.2021
2077 Clouds 28 1009 83 9000 2.57 310 23:28 26.02.2021
2078 Clouds 28 1009 83 9000 3.09 300 22:50 26.02.2021
2079 Clouds 28 1009 83 9000 3.09 300 22:29 26.02.2021
2080 Clouds 28 1010 83 9000 3.09 320 21:43 26.02.2021
2081 Clouds 28 1010 83 9000 3.09 320 21:24 26.02.2021
2082 Clouds 28 1011 83 9000 2.57 340 20:44 26.02.2021
2083 Clouds 28 1011 83 9000 2.57 350 20:21 26.02.2021
2084 Clouds 28 1011 83 9000 2.57 350 19:50 26.02.2021
2085 Clouds 28 1011 83 9000 2.57 350 19:25 26.02.2021
2086 Clouds 29 1011 79 9000 2.57 350 18:42 26.02.2021
2087 Clouds 29 1010 79 9000 2.57 350 18:23 26.02.2021
2088 Clouds 29 1010 79 9000 2.57 350 17:42 26.02.2021
2089 Clouds 29 1010 79 9000 2.57 350 17:24 26.02.2021
2090 Clouds 29 1010 79 9000 3.09 360 16:52 26.02.2021
2091 Clouds 29 1010 79 9000 3.09 360 16:32 26.02.2021
2092 Clouds 29 1009 79 9000 4.12 360 15:58 26.02.2021
2093 Clouds 29 1009 79 9000 4.12 360 15:39 26.02.2021
2094 Clouds 30 1008 74 9000 3.6 360 15:20 26.02.2021
2095 Clouds 30 1008 74 9000 3.6 360 14:47 26.02.2021
2096 Clouds 30 1008 74 9000 3.6 360 14:26 26.02.2021
2097 Clouds 31 1008 70 9000 4.12 360 13:46 26.02.2021
2098 Clouds 31 1008 70 9000 4.12 360 13:25 26.02.2021
2099 Clouds 31 1007 70 9000 4.12 360 12:40 26.02.2021
2100 Clouds 31 1008 70 9000 4.12 360 11:58 26.02.2021
2101 Clouds 31 1008 70 9000 4.12 360 11:38 26.02.2021
2102 Clouds 32 1008 66 9000 3.6 360 10:54 26.02.2021
2103 Clouds 31 1009 70 9000 3.6 360 09:59 26.02.2021
2104 Clouds 31 1009 70 9000 3.6 360 09:39 26.02.2021
2105 Clouds 31 1010 70 8000 3.09 20 09:21 26.02.2021
2106 Clouds 31 1010 70 8000 3.09 20 08:29 26.02.2021
2107 Clouds 31 1011 70 8000 2.57 360 07:52 26.02.2021
2108 Clouds 31 1012 70 8000 2.57 360 06:43 26.02.2021
2109 Clouds 31 1012 70 8000 2.57 360 06:43 26.02.2021
2110 Clouds 31 1012 70 8000 3.09 40 05:32 26.02.2021
2111 Clouds 28 1011 83 8000 2.57 30 03:49 26.02.2021
2112 Clouds 27 1010 89 8000 3.09 40 02:36 26.02.2021
2113 Clouds 27 1009 89 8000 2.06 30 00:23 26.02.2021
2114 Clouds 27 1009 89 8000 2.57 50 23:29 25.02.2021
2115 Clouds 28 1010 83 8000 3.09 30 22:50 25.02.2021
2116 Clouds 28 1010 83 8000 3.09 30 22:31 25.02.2021
2117 Clouds 28 1010 83 8000 3.09 30 21:45 25.02.2021
2118 Clouds 28 1010 83 8000 3.09 30 21:27 25.02.2021
2119 Clouds 28 1011 83 8000 3.09 30 20:42 25.02.2021
2120 Clouds 29 1012 79 8000 3.6 30 20:23 25.02.2021
2121 Clouds 29 1012 79 8000 3.6 30 19:52 25.02.2021
2122 Clouds 29 1012 79 8000 4.12 30 19:22 25.02.2021
2123 Clouds 29 1012 79 8000 4.12 30 18:58 25.02.2021
2124 Clouds 29 1012 79 8000 4.12 30 18:31 25.02.2021
2125 Clouds 29 1011 79 8000 3.6 40 17:51 25.02.2021
2126 Clouds 29 1011 79 8000 3.6 40 17:29 25.02.2021
2127 Clouds 29 1011 79 8000 3.6 30 16:52 25.02.2021
2128 Clouds 29 1011 79 8000 3.6 30 16:26 25.02.2021
2129 Clouds 29 1010 79 8000 3.6 30 15:36 25.02.2021
2130 Clouds 30 1009 74 8000 5.14 30 15:18 25.02.2021
2131 Clouds 30 1009 74 8000 5.14 30 14:29 25.02.2021
2132 Clouds 31 1009 79 8000 4.63 10 13:57 25.02.2021
2133 Clouds 31 1009 79 8000 4.63 10 13:39 25.02.2021
2134 Clouds 31 1009 70 8000 5.14 10 13:18 25.02.2021
2135 Clouds 31 1009 70 8000 4.63 20 12:23 25.02.2021
2136 Clouds 31 1009 70 8000 4.63 20 11:51 25.02.2021
2137 Clouds 31 1009 70 8000 4.63 20 11:31 25.02.2021
2138 Clouds 31 1010 70 8000 5.14 50 10:47 25.02.2021
2139 Clouds 31 1010 70 8000 5.14 50 10:29 25.02.2021
2140 Clouds 32 1011 66 7000 6.17 60 09:45 25.02.2021
2141 Clouds 32 1012 66 7000 5.66 60 09:19 25.02.2021
2142 Clouds 32 1012 66 7000 5.66 60 08:28 25.02.2021
2143 Clouds 31 1012 70 7000 5.66 70 07:58 25.02.2021
2144 Clouds 31 1012 70 7000 5.66 70 07:37 25.02.2021
2145 Clouds 31 1013 70 7000 5.66 70 06:57 25.02.2021
2146 Clouds 28 1011 78 9000 4.63 70 03:23 25.02.2021
2147 Clouds 28 1009 78 10000 3.09 70 01:39 25.02.2021
2148 Clouds 28 1009 78 10000 4.12 70 00:42 25.02.2021
2149 Clouds 28 1009 78 10000 5.66 70 23:54 24.02.2021
2150 Clouds 28 1009 78 10000 5.66 70 23:32 24.02.2021
2151 Clouds 28 1010 83 10000 5.66 70 22:47 24.02.2021
2152 Clouds 28 1010 83 10000 5.66 70 22:29 24.02.2021
2153 Clouds 28 1010 83 10000 5.66 70 21:48 24.02.2021
2154 Clouds 28 1010 83 10000 5.66 70 21:24 24.02.2021
2155 Clouds 28 1011 83 10000 5.66 70 20:48 24.02.2021
2156 Clouds 28 1011 83 10000 5.66 70 20:25 24.02.2021
2157 Clouds 29 1011 74 10000 5.66 70 19:40 24.02.2021
2158 Clouds 29 1011 79 10000 5.14 60 19:20 24.02.2021
2159 Clouds 29 1011 79 10000 5.14 60 18:50 24.02.2021
2160 Clouds 29 1011 79 10000 5.14 60 18:29 24.02.2021
2161 Clouds 29 1011 79 10000 5.14 50 17:39 24.02.2021
2162 Clouds 29 1010 79 10000 3.09 40 17:21 24.02.2021
2163 Clouds 29 1010 79 10000 3.09 40 16:46 24.02.2021
2164 Clouds 29 1010 79 10000 4.63 40 16:20 24.02.2021
2165 Clouds 29 1010 79 10000 4.63 40 15:49 24.02.2021
2166 Clouds 29 1010 79 10000 4.63 40 15:26 24.02.2021
2167 Clouds 30 1009 74 10000 4.12 30 14:43 24.02.2021
2168 Clouds 30 1009 74 10000 4.12 30 14:25 24.02.2021
2169 Clouds 30 1008 74 10000 4.12 40 13:41 24.02.2021
2170 Clouds 31 1008 70 10000 4.12 20 13:22 24.02.2021
2171 Clouds 31 1008 70 10000 4.12 20 12:46 24.02.2021
2172 Clouds 31 1008 70 10000 4.12 20 12:46 24.02.2021
2173 Clouds 31 1008 70 10000 4.12 20 12:27 24.02.2021
2174 Clouds 31 1008 66 10000 4.63 50 11:51 24.02.2021
2175 Clouds 31 1008 66 10000 4.63 50 11:24 24.02.2021
2176 Clouds 31 1009 70 10000 5.66 50 10:32 24.02.2021
2177 Clouds 31 1010 70 9000 5.66 70 09:56 24.02.2021
2178 Clouds 31 1011 70 9000 4.63 70 09:22 24.02.2021
2179 Clouds 31 1011 70 9000 4.63 70 09:22 24.02.2021
2180 Clouds 31 1011 70 9000 4.63 70 08:41 24.02.2021
2181 Clouds 32 1012 66 9000 5.14 60 08:22 24.02.2021
2182 Clouds 31 1012 70 9000 3.6 80 07:21 24.02.2021
2183 Clouds 31 1012 70 9000 3.6 80 06:52 24.02.2021
2184 Clouds 29 1011 74 8000 4.63 70 04:40 24.02.2021
2185 Clouds 28 1009 83 10000 4.63 60 00:44 24.02.2021
2186 Clouds 28 1009 83 10000 5.14 60 23:32 23.02.2021
2187 Clouds 28 1010 83 10000 4.63 60 22:42 23.02.2021
2188 Clouds 28 1010 83 10000 5.14 60 22:20 23.02.2021
2189 Clouds 28 1010 83 10000 5.14 60 21:47 23.02.2021
2190 Clouds 28 1010 83 10000 5.14 60 21:24 23.02.2021
2191 Clouds 28 1011 83 10000 5.14 70 20:49 23.02.2021
2192 Clouds 28 1011 83 10000 5.14 70 20:30 23.02.2021
2193 Clouds 28 1012 83 10000 5.66 70 19:49 23.02.2021
2194 Clouds 28 1012 83 10000 5.66 70 19:29 23.02.2021
2195 Clouds 27 1012 83 10000 2.06 30 18:59 23.02.2021
2196 Clouds 27 1012 83 10000 2.06 30 18:41 23.02.2021
2197 Clouds 27 1011 89 10000 1.54 10 18:20 23.02.2021
2198 Clouds 27 1011 89 10000 1.54 10 17:46 23.02.2021
2199 Clouds 28 1010 83 10000 2.57 350 17:18 23.02.2021
2200 Clouds 28 1010 83 10000 2.57 350 16:43 23.02.2021
2201 Clouds 28 1010 83 10000 2.57 350 16:20 23.02.2021
2202 Clouds 28 1010 83 10000 2.57 350 15:42 23.02.2021
2203 Clouds 29 1009 79 10000 0.51 0 15:23 23.02.2021
2204 Clouds 29 1009 79 10000 0.51 0 14:46 23.02.2021
2205 Clouds 29 1009 79 10000 0.51 0 14:26 23.02.2021
2206 Clouds 29 1009 74 10000 2.57 350 13:55 23.02.2021
2207 Clouds 29 1009 74 10000 2.57 350 13:31 23.02.2021
2208 Clouds 31 1008 70 10000 6.69 50 12:54 23.02.2021
2209 Clouds 32 1008 66 10000 7.2 50 12:22 23.02.2021
2210 Clouds 32 1008 66 10000 7.2 50 11:51 23.02.2021
2211 Clouds 32 1008 66 10000 7.2 50 11:23 23.02.2021
2212 Clouds 32 1009 70 10000 7.2 50 10:53 23.02.2021
2213 Clouds 32 1009 70 10000 7.2 50 10:35 23.02.2021
2214 Clouds 32 1010 66 10000 7.72 60 09:45 23.02.2021
2215 Clouds 32 1010 66 10000 7.72 60 09:25 23.02.2021
2216 Clouds 32 1011 66 10000 7.2 50 08:57 23.02.2021
2217 Clouds 32 1011 66 10000 7.2 50 08:38 23.02.2021
2218 Clouds 32 1012 70 10000 7.2 60 08:19 23.02.2021
2219 Clouds 31 1012 74 10000 6.69 70 06:41 23.02.2021
2220 Clouds 29 1012 79 10000 5.14 70 05:22 23.02.2021
2221 Clouds 28 1010 83 10000 4.63 70 02:36 23.02.2021
2222 Clouds 28 1009 78 10000 5.14 70 00:55 23.02.2021
2223 Clouds 27 1009 79 10000 5.87 44 00:18 23.02.2021
2224 Clouds 28 1010 83 10000 5.14 70 23:24 22.02.2021
2225 Clouds 28 1010 83 10000 5.14 70 22:41 22.02.2021
2226 Clouds 28 1011 83 10000 5.14 70 22:21 22.02.2021
2227 Clouds 28 1011 83 10000 5.14 70 21:46 22.02.2021
2228 Clouds 28 1011 83 10000 5.14 70 21:24 22.02.2021
2229 Clouds 28 1012 83 10000 5.66 70 20:55 22.02.2021
2230 Clouds 28 1012 83 10000 5.66 70 20:31 22.02.2021
2231 Clouds 29 1012 79 10000 6.17 70 19:58 22.02.2021
2232 Clouds 29 1012 79 10000 6.17 70 19:38 22.02.2021
2233 Clouds 29 1012 79 10000 6.69 60 19:18 22.02.2021
2234 Clouds 29 1012 79 10000 6.69 60 18:44 22.02.2021
2235 Clouds 29 1012 79 10000 6.69 60 18:21 22.02.2021
2236 Clouds 29 1012 79 10000 6.69 60 17:36 22.02.2021
2237 Clouds 29 1011 79 10000 6.69 60 17:18 22.02.2021
2238 Clouds 29 1011 79 10000 6.69 60 16:42 22.02.2021
2239 Clouds 29 1010 79 10000 6.17 70 15:56 22.02.2021
2240 Clouds 29 1010 79 10000 6.17 70 15:29 22.02.2021
2241 Clouds 30 1010 74 10000 6.17 70 14:48 22.02.2021
2242 Clouds 30 1010 74 10000 6.17 70 14:30 22.02.2021
2243 Clouds 30 1009 74 10000 4.63 60 13:48 22.02.2021
2244 Clouds 31 1010 74 10000 5.14 70 13:19 22.02.2021
2245 Clouds 31 1010 74 10000 5.14 70 12:42 22.02.2021
2246 Clouds 31 1010 74 10000 5.66 70 12:20 22.02.2021
2247 Clouds 31 1010 74 10000 5.66 70 11:45 22.02.2021
2248 Clouds 31 1010 74 10000 5.66 70 11:25 22.02.2021
2249 Clouds 32 1010 66 10000 5.14 70 10:50 22.02.2021
2250 Clouds 32 1010 66 10000 5.14 70 10:27 22.02.2021
2251 Clouds 32 1011 70 10000 5.14 70 09:49 22.02.2021
2252 Clouds 32 1011 70 10000 5.14 70 09:49 22.02.2021
2253 Clouds 32 1011 70 10000 5.14 70 09:29 22.02.2021
2254 Clouds 31 1012 74 10000 5.66 60 08:57 22.02.2021
2255 Clouds 31 1012 74 10000 5.66 60 08:38 22.02.2021
2256 Clouds 31 1013 70 10000 5.66 60 07:58 22.02.2021
2257 Clouds 31 1013 70 10000 5.66 60 07:27 22.02.2021
2258 Clouds 31 1013 70 10000 4.63 60 06:46 22.02.2021
2259 Clouds 30 1013 74 10000 4.63 60 05:45 22.02.2021
2260 Clouds 28 1012 83 10000 4.63 60 03:29 22.02.2021
2261 Clouds 28 1012 83 10000 4.63 60 03:29 22.02.2021
2262 Clouds 27 1011 89 10000 2.57 40 02:51 22.02.2021
2263 Clouds 28 1010 78 10000 3.09 60 00:46 22.02.2021
2264 Clouds 28 1010 78 10000 3.09 60 00:23 22.02.2021
2265 Clouds 28 1010 78 10000 3.6 60 23:33 21.02.2021
2266 Clouds 28 1010 78 10000 4.12 80 22:54 21.02.2021
2267 Clouds 28 1010 78 10000 4.12 80 22:24 21.02.2021
2268 Clouds 28 1011 89 10000 4.63 70 21:45 21.02.2021
2269 Clouds 28 1011 89 10000 4.63 70 21:27 21.02.2021
2270 Clouds 28 1012 89 10000 4.63 70 20:47 21.02.2021
2271 Clouds 29 1012 84 10000 5.14 90 20:20 21.02.2021
2272 Clouds 29 1012 84 10000 5.14 90 19:54 21.02.2021
2273 Clouds 29 1012 84 10000 5.14 90 19:33 21.02.2021
2274 Clouds 29 1012 84 10000 3.09 90 18:59 21.02.2021
2275 Clouds 29 1012 84 10000 3.09 90 18:26 21.02.2021
2276 Clouds 29 1011 79 10000 3.09 70 17:39 21.02.2021
2277 Clouds 29 1011 79 10000 3.09 60 17:18 21.02.2021
2278 Clouds 29 1011 79 10000 3.09 60 16:43 21.02.2021
2279 Clouds 29 1010 84 10000 3.6 60 16:24 21.02.2021
2280 Clouds 29 1010 84 10000 3.6 60 15:25 21.02.2021
2281 Clouds 30 1009 74 10000 3.6 70 14:56 21.02.2021
2282 Clouds 30 1009 74 10000 3.6 70 14:37 21.02.2021
2283 Clouds 30 1009 74 10000 3.6 70 13:54 21.02.2021
2284 Clouds 30 1009 74 10000 3.6 70 13:29 21.02.2021
2285 Clouds 31 1008 70 10000 3.09 70 12:33 21.02.2021
2286 Clouds 31 1008 70 10000 3.6 80 11:59 21.02.2021
2287 Clouds 31 1008 70 10000 3.6 80 11:41 21.02.2021
2288 Clouds 31 1009 70 10000 3.6 80 10:46 21.02.2021
2289 Clouds 31 1010 74 10000 4.12 80 10:21 21.02.2021
2290 Clouds 31 1010 74 10000 4.12 80 09:43 21.02.2021
2291 Clouds 31 1010 74 10000 4.12 80 09:24 21.02.2021
2292 Clouds 31 1011 70 10000 3.6 70 08:36 21.02.2021
2293 Clouds 31 1012 74 9000 5.14 80 07:57 21.02.2021
2294 Clouds 31 1012 70 9000 4.63 70 07:22 21.02.2021
2295 Clouds 31 1012 70 9000 4.63 70 06:24 21.02.2021
2296 Clouds 27 1010 83 8000 2.06 40 02:42 21.02.2021
2297 Clouds 27 1009 83 8000 2.57 40 01:20 21.02.2021
2298 Clouds 28 1009 78 8000 3.6 40 00:21 21.02.2021
2299 Clouds 28 1009 78 8000 3.6 40 23:47 20.02.2021
2300 Clouds 28 1010 78 8000 3.09 30 22:57 20.02.2021
2301 Clouds 28 1010 78 8000 3.09 30 22:32 20.02.2021
2302 Clouds 28 1010 78 8000 3.6 40 21:48 20.02.2021
2303 Clouds 28 1010 78 8000 3.6 40 21:29 20.02.2021
2304 Clouds 28 1011 78 8000 3.09 40 20:57 20.02.2021
2305 Clouds 28 1011 78 8000 3.09 40 20:36 20.02.2021
2306 Clouds 29 1011 74 8000 3.09 30 20:18 20.02.2021
2307 Clouds 29 1011 74 8000 3.09 30 19:40 20.02.2021
2308 Clouds 29 1011 74 8000 3.09 30 18:54 20.02.2021
2309 Clouds 29 1011 74 8000 3.09 30 18:31 20.02.2021
2310 Clouds 29 1011 74 7000 3.6 30 17:47 20.02.2021
2311 Clouds 29 1011 74 7000 3.6 30 17:28 20.02.2021
2312 Clouds 29 1010 74 7000 3.6 30 16:48 20.02.2021
2313 Clouds 29 1010 74 7000 3.6 30 16:23 20.02.2021
2314 Clouds 29 1010 74 7000 3.6 30 15:41 20.02.2021
2315 Clouds 30 1009 70 7000 4.63 20 14:52 20.02.2021
2316 Clouds 30 1009 70 7000 4.63 20 14:25 20.02.2021
2317 Clouds 31 1008 70 7000 5.14 20 13:58 20.02.2021
2318 Clouds 31 1008 70 7000 5.14 20 13:38 20.02.2021
2319 Clouds 31 1007 66 7000 5.66 20 13:19 20.02.2021
2320 Clouds 31 1007 66 7000 5.66 20 12:35 20.02.2021
2321 Clouds 31 1007 70 8000 5.14 30 11:50 20.02.2021
2322 Clouds 31 1007 70 8000 5.14 30 11:31 20.02.2021
2323 Clouds 31 1008 70 7000 6.17 30 10:50 20.02.2021
2324 Clouds 30 1009 74 7000 5.14 30 10:21 20.02.2021
2325 Clouds 30 1009 74 7000 5.14 30 09:46 20.02.2021
2326 Clouds 31 1010 70 6000 5.14 70 08:53 20.02.2021
2327 Clouds 31 1010 70 6000 5.14 70 08:23 20.02.2021
2328 Clouds 29 1012 74 6000 5.14 70 05:45 20.02.2021
2329 Clouds 27 1010 83 8000 3.6 60 02:32 20.02.2021
2330 Clouds 27 1010 83 8000 4.12 70 01:56 20.02.2021
2331 Clouds 27 1009 83 8000 4.12 80 00:59 20.02.2021
2332 Clouds 27 1009 83 8000 4.12 80 00:36 20.02.2021
2333 Clouds 28 1009 78 8000 4.12 80 23:27 19.02.2021
2334 Clouds 28 1009 78 8000 5.66 80 22:47 19.02.2021
2335 Clouds 28 1010 78 8000 5.14 70 22:20 19.02.2021
2336 Clouds 28 1010 78 8000 5.14 70 21:44 19.02.2021
2337 Clouds 28 1010 78 8000 5.14 70 21:23 19.02.2021
2338 Clouds 28 1011 83 8000 5.14 70 20:42 19.02.2021
2339 Clouds 28 1011 83 8000 5.14 70 20:24 19.02.2021
2340 Clouds 28 1012 83 8000 5.66 60 19:47 19.02.2021
2341 Clouds 28 1012 83 8000 5.66 70 19:20 19.02.2021
2342 Clouds 28 1012 83 8000 5.66 70 18:50 19.02.2021
2343 Clouds 28 1012 83 8000 5.66 70 18:26 19.02.2021
2344 Clouds 29 1012 79 8000 5.14 70 17:39 19.02.2021
2345 Clouds 29 1011 79 8000 6.17 60 16:43 19.02.2021
2346 Clouds 29 1010 79 8000 5.66 70 16:22 19.02.2021
2347 Clouds 29 1010 79 8000 5.66 70 15:55 19.02.2021
2348 Clouds 29 1010 79 8000 5.66 70 15:30 19.02.2021
2349 Clouds 30 1009 74 8000 6.69 60 14:52 19.02.2021
2350 Clouds 30 1009 74 8000 6.69 60 14:33 19.02.2021
2351 Clouds 30 1009 74 8000 7.2 70 13:56 19.02.2021
2352 Clouds 30 1009 74 8000 7.2 70 13:36 19.02.2021
2353 Clouds 31 1009 70 8000 6.69 70 12:54 19.02.2021
2354 Clouds 31 1009 70 8000 6.69 70 12:28 19.02.2021
2355 Clouds 31 1009 70 7000 6.17 70 11:59 19.02.2021
2356 Clouds 31 1009 70 7000 6.17 70 11:34 19.02.2021
2357 Clouds 31 1009 70 7000 6.69 70 10:55 19.02.2021
2358 Clouds 31 1009 70 7000 6.69 70 10:33 19.02.2021
2359 Clouds 32 1010 62 7000 6.69 60 09:58 19.02.2021
2360 Clouds 32 1010 62 7000 6.69 60 09:28 19.02.2021
2361 Clouds 32 1011 62 7000 6.17 60 08:55 19.02.2021
2362 Clouds 32 1011 62 7000 6.17 60 08:29 19.02.2021
2363 Clouds 31 1012 62 7000 6.69 60 07:56 19.02.2021
2364 Clouds 31 1012 62 7000 6.69 60 07:36 19.02.2021
2365 Clouds 31 1012 66 7000 6.17 60 06:59 19.02.2021
2366 Clouds 31 1012 66 7000 6.17 60 06:31 19.02.2021
2367 Clouds 29 1012 74 7000 6.17 60 04:42 19.02.2021
2368 Clouds 28 1010 83 9000 5.66 40 02:44 19.02.2021
2369 Clouds 28 1010 78 9000 5.14 60 01:26 19.02.2021
2370 Clouds 28 1010 83 9000 4.63 60 00:27 19.02.2021
2371 Clouds 28 1009 83 9000 4.12 70 23:45 18.02.2021
2372 Clouds 28 1009 83 9000 4.12 70 23:27 18.02.2021
2373 Clouds 28 1009 83 9000 4.63 70 22:37 18.02.2021
2374 Clouds 28 1010 83 9000 4.63 70 22:18 18.02.2021
2375 Clouds 28 1010 83 9000 4.63 70 21:37 18.02.2021
2376 Clouds 28 1011 83 9000 5.14 70 21:19 18.02.2021
2377 Clouds 28 1011 83 9000 5.14 70 20:39 18.02.2021
2378 Clouds 28 1011 83 9000 5.14 80 20:20 18.02.2021
2379 Clouds 28 1011 83 9000 5.14 80 19:43 18.02.2021
2380 Clouds 28 1012 83 9000 5.66 80 19:19 18.02.2021
2381 Clouds 28 1012 83 9000 5.66 80 18:48 18.02.2021
2382 Clouds 28 1012 83 9000 5.66 80 18:26 18.02.2021
2383 Clouds 29 1011 79 9000 5.66 80 17:46 18.02.2021
2384 Clouds 29 1011 79 9000 5.66 80 17:24 18.02.2021
2385 Clouds 29 1011 74 9000 5.66 70 16:46 18.02.2021
2386 Clouds 29 1011 74 9000 5.66 70 16:28 18.02.2021
2387 Clouds 29 1010 74 9000 5.66 80 15:43 18.02.2021
2388 Clouds 29 1010 74 9000 5.66 80 15:23 18.02.2021
2389 Clouds 29 1010 79 9000 5.14 70 14:53 18.02.2021
2390 Clouds 29 1010 79 9000 5.14 70 14:32 18.02.2021
2391 Clouds 30 1009 74 9000 5.66 70 13:50 18.02.2021
2392 Clouds 30 1009 74 9000 5.66 70 13:50 18.02.2021
2393 Clouds 30 1009 74 9000 5.66 70 13:22 18.02.2021
2394 Clouds 30 1009 74 9000 5.66 70 12:55 18.02.2021
2395 Clouds 30 1009 74 9000 5.66 70 12:31 18.02.2021
2396 Clouds 31 1009 70 9000 5.14 70 11:47 18.02.2021
2397 Clouds 31 1009 70 9000 5.14 70 11:28 18.02.2021
2398 Clouds 32 1009 66 9000 5.66 70 10:58 18.02.2021
2399 Clouds 32 1009 66 9000 5.66 70 10:37 18.02.2021
2400 Clouds 32 1010 66 9000 5.66 80 10:18 18.02.2021
2401 Clouds 32 1010 66 9000 5.66 80 09:28 18.02.2021
2402 Clouds 32 1011 66 9000 5.14 80 08:50 18.02.2021
2403 Clouds 32 1011 66 9000 5.14 80 08:31 18.02.2021
2404 Clouds 31 1012 70 9000 4.63 70 07:48 18.02.2021
2405 Clouds 31 1012 70 9000 5.14 70 07:23 18.02.2021
2406 Clouds 29 1012 84 9000 4.12 70 05:42 18.02.2021
2407 Clouds 28 1009 78 9000 4.63 70 00:29 18.02.2021
2408 Clouds 28 1009 78 9000 4.63 80 23:45 17.02.2021
2409 Clouds 28 1009 83 9000 4.63 80 23:18 17.02.2021
2410 Clouds 28 1009 83 9000 4.63 80 22:40 17.02.2021
2411 Clouds 28 1010 83 9000 5.14 80 22:22 17.02.2021
2412 Clouds 28 1010 83 9000 5.14 80 21:45 17.02.2021
2413 Clouds 28 1011 83 9000 5.14 80 21:20 17.02.2021
2414 Clouds 28 1011 83 9000 5.14 80 20:42 17.02.2021
2415 Clouds 28 1011 83 9000 5.14 80 20:23 17.02.2021
2416 Clouds 27 1011 89 9000 5.14 80 19:38 17.02.2021
2417 Clouds 29 1011 74 9000 4.12 80 18:59 17.02.2021
2418 Clouds 29 1011 74 9000 4.12 80 18:40 17.02.2021
2419 Clouds 29 1011 74 9000 4.63 70 17:59 17.02.2021
2420 Clouds 29 1011 74 9000 4.63 70 17:36 17.02.2021
2421 Clouds 29 1010 74 9000 4.63 60 17:18 17.02.2021
2422 Clouds 29 1010 74 9000 4.63 60 16:42 17.02.2021
2423 Clouds 29 1009 74 9000 4.12 70 16:22 17.02.2021
2424 Clouds 29 1009 74 9000 4.12 70 15:43 17.02.2021
2425 Clouds 30 1008 70 10000 4.12 50 15:22 17.02.2021
2426 Clouds 30 1008 70 10000 4.12 50 14:45 17.02.2021
2427 Clouds 30 1008 70 10000 4.12 50 14:26 17.02.2021
2428 Clouds 31 1008 66 10000 4.63 60 13:45 17.02.2021
2429 Clouds 31 1008 66 10000 4.63 60 13:24 17.02.2021
2430 Clouds 31 1008 66 10000 4.12 60 12:39 17.02.2021
2431 Clouds 31 1008 70 8000 4.12 70 12:20 17.02.2021
2432 Clouds 31 1008 70 8000 4.12 70 11:36 17.02.2021
2433 Clouds 31 1008 74 8000 3.6 70 11:18 17.02.2021
2434 Clouds 31 1008 74 8000 3.6 70 10:44 17.02.2021
2435 Clouds 31 1008 74 8000 3.6 70 10:23 17.02.2021
2436 Clouds 31 1009 70 8000 4.63 70 09:44 17.02.2021
2437 Clouds 31 1009 70 8000 4.63 70 09:25 17.02.2021
2438 Clouds 31 1010 74 8000 5.14 70 08:42 17.02.2021
2439 Clouds 30 1011 74 8000 5.66 70 08:21 17.02.2021
2440 Clouds 30 1011 74 8000 5.66 70 07:26 17.02.2021
2441 Clouds 29 1010 79 8000 6.69 70 04:54 17.02.2021
2442 Clouds 28 1009 78 9000 5.14 70 02:33 17.02.2021
2443 Clouds 28 1008 74 9000 4.63 60 01:55 17.02.2021
2444 Clouds 28 1008 78 9000 4.63 50 00:33 17.02.2021
2445 Clouds 28 1008 78 9000 3.6 30 23:54 16.02.2021
2446 Clouds 28 1008 78 9000 3.6 30 23:34 16.02.2021
2447 Clouds 28 1009 78 9000 4.12 40 22:43 16.02.2021
2448 Clouds 28 1009 78 9000 4.12 40 22:24 16.02.2021
2449 Clouds 28 1010 78 9000 4.12 30 21:42 16.02.2021
2450 Clouds 28 1010 78 9000 3.6 30 21:22 16.02.2021
2451 Clouds 28 1010 78 9000 3.6 30 20:59 16.02.2021
2452 Clouds 28 1010 78 9000 3.6 30 20:41 16.02.2021
2453 Clouds 29 1011 74 9000 4.12 30 20:20 16.02.2021
2454 Clouds 29 1011 74 9000 4.12 30 19:42 16.02.2021
2455 Clouds 29 1011 74 9000 3.09 30 19:22 16.02.2021
2456 Clouds 29 1011 74 9000 3.09 30 18:40 16.02.2021
2457 Clouds 29 1011 74 9000 3.6 30 18:22 16.02.2021
2458 Clouds 29 1011 74 9000 3.6 30 17:50 16.02.2021
2459 Clouds 29 1011 74 9000 3.6 30 17:26 16.02.2021
2460 Clouds 29 1010 74 9000 3.6 50 16:51 16.02.2021
2461 Clouds 29 1010 74 9000 3.6 50 16:29 16.02.2021
2462 Clouds 29 1009 74 9000 3.6 60 15:47 16.02.2021
2463 Clouds 29 1009 74 9000 3.6 60 15:26 16.02.2021
2464 Clouds 29 1009 74 9000 3.6 70 14:55 16.02.2021
2465 Clouds 29 1009 74 9000 3.6 70 14:36 16.02.2021
2466 Clouds 30 1009 70 9000 3.09 80 14:18 16.02.2021
2467 Clouds 30 1009 70 9000 3.09 80 13:37 16.02.2021
2468 Clouds 31 1009 70 8000 3.09 90 12:47 16.02.2021
2469 Clouds 31 1009 70 8000 3.09 90 12:26 16.02.2021
2470 Clouds 31 1009 70 9000 4.63 80 11:55 16.02.2021
2471 Clouds 31 1009 70 9000 4.63 80 11:55 16.02.2021
2472 Clouds 31 1009 70 9000 4.63 80 11:37 16.02.2021
2473 Clouds 31 1010 66 9000 4.12 80 11:18 16.02.2021
2474 Clouds 31 1010 66 9000 4.12 80 10:45 16.02.2021
2475 Clouds 31 1010 66 9000 4.12 80 10:25 16.02.2021
2476 Clouds 32 1010 66 8000 4.12 80 09:48 16.02.2021
2477 Clouds 32 1010 66 8000 4.12 80 09:26 16.02.2021
2478 Clouds 32 1011 70 8000 4.63 80 08:48 16.02.2021
2479 Clouds 32 1011 70 8000 4.63 80 08:26 16.02.2021
2480 Clouds 31 1012 74 8000 3.09 80 07:32 16.02.2021
2481 Clouds 30 1013 74 8000 3.09 80 06:24 16.02.2021
2482 Clouds 27 1009 83 10000 4.12 80 02:19 16.02.2021
2483 Clouds 28 1009 78 10000 4.12 80 23:47 15.02.2021
2484 Clouds 28 1009 78 10000 4.12 80 23:26 15.02.2021
2485 Clouds 28 1010 74 10000 4.63 80 22:47 15.02.2021
2486 Clouds 28 1010 74 10000 4.63 80 22:25 15.02.2021
2487 Clouds 28 1011 74 10000 4.12 70 21:42 15.02.2021
2488 Clouds 28 1011 74 10000 4.12 70 21:24 15.02.2021
2489 Clouds 27 1011 69 10000 3.98 45 20:53 15.02.2021
2490 Clouds 27 1011 69 10000 3.98 45 20:34 15.02.2021
2491 Clouds 27 1012 70 10000 4.5 39 19:48 15.02.2021
2492 Clouds 28 1012 74 10000 5.14 50 19:24 15.02.2021
2493 Clouds 28 1012 74 10000 5.14 50 18:49 15.02.2021
2494 Clouds 28 1012 74 10000 5.14 50 18:26 15.02.2021
2495 Clouds 29 1012 74 10000 4.12 40 17:45 15.02.2021
2496 Clouds 29 1012 74 10000 4.12 40 17:27 15.02.2021
2497 Clouds 29 1011 74 10000 4.12 50 16:59 15.02.2021
2498 Clouds 29 1011 74 10000 4.12 50 16:37 15.02.2021
2499 Clouds 29 1010 70 10000 3.6 30 16:18 15.02.2021
2500 Clouds 29 1010 70 10000 3.6 30 15:41 15.02.2021
2501 Clouds 29 1009 74 10000 4.63 30 15:18 15.02.2021
2502 Clouds 29 1009 74 10000 4.63 30 14:43 15.02.2021
2503 Clouds 30 1009 66 10000 5.66 30 14:20 15.02.2021
2504 Clouds 30 1009 66 10000 5.66 30 13:48 15.02.2021
2505 Clouds 31 1009 66 10000 4.63 30 13:20 15.02.2021
2506 Clouds 31 1009 66 10000 4.63 30 13:20 15.02.2021
2507 Clouds 31 1009 66 10000 4.63 30 12:45 15.02.2021
2508 Clouds 31 1009 66 10000 4.63 30 12:25 15.02.2021
2509 Clouds 31 1009 66 10000 4.63 30 11:50 15.02.2021
2510 Clouds 31 1009 66 10000 4.63 30 11:23 15.02.2021
2511 Clouds 31 1010 66 10000 5.14 40 10:50 15.02.2021
2512 Clouds 31 1010 66 10000 5.14 40 10:28 15.02.2021
2513 Clouds 30 1011 70 10000 4.63 30 09:57 15.02.2021
2514 Clouds 30 1011 70 10000 4.63 30 09:39 15.02.2021
2515 Clouds 30 1012 70 10000 4.12 20 09:21 15.02.2021
2516 Clouds 30 1012 70 10000 4.12 20 08:20 15.02.2021
2517 Clouds 30 1012 66 10000 3.6 320 06:59 15.02.2021
2518 Clouds 30 1012 66 10000 3.6 320 06:40 15.02.2021
2519 Clouds 27 1011 83 9000 3.6 70 02:47 15.02.2021
2520 Clouds 27 1010 78 9000 2.57 40 01:55 15.02.2021
2521 Clouds 27 1010 78 9000 3.6 70 23:59 14.02.2021
2522 Clouds 27 1010 78 9000 3.6 70 23:23 14.02.2021
2523 Clouds 28 1011 74 9000 4.12 60 22:41 14.02.2021
2524 Clouds 28 1011 78 9000 4.12 60 22:22 14.02.2021
2525 Clouds 28 1011 78 9000 4.12 60 21:50 14.02.2021
2526 Clouds 28 1011 78 9000 4.12 60 21:29 14.02.2021
2527 Clouds 28 1012 74 9000 4.12 60 20:52 14.02.2021
2528 Clouds 28 1012 74 9000 4.12 60 20:29 14.02.2021
2529 Clouds 28 1013 74 9000 4.12 60 19:49 14.02.2021
2530 Clouds 28 1013 74 9000 4.63 60 18:58 14.02.2021
2531 Clouds 28 1013 74 9000 4.63 60 18:37 14.02.2021
2532 Clouds 28 1012 74 9000 4.63 60 17:57 14.02.2021
2533 Clouds 28 1012 74 9000 4.63 60 17:39 14.02.2021
2534 Clouds 29 1012 70 9000 4.12 60 16:55 14.02.2021
2535 Clouds 29 1012 70 9000 4.12 60 16:33 14.02.2021
2536 Clouds 29 1011 70 9000 4.63 70 15:53 14.02.2021
2537 Clouds 29 1011 70 9000 4.63 70 15:35 14.02.2021
2538 Clouds 29 1010 74 9000 4.63 60 14:49 14.02.2021
2539 Clouds 29 1010 74 9000 4.63 60 14:27 14.02.2021
2540 Clouds 30 1010 70 8000 4.63 70 13:53 14.02.2021
2541 Clouds 30 1010 70 8000 4.63 70 13:30 14.02.2021
2542 Clouds 30 1010 70 8000 5.14 80 12:44 14.02.2021
2543 Clouds 31 1010 66 8000 5.66 70 12:20 14.02.2021
2544 Clouds 31 1010 66 8000 5.66 70 11:50 14.02.2021
2545 Clouds 31 1010 66 8000 5.66 70 11:50 14.02.2021
2546 Clouds 31 1011 70 8000 5.66 70 11:21 14.02.2021
2547 Clouds 31 1011 70 8000 5.66 70 10:39 14.02.2021
2548 Clouds 31 1012 70 8000 6.17 70 09:56 14.02.2021
2549 Clouds 31 1012 70 8000 6.17 70 09:38 14.02.2021
2550 Clouds 31 1013 70 8000 6.17 70 09:19 14.02.2021
2551 Clouds 31 1013 70 8000 6.17 70 08:35 14.02.2021
2552 Clouds 31 1013 66 8000 6.17 70 07:56 14.02.2021
2553 Clouds 30 1014 70 8000 5.14 70 06:49 14.02.2021
2554 Clouds 30 1013 70 9000 4.12 80 05:41 14.02.2021
2555 Clouds 28 1012 78 9000 4.63 90 03:30 14.02.2021
2556 Clouds 27 1011 78 9000 4.63 100 01:54 14.02.2021
2557 Clouds 27 1011 83 9000 4.63 90 00:47 14.02.2021
2558 Clouds 27 1011 78 9000 4.12 80 00:22 14.02.2021
2559 Clouds 27 1011 78 9000 4.12 80 23:40 13.02.2021
2560 Clouds 28 1011 74 9000 4.63 70 23:20 13.02.2021
2561 Clouds 28 1011 74 9000 4.63 70 22:34 13.02.2021
2562 Clouds 28 1011 74 9000 5.14 70 21:59 13.02.2021
2563 Clouds 28 1011 74 9000 5.14 70 21:40 13.02.2021
2564 Clouds 28 1012 74 9000 5.66 70 20:52 13.02.2021
2565 Clouds 28 1012 74 9000 5.66 70 20:28 13.02.2021
2566 Clouds 28 1012 74 9000 5.66 70 20:28 13.02.2021
2567 Clouds 28 1013 74 9000 5.66 70 19:51 13.02.2021
2568 Clouds 28 1013 74 9000 5.66 70 19:25 13.02.2021
2569 Clouds 28 1013 74 9000 5.66 60 18:54 13.02.2021
2570 Clouds 28 1013 74 9000 5.66 60 18:34 13.02.2021
2571 Clouds 28 1012 74 9000 5.66 60 17:46 13.02.2021
2572 Clouds 28 1012 74 9000 5.66 60 17:26 13.02.2021
2573 Clouds 28 1012 74 9000 6.17 60 16:59 13.02.2021
2574 Clouds 28 1012 74 9000 6.17 60 16:41 13.02.2021
2575 Clouds 28 1011 74 9000 6.17 60 15:58 13.02.2021
2576 Clouds 28 1011 74 9000 6.17 60 15:27 13.02.2021
2577 Clouds 29 1010 65 9000 5.66 60 14:42 13.02.2021
2578 Clouds 29 1010 65 9000 5.66 60 14:24 13.02.2021
2579 Clouds 30 1010 66 9000 6.17 60 13:44 13.02.2021
2580 Clouds 30 1010 66 9000 5.66 70 13:23 13.02.2021
2581 Clouds 30 1010 66 9000 5.66 70 12:38 13.02.2021
2582 Clouds 31 1010 62 9000 5.66 70 12:18 13.02.2021
2583 Clouds 31 1010 62 9000 5.66 70 11:40 13.02.2021
2584 Clouds 31 1011 62 9000 6.17 70 11:18 13.02.2021
2585 Clouds 31 1011 62 9000 6.17 70 10:44 13.02.2021
2586 Clouds 31 1011 62 9000 6.17 70 10:23 13.02.2021
2587 Clouds 31 1011 62 9000 6.69 70 09:50 13.02.2021
2588 Clouds 31 1011 62 9000 6.69 70 09:29 13.02.2021
2589 Clouds 31 1013 62 9000 6.69 70 08:52 13.02.2021
2590 Clouds 31 1013 62 9000 6.69 70 08:26 13.02.2021
2591 Clouds 31 1013 62 9000 6.69 90 07:43 13.02.2021
2592 Clouds 30 1013 70 9000 6.69 70 06:35 13.02.2021
2593 Clouds 29 1013 70 9000 5.66 90 05:18 13.02.2021
2594 Clouds 28 1012 74 8000 6.17 80 03:44 13.02.2021
2595 Clouds 27 1010 78 8000 5.14 70 01:25 13.02.2021
2596 Clouds 28 1010 78 8000 6.17 80 00:19 13.02.2021
2597 Clouds 28 1010 78 8000 6.17 80 23:46 12.02.2021
2598 Clouds 28 1010 74 8000 4.63 80 23:20 12.02.2021
2599 Clouds 28 1010 74 8000 4.63 80 22:37 12.02.2021
2600 Clouds 28 1011 74 8000 4.63 90 22:18 12.02.2021
2601 Clouds 28 1011 74 8000 4.63 90 21:42 12.02.2021
2602 Clouds 28 1012 74 8000 3.6 110 21:22 12.02.2021
2603 Clouds 28 1012 74 8000 3.6 110 20:45 12.02.2021
2604 Clouds 28 1012 74 8000 3.6 110 20:26 12.02.2021
2605 Clouds 28 1012 74 8000 4.12 90 19:55 12.02.2021
2606 Clouds 28 1012 74 8000 4.12 90 19:29 12.02.2021
2607 Clouds 28 1012 74 8000 4.63 90 18:38 12.02.2021
2608 Clouds 28 1012 69 8000 4.63 90 18:18 12.02.2021
2609 Clouds 28 1012 69 8000 4.63 90 17:38 12.02.2021
2610 Clouds 28 1011 69 8000 5.14 90 16:54 12.02.2021
2611 Clouds 28 1010 69 9000 5.14 80 16:18 12.02.2021
2612 Clouds 28 1010 69 9000 5.14 80 15:43 12.02.2021
2613 Clouds 29 1009 65 9000 5.14 80 15:20 12.02.2021
2614 Clouds 29 1009 65 9000 5.14 80 14:37 12.02.2021
2615 Clouds 29 1009 65 9000 5.66 70 13:51 12.02.2021
2616 Clouds 29 1009 65 9000 5.66 70 13:32 12.02.2021
2617 Clouds 30 1008 62 9000 6.17 60 12:54 12.02.2021
2618 Clouds 30 1008 62 9000 6.17 60 12:36 12.02.2021
2619 Clouds 31 1008 58 9000 5.66 70 11:48 12.02.2021
2620 Clouds 31 1009 62 9000 6.17 60 11:22 12.02.2021
2621 Clouds 31 1009 62 9000 6.17 60 10:50 12.02.2021
2622 Clouds 31 1009 62 9000 6.17 60 10:31 12.02.2021
2623 Clouds 31 1010 58 9000 5.66 60 09:42 12.02.2021
2624 Clouds 31 1010 58 9000 5.66 60 09:23 12.02.2021
2625 Clouds 31 1010 58 8000 6.17 50 08:46 12.02.2021
2626 Clouds 31 1010 58 8000 6.17 50 08:25 12.02.2021
2627 Clouds 30 1011 62 8000 6.17 70 07:52 12.02.2021
2628 Clouds 30 1011 62 8000 6.17 70 07:27 12.02.2021
2629 Clouds 30 1011 62 8000 6.17 70 07:27 12.02.2021
2630 Clouds 30 1012 62 8000 5.14 70 06:54 12.02.2021
2631 Clouds 29 1012 65 8000 5.66 70 05:39 12.02.2021
2632 Clouds 27 1010 74 9000 5.14 70 03:48 12.02.2021
2633 Clouds 27 1009 74 9000 5.66 70 00:35 12.02.2021
2634 Clouds 27 1009 69 9000 7.2 70 23:38 11.02.2021
2635 Clouds 27 1009 69 9000 7.72 80 23:20 11.02.2021
2636 Clouds 27 1009 69 9000 7.72 80 22:44 11.02.2021
2637 Clouds 27 1009 69 9000 7.72 80 22:23 11.02.2021
2638 Clouds 27 1010 69 9000 8.23 80 21:43 11.02.2021
2639 Clouds 27 1010 69 9000 8.23 80 21:25 11.02.2021
2640 Clouds 28 1011 69 9000 8.23 90 20:58 11.02.2021
2641 Clouds 28 1011 69 9000 8.23 90 20:39 11.02.2021
2642 Clouds 28 1011 69 9000 7.72 90 20:21 11.02.2021
2643 Clouds 28 1011 69 9000 7.72 90 19:47 11.02.2021
2644 Clouds 28 1011 69 9000 7.72 90 19:26 11.02.2021
2645 Clouds 28 1011 74 9000 8.75 80 18:43 11.02.2021
2646 Clouds 28 1011 74 9000 7.72 70 18:21 11.02.2021
2647 Clouds 28 1011 74 9000 7.72 70 17:48 11.02.2021
2648 Clouds 28 1010 74 9000 7.72 70 17:21 11.02.2021
2649 Clouds 28 1010 74 9000 7.72 70 16:46 11.02.2021
2650 Clouds 28 1010 74 9000 7.72 70 16:27 11.02.2021
2651 Clouds 28 1009 74 9000 7.2 70 15:47 11.02.2021
2652 Clouds 28 1009 74 9000 7.2 70 15:26 11.02.2021
2653 Clouds 29 1008 70 9000 7.2 70 14:56 11.02.2021
2654 Clouds 29 1008 70 9000 7.2 70 14:31 11.02.2021
2655 Clouds 30 1008 66 9000 5.66 70 13:44 11.02.2021
2656 Clouds 30 1008 62 9000 6.17 70 13:21 11.02.2021
2657 Clouds 30 1008 62 9000 6.17 70 12:56 11.02.2021
2658 Clouds 30 1008 62 9000 6.17 70 12:35 11.02.2021
2659 Clouds 30 1008 62 9000 6.17 70 12:35 11.02.2021
2660 Clouds 31 1007 58 9000 6.69 60 11:49 11.02.2021
2661 Clouds 31 1007 58 9000 6.69 60 11:29 11.02.2021
2662 Clouds 31 1009 62 7000 7.2 70 10:57 11.02.2021
2663 Clouds 31 1009 62 7000 7.2 70 10:39 11.02.2021
2664 Clouds 31 1009 62 7000 7.72 60 10:21 11.02.2021
2665 Clouds 31 1009 62 7000 7.72 60 09:38 11.02.2021
2666 Clouds 31 1010 62 7000 7.72 60 09:19 11.02.2021
2667 Clouds 31 1010 62 7000 7.72 60 09:19 11.02.2021
2668 Clouds 31 1010 62 7000 7.72 60 08:46 11.02.2021
2669 Clouds 31 1011 66 7000 6.17 40 07:52 11.02.2021
2670 Clouds 30 1011 66 7000 6.17 60 06:44 11.02.2021
2671 Clouds 29 1011 70 7000 5.66 60 06:20 11.02.2021
2672 Clouds 27 1010 78 7000 3.6 60 03:46 11.02.2021
2673 Clouds 27 1009 78 7000 4.63 60 02:25 11.02.2021
2674 Clouds 27 1008 78 7000 4.12 60 00:24 11.02.2021
2675 Clouds 27 1008 78 7000 4.12 60 23:54 10.02.2021
2676 Clouds 27 1009 78 7000 4.63 60 23:20 10.02.2021
2677 Clouds 27 1009 78 7000 4.63 60 22:44 10.02.2021
2678 Clouds 27 1009 78 7000 4.63 60 22:24 10.02.2021
2679 Clouds 27 1009 78 7000 5.14 60 21:40 10.02.2021
2680 Clouds 28 1010 74 8000 5.66 70 21:21 10.02.2021
2681 Clouds 28 1010 74 8000 5.66 70 20:52 10.02.2021
2682 Clouds 28 1010 74 8000 5.66 70 20:29 10.02.2021
2683 Clouds 28 1010 78 8000 5.66 70 19:50 10.02.2021
2684 Clouds 28 1010 78 8000 5.66 70 19:29 10.02.2021
2685 Clouds 28 1011 78 8000 5.66 70 18:49 10.02.2021
2686 Clouds 28 1011 78 8000 5.66 70 18:29 10.02.2021
2687 Clouds 28 1011 74 8000 6.17 70 17:59 10.02.2021
2688 Clouds 28 1011 74 8000 6.17 70 17:40 10.02.2021
2689 Clouds 28 1010 78 8000 6.17 70 17:20 10.02.2021
2690 Clouds 28 1010 78 8000 6.17 70 16:46 10.02.2021
2691 Clouds 28 1010 78 8000 6.17 70 16:25 10.02.2021
2692 Clouds 28 1009 78 8000 6.17 70 15:25 10.02.2021
2693 Clouds 29 1008 74 8000 6.17 70 14:58 10.02.2021
2694 Clouds 29 1008 74 8000 6.17 70 14:39 10.02.2021
2695 Clouds 29 1008 74 8000 6.17 70 14:39 10.02.2021
2696 Clouds 30 1008 74 8000 7.2 60 13:55 10.02.2021
2697 Clouds 30 1008 74 8000 7.2 60 13:31 10.02.2021
2698 Clouds 30 1007 70 8000 6.69 50 12:56 10.02.2021
2699 Clouds 30 1007 70 8000 6.69 50 12:37 10.02.2021
2700 Clouds 30 1008 74 8000 6.17 50 12:18 10.02.2021
2701 Clouds 30 1008 74 8000 6.17 50 11:41 10.02.2021
2702 Clouds 31 1008 66 8000 5.14 20 11:22 10.02.2021
2703 Clouds 31 1008 66 8000 5.14 20 10:37 10.02.2021
2704 Clouds 31 1009 66 7000 4.63 360 10:18 10.02.2021
2705 Clouds 31 1009 66 7000 4.63 360 09:37 10.02.2021
2706 Clouds 31 1010 70 7000 4.12 360 09:18 10.02.2021
2707 Clouds 31 1010 70 7000 4.12 360 08:42 10.02.2021
2708 Clouds 31 1011 66 7000 4.12 360 07:52 10.02.2021
2709 Clouds 30 1011 70 7000 4.63 10 06:52 10.02.2021
2710 Clouds 27 1010 83 8000 2.57 30 03:43 10.02.2021
2711 Clouds 27 1009 78 8000 4.12 60 00:31 10.02.2021
2712 Clouds 27 1009 78 8000 4.12 60 23:35 09.02.2021
2713 Clouds 28 1009 74 7000 4.12 60 22:55 09.02.2021
2714 Clouds 28 1009 74 7000 4.12 60 22:25 09.02.2021
2715 Clouds 28 1010 74 7000 4.63 70 21:53 09.02.2021
2716 Clouds 28 1010 74 7000 4.63 70 21:34 09.02.2021
2717 Clouds 28 1011 74 7000 6.17 70 20:50 09.02.2021
2718 Clouds 28 1011 74 7000 6.17 70 20:27 09.02.2021
2719 Clouds 28 1011 74 7000 6.69 80 19:59 09.02.2021
2720 Clouds 28 1011 74 7000 6.69 80 19:59 09.02.2021
2721 Clouds 28 1011 74 7000 6.69 80 19:38 09.02.2021
2722 Clouds 28 1011 74 7000 6.17 80 18:59 09.02.2021
2723 Clouds 28 1011 74 7000 6.17 80 18:39 09.02.2021
2724 Clouds 28 1011 74 7000 6.69 80 17:58 09.02.2021
2725 Clouds 28 1011 74 7000 6.69 80 17:40 09.02.2021
2726 Clouds 28 1010 78 7000 7.2 80 17:21 09.02.2021
2727 Clouds 28 1010 78 7000 7.2 80 16:42 09.02.2021
2728 Clouds 28 1010 78 7000 7.2 60 16:19 09.02.2021
2729 Clouds 28 1010 78 7000 7.2 60 15:50 09.02.2021
2730 Clouds 28 1010 78 7000 7.2 60 15:26 09.02.2021
2731 Clouds 29 1009 70 7000 7.2 60 14:55 09.02.2021
2732 Clouds 29 1009 70 7000 7.2 60 14:28 09.02.2021
2733 Clouds 30 1009 66 7000 7.2 60 13:52 09.02.2021
2734 Clouds 30 1009 66 7000 7.2 60 13:26 09.02.2021
2735 Clouds 30 1008 70 7000 7.2 60 12:54 09.02.2021
2736 Clouds 30 1008 70 7000 7.2 60 12:36 09.02.2021
2737 Clouds 31 1008 66 7000 7.2 60 11:58 09.02.2021
2738 Clouds 31 1008 66 7000 7.2 60 11:39 09.02.2021
2739 Clouds 31 1008 66 7000 7.2 60 11:20 09.02.2021
2740 Clouds 31 1008 66 7000 7.2 60 11:20 09.02.2021
2741 Clouds 31 1008 66 7000 7.2 60 10:50 09.02.2021
2742 Clouds 31 1010 66 7000 7.2 60 10:19 09.02.2021
2743 Clouds 31 1010 66 7000 7.2 60 09:43 09.02.2021
2744 Clouds 31 1010 66 7000 7.2 60 09:25 09.02.2021
2745 Clouds 31 1011 70 7000 7.2 60 08:47 09.02.2021
2746 Clouds 31 1011 70 7000 7.2 60 08:26 09.02.2021
2747 Clouds 31 1012 66 7000 7.72 60 06:55 09.02.2021
2748 Clouds 29 1011 70 8000 7.2 60 04:53 09.02.2021
2749 Clouds 28 1010 74 8000 6.69 60 03:41 09.02.2021
2750 Clouds 28 1009 74 8000 7.72 70 00:39 09.02.2021
2751 Clouds 28 1009 74 8000 7.72 70 23:57 08.02.2021
2752 Clouds 28 1009 78 8000 7.2 70 23:21 08.02.2021
2753 Clouds 28 1009 78 8000 7.2 70 22:44 08.02.2021
2754 Clouds 28 1009 78 8000 7.2 70 22:25 08.02.2021
2755 Clouds 28 1010 78 8000 7.2 70 21:57 08.02.2021
2756 Clouds 28 1010 78 8000 7.2 70 21:34 08.02.2021
2757 Clouds 28 1011 78 8000 8.75 80 20:59 08.02.2021
2758 Clouds 28 1011 78 8000 8.75 80 20:40 08.02.2021
2759 Clouds 28 1011 78 8000 10.29 80 20:21 08.02.2021
2760 Clouds 28 1011 78 8000 10.29 80 19:44 08.02.2021
2761 Clouds 28 1011 78 8000 10.29 80 19:25 08.02.2021
2762 Clouds 28 1011 78 8000 10.8 80 18:49 08.02.2021
2763 Clouds 28 1011 78 8000 10.8 80 18:24 08.02.2021
2764 Clouds 29 1011 70 8000 9.26 70 17:47 08.02.2021
2765 Clouds 29 1011 70 8000 9.26 70 17:26 08.02.2021
2766 Clouds 29 1011 79 8000 8.75 70 16:47 08.02.2021
2767 Clouds 29 1011 79 8000 8.75 70 16:23 08.02.2021
2768 Clouds 29 1010 74 8000 8.75 70 15:49 08.02.2021
2769 Clouds 29 1009 70 8000 9.26 70 15:21 08.02.2021
2770 Clouds 29 1009 70 8000 9.26 70 14:59 08.02.2021
2771 Clouds 29 1009 70 8000 9.26 70 14:41 08.02.2021
2772 Clouds 30 1009 70 8000 8.75 70 14:22 08.02.2021
2773 Clouds 30 1009 70 8000 8.75 70 13:41 08.02.2021
2774 Clouds 31 1008 66 7000 8.23 60 13:22 08.02.2021
2775 Clouds 31 1008 66 7000 8.23 60 12:37 08.02.2021
2776 Clouds 31 1008 70 7000 8.75 60 11:58 08.02.2021
2777 Clouds 31 1008 70 7000 8.75 60 11:26 08.02.2021
2778 Clouds 31 1009 70 7000 8.75 70 10:46 08.02.2021
2779 Clouds 31 1009 70 7000 8.75 70 10:25 08.02.2021
2780 Clouds 31 1010 70 8000 8.23 70 09:55 08.02.2021
2781 Clouds 31 1010 70 8000 8.23 70 09:36 08.02.2021
2782 Clouds 31 1010 66 8000 8.23 70 08:52 08.02.2021
2783 Clouds 31 1010 66 8000 8.23 70 08:24 08.02.2021
2784 Clouds 31 1011 66 8000 8.75 70 07:38 08.02.2021
2785 Clouds 31 1012 79 7000 7.72 70 06:33 08.02.2021
2786 Clouds 29 1011 84 7000 6.69 70 04:54 08.02.2021
2787 Clouds 28 1010 89 7000 6.69 70 02:26 08.02.2021
2788 Clouds 28 1009 89 7000 5.66 60 00:24 08.02.2021
2789 Clouds 28 1009 89 7000 6.69 70 23:53 07.02.2021
2790 Clouds 28 1009 89 7000 6.69 70 23:28 07.02.2021
2791 Clouds 28 1010 89 7000 5.14 50 22:56 07.02.2021
2792 Clouds 28 1010 89 7000 5.14 50 22:37 07.02.2021
2793 Clouds 28 1010 89 7000 6.17 70 22:19 07.02.2021
2794 Clouds 28 1010 89 7000 6.17 70 21:49 07.02.2021
2795 Clouds 28 1011 89 7000 6.17 70 21:22 07.02.2021
2796 Clouds 28 1011 89 7000 6.17 70 20:49 07.02.2021
2797 Clouds 28 1011 89 7000 6.17 70 20:27 07.02.2021
2798 Clouds 28 1012 89 7000 5.14 60 19:45 07.02.2021
2799 Clouds 28 1012 89 7000 5.14 60 19:27 07.02.2021
2800 Clouds 28 1012 89 7000 5.66 60 18:44 07.02.2021
2801 Clouds 28 1012 89 7000 5.66 60 18:26 07.02.2021
2802 Clouds 28 1011 89 7000 5.66 60 17:45 07.02.2021
2803 Clouds 28 1011 89 7000 5.66 60 17:23 07.02.2021
2804 Clouds 29 1011 89 7000 5.66 60 16:59 07.02.2021
2805 Clouds 29 1011 89 7000 5.66 60 16:41 07.02.2021
2806 Clouds 29 1010 89 7000 6.17 70 16:20 07.02.2021
2807 Clouds 29 1010 89 7000 6.17 70 15:44 07.02.2021
2808 Clouds 29 1009 89 7000 6.17 70 15:21 07.02.2021
2809 Clouds 29 1009 89 7000 6.17 70 14:44 07.02.2021
2810 Clouds 29 1009 89 7000 6.17 70 14:26 07.02.2021
2811 Clouds 31 1008 79 7000 5.66 60 13:45 07.02.2021
2812 Clouds 31 1008 79 7000 5.66 60 13:26 07.02.2021
2813 Clouds 31 1008 79 7000 6.17 60 12:40 07.02.2021
2814 Clouds 31 1008 79 6000 6.17 70 12:21 07.02.2021
2815 Clouds 31 1008 79 6000 6.17 70 11:43 07.02.2021
2816 Clouds 31 1008 79 6000 6.17 70 11:24 07.02.2021
2817 Clouds 31 1008 70 6000 7.2 70 10:31 07.02.2021
2818 Clouds 31 1009 70 6000 7.2 70 09:57 07.02.2021
2819 Clouds 31 1009 70 6000 7.2 70 09:39 07.02.2021
2820 Clouds 31 1010 70 6000 5.14 70 09:20 07.02.2021
2821 Clouds 31 1011 70 6000 5.66 70 08:19 07.02.2021
2822 Clouds 30 1011 74 6000 5.66 50 06:33 07.02.2021
2823 Clouds 30 1011 70 6000 6.17 50 05:48 07.02.2021
2824 Clouds 27 1009 83 7000 4.12 70 02:53 07.02.2021
2825 Clouds 27 1009 83 7000 4.12 100 00:58 07.02.2021
2826 Clouds 27 1009 83 7000 4.12 100 00:28 07.02.2021
2827 Clouds 28 1009 78 7000 4.63 100 23:32 06.02.2021
2828 Clouds 28 1010 78 7000 5.66 80 22:31 06.02.2021
2829 Clouds 28 1010 78 7000 5.66 90 21:39 06.02.2021
2830 Clouds 28 1011 78 7000 5.14 90 21:20 06.02.2021
2831 Clouds 28 1011 78 7000 5.14 90 20:45 06.02.2021
2832 Clouds 28 1011 78 7000 5.14 90 20:23 06.02.2021
2833 Clouds 28 1012 83 7000 6.17 90 19:55 06.02.2021
2834 Clouds 28 1012 83 7000 6.17 90 19:28 06.02.2021
2835 Clouds 28 1012 78 7000 5.66 80 18:46 06.02.2021
2836 Clouds 28 1012 78 7000 5.66 80 18:27 06.02.2021
2837 Clouds 28 1012 78 7000 5.66 80 17:44 06.02.2021
2838 Clouds 29 1011 74 7000 5.14 70 17:22 06.02.2021
2839 Clouds 29 1011 74 7000 5.14 70 16:58 06.02.2021
2840 Clouds 29 1011 74 7000 5.14 70 16:34 06.02.2021
2841 Clouds 29 1010 74 7000 6.17 70 15:57 06.02.2021
2842 Clouds 29 1010 74 7000 6.17 70 15:38 06.02.2021
2843 Clouds 29 1009 74 7000 4.12 70 15:18 06.02.2021
2844 Clouds 29 1009 74 7000 4.12 70 14:44 06.02.2021
2845 Clouds 30 1008 74 7000 4.63 70 14:22 06.02.2021
2846 Clouds 30 1008 74 7000 4.63 70 13:47 06.02.2021
2847 Clouds 30 1008 74 7000 4.63 70 12:51 06.02.2021
2848 Clouds 30 1008 74 7000 5.14 60 12:21 06.02.2021
2849 Clouds 30 1008 74 7000 5.14 60 11:45 06.02.2021
2850 Clouds 30 1009 74 7000 4.12 40 11:22 06.02.2021
2851 Clouds 30 1009 74 7000 4.12 40 10:54 06.02.2021
2852 Clouds 30 1009 74 7000 4.12 40 10:28 06.02.2021
2853 Clouds 30 1009 74 7000 4.63 70 09:56 06.02.2021
2854 Clouds 30 1009 74 7000 4.63 70 09:36 06.02.2021
2855 Clouds 31 1010 70 7000 4.63 70 09:18 06.02.2021
2856 Clouds 31 1010 70 7000 4.63 70 08:33 06.02.2021
2857 Clouds 31 1011 70 7000 3.6 70 07:56 06.02.2021
2858 Clouds 30 1011 74 7000 3.6 40 05:43 06.02.2021
2859 Clouds 27 1011 83 7000 2.57 40 03:53 06.02.2021
2860 Clouds 27 1010 78 7000 2.57 40 01:37 06.02.2021
2861 Clouds 27 1010 78 7000 2.57 40 00:46 06.02.2021
2862 Clouds 27 1010 83 7000 3.6 60 00:19 06.02.2021
2863 Clouds 27 1010 83 7000 3.6 60 23:42 05.02.2021
2864 Clouds 27 1010 83 7000 3.6 60 23:24 05.02.2021
2865 Clouds 27 1010 83 7000 3.09 60 22:45 05.02.2021
2866 Clouds 27 1011 83 7000 3.6 70 22:19 05.02.2021
2867 Clouds 27 1011 83 7000 3.6 70 21:41 05.02.2021
2868 Clouds 27 1011 83 8000 3.09 60 21:23 05.02.2021
2869 Clouds 27 1011 83 8000 3.09 60 20:43 05.02.2021
2870 Clouds 28 1012 78 8000 3.09 50 19:51 05.02.2021
2871 Clouds 28 1012 78 8000 3.6 50 19:19 05.02.2021
2872 Clouds 28 1012 78 8000 3.6 50 18:52 05.02.2021
2873 Clouds 28 1012 78 8000 3.6 60 18:20 05.02.2021
2874 Clouds 28 1012 78 8000 3.6 60 17:44 05.02.2021
2875 Clouds 28 1011 78 7000 4.12 60 17:21 05.02.2021
2876 Clouds 28 1011 78 7000 4.12 60 16:49 05.02.2021
2877 Clouds 28 1011 78 7000 4.12 60 16:24 05.02.2021
2878 Clouds 28 1010 78 7000 4.63 50 15:54 05.02.2021
2879 Clouds 28 1010 78 7000 4.63 50 15:26 05.02.2021
2880 Clouds 29 1010 74 7000 5.14 50 14:40 05.02.2021
2881 Clouds 29 1009 74 7000 5.14 50 14:22 05.02.2021
2882 Clouds 29 1009 74 7000 5.14 50 13:59 05.02.2021
2883 Clouds 29 1009 74 7000 5.14 50 13:36 05.02.2021
2884 Clouds 30 1009 70 8000 6.17 50 12:55 05.02.2021
2885 Clouds 30 1009 70 8000 6.17 50 12:36 05.02.2021
2886 Clouds 30 1009 74 8000 6.17 60 11:41 05.02.2021
2887 Clouds 30 1010 70 9000 7.2 50 11:21 05.02.2021
2888 Clouds 30 1010 70 9000 7.2 50 10:58 05.02.2021
2889 Clouds 30 1010 70 9000 7.2 50 10:27 05.02.2021
2890 Clouds 31 1010 66 9000 6.69 60 09:48 05.02.2021
2891 Rain 31 1010 66 9000 6.69 60 09:28 05.02.2021
2892 Clouds 31 1011 66 9000 6.69 60 08:58 05.02.2021
2893 Clouds 31 1011 66 9000 6.69 60 08:28 05.02.2021
2894 Clouds 30 1012 70 8000 6.17 50 07:38 05.02.2021
2895 Clouds 30 1013 66 6000 6.17 50 06:57 05.02.2021
2896 Clouds 29 1013 70 6000 6.69 60 05:38 05.02.2021
2897 Clouds 28 1012 78 6000 6.17 60 03:23 05.02.2021
2898 Clouds 27 1012 83 6000 5.66 60 02:25 05.02.2021
2899 Clouds 27 1011 83 6000 5.14 60 00:41 05.02.2021
2900 Clouds 28 1011 78 6000 5.66 60 00:21 05.02.2021
2901 Clouds 28 1011 78 6000 5.66 60 23:59 04.02.2021
2902 Clouds 28 1011 78 6000 5.66 60 23:39 04.02.2021
2903 Clouds 28 1011 78 6000 5.66 60 23:20 04.02.2021
2904 Clouds 28 1011 78 6000 5.66 60 22:51 04.02.2021
2905 Clouds 28 1011 78 6000 5.66 60 22:27 04.02.2021
2906 Clouds 28 1012 78 6000 5.14 60 21:42 04.02.2021
2907 Clouds 28 1012 78 6000 5.14 60 21:21 04.02.2021
2908 Clouds 28 1012 78 6000 5.14 60 20:53 04.02.2021
2909 Clouds 28 1012 78 6000 5.14 60 20:34 04.02.2021
2910 Clouds 28 1013 78 6000 5.14 70 19:47 04.02.2021
2911 Clouds 28 1013 78 6000 6.17 60 18:59 04.02.2021
2912 Clouds 28 1013 78 6000 6.17 60 18:36 04.02.2021
2913 Clouds 29 1013 74 6000 7.2 60 18:18 04.02.2021
2914 Clouds 29 1013 74 6000 7.2 60 17:41 04.02.2021
2915 Clouds 29 1012 74 6000 6.17 70 17:20 04.02.2021
2916 Clouds 29 1012 74 6000 6.17 70 16:41 04.02.2021
2917 Clouds 29 1011 74 6000 6.17 60 16:19 04.02.2021
2918 Clouds 29 1011 74 6000 6.17 60 15:40 04.02.2021
2919 Clouds 29 1011 74 6000 7.2 60 15:21 04.02.2021
2920 Clouds 29 1011 74 6000 7.2 60 14:49 04.02.2021
2921 Clouds 30 1010 70 6000 9.26 80 14:21 04.02.2021
2922 Clouds 30 1010 70 6000 9.26 80 13:49 04.02.2021
2923 Clouds 30 1010 70 6000 9.26 80 13:28 04.02.2021
2924 Clouds 31 1009 66 6000 9.77 70 12:57 04.02.2021
2925 Clouds 31 1009 66 6000 10.29 80 12:20 04.02.2021
2926 Clouds 31 1009 66 6000 10.29 80 11:38 04.02.2021
2927 Clouds 31 1010 66 6000 10.29 70 11:20 04.02.2021
2928 Clouds 31 1010 66 6000 10.29 70 10:43 04.02.2021
2929 Clouds 32 1011 66 6000 9.77 70 09:48 04.02.2021
2930 Clouds 32 1011 66 6000 9.77 70 09:23 04.02.2021
2931 Clouds 28 1011 76 10000 8.91 49 08:59 04.02.2021
2932 Clouds 31 1012 70 6000 9.26 70 08:28 04.02.2021
2933 Clouds 31 1012 70 6000 9.26 70 07:59 04.02.2021
2934 Clouds 31 1012 70 6000 9.26 70 07:35 04.02.2021
2935 Clouds 31 1012 70 6000 8.75 70 06:54 04.02.2021
2936 Clouds 31 1012 70 6000 8.75 70 06:34 04.02.2021
2937 Clouds 28 1011 78 6000 9.77 80 03:52 04.02.2021
2938 Clouds 28 1011 78 6000 8.75 70 02:24 04.02.2021
2939 Clouds 28 1010 74 6000 7.72 70 00:33 04.02.2021
2940 Clouds 28 1010 78 6000 7.2 60 23:39 03.02.2021
2941 Clouds 28 1011 83 6000 7.2 60 22:43 03.02.2021
2942 Clouds 28 1011 83 6000 8.23 70 22:22 03.02.2021
2943 Clouds 28 1011 83 6000 8.23 70 21:57 03.02.2021
2944 Clouds 28 1011 83 6000 8.23 70 21:36 03.02.2021
2945 Clouds 28 1012 83 6000 8.23 70 21:18 03.02.2021
2946 Clouds 28 1012 83 6000 8.23 70 20:38 03.02.2021
2947 Clouds 28 1013 83 6000 8.23 60 20:19 03.02.2021
2948 Clouds 28 1013 83 6000 8.23 60 19:42 03.02.2021
2949 Clouds 28 1013 83 6000 7.2 60 19:19 03.02.2021
2950 Clouds 28 1013 83 6000 7.2 60 18:46 03.02.2021
2951 Clouds 29 1013 79 6000 7.2 60 18:19 03.02.2021
2952 Clouds 29 1013 79 6000 7.2 60 17:51 03.02.2021
2953 Clouds 29 1013 79 6000 7.2 60 17:30 03.02.2021
2954 Clouds 29 1012 79 6000 7.2 60 16:53 03.02.2021
2955 Clouds 29 1012 79 6000 7.2 60 16:29 03.02.2021
2956 Clouds 29 1011 79 6000 7.72 70 15:45 03.02.2021
2957 Clouds 29 1011 79 6000 7.72 70 15:25 03.02.2021
2958 Clouds 29 1010 84 6000 6.69 70 14:53 03.02.2021
2959 Clouds 29 1010 84 6000 6.69 70 14:53 03.02.2021
2960 Clouds 29 1010 84 6000 6.69 70 14:26 03.02.2021
2961 Clouds 30 1010 74 6000 7.2 70 13:54 03.02.2021
2962 Clouds 30 1010 74 6000 7.2 70 13:28 03.02.2021
2963 Clouds 31 1009 70 6000 7.2 70 12:49 03.02.2021
2964 Clouds 31 1009 70 6000 7.2 70 12:27 03.02.2021
2965 Clouds 31 1009 74 6000 7.2 70 11:54 03.02.2021
2966 Clouds 31 1009 74 6000 7.2 70 11:35 03.02.2021
2967 Clouds 31 1010 74 9000 5.14 70 10:56 03.02.2021
2968 Clouds 32 1011 70 9000 6.69 80 10:22 03.02.2021
2969 Clouds 32 1011 70 9000 6.69 80 09:48 03.02.2021
2970 Clouds 32 1011 70 9000 6.69 80 09:28 03.02.2021
2971 Clouds 31 1012 74 9000 7.2 70 08:53 03.02.2021
2972 Clouds 31 1012 74 9000 7.2 70 08:28 03.02.2021
2973 Clouds 31 1012 74 9000 7.2 80 07:39 03.02.2021
2974 Clouds 30 1013 74 9000 7.2 70 06:41 03.02.2021
2975 Clouds 29 1012 79 9000 6.17 70 04:54 03.02.2021
2976 Clouds 29 1012 79 9000 6.17 70 04:31 03.02.2021
2977 Clouds 28 1012 83 9000 6.69 70 03:24 03.02.2021
2978 Clouds 28 1011 78 9000 7.2 70 02:37 03.02.2021
2979 Clouds 28 1010 78 9000 8.23 70 00:46 03.02.2021
2980 Clouds 28 1010 83 9000 8.75 70 23:56 02.02.2021
2981 Clouds 28 1010 83 9000 8.75 70 23:36 02.02.2021
2982 Clouds 28 1011 83 9000 7.72 70 23:18 02.02.2021
2983 Clouds 28 1011 83 9000 7.72 70 22:36 02.02.2021
2984 Clouds 28 1012 83 9000 7.72 70 22:18 02.02.2021
2985 Clouds 28 1012 83 9000 7.72 70 21:39 02.02.2021
2986 Clouds 28 1012 83 9000 8.23 70 21:19 02.02.2021
2987 Clouds 28 1012 83 9000 8.23 70 20:44 02.02.2021
2988 Clouds 28 1013 83 9000 8.75 70 20:20 02.02.2021
2989 Clouds 28 1013 83 9000 8.75 70 19:48 02.02.2021
2990 Clouds 28 1013 83 9000 8.75 70 19:29 02.02.2021
2991 Clouds 29 1013 79 9000 8.75 70 18:46 02.02.2021
2992 Clouds 29 1013 79 9000 8.75 70 18:26 02.02.2021
2993 Clouds 29 1012 79 9000 9.77 70 17:51 02.02.2021
2994 Clouds 29 1012 79 9000 9.77 70 17:24 02.02.2021
2995 Clouds 29 1012 79 9000 8.75 60 16:58 02.02.2021
2996 Clouds 29 1012 79 9000 8.75 60 16:38 02.02.2021
2997 Clouds 29 1011 79 9000 8.23 70 16:18 02.02.2021
2998 Clouds 29 1011 79 9000 8.23 70 15:42 02.02.2021
2999 Clouds 29 1011 79 9000 8.23 80 15:21 02.02.2021
3000 Clouds 29 1011 79 9000 8.23 80 14:41 02.02.2021
3001 Clouds 30 1010 70 9000 8.75 70 14:19 02.02.2021
3002 Clouds 30 1010 70 9000 8.75 70 13:54 02.02.2021
3003 Clouds 30 1010 70 9000 8.75 70 13:36 02.02.2021
3004 Clouds 31 1010 66 9000 8.75 70 13:18 02.02.2021
3005 Clouds 31 1010 66 9000 8.75 70 12:29 02.02.2021
3006 Clouds 31 1009 70 9000 9.77 70 11:43 02.02.2021
3007 Clouds 31 1010 70 8000 9.77 70 11:21 02.02.2021
3008 Clouds 31 1010 70 8000 9.77 70 10:53 02.02.2021
3009 Clouds 31 1010 70 8000 9.77 70 10:27 02.02.2021
3010 Clouds 32 1011 66 7000 9.26 70 09:46 02.02.2021
3011 Clouds 32 1011 66 7000 9.26 70 09:25 02.02.2021
3012 Clouds 32 1012 70 7000 7.72 80 08:48 02.02.2021
3013 Clouds 31 1013 74 8000 8.23 80 08:22 02.02.2021
3014 Clouds 31 1013 74 8000 8.23 80 07:28 02.02.2021
3015 Clouds 31 1013 74 8000 8.75 80 06:42 02.02.2021
3016 Clouds 30 1013 74 8000 8.75 80 05:52 02.02.2021
3017 Clouds 29 1013 79 8000 8.75 80 04:37 02.02.2021
3018 Clouds 28 1011 83 7000 8.23 80 02:26 02.02.2021
3019 Clouds 28 1011 83 7000 8.23 80 01:46 02.02.2021
3020 Clouds 28 1010 83 7000 8.75 90 00:34 02.02.2021
3021 Clouds 28 1011 83 7000 9.26 80 23:19 01.02.2021
3022 Clouds 28 1011 83 7000 9.26 80 22:50 01.02.2021
3023 Clouds 28 1011 83 7000 9.26 80 22:32 01.02.2021
3024 Clouds 28 1011 89 7000 8.23 90 21:49 01.02.2021
3025 Clouds 28 1011 89 7000 8.23 90 21:30 01.02.2021
3026 Clouds 28 1011 89 7000 8.23 90 21:30 01.02.2021
3027 Clouds 28 1012 89 7000 8.23 80 20:56 01.02.2021
3028 Clouds 28 1012 89 7000 8.23 80 20:36 01.02.2021
3029 Clouds 28 1013 89 7000 7.2 70 20:18 01.02.2021
3030 Clouds 28 1013 89 7000 7.2 70 19:38 01.02.2021
3031 Clouds 28 1013 75 10000 7.31 59 19:18 01.02.2021
3032 Clouds 28 1013 75 10000 7.31 59 18:46 01.02.2021
3033 Clouds 28 1013 75 10000 7.35 57 18:26 01.02.2021
3034 Clouds 28 1013 75 10000 7.35 57 17:47 01.02.2021
3035 Clouds 28 1012 83 8000 4.12 60 17:23 01.02.2021
3036 Clouds 28 1012 83 8000 4.12 60 16:46 01.02.2021
3037 Clouds 28 1012 83 8000 4.12 60 16:28 01.02.2021
3038 Clouds 28 1011 83 8000 7.2 80 15:42 01.02.2021
3039 Clouds 28 1010 83 8000 10.8 80 15:19 01.02.2021
3040 Clouds 28 1010 83 8000 10.8 80 14:51 01.02.2021
3041 Clouds 28 1010 83 8000 10.8 80 14:24 01.02.2021
3042 Clouds 30 1010 70 8000 7.2 80 13:47 01.02.2021
3043 Clouds 30 1010 70 8000 7.2 80 13:26 01.02.2021
3044 Clouds 30 1010 70 8000 7.2 80 13:26 01.02.2021
3045 Clouds 30 1009 74 8000 7.72 90 12:45 01.02.2021
3046 Clouds 30 1009 74 8000 7.72 90 12:45 01.02.2021
3047 Clouds 31 1009 70 8000 5.14 80 12:25 01.02.2021
3048 Clouds 31 1009 70 8000 5.14 80 11:51 01.02.2021
3049 Clouds 31 1010 74 8000 4.63 60 11:21 01.02.2021
3050 Clouds 31 1010 74 8000 4.63 60 10:53 01.02.2021
3051 Clouds 31 1010 74 8000 4.63 60 10:27 01.02.2021
3052 Clouds 30 1011 74 8000 5.14 60 09:56 01.02.2021
3053 Clouds 30 1011 74 8000 5.14 60 09:36 01.02.2021
3054 Clouds 31 1012 70 8000 5.66 50 08:56 01.02.2021
3055 Clouds 31 1012 70 8000 5.66 50 08:27 01.02.2021
3056 Clouds 30 1013 79 7000 6.17 60 07:32 01.02.2021
3057 Clouds 30 1013 74 7000 5.66 70 05:27 01.02.2021
3058 Clouds 28 1011 83 7000 6.17 60 02:40 01.02.2021
3059 Clouds 28 1010 83 7000 6.17 60 00:26 01.02.2021
3060 Clouds 28 1010 83 7000 5.14 50 23:28 31.01.2021
3061 Clouds 28 1010 83 7000 5.66 50 22:41 31.01.2021
3062 Clouds 28 1011 89 7000 6.17 60 22:23 31.01.2021
3063 Clouds 28 1011 89 7000 6.17 60 21:47 31.01.2021
3064 Clouds 28 1012 83 7000 5.14 60 21:21 31.01.2021
3065 Clouds 28 1012 83 7000 5.14 60 20:46 31.01.2021
3066 Clouds 28 1012 83 7000 6.17 70 20:21 31.01.2021
3067 Clouds 28 1012 83 7000 6.17 70 19:41 31.01.2021
3068 Clouds 28 1012 83 7000 6.17 70 19:23 31.01.2021
3069 Clouds 28 1012 89 7000 6.17 80 18:57 31.01.2021
3070 Clouds 28 1012 89 7000 6.17 80 18:38 31.01.2021
3071 Clouds 28 1013 77 10000 6.27 36 18:19 31.01.2021
3072 Clouds 28 1013 77 10000 6.27 36 17:44 31.01.2021
3073 Clouds 28 1011 83 7000 6.17 80 17:22 31.01.2021
3074 Clouds 28 1011 83 7000 6.17 80 16:46 31.01.2021
3075 Clouds 28 1011 83 7000 6.17 80 16:27 31.01.2021
3076 Clouds 29 1010 79 7000 6.17 70 15:50 31.01.2021
3077 Clouds 29 1010 79 7000 6.17 70 15:31 31.01.2021
3078 Clouds 29 1010 79 7000 6.69 70 14:42 31.01.2021
3079 Clouds 30 1009 74 7000 6.69 70 14:21 31.01.2021
3080 Clouds 30 1009 74 7000 6.69 70 13:49 31.01.2021
3081 Clouds 30 1009 74 7000 6.69 70 13:26 31.01.2021
3082 Clouds 31 1009 66 7000 6.69 70 12:48 31.01.2021
3083 Clouds 30 1009 79 7000 7.2 70 12:22 31.01.2021
3084 Clouds 30 1009 79 7000 7.2 70 11:44 31.01.2021
3085 Clouds 30 1009 79 7000 7.2 70 11:44 31.01.2021
3086 Clouds 29 1010 84 6000 6.17 70 11:22 31.01.2021
3087 Clouds 29 1010 84 6000 6.17 70 10:49 31.01.2021
3088 Clouds 29 1010 84 6000 6.17 70 10:31 31.01.2021
3089 Clouds 32 1010 70 6000 5.66 70 09:50 31.01.2021
3090 Clouds 32 1010 70 6000 5.66 70 09:23 31.01.2021
3091 Clouds 32 1011 70 6000 6.17 70 08:33 31.01.2021
3092 Clouds 31 1012 66 6000 7.2 80 06:56 31.01.2021
3093 Clouds 30 1012 74 6000 6.17 70 05:31 31.01.2021
3094 Clouds 28 1009 78 6000 5.14 50 00:46 31.01.2021
3095 Clouds 28 1009 78 6000 5.14 60 00:21 31.01.2021
3096 Clouds 28 1009 78 6000 5.14 60 23:30 30.01.2021
3097 Clouds 28 1010 78 6000 6.17 50 22:56 30.01.2021
3098 Clouds 28 1010 78 6000 6.17 50 22:29 30.01.2021
3099 Clouds 28 1011 78 6000 6.17 60 21:40 30.01.2021
3100 Clouds 28 1011 78 6000 8.23 60 21:21 30.01.2021
3101 Clouds 28 1011 78 6000 8.23 60 20:46 30.01.2021
3102 Clouds 28 1011 78 6000 8.23 60 20:27 30.01.2021
3103 Clouds 28 1012 78 6000 7.2 60 19:44 30.01.2021
3104 Clouds 28 1012 78 6000 7.2 60 19:25 30.01.2021
3105 Clouds 28 1012 78 6000 7.72 60 18:42 30.01.2021
3106 Clouds 28 1012 78 6000 6.69 60 18:21 30.01.2021
3107 Clouds 28 1012 78 6000 6.69 60 17:58 30.01.2021
3108 Clouds 28 1011 78 6000 6.17 60 17:19 30.01.2021
3109 Clouds 28 1011 78 6000 6.17 60 16:47 30.01.2021
3110 Clouds 28 1011 78 6000 6.17 60 16:25 30.01.2021
3111 Clouds 28 1010 78 6000 5.14 70 15:57 30.01.2021
3112 Clouds 28 1010 78 6000 5.14 70 15:57 30.01.2021
3113 Clouds 28 1010 78 6000 5.14 70 15:39 30.01.2021
3114 Clouds 29 1009 74 6000 4.63 70 15:20 30.01.2021
3115 Clouds 29 1009 74 6000 4.63 70 14:47 30.01.2021
3116 Clouds 30 1009 70 6000 4.12 70 14:21 30.01.2021
3117 Clouds 30 1009 70 6000 4.12 70 13:32 30.01.2021
3118 Clouds 30 1009 70 6000 4.63 60 12:49 30.01.2021
3119 Clouds 30 1009 70 6000 4.63 60 12:29 30.01.2021
3120 Clouds 31 1009 66 6000 4.63 70 11:57 30.01.2021
3121 Clouds 31 1009 66 6000 4.63 70 11:31 30.01.2021
3122 Clouds 32 1009 66 6000 4.63 70 10:48 30.01.2021
3123 Clouds 31 1010 66 6000 4.63 80 09:51 30.01.2021
3124 Clouds 31 1010 66 6000 4.63 80 09:30 30.01.2021
3125 Clouds 31 1011 70 6000 5.14 70 08:47 30.01.2021
3126 Clouds 31 1012 66 6000 5.14 70 07:49 30.01.2021
3127 Clouds 30 1012 70 6000 5.14 60 06:51 30.01.2021
3128 Clouds 29 1012 74 6000 5.66 70 05:43 30.01.2021
3129 Clouds 27 1011 83 6000 3.6 50 03:35 30.01.2021
3130 Clouds 27 1010 83 6000 4.12 40 02:24 30.01.2021
3131 Clouds 27 1010 83 6000 4.63 40 01:30 30.01.2021
3132 Clouds 27 1010 78 6000 5.14 40 00:39 30.01.2021
3133 Clouds 27 1010 78 6000 5.66 40 00:20 30.01.2021
3134 Clouds 27 1010 78 6000 5.66 40 23:45 29.01.2021
3135 Clouds 27 1010 78 6000 5.66 40 23:21 29.01.2021
3136 Clouds 27 1010 78 6000 5.66 40 22:44 29.01.2021
3137 Clouds 28 1011 78 6000 5.14 40 22:20 29.01.2021
3138 Clouds 28 1011 78 6000 5.14 40 21:29 29.01.2021
3139 Clouds 28 1011 78 6000 5.14 40 21:29 29.01.2021
3140 Clouds 28 1012 78 6000 5.66 40 20:59 29.01.2021
3141 Clouds 28 1012 78 6000 5.66 40 20:40 29.01.2021
3142 Clouds 28 1012 78 6000 5.66 70 20:18 29.01.2021
3143 Clouds 28 1012 78 6000 5.66 70 19:38 29.01.2021
3144 Clouds 28 1013 78 6000 6.17 60 19:18 29.01.2021
3145 Clouds 28 1013 78 6000 6.17 60 18:30 29.01.2021
3146 Clouds 29 1012 74 6000 7.72 70 17:40 29.01.2021
3147 Clouds 29 1011 74 6000 7.2 80 17:21 29.01.2021
3148 Clouds 29 1011 74 6000 7.2 80 17:21 29.01.2021
3149 Clouds 29 1011 74 6000 7.2 80 16:45 29.01.2021
3150 Clouds 29 1011 74 6000 7.2 80 16:23 29.01.2021
3151 Clouds 29 1011 74 6000 6.17 70 15:51 29.01.2021
3152 Clouds 29 1011 74 6000 6.17 70 15:31 29.01.2021
3153 Clouds 29 1010 74 6000 6.17 80 14:47 29.01.2021
3154 Clouds 30 1010 70 6000 6.17 70 14:18 29.01.2021
3155 Clouds 30 1010 70 6000 6.17 70 13:41 29.01.2021
3156 Clouds 31 1009 66 6000 6.17 70 13:22 29.01.2021
3157 Clouds 31 1009 66 6000 6.17 70 12:28 29.01.2021
3158 Clouds 31 1009 66 6000 6.69 70 11:50 29.01.2021
3159 Clouds 31 1010 66 6000 6.69 60 11:20 29.01.2021
3160 Clouds 31 1010 66 6000 6.69 60 10:52 29.01.2021
3161 Clouds 31 1010 66 6000 6.69 60 10:33 29.01.2021
3162 Clouds 31 1011 66 6000 6.69 70 09:49 29.01.2021
3163 Clouds 31 1011 66 6000 6.69 70 09:28 29.01.2021
3164 Clouds 31 1011 66 6000 6.69 70 08:46 29.01.2021
3165 Clouds 31 1012 66 6000 6.69 70 08:22 29.01.2021
3166 Clouds 31 1012 66 6000 6.69 70 07:42 29.01.2021
3167 Clouds 30 1012 66 6000 6.17 50 07:20 29.01.2021
3168 Clouds 29 1013 70 6000 4.63 50 05:23 29.01.2021
3169 Clouds 27 1012 78 6000 4.12 50 03:50 29.01.2021
3170 Clouds 27 1010 74 6000 4.12 60 00:44 29.01.2021
3171 Clouds 27 1010 74 6000 4.12 50 00:22 29.01.2021
3172 Clouds 27 1010 74 6000 4.12 50 23:44 28.01.2021
3173 Clouds 27 1010 74 6000 4.12 50 23:25 28.01.2021
3174 Clouds 27 1011 78 6000 4.63 50 22:49 28.01.2021
3175 Clouds 27 1011 78 6000 4.63 50 22:28 28.01.2021
3176 Clouds 28 1011 69 6000 4.63 40 21:58 28.01.2021
3177 Clouds 28 1011 69 6000 4.63 40 21:38 28.01.2021
3178 Clouds 27 1012 74 6000 5.14 40 21:20 28.01.2021
3179 Clouds 27 1012 74 6000 5.14 40 20:39 28.01.2021
3180 Clouds 28 1012 65 10000 5.66 50 20:18 28.01.2021
3181 Clouds 28 1012 65 10000 5.66 50 19:46 28.01.2021
3182 Clouds 28 1012 65 10000 5.66 50 19:23 28.01.2021
3183 Clouds 28 1012 69 6000 6.17 50 18:45 28.01.2021
3184 Clouds 28 1012 69 6000 6.17 50 18:27 28.01.2021
3185 Clouds 28 1012 69 6000 6.17 40 17:47 28.01.2021
3186 Clouds 28 1012 69 6000 6.17 40 17:28 28.01.2021
3187 Clouds 28 1011 65 6000 6.17 50 16:45 28.01.2021
3188 Clouds 28 1011 65 6000 6.17 50 16:25 28.01.2021
3189 Clouds 28 1010 69 6000 5.14 50 15:56 28.01.2021
3190 Clouds 28 1010 69 6000 5.14 50 15:23 28.01.2021
3191 Clouds 29 1010 61 6000 6.69 50 14:43 28.01.2021
3192 Clouds 29 1010 61 6000 6.69 50 14:23 28.01.2021
3193 Clouds 30 1009 58 6000 6.69 50 13:49 28.01.2021
3194 Clouds 31 1009 55 6000 7.2 60 13:21 28.01.2021
3195 Clouds 31 1009 55 6000 7.2 60 12:46 28.01.2021
3196 Clouds 31 1009 55 6000 7.2 60 12:21 28.01.2021
3197 Clouds 31 1009 55 6000 7.2 60 11:44 28.01.2021
3198 Clouds 31 1010 62 6000 7.2 60 11:21 28.01.2021
3199 Clouds 31 1010 62 6000 7.2 60 10:55 28.01.2021
3200 Clouds 31 1010 62 6000 7.2 60 10:35 28.01.2021
3201 Clouds 31 1011 58 6000 6.69 60 09:59 28.01.2021
3202 Clouds 31 1011 58 6000 6.69 60 09:31 28.01.2021
3203 Clouds 31 1011 62 7000 5.14 60 08:57 28.01.2021
3204 Clouds 31 1011 62 7000 5.14 60 08:39 28.01.2021
3205 Clouds 30 1012 62 7000 5.14 60 07:46 28.01.2021
3206 Clouds 30 1013 58 7000 5.14 60 06:51 28.01.2021
3207 Clouds 30 1013 58 7000 5.14 60 06:32 28.01.2021
3208 Clouds 27 1012 69 7000 5.66 50 04:30 28.01.2021
3209 Clouds 27 1010 69 8000 4.63 30 01:41 28.01.2021
3210 Clouds 27 1010 69 8000 4.63 30 01:41 28.01.2021
3211 Clouds 27 1010 65 8000 4.63 70 23:56 27.01.2021
3212 Clouds 27 1010 65 8000 4.63 70 23:25 27.01.2021
3213 Clouds 27 1010 65 8000 5.14 70 22:44 27.01.2021
3214 Clouds 27 1010 65 8000 5.14 70 22:25 27.01.2021
3215 Clouds 27 1011 65 8000 5.66 70 21:55 27.01.2021
3216 Clouds 27 1011 65 8000 5.66 70 21:37 27.01.2021
3217 Clouds 27 1011 69 8000 6.17 60 21:19 27.01.2021
3218 Clouds 27 1011 69 8000 6.17 60 20:39 27.01.2021
3219 Clouds 28 1012 65 8000 5.66 60 19:57 27.01.2021
3220 Clouds 28 1012 65 8000 5.66 60 19:37 27.01.2021
3221 Clouds 28 1012 69 8000 7.2 60 19:18 27.01.2021
3222 Clouds 28 1012 69 8000 7.2 60 18:41 27.01.2021
3223 Clouds 28 1012 69 8000 5.66 50 18:22 27.01.2021
3224 Clouds 28 1012 69 8000 5.66 50 17:44 27.01.2021
3225 Clouds 28 1011 65 8000 5.66 50 17:18 27.01.2021
3226 Clouds 28 1011 65 8000 5.66 50 17:18 27.01.2021
3227 Clouds 28 1011 65 8000 5.66 50 16:45 27.01.2021
3228 Clouds 28 1011 65 8000 5.66 50 16:27 27.01.2021
3229 Clouds 28 1010 65 8000 6.69 40 15:50 27.01.2021
3230 Clouds 28 1010 65 8000 6.69 40 15:30 27.01.2021
3231 Clouds 29 1009 61 8000 7.2 40 14:41 27.01.2021
3232 Clouds 30 1008 62 10000 7.2 40 14:21 27.01.2021
3233 Clouds 30 1008 62 10000 7.2 40 13:42 27.01.2021
3234 Clouds 30 1008 62 8000 7.72 40 12:47 27.01.2021
3235 Clouds 30 1008 62 8000 7.72 40 12:26 27.01.2021
3236 Clouds 31 1008 58 8000 8.75 40 11:53 27.01.2021
3237 Clouds 31 1008 58 8000 8.75 40 11:32 27.01.2021
3238 Clouds 31 1009 55 8000 8.75 50 11:00 27.01.2021
3239 Clouds 31 1009 55 8000 8.75 50 10:36 27.01.2021
3240 Clouds 31 1010 58 8000 8.75 60 10:18 27.01.2021
3241 Clouds 31 1010 58 8000 8.75 60 10:18 27.01.2021
3242 Clouds 31 1010 58 8000 8.75 60 09:36 27.01.2021
3243 Clouds 32 1011 55 6000 8.23 80 08:48 27.01.2021
3244 Clouds 31 1012 62 6000 7.2 70 07:59 27.01.2021
3245 Clouds 31 1012 62 6000 7.2 70 07:40 27.01.2021
3246 Clouds 30 1012 62 6000 6.69 60 06:49 27.01.2021
3247 Clouds 30 1012 62 6000 6.69 70 05:58 27.01.2021
3248 Clouds 30 1012 62 6000 6.69 70 05:35 27.01.2021
3249 Clouds 27 1010 74 7000 4.63 40 02:46 27.01.2021
3250 Clouds 27 1010 74 7000 5.14 40 02:21 27.01.2021
3251 Clouds 27 1010 74 7000 5.14 40 01:47 27.01.2021
3252 Clouds 27 1009 74 7000 5.14 40 00:30 27.01.2021
3253 Clouds 27 1010 74 8000 4.63 40 23:44 26.01.2021
3254 Clouds 28 1010 69 8000 4.12 40 23:22 26.01.2021
3255 Clouds 28 1010 69 8000 4.12 40 22:46 26.01.2021
3256 Clouds 28 1010 69 8000 4.12 50 22:20 26.01.2021
3257 Clouds 28 1010 69 8000 4.12 50 21:53 26.01.2021
3258 Clouds 28 1010 69 8000 4.12 50 21:27 26.01.2021
3259 Clouds 28 1011 74 8000 4.12 40 20:57 26.01.2021
3260 Clouds 28 1011 74 8000 4.12 40 20:38 26.01.2021
3261 Clouds 28 1012 69 8000 4.12 40 20:20 26.01.2021
3262 Clouds 28 1012 69 8000 4.12 40 19:43 26.01.2021
3263 Clouds 28 1012 74 8000 5.66 50 19:20 26.01.2021
3264 Clouds 28 1012 74 8000 5.66 50 18:46 26.01.2021
3265 Clouds 28 1012 74 8000 5.66 50 18:24 26.01.2021
3266 Clouds 28 1011 69 8000 5.66 60 17:48 26.01.2021
3267 Clouds 28 1011 69 8000 5.66 60 17:27 26.01.2021
3268 Clouds 28 1011 74 8000 5.14 60 16:54 26.01.2021
3269 Clouds 29 1010 70 8000 5.14 70 16:22 26.01.2021
3270 Clouds 29 1010 70 8000 5.14 70 15:58 26.01.2021
3271 Clouds 29 1010 70 8000 5.14 70 15:39 26.01.2021
3272 Clouds 29 1009 70 8000 7.2 70 15:18 26.01.2021
3273 Clouds 29 1009 70 8000 7.2 70 14:35 26.01.2021
3274 Clouds 30 1008 62 8000 6.69 60 13:59 26.01.2021
3275 Clouds 30 1008 62 8000 6.69 60 13:30 26.01.2021
3276 Clouds 31 1008 55 8000 6.69 60 12:56 26.01.2021
3277 Clouds 31 1008 55 8000 6.69 60 12:37 26.01.2021
3278 Clouds 31 1008 55 8000 7.2 60 12:19 26.01.2021
3279 Clouds 31 1008 55 8000 7.2 60 11:49 26.01.2021
3280 Clouds 32 1009 55 8000 7.2 60 11:18 26.01.2021
3281 Clouds 32 1009 55 8000 7.2 60 10:34 26.01.2021
3282 Clouds 31 1010 58 7000 7.2 60 09:57 26.01.2021
3283 Clouds 31 1010 58 7000 7.2 60 09:36 26.01.2021
3284 Clouds 31 1011 62 7000 7.2 60 09:18 26.01.2021
3285 Clouds 31 1011 62 7000 7.2 60 08:42 26.01.2021
3286 Clouds 31 1012 62 7000 7.2 70 07:56 26.01.2021
3287 Clouds 30 1012 66 7000 7.2 70 06:58 26.01.2021
3288 Clouds 30 1012 66 7000 6.69 60 05:51 26.01.2021
3289 Clouds 30 1012 66 7000 6.69 60 05:32 26.01.2021
3290 Clouds 28 1011 74 6000 6.17 60 03:32 26.01.2021
3291 Clouds 28 1009 74 6000 5.66 60 00:59 26.01.2021
3292 Clouds 28 1009 74 6000 5.66 60 00:24 26.01.2021
3293 Clouds 28 1009 78 6000 5.66 70 23:31 25.01.2021
3294 Clouds 28 1010 74 6000 5.14 60 22:47 25.01.2021
3295 Clouds 28 1010 74 6000 5.14 60 22:29 25.01.2021
3296 Clouds 28 1010 74 6000 6.17 60 21:45 25.01.2021
3297 Clouds 27 1010 79 10000 7.15 61 21:18 25.01.2021
3298 Clouds 27 1010 79 10000 7.15 61 20:41 25.01.2021
3299 Clouds 28 1012 78 6000 5.66 70 20:23 25.01.2021
3300 Clouds 28 1012 78 6000 5.66 70 19:47 25.01.2021
3301 Clouds 28 1012 78 6000 5.66 70 19:47 25.01.2021
3302 Clouds 28 1012 78 6000 5.66 70 19:47 25.01.2021
3303 Clouds 28 1012 78 6000 6.69 70 19:23 25.01.2021
3304 Clouds 28 1012 78 6000 6.69 70 18:45 25.01.2021
3305 Clouds 28 1012 78 6000 6.69 70 18:24 25.01.2021
3306 Clouds 29 1011 74 6000 6.69 70 17:48 25.01.2021
3307 Clouds 29 1011 74 6000 7.2 70 17:25 25.01.2021
3308 Clouds 29 1011 74 6000 7.2 70 16:49 25.01.2021
3309 Clouds 29 1011 74 6000 7.2 70 16:26 25.01.2021
3310 Clouds 29 1010 74 6000 7.2 80 15:55 25.01.2021
3311 Clouds 29 1010 74 6000 7.2 80 15:36 25.01.2021
3312 Clouds 29 1010 74 6000 7.2 80 14:59 25.01.2021
3313 Clouds 29 1010 74 6000 7.2 80 14:38 25.01.2021
3314 Clouds 30 1009 70 6000 6.69 70 14:18 25.01.2021
3315 Clouds 30 1009 70 6000 6.69 70 13:43 25.01.2021
3316 Clouds 31 1009 66 6000 7.2 80 13:20 25.01.2021
3317 Clouds 31 1009 66 6000 7.2 80 12:41 25.01.2021
3318 Clouds 31 1009 70 8000 6.69 80 12:18 25.01.2021
3319 Clouds 31 1009 70 8000 6.69 80 11:28 25.01.2021
3320 Clouds 32 1010 66 8000 7.2 80 10:49 25.01.2021
3321 Clouds 32 1011 66 8000 6.69 70 10:22 25.01.2021
3322 Clouds 32 1011 66 8000 6.69 70 10:22 25.01.2021
3323 Clouds 32 1011 66 8000 6.69 70 09:52 25.01.2021
3324 Clouds 32 1011 66 8000 6.69 70 09:28 25.01.2021
3325 Clouds 32 1012 66 8000 6.17 80 08:38 25.01.2021
3326 Clouds 31 1012 70 8000 6.17 80 07:57 25.01.2021
3327 Clouds 31 1012 70 8000 6.17 80 07:28 25.01.2021
3328 Clouds 31 1012 70 9000 5.66 90 06:38 25.01.2021
3329 Clouds 28 1010 78 10000 6.17 80 02:32 25.01.2021
3330 Clouds 28 1010 78 8000 6.69 90 00:42 25.01.2021
3331 Clouds 28 1010 78 8000 6.69 80 23:38 24.01.2021
3332 Clouds 28 1010 78 8000 6.69 80 23:18 24.01.2021
3333 Clouds 28 1010 78 8000 6.69 80 22:40 24.01.2021
3334 Clouds 28 1011 78 8000 6.69 80 22:18 24.01.2021
3335 Clouds 28 1011 78 8000 6.69 80 21:37 24.01.2021
3336 Clouds 28 1011 78 8000 7.2 80 21:18 24.01.2021
3337 Clouds 28 1011 78 8000 7.2 80 20:41 24.01.2021
3338 Clouds 29 1012 79 8000 7.2 70 20:19 24.01.2021
3339 Clouds 29 1012 79 8000 7.2 70 19:48 24.01.2021
3340 Clouds 29 1012 79 8000 7.2 70 19:25 24.01.2021
3341 Clouds 29 1012 74 8000 7.2 80 18:56 24.01.2021
3342 Clouds 29 1012 74 8000 7.2 80 18:37 24.01.2021
3343 Clouds 29 1011 79 8000 6.69 80 18:18 24.01.2021
3344 Clouds 29 1011 79 8000 6.69 80 17:45 24.01.2021
3345 Clouds 29 1011 74 8000 6.69 80 17:20 24.01.2021
3346 Clouds 29 1011 74 8000 6.69 80 16:42 24.01.2021
3347 Clouds 29 1010 79 8000 6.69 80 16:21 24.01.2021
3348 Clouds 29 1010 79 8000 6.69 80 15:48 24.01.2021
3349 Clouds 30 1009 74 8000 5.66 80 15:21 24.01.2021
3350 Clouds 30 1009 74 8000 5.66 80 14:57 24.01.2021
3351 Clouds 30 1009 74 8000 5.66 80 14:34 24.01.2021
3352 Clouds 31 1009 70 8000 6.17 80 13:40 24.01.2021
3353 Clouds 31 1009 70 9000 6.17 80 13:18 24.01.2021
3354 Clouds 31 1009 70 9000 6.17 80 12:40 24.01.2021
3355 Clouds 31 1009 70 8000 6.17 80 12:19 24.01.2021
3356 Clouds 31 1009 70 8000 6.17 80 11:46 24.01.2021
3357 Clouds 31 1009 70 8000 6.17 80 11:23 24.01.2021
3358 Clouds 32 1009 66 8000 6.17 70 10:42 24.01.2021
3359 Clouds 28 1010 76 10000 6.84 64 09:59 24.01.2021
3360 Clouds 32 1011 66 9000 6.17 80 09:22 24.01.2021
3361 Clouds 32 1011 66 9000 6.17 80 08:52 24.01.2021
3362 Clouds 32 1012 66 10000 6.17 90 07:41 24.01.2021
3363 Clouds 28 1009 83 10000 5.66 80 02:39 24.01.2021
3364 Clouds 28 1009 83 10000 4.12 90 01:00 24.01.2021
3365 Clouds 28 1009 83 10000 4.12 90 00:24 24.01.2021
3366 Clouds 28 1009 83 10000 3.6 80 23:47 23.01.2021
3367 Clouds 28 1009 83 10000 3.6 80 23:25 23.01.2021
3368 Clouds 28 1010 83 10000 3.6 90 22:42 23.01.2021
3369 Clouds 28 1010 83 10000 3.6 90 22:24 23.01.2021
3370 Clouds 28 1011 78 10000 3.09 110 21:50 23.01.2021
3371 Clouds 29 1011 74 10000 3.09 110 21:21 23.01.2021
3372 Clouds 29 1011 74 10000 3.09 110 20:47 23.01.2021
3373 Clouds 29 1011 74 10000 3.6 100 20:22 23.01.2021
3374 Clouds 29 1011 74 10000 3.6 100 19:46 23.01.2021
3375 Clouds 29 1012 74 10000 4.63 100 19:22 23.01.2021
3376 Clouds 29 1012 74 10000 4.63 100 18:49 23.01.2021
3377 Clouds 29 1012 74 10000 4.63 100 18:26 23.01.2021
3378 Clouds 29 1012 79 10000 3.09 90 17:48 23.01.2021
3379 Clouds 29 1012 79 10000 3.09 90 17:27 23.01.2021
3380 Clouds 29 1011 79 10000 3.09 100 16:49 23.01.2021
3381 Clouds 29 1011 79 10000 3.09 100 16:28 23.01.2021
3382 Clouds 29 1010 74 10000 2.57 110 15:41 23.01.2021
3383 Clouds 30 1009 74 10000 3.09 100 15:22 23.01.2021
3384 Clouds 30 1009 74 10000 3.09 100 14:33 23.01.2021
3385 Clouds 31 1009 70 10000 2.57 100 13:55 23.01.2021
3386 Clouds 31 1009 70 10000 2.57 100 13:36 23.01.2021
3387 Clouds 31 1009 70 10000 3.09 90 12:57 23.01.2021
3388 Clouds 31 1009 70 10000 3.09 90 12:29 23.01.2021
3389 Clouds 31 1009 70 10000 3.09 90 11:48 23.01.2021
3390 Clouds 31 1009 70 10000 3.09 90 11:28 23.01.2021
3391 Clouds 32 1009 70 10000 2.57 120 10:52 23.01.2021
3392 Clouds 32 1010 66 10000 2.57 130 10:21 23.01.2021
3393 Clouds 32 1010 66 10000 2.57 130 09:48 23.01.2021
3394 Clouds 31 1011 70 10000 2.57 130 08:56 23.01.2021
3395 Clouds 31 1011 70 10000 2.57 130 08:31 23.01.2021
3396 Clouds 31 1011 70 10000 3.09 130 07:31 23.01.2021
3397 Clouds 28 1010 83 10000 2.57 130 03:41 23.01.2021
3398 Clouds 28 1009 83 8000 2.57 130 00:54 23.01.2021
3399 Clouds 28 1009 83 8000 3.09 130 23:51 22.01.2021
3400 Clouds 28 1009 83 8000 3.09 130 23:30 22.01.2021
3401 Clouds 28 1009 83 8000 2.57 110 22:39 22.01.2021
3402 Clouds 28 1010 83 8000 2.06 120 21:47 22.01.2021
3403 Clouds 28 1010 83 8000 2.06 120 21:29 22.01.2021
3404 Clouds 28 1010 89 8000 2.57 110 20:59 22.01.2021
3405 Clouds 28 1010 89 8000 2.57 110 20:38 22.01.2021
3406 Clouds 28 1011 89 8000 2.57 90 19:56 22.01.2021
3407 Clouds 28 1011 89 8000 2.57 90 19:25 22.01.2021
3408 Clouds 28 1011 83 8000 2.57 90 18:59 22.01.2021
3409 Clouds 28 1011 83 8000 2.57 90 18:40 22.01.2021
3410 Clouds 28 1011 83 8000 2.57 60 18:21 22.01.2021
3411 Clouds 28 1011 83 8000 2.57 60 17:43 22.01.2021
3412 Clouds 28 1011 83 8000 2.57 60 17:24 22.01.2021
3413 Clouds 28 1010 83 8000 2.57 20 16:40 22.01.2021
3414 Clouds 28 1009 83 8000 2.57 360 16:20 22.01.2021
3415 Clouds 28 1009 83 8000 2.57 360 15:29 22.01.2021
3416 Clouds 28 1009 78 8000 2.57 10 14:58 22.01.2021
3417 Clouds 28 1009 78 8000 2.57 10 14:30 22.01.2021
3418 Clouds 28 1009 78 6000 6.17 20 13:47 22.01.2021
3419 Clouds 28 1009 78 6000 6.17 20 13:28 22.01.2021
3420 Clouds 31 1008 70 8000 2.57 340 12:46 22.01.2021
3421 Clouds 31 1008 70 8000 2.06 350 12:22 22.01.2021
3422 Clouds 31 1008 70 8000 2.06 350 11:46 22.01.2021
3423 Clouds 31 1009 66 8000 2.57 350 10:55 22.01.2021
3424 Clouds 31 1009 66 8000 2.57 350 10:35 22.01.2021
3425 Clouds 32 1010 62 8000 2.57 350 09:59 22.01.2021
3426 Clouds 32 1010 62 8000 2.57 350 09:29 22.01.2021
3427 Clouds 31 1011 66 8000 3.09 340 08:50 22.01.2021
3428 Clouds 31 1011 66 8000 3.09 340 08:27 22.01.2021
3429 Clouds 31 1012 70 9000 2.57 340 07:34 22.01.2021
3430 Clouds 28 1011 74 8000 2.57 310 03:38 22.01.2021
3431 Clouds 28 1010 78 10000 2.57 300 00:39 22.01.2021
3432 Clouds 28 1010 78 10000 3.09 330 23:52 21.01.2021
3433 Clouds 28 1010 78 10000 3.09 330 23:32 21.01.2021
3434 Clouds 28 1010 78 10000 3.09 330 22:53 21.01.2021
3435 Clouds 28 1010 78 10000 3.09 330 22:35 21.01.2021
3436 Clouds 28 1010 78 10000 2.57 320 21:43 21.01.2021
3437 Clouds 28 1011 83 10000 2.57 320 21:22 21.01.2021
3438 Clouds 28 1011 83 10000 2.57 320 20:51 21.01.2021
3439 Clouds 28 1011 83 10000 2.57 320 20:31 21.01.2021
3440 Clouds 28 1011 83 10000 1.54 310 19:52 21.01.2021
3441 Clouds 28 1011 83 10000 1.54 310 19:30 21.01.2021
3442 Clouds 28 1012 78 10000 1.54 340 18:59 21.01.2021
3443 Clouds 28 1012 78 10000 1.54 340 18:40 21.01.2021
3444 Clouds 28 1012 78 10000 2.57 340 18:20 21.01.2021
3445 Clouds 28 1012 78 10000 2.57 340 17:51 21.01.2021
3446 Clouds 29 1011 74 10000 2.57 330 17:20 21.01.2021
3447 Clouds 29 1011 74 10000 2.57 330 16:48 21.01.2021
3448 Clouds 29 1011 74 10000 2.57 330 16:26 21.01.2021
3449 Clouds 29 1010 74 10000 2.57 340 15:59 21.01.2021
3450 Clouds 29 1010 74 10000 2.57 340 15:34 21.01.2021
3451 Clouds 29 1010 74 10000 3.09 340 14:53 21.01.2021
3452 Clouds 29 1010 74 10000 3.09 340 14:35 21.01.2021
3453 Clouds 30 1009 74 10000 2.57 340 13:51 21.01.2021
3454 Clouds 30 1009 74 10000 2.57 340 13:32 21.01.2021
3455 Clouds 31 1009 70 10000 2.06 330 12:57 21.01.2021
3456 Clouds 31 1009 70 10000 2.06 330 12:38 21.01.2021
3457 Clouds 31 1009 70 10000 2.57 340 12:20 21.01.2021
3458 Clouds 31 1009 70 10000 2.57 340 11:45 21.01.2021
3459 Clouds 31 1009 70 10000 2.57 340 11:24 21.01.2021
3460 Clouds 31 1009 66 10000 2.57 350 10:51 21.01.2021
3461 Clouds 31 1009 66 10000 2.57 350 10:28 21.01.2021
3462 Clouds 31 1010 66 10000 3.6 360 09:43 21.01.2021
3463 Clouds 31 1010 66 10000 3.6 360 09:24 21.01.2021
3464 Clouds 32 1011 66 10000 3.6 360 08:44 21.01.2021
3465 Clouds 31 1011 66 10000 3.6 360 08:23 21.01.2021
3466 Clouds 31 1011 66 10000 3.6 360 07:27 21.01.2021
3467 Clouds 30 1012 70 10000 2.57 350 06:53 21.01.2021
3468 Clouds 29 1012 74 10000 2.06 360 05:20 21.01.2021
3469 Clouds 27 1011 83 10000 2.06 20 02:31 21.01.2021
3470 Clouds 27 1010 83 10000 2.57 30 00:51 21.01.2021
3471 Clouds 27 1010 83 8000 2.06 30 23:53 20.01.2021
3472 Clouds 27 1010 83 8000 2.06 30 23:32 20.01.2021
3473 Clouds 27 1010 83 8000 2.57 30 22:58 20.01.2021
3474 Clouds 27 1010 83 8000 2.57 30 22:37 20.01.2021
3475 Clouds 27 1011 83 8000 2.57 40 21:58 20.01.2021
3476 Clouds 27 1011 83 8000 2.57 40 21:40 20.01.2021
3477 Clouds 28 1011 78 8000 3.6 30 21:19 20.01.2021
3478 Clouds 28 1011 78 8000 3.6 30 20:38 20.01.2021
3479 Clouds 28 1012 78 8000 3.09 30 20:18 20.01.2021
3480 Clouds 28 1012 78 8000 3.09 30 19:42 20.01.2021
3481 Clouds 28 1012 78 8000 3.09 30 19:23 20.01.2021
3482 Clouds 28 1012 78 8000 3.09 30 18:42 20.01.2021
3483 Clouds 28 1012 78 8000 3.09 30 17:57 20.01.2021
3484 Clouds 28 1012 78 8000 3.09 30 17:39 20.01.2021
3485 Clouds 29 1012 74 8000 3.6 40 16:57 20.01.2021
3486 Clouds 29 1012 74 8000 3.6 40 16:38 20.01.2021
3487 Clouds 29 1011 74 8000 3.6 30 15:52 20.01.2021
3488 Clouds 29 1011 74 8000 3.6 30 15:34 20.01.2021
3489 Clouds 30 1010 70 8000 4.12 30 14:51 20.01.2021
3490 Clouds 30 1010 70 8000 4.12 30 14:24 20.01.2021
3491 Clouds 31 1009 66 9000 3.09 10 13:48 20.01.2021
3492 Clouds 31 1009 66 9000 3.09 10 13:26 20.01.2021
3493 Clouds 31 1009 66 9000 3.6 360 12:42 20.01.2021
3494 Clouds 31 1009 66 10000 3.6 360 11:58 20.01.2021
3495 Clouds 31 1009 66 10000 3.6 360 11:38 20.01.2021
3496 Clouds 31 1009 70 10000 3.6 360 10:56 20.01.2021
3497 Clouds 31 1009 70 10000 3.6 360 10:34 20.01.2021
3498 Clouds 32 1010 66 10000 4.12 360 09:55 20.01.2021
3499 Clouds 32 1010 66 10000 4.12 360 09:30 20.01.2021
3500 Clouds 31 1011 70 10000 4.12 10 08:58 20.01.2021
3501 Clouds 31 1011 70 10000 4.12 10 08:33 20.01.2021
3502 Clouds 31 1012 70 10000 4.12 10 07:59 20.01.2021
3503 Clouds 31 1012 70 10000 4.12 10 07:37 20.01.2021
3504 Clouds 30 1012 74 10000 4.12 360 06:39 20.01.2021
3505 Clouds 28 1011 78 10000 3.09 30 03:29 20.01.2021
3506 Clouds 28 1009 78 10000 5.66 70 01:20 20.01.2021
3507 Clouds 28 1009 78 10000 5.66 70 00:46 20.01.2021
3508 Clouds 28 1009 78 10000 5.66 80 23:49 19.01.2021
3509 Clouds 28 1009 78 10000 5.66 80 23:27 19.01.2021
3510 Clouds 28 1010 78 10000 5.66 80 22:57 19.01.2021
3511 Clouds 28 1010 78 10000 5.66 80 22:37 19.01.2021
3512 Rain 28 1010 78 10000 5.14 80 22:19 19.01.2021
3513 Clouds 28 1010 78 10000 5.14 80 21:51 19.01.2021
3514 Clouds 28 1010 78 10000 5.14 80 21:27 19.01.2021
3515 Clouds 28 1011 74 10000 5.66 70 20:47 19.01.2021
3516 Clouds 28 1011 74 10000 5.66 70 20:24 19.01.2021
3517 Clouds 28 1011 78 10000 6.17 80 19:54 19.01.2021
3518 Clouds 28 1011 78 10000 6.17 80 19:29 19.01.2021
3519 Clouds 28 1011 78 10000 7.72 90 18:49 19.01.2021
3520 Clouds 28 1011 78 10000 7.72 90 18:27 19.01.2021
3521 Clouds 28 1011 83 10000 7.72 80 17:47 19.01.2021
3522 Clouds 28 1011 83 10000 7.72 80 17:29 19.01.2021
3523 Clouds 29 1011 79 10000 7.2 70 16:50 19.01.2021
3524 Clouds 29 1011 79 10000 7.2 70 16:30 19.01.2021
3525 Clouds 29 1010 79 10000 7.2 70 15:59 19.01.2021
3526 Clouds 29 1010 79 10000 7.2 70 15:40 19.01.2021
3527 Clouds 29 1009 74 10000 6.69 70 15:19 19.01.2021
3528 Clouds 29 1009 74 10000 6.69 70 14:41 19.01.2021
3529 Clouds 30 1008 74 10000 6.17 70 14:22 19.01.2021
3530 Clouds 30 1008 74 10000 6.17 70 13:41 19.01.2021
3531 Clouds 30 1008 74 10000 6.17 70 13:21 19.01.2021
3532 Clouds 30 1008 74 10000 6.17 70 12:48 19.01.2021
3533 Clouds 30 1008 74 10000 6.17 70 12:29 19.01.2021
3534 Clouds 31 1008 70 10000 6.69 70 11:43 19.01.2021
3535 Clouds 31 1008 70 10000 6.69 70 11:24 19.01.2021
3536 Clouds 31 1008 66 10000 5.66 60 10:51 19.01.2021
3537 Clouds 31 1008 66 10000 5.66 60 10:31 19.01.2021
3538 Clouds 31 1009 66 10000 5.66 70 09:53 19.01.2021
3539 Clouds 31 1009 66 10000 5.66 70 09:30 19.01.2021
3540 Clouds 31 1010 66 10000 4.63 70 08:56 19.01.2021
3541 Clouds 31 1011 70 10000 4.12 80 08:21 19.01.2021
3542 Clouds 31 1011 70 10000 4.12 80 07:38 19.01.2021
3543 Clouds 30 1011 70 10000 3.09 80 06:50 19.01.2021
3544 Rain 27 1009 89 10000 2.57 120 02:31 19.01.2021
3545 Clouds 25 1008 94 9000 4.63 90 00:49 19.01.2021
3546 Clouds 26 1008 82 5143 3.35 105 23:58 18.01.2021
3547 Rain 27 1009 83 10000 7.2 100 23:32 18.01.2021
3548 Clouds 27 1009 83 10000 7.2 100 22:51 18.01.2021
3549 Clouds 27 1009 83 10000 7.2 100 22:26 18.01.2021
3550 Clouds 28 1010 78 10000 5.66 80 21:55 18.01.2021
3551 Rain 28 1010 78 10000 5.66 80 21:37 18.01.2021
3552 Rain 28 1010 78 10000 6.69 70 21:19 18.01.2021
3553 Rain 28 1010 78 10000 6.69 70 20:42 18.01.2021
3554 Clouds 27 1011 78 10000 6.17 50 20:22 18.01.2021
3555 Clouds 27 1011 78 10000 6.17 50 19:48 18.01.2021
3556 Clouds 27 1011 78 10000 6.17 50 19:30 18.01.2021
3557 Clouds 27 1011 83 10000 6.69 60 18:47 18.01.2021
3558 Clouds 27 1011 83 10000 7.72 60 18:22 18.01.2021
3559 Clouds 27 1011 83 10000 7.72 60 17:44 18.01.2021
3560 Clouds 28 1010 78 10000 9.26 70 17:21 18.01.2021
3561 Clouds 28 1010 78 10000 9.26 70 16:46 18.01.2021
3562 Clouds 27 1009 83 10000 9.26 70 16:20 18.01.2021
3563 Clouds 27 1009 83 10000 9.26 70 15:45 18.01.2021
3564 Clouds 27 1009 83 10000 9.26 70 15:25 18.01.2021
3565 Clouds 28 1008 83 10000 8.23 80 14:44 18.01.2021
3566 Clouds 28 1008 83 10000 8.23 80 14:26 18.01.2021
3567 Clouds 30 1008 74 10000 7.72 80 13:47 18.01.2021
3568 Clouds 30 1008 74 10000 7.72 80 13:27 18.01.2021
3569 Clouds 31 1007 70 10000 4.63 110 12:53 18.01.2021
3570 Clouds 31 1007 70 10000 4.63 110 12:20 18.01.2021
3571 Clouds 31 1007 70 10000 4.63 110 11:56 18.01.2021
3572 Clouds 31 1007 70 10000 4.63 110 11:37 18.01.2021
3573 Clouds 32 1008 66 10000 2.57 130 11:19 18.01.2021
3574 Clouds 32 1008 66 10000 2.57 130 10:42 18.01.2021
3575 Clouds 31 1009 74 10000 3.09 130 09:47 18.01.2021
3576 Clouds 31 1009 74 10000 3.09 130 09:27 18.01.2021
3577 Clouds 32 1010 66 10000 4.12 130 08:52 18.01.2021
3578 Clouds 31 1010 70 10000 4.12 120 08:18 18.01.2021
3579 Clouds 31 1010 70 10000 4.12 120 07:36 18.01.2021
3580 Clouds 30 1010 74 10000 4.12 140 05:35 18.01.2021
3581 Clouds 29 1009 79 10000 3.09 130 04:37 18.01.2021
3582 Clouds 28 1009 83 10000 3.09 130 04:18 18.01.2021
3583 Clouds 28 1009 83 10000 3.09 130 03:41 18.01.2021
3584 Clouds 28 1009 83 10000 2.06 140 03:20 18.01.2021
3585 Clouds 28 1009 83 10000 2.06 140 02:37 18.01.2021
3586 Clouds 28 1008 83 10000 3.09 140 00:49 18.01.2021
3587 Clouds 28 1008 83 10000 3.09 140 00:30 18.01.2021
3588 Clouds 28 1008 78 10000 3.09 130 23:48 17.01.2021
3589 Clouds 28 1008 83 10000 2.57 140 23:20 17.01.2021
3590 Clouds 28 1008 83 10000 2.57 140 22:39 17.01.2021
3591 Clouds 28 1009 83 10000 3.09 130 22:20 17.01.2021
3592 Clouds 28 1009 83 10000 3.09 130 21:40 17.01.2021
3593 Clouds 28 1010 83 10000 3.6 130 21:22 17.01.2021
3594 Clouds 28 1010 83 10000 3.6 130 20:48 17.01.2021
3595 Clouds 28 1010 83 10000 3.6 130 20:29 17.01.2021
3596 Clouds 28 1010 78 10000 3.09 140 19:43 17.01.2021
3597 Clouds 28 1010 78 10000 3.09 140 19:24 17.01.2021
3598 Clouds 28 1010 78 10000 2.06 140 18:44 17.01.2021
3599 Clouds 28 1010 78 10000 2.06 140 18:26 17.01.2021
3600 Clouds 28 1010 78 10000 2.06 120 17:48 17.01.2021
3601 Clouds 28 1010 78 10000 2.06 120 17:26 17.01.2021
3602 Clouds 29 1008 79 10000 2.06 150 16:44 17.01.2021
3603 Clouds 29 1008 79 10000 2.06 150 16:24 17.01.2021
3604 Clouds 29 1008 74 10000 2.06 150 15:43 17.01.2021
3605 Clouds 29 1008 74 10000 2.06 150 15:25 17.01.2021
3606 Clouds 30 1007 70 10000 2.06 170 14:50 17.01.2021
3607 Clouds 30 1007 70 10000 2.06 170 14:26 17.01.2021
3608 Clouds 31 1007 70 10000 2.06 150 13:47 17.01.2021
3609 Clouds 31 1007 70 10000 2.06 150 13:29 17.01.2021
3610 Clouds 31 1006 70 10000 2.57 150 12:55 17.01.2021
3611 Clouds 31 1006 70 10000 2.57 150 12:32 17.01.2021
3612 Clouds 32 1006 62 10000 2.57 190 11:59 17.01.2021
3613 Clouds 32 1007 66 10000 2.83 160 11:24 17.01.2021
3614 Clouds 32 1007 66 10000 2.83 160 10:49 17.01.2021
3615 Clouds 32 1008 66 10000 3.09 210 10:21 17.01.2021
3616 Clouds 32 1008 66 10000 3.09 210 09:44 17.01.2021
3617 Clouds 32 1009 66 10000 3.09 210 08:47 17.01.2021
3618 Clouds 32 1009 66 10000 2.57 210 07:46 17.01.2021
3619 Clouds 30 1009 70 10000 1.54 200 04:29 17.01.2021
3620 Clouds 27 1008 83 10000 2.57 200 02:48 17.01.2021
3621 Clouds 27 1007 83 10000 2.57 210 00:51 17.01.2021
3622 Clouds 28 1007 78 10000 1.54 190 00:20 17.01.2021
3623 Clouds 28 1007 78 10000 1.54 190 23:51 16.01.2021
3624 Clouds 28 1007 74 10000 2.57 230 23:20 16.01.2021
3625 Clouds 28 1007 74 10000 2.57 230 22:45 16.01.2021
3626 Clouds 28 1008 78 10000 2.06 240 21:59 16.01.2021
3627 Clouds 28 1008 78 10000 2.06 240 21:38 16.01.2021
3628 Clouds 28 1009 78 10000 2.57 240 21:18 16.01.2021
3629 Clouds 28 1009 78 10000 2.57 240 20:44 16.01.2021
3630 Clouds 28 1009 78 10000 2.06 240 20:22 16.01.2021
3631 Clouds 28 1009 78 10000 2.06 240 19:48 16.01.2021
3632 Clouds 28 1009 78 10000 2.06 240 19:29 16.01.2021
3633 Clouds 29 1009 74 10000 2.57 250 18:43 16.01.2021
3634 Clouds 29 1009 74 10000 2.57 250 18:25 16.01.2021
3635 Clouds 29 1009 74 10000 2.57 230 17:48 16.01.2021
3636 Clouds 29 1009 74 10000 2.57 230 17:29 16.01.2021
3637 Clouds 29 1008 74 10000 3.09 240 16:47 16.01.2021
3638 Clouds 29 1008 74 10000 3.09 240 16:27 16.01.2021
3639 Clouds 29 1007 74 10000 3.6 240 15:54 16.01.2021
3640 Clouds 29 1007 74 10000 3.6 240 15:26 16.01.2021
3641 Clouds 30 1007 70 10000 3.6 250 14:30 16.01.2021
3642 Clouds 31 1006 70 10000 4.12 250 13:50 16.01.2021
3643 Clouds 31 1006 70 10000 4.12 250 13:29 16.01.2021
3644 Clouds 31 1006 74 10000 3.09 240 12:46 16.01.2021
3645 Clouds 31 1006 66 10000 3.6 250 12:21 16.01.2021
3646 Clouds 31 1006 66 10000 3.6 250 11:52 16.01.2021
3647 Clouds 31 1006 66 10000 3.6 250 11:25 16.01.2021
3648 Clouds 32 1006 66 10000 3.6 250 10:50 16.01.2021
3649 Clouds 32 1006 66 10000 3.6 250 10:28 16.01.2021
3650 Clouds 31 1007 70 10000 4.12 260 09:40 16.01.2021
3651 Clouds 31 1008 70 10000 5.14 250 09:19 16.01.2021
3652 Clouds 32 1009 70 10000 4.12 250 07:51 16.01.2021
3653 Clouds 30 1009 74 10000 4.12 250 06:44 16.01.2021
3654 Clouds 30 1009 74 10000 4.12 250 06:44 16.01.2021
3655 Clouds 29 1009 79 10000 3.6 240 04:51 16.01.2021
3656 Clouds 28 1007 74 10000 3.6 240 02:56 16.01.2021
3657 Clouds 28 1007 83 10000 4.63 230 02:21 16.01.2021
3658 Clouds 28 1007 74 10000 5.14 220 00:43 16.01.2021
3659 Clouds 28 1007 74 10000 4.63 230 00:19 16.01.2021
3660 Clouds 28 1007 74 10000 3.6 230 23:25 15.01.2021
3661 Clouds 28 1007 74 10000 3.6 230 22:27 15.01.2021
3662 Clouds 28 1008 69 10000 3.6 230 21:48 15.01.2021
3663 Clouds 28 1008 69 10000 3.6 230 21:25 15.01.2021
3664 Clouds 28 1008 69 10000 4.12 230 20:42 15.01.2021
3665 Clouds 28 1009 69 10000 4.12 230 20:23 15.01.2021
3666 Clouds 28 1009 69 10000 4.12 230 19:43 15.01.2021
3667 Clouds 28 1009 69 10000 4.12 230 19:24 15.01.2021
3668 Clouds 28 1009 69 10000 3.6 220 18:45 15.01.2021
3669 Clouds 28 1009 74 10000 3.09 210 18:20 15.01.2021
3670 Clouds 28 1009 74 10000 3.09 210 17:56 15.01.2021
3671 Clouds 28 1009 74 10000 3.09 210 17:37 15.01.2021
3672 Clouds 28 1009 74 10000 3.09 220 17:19 15.01.2021
3673 Clouds 28 1009 74 10000 3.09 220 16:40 15.01.2021
3674 Clouds 29 1008 70 10000 3.09 250 16:21 15.01.2021
3675 Clouds 29 1008 70 10000 3.09 250 15:40 15.01.2021
3676 Clouds 29 1007 65 10000 4.63 250 15:18 15.01.2021
3677 Clouds 29 1007 65 10000 4.63 250 14:39 15.01.2021
3678 Clouds 30 1007 70 10000 4.63 250 14:20 15.01.2021
3679 Clouds 30 1007 70 10000 4.63 250 13:40 15.01.2021
3680 Clouds 31 1006 62 10000 4.12 250 13:19 15.01.2021
3681 Clouds 31 1006 62 10000 4.12 250 12:47 15.01.2021
3682 Clouds 31 1006 62 10000 4.12 250 12:26 15.01.2021
3683 Clouds 32 1006 62 10000 5.66 250 11:42 15.01.2021
3684 Clouds 31 1006 66 10000 5.66 250 11:21 15.01.2021
3685 Clouds 31 1006 66 10000 5.66 250 10:51 15.01.2021
3686 Clouds 31 1006 66 10000 5.66 250 10:24 15.01.2021
3687 Clouds 32 1007 62 10000 5.66 250 09:50 15.01.2021
3688 Clouds 32 1007 62 10000 5.66 250 09:29 15.01.2021
3689 Clouds 32 1008 62 10000 5.14 250 08:30 15.01.2021
3690 Clouds 31 1009 66 10000 4.63 250 07:47 15.01.2021
3691 Clouds 31 1009 66 10000 4.63 250 07:24 15.01.2021
3692 Clouds 31 1010 66 10000 5.66 250 06:52 15.01.2021
3693 Clouds 28 1008 83 10000 5.14 260 03:29 15.01.2021
3694 Clouds 28 1007 83 10000 3.09 260 00:55 15.01.2021
3695 Clouds 28 1007 83 10000 3.09 280 23:47 14.01.2021
3696 Clouds 28 1008 83 10000 3.09 270 22:59 14.01.2021
3697 Clouds 28 1008 83 10000 3.09 270 22:40 14.01.2021
3698 Clouds 28 1008 83 10000 3.6 270 22:22 14.01.2021
3699 Clouds 28 1008 83 10000 3.6 270 21:42 14.01.2021
3700 Clouds 28 1009 83 10000 4.12 270 21:21 14.01.2021
3701 Clouds 28 1009 83 10000 4.12 270 20:48 14.01.2021
3702 Clouds 28 1009 83 10000 4.12 270 20:24 14.01.2021
3703 Clouds 28 1009 83 10000 4.12 270 19:43 14.01.2021
3704 Clouds 28 1009 83 10000 4.12 270 19:25 14.01.2021
3705 Clouds 28 1009 83 10000 4.12 270 18:52 14.01.2021
3706 Clouds 28 1009 83 10000 4.12 270 18:27 14.01.2021
3707 Clouds 28 1009 83 10000 4.63 270 17:46 14.01.2021
3708 Clouds 28 1009 83 10000 4.63 270 17:26 14.01.2021
3709 Clouds 28 1008 83 10000 5.66 270 16:43 14.01.2021
3710 Clouds 29 1007 79 10000 6.17 270 15:58 14.01.2021
3711 Clouds 29 1007 79 10000 6.17 270 15:39 14.01.2021
3712 Clouds 29 1007 79 10000 6.17 270 14:59 14.01.2021
3713 Clouds 29 1007 79 10000 6.17 270 14:38 14.01.2021
3714 Clouds 29 1006 79 10000 5.66 260 14:19 14.01.2021
3715 Clouds 29 1006 79 10000 5.66 260 13:53 14.01.2021
3716 Clouds 30 1006 74 10000 5.66 270 13:21 14.01.2021
3717 Clouds 30 1006 74 10000 5.66 270 12:48 14.01.2021
3718 Clouds 31 1006 70 10000 5.14 270 12:20 14.01.2021
3719 Clouds 31 1006 70 10000 5.14 270 11:43 14.01.2021
3720 Clouds 31 1007 70 10000 4.63 270 11:21 14.01.2021
3721 Clouds 31 1007 70 10000 4.63 270 10:52 14.01.2021
3722 Clouds 31 1007 70 10000 4.63 270 10:27 14.01.2021
3723 Clouds 31 1008 70 10000 5.14 280 09:48 14.01.2021
3724 Clouds 31 1009 70 10000 4.63 290 09:23 14.01.2021
3725 Clouds 31 1009 70 10000 4.63 290 08:52 14.01.2021
3726 Clouds 31 1009 70 10000 4.63 290 08:28 14.01.2021
3727 Clouds 30 1009 74 10000 5.14 290 07:50 14.01.2021
3728 Clouds 30 1010 74 10000 5.14 290 06:58 14.01.2021
3729 Clouds 29 1010 79 10000 5.14 290 05:56 14.01.2021
3730 Clouds 28 1007 78 10000 3.6 300 01:42 14.01.2021
3731 Clouds 28 1007 83 10000 4.63 300 23:56 13.01.2021
3732 Rain 28 1007 83 10000 4.63 300 23:23 13.01.2021
3733 Clouds 28 1008 83 10000 3.09 310 22:30 13.01.2021
3734 Clouds 28 1009 83 9000 3.6 320 21:59 13.01.2021
3735 Clouds 28 1009 83 9000 3.6 320 21:41 13.01.2021
3736 Clouds 28 1009 83 9000 3.6 310 21:19 13.01.2021
3737 Clouds 28 1009 83 9000 3.6 310 20:38 13.01.2021
3738 Clouds 28 1009 83 9000 5.14 310 20:19 13.01.2021
3739 Clouds 28 1009 83 9000 5.14 310 19:42 13.01.2021
3740 Clouds 28 1010 83 9000 4.63 330 19:21 13.01.2021
3741 Clouds 28 1010 83 9000 4.63 330 18:41 13.01.2021
3742 Clouds 28 1009 78 9000 5.14 330 17:51 13.01.2021
3743 Clouds 28 1009 78 9000 5.14 330 17:26 13.01.2021
3744 Clouds 28 1009 83 9000 5.66 320 16:59 13.01.2021
3745 Clouds 28 1009 83 9000 5.66 320 16:23 13.01.2021
3746 Clouds 28 1008 83 9000 5.66 320 15:59 13.01.2021
3747 Clouds 28 1008 83 9000 5.66 320 15:39 13.01.2021
3748 Clouds 28 1007 89 9000 5.66 320 14:52 13.01.2021
3749 Clouds 28 1007 78 9000 5.14 320 14:18 13.01.2021
3750 Clouds 28 1007 78 9000 5.14 320 13:37 13.01.2021
3751 Clouds 28 1006 78 9000 5.66 320 13:18 13.01.2021
3752 Clouds 28 1006 78 9000 5.66 320 12:43 13.01.2021
3753 Clouds 29 1006 74 8000 6.17 320 12:22 13.01.2021
3754 Clouds 29 1006 74 8000 6.17 320 11:47 13.01.2021
3755 Clouds 29 1006 74 8000 6.17 320 11:26 13.01.2021
3756 Clouds 29 1007 79 8000 8.23 310 10:46 13.01.2021
3757 Rain 29 1007 79 8000 8.23 310 10:25 13.01.2021
3758 Clouds 29 1008 79 8000 7.2 310 09:40 13.01.2021
3759 Clouds 28 1009 83 8000 7.2 310 08:57 13.01.2021
3760 Clouds 28 1009 83 8000 7.2 310 08:33 13.01.2021
3761 Clouds 29 1009 79 8000 8.75 290 07:56 13.01.2021
3762 Rain 29 1009 79 8000 8.75 290 07:27 13.01.2021
3763 Clouds 28 1009 78 10000 9.77 270 04:22 13.01.2021
3764 Clouds 28 1009 78 10000 9.77 270 03:54 13.01.2021
3765 Clouds 28 1009 78 10000 9.77 270 03:33 13.01.2021
3766 Clouds 28 1008 83 10000 10.29 280 02:53 13.01.2021
3767 Clouds 28 1007 78 10000 9.26 290 00:44 13.01.2021
3768 Clouds 28 1008 78 10000 9.26 280 23:37 12.01.2021
3769 Clouds 28 1008 78 10000 8.75 280 22:47 12.01.2021
3770 Clouds 28 1008 78 10000 8.75 280 22:26 12.01.2021
3771 Clouds 28 1009 78 10000 7.72 290 21:58 12.01.2021
3772 Clouds 28 1009 78 10000 7.72 290 21:40 12.01.2021
3773 Clouds 28 1009 83 10000 7.72 290 21:20 12.01.2021
3774 Clouds 28 1009 83 10000 7.72 290 20:44 12.01.2021
3775 Clouds 28 1009 83 10000 7.72 290 20:25 12.01.2021
3776 Clouds 28 1009 78 9000 5.14 310 19:39 12.01.2021
3777 Clouds 28 1010 78 9000 6.17 320 18:54 12.01.2021
3778 Clouds 28 1010 78 9000 6.17 320 18:25 12.01.2021
3779 Clouds 28 1010 78 9000 7.2 320 17:58 12.01.2021
3780 Clouds 28 1010 78 9000 7.2 320 17:33 12.01.2021
3781 Clouds 27 1009 83 9000 7.72 300 16:46 12.01.2021
3782 Clouds 27 1009 83 9000 7.72 300 16:27 12.01.2021
3783 Clouds 27 1008 83 9000 7.72 300 15:54 12.01.2021
3784 Clouds 27 1008 83 9000 7.72 300 15:27 12.01.2021
3785 Clouds 27 1007 83 9000 8.75 300 14:55 12.01.2021
3786 Clouds 27 1007 83 9000 8.75 300 14:37 12.01.2021
3787 Rain 27 1007 83 9000 8.75 300 14:18 12.01.2021
3788 Clouds 27 1007 83 9000 8.75 300 13:43 12.01.2021
3789 Clouds 27 1007 78 9000 8.23 310 12:38 12.01.2021
3790 Clouds 26 1008 83 9000 9.26 290 11:53 12.01.2021
3791 Clouds 26 1008 83 9000 9.26 290 11:34 12.01.2021
3792 Clouds 25 1009 94 8000 14.92 270 10:44 12.01.2021
3793 Rain 26 1010 89 8000 9.77 270 10:20 12.01.2021
3794 Rain 26 1010 89 8000 9.77 270 09:53 12.01.2021
3795 Rain 26 1010 89 8000 9.77 270 09:23 12.01.2021
3796 Clouds 26 1011 94 7000 6.69 290 08:28 12.01.2021
3797 Clouds 25 1012 94 6000 5.14 320 07:56 12.01.2021
3798 Rain 25 1012 94 6000 5.14 320 07:33 12.01.2021
3799 Rain 25 1012 94 6000 3.6 360 05:46 12.01.2021
3800 Rain 26 1010 89 9000 4.12 20 03:48 12.01.2021
3801 Rain 26 1010 89 9000 4.12 20 03:23 12.01.2021
3802 Rain 27 1008 89 9000 5.66 290 02:18 12.01.2021
3803 Rain 28 1008 83 10000 6.69 290 00:55 12.01.2021
3804 Clouds 28 1008 78 10000 6.17 290 23:44 11.01.2021
3805 Clouds 28 1005 78 10000 5.14 300 23:20 11.01.2021
3806 Clouds 28 1005 78 10000 5.14 300 22:47 11.01.2021
3807 Clouds 28 1005 78 10000 5.14 300 22:28 11.01.2021
3808 Clouds 28 1009 83 10000 5.66 290 21:47 11.01.2021
3809 Clouds 28 1009 83 10000 5.66 290 21:26 11.01.2021
3810 Clouds 28 1010 83 10000 5.14 290 20:59 11.01.2021
3811 Clouds 28 1010 83 10000 5.14 290 20:39 11.01.2021
3812 Clouds 28 1010 83 10000 3.6 270 20:21 11.01.2021
3813 Rain 28 1010 83 10000 3.6 270 19:50 11.01.2021
3814 Rain 28 1011 78 10000 2.57 280 19:23 11.01.2021
3815 Clouds 28 1011 78 10000 2.57 280 18:44 11.01.2021
3816 Clouds 28 1011 78 10000 2.57 280 18:24 11.01.2021
3817 Clouds 28 1011 78 10000 3.09 290 17:42 11.01.2021
3818 Clouds 28 1011 78 10000 3.09 290 17:24 11.01.2021
3819 Clouds 27 1010 83 10000 2.57 290 16:49 11.01.2021
3820 Clouds 27 1010 83 10000 2.57 290 16:29 11.01.2021
3821 Rain 27 1009 83 10000 5.14 300 15:58 11.01.2021
3822 Clouds 27 1009 83 10000 5.14 300 15:37 11.01.2021
3823 Clouds 28 1008 83 8000 2.57 310 14:58 11.01.2021
3824 Clouds 28 1008 83 8000 2.57 310 14:37 11.01.2021
3825 Clouds 29 1008 84 8000 2.06 350 13:48 11.01.2021
3826 Rain 29 1008 84 8000 2.06 350 13:23 11.01.2021
3827 Rain 30 1007 70 8000 3.6 290 12:44 11.01.2021
3828 Rain 30 1007 70 8000 3.6 290 12:26 11.01.2021
3829 Clouds 30 1007 74 8000 4.12 280 11:48 11.01.2021
3830 Clouds 30 1008 74 8000 3.09 300 11:18 11.01.2021
3831 Clouds 30 1008 74 8000 3.09 300 10:42 11.01.2021
3832 Clouds 30 1008 74 8000 3.09 300 10:23 11.01.2021
3833 Clouds 31 1009 70 8000 3.09 300 09:37 11.01.2021
3834 Clouds 31 1010 70 8000 3.09 310 09:19 11.01.2021
3835 Clouds 31 1010 70 8000 3.09 310 08:43 11.01.2021
3836 Clouds 30 1011 74 8000 6.69 290 07:51 11.01.2021
3837 Clouds 30 1011 74 8000 6.69 290 07:25 11.01.2021
3838 Rain 30 1011 74 8000 2.06 350 06:50 11.01.2021
3839 Clouds 28 1008 83 10000 1.54 340 02:57 11.01.2021
3840 Clouds 28 1008 78 10000 3.6 280 01:25 11.01.2021
3841 Clouds 28 1008 78 10000 3.6 260 23:51 10.01.2021
3842 Clouds 28 1008 78 10000 3.6 260 23:24 10.01.2021
3843 Clouds 28 1008 83 10000 5.25 263 22:46 10.01.2021
3844 Clouds 28 1009 78 10000 1.54 10 22:20 10.01.2021
3845 Clouds 28 1009 78 10000 1.54 10 21:44 10.01.2021
3846 Clouds 28 1010 78 10000 3.09 270 21:20 10.01.2021
3847 Clouds 28 1010 78 10000 3.09 270 20:50 10.01.2021
3848 Clouds 28 1010 78 10000 3.09 270 20:29 10.01.2021
3849 Clouds 28 1010 78 10000 3.6 270 19:43 10.01.2021
3850 Clouds 28 1010 78 10000 3.6 270 19:43 10.01.2021
3851 Clouds 28 1010 78 10000 3.6 270 19:24 10.01.2021
3852 Clouds 29 1011 74 10000 2.57 250 18:47 10.01.2021
3853 Clouds 29 1010 74 10000 2.57 250 18:21 10.01.2021
3854 Clouds 29 1010 74 10000 2.57 250 17:28 10.01.2021
3855 Clouds 29 1009 74 10000 2.57 240 16:58 10.01.2021
3856 Clouds 29 1009 74 10000 2.57 240 16:32 10.01.2021
3857 Clouds 29 1008 74 10000 3.6 250 15:48 10.01.2021
3858 Clouds 29 1008 74 10000 3.6 250 15:25 10.01.2021
3859 Clouds 29 1008 74 10000 3.6 250 15:25 10.01.2021
3860 Clouds 29 1007 74 10000 4.12 250 14:44 10.01.2021
3861 Clouds 29 1007 74 10000 4.12 250 14:25 10.01.2021
3862 Clouds 30 1007 70 10000 4.12 250 13:54 10.01.2021
3863 Clouds 30 1007 70 10000 4.12 250 13:36 10.01.2021
3864 Clouds 30 1006 74 10000 2.57 260 13:18 10.01.2021
3865 Clouds 30 1006 74 10000 2.57 260 12:42 10.01.2021
3866 Clouds 30 1006 66 10000 2.06 290 11:58 10.01.2021
3867 Clouds 31 1007 66 10000 3.09 270 11:22 10.01.2021
3868 Clouds 31 1007 66 10000 3.09 270 10:58 10.01.2021
3869 Clouds 31 1007 66 10000 3.09 270 10:31 10.01.2021
3870 Clouds 31 1008 70 10000 3.09 270 09:59 10.01.2021
3871 Clouds 31 1008 70 10000 3.09 270 09:27 10.01.2021
3872 Clouds 31 1009 66 10000 2.57 270 08:20 10.01.2021
3873 Clouds 31 1009 66 10000 2.57 270 07:29 10.01.2021
3874 Clouds 30 1010 70 10000 2.57 270 06:19 10.01.2021
3875 Clouds 30 1010 70 10000 2.57 270 05:36 10.01.2021
3876 Clouds 27 1008 83 10000 1.54 270 02:56 10.01.2021
3877 Clouds 27 1007 83 10000 1.54 280 00:52 10.01.2021
3878 Clouds 27 1007 83 10000 1.54 250 23:48 09.01.2021
3879 Clouds 27 1007 83 10000 1.54 250 23:29 09.01.2021
3880 Clouds 27 1008 83 10000 2.06 250 22:47 09.01.2021
3881 Clouds 28 1008 78 10000 1.03 0 22:18 09.01.2021
3882 Clouds 28 1008 78 10000 1.03 0 21:56 09.01.2021
3883 Clouds 28 1008 78 10000 1.03 0 21:38 09.01.2021
3884 Clouds 28 1009 78 10000 1.54 260 21:18 09.01.2021
3885 Clouds 28 1009 78 10000 1.54 260 20:39 09.01.2021
3886 Clouds 28 1009 78 10000 2.06 230 19:45 09.01.2021
3887 Clouds 28 1009 83 10000 2.06 260 19:22 09.01.2021
3888 Clouds 28 1009 83 10000 2.06 260 18:44 09.01.2021
3889 Rain 28 1009 83 10000 2.06 260 18:26 09.01.2021
3890 Rain 28 1010 83 10000 1.54 260 17:47 09.01.2021
3891 Rain 28 1010 83 10000 1.54 260 17:27 09.01.2021
3892 Clouds 28 1009 89 10000 1.54 260 16:36 09.01.2021
3893 Rain 29 1009 79 10000 2.57 270 15:52 09.01.2021
3894 Clouds 29 1009 79 10000 2.57 270 15:33 09.01.2021
3895 Rain 29 1008 79 10000 2.57 270 14:41 09.01.2021
3896 Rain 29 1007 79 10000 3.09 260 14:20 09.01.2021
3897 Rain 29 1007 79 10000 3.09 260 13:49 09.01.2021
3898 Clouds 29 1007 79 10000 3.09 260 13:30 09.01.2021
3899 Clouds 29 1007 79 10000 3.09 260 13:30 09.01.2021
3900 Rain 30 1006 74 10000 3.09 250 12:49 09.01.2021
3901 Clouds 30 1006 74 10000 3.09 250 12:24 09.01.2021
3902 Rain 30 1006 74 10000 3.6 250 11:56 09.01.2021
3903 Rain 30 1006 74 10000 3.6 250 11:30 09.01.2021
3904 Clouds 30 1006 74 10000 3.6 270 10:52 09.01.2021
3905 Rain 30 1006 74 10000 3.6 270 10:33 09.01.2021
3906 Rain 31 1007 66 10000 3.09 270 09:53 09.01.2021
3907 Rain 31 1007 66 10000 3.09 270 09:29 09.01.2021
3908 Clouds 31 1008 66 10000 2.57 270 08:35 09.01.2021
3909 Clouds 31 1009 74 10000 2.06 290 06:58 09.01.2021
3910 Clouds 31 1009 74 10000 2.06 290 06:40 09.01.2021
3911 Clouds 29 1009 79 10000 2.06 300 04:50 09.01.2021
3912 Clouds 28 1009 83 10000 2.06 320 03:25 09.01.2021
3913 Clouds 27 1008 89 10000 1.54 340 02:32 09.01.2021
3914 Clouds 27 1007 89 10000 1.54 320 01:54 09.01.2021
3915 Clouds 27 1006 83 10000 3.09 300 00:37 09.01.2021
3916 Rain 27 1006 83 10000 2.57 340 23:59 08.01.2021
3917 Clouds 27 1006 83 10000 2.06 330 23:19 08.01.2021
3918 Clouds 28 1007 78 10000 2.57 300 22:19 08.01.2021
3919 Clouds 28 1007 78 10000 2.57 300 21:44 08.01.2021
3920 Clouds 28 1008 78 10000 2.57 290 20:49 08.01.2021
3921 Clouds 28 1008 78 10000 2.57 290 20:25 08.01.2021
3922 Clouds 28 1009 78 10000 2.57 340 19:55 08.01.2021
3923 Clouds 28 1009 89 10000 1.54 320 19:22 08.01.2021
3924 Clouds 28 1009 89 10000 1.54 320 18:36 08.01.2021
3925 Rain 28 1009 83 10000 1.54 320 18:18 08.01.2021
3926 Rain 28 1009 83 10000 1.54 320 17:44 08.01.2021
3927 Rain 28 1008 83 10000 1.54 340 17:20 08.01.2021
3928 Clouds 28 1008 83 10000 1.54 340 16:34 08.01.2021
3929 Clouds 28 1007 83 10000 1.54 20 15:44 08.01.2021
3930 Clouds 28 1006 83 10000 1.54 340 14:56 08.01.2021
3931 Clouds 28 1006 83 10000 1.54 340 14:35 08.01.2021
3932 Rain 28 1006 83 10000 1.03 0 13:41 08.01.2021
3933 Rain 28 1005 83 10000 1.03 0 13:18 08.01.2021
3934 Rain 28 1005 83 10000 1.03 0 12:45 08.01.2021
3935 Rain 28 1005 83 10000 1.54 360 12:19 08.01.2021
3936 Rain 28 1005 83 10000 1.54 360 11:43 08.01.2021
3937 Rain 28 1005 83 10000 1.54 360 11:23 08.01.2021
3938 Rain 27 1006 89 7000 3.09 360 10:49 08.01.2021
3939 Rain 27 1006 89 7000 3.09 360 10:26 08.01.2021
3940 Clouds 30 1007 74 10000 2.06 350 09:45 08.01.2021
3941 Rain 30 1007 74 10000 2.06 350 09:25 08.01.2021
3942 Clouds 30 1008 74 10000 2.06 320 08:33 08.01.2021
3943 Clouds 30 1008 74 10000 2.06 320 07:25 08.01.2021
3944 Clouds 29 1009 79 10000 2.06 80 05:43 08.01.2021
3945 Rain 27 1006 89 10000 2.06 220 23:46 07.01.2021
3946 Rain 27 1006 89 10000 2.06 220 23:28 07.01.2021
3947 Clouds 27 1006 89 10000 1.54 260 22:45 07.01.2021
3948 Rain 27 1006 89 10000 1.54 260 22:25 07.01.2021
3949 Rain 27 1006 89 10000 1.54 260 22:25 07.01.2021
3950 Clouds 28 1007 83 10000 2.57 250 21:42 07.01.2021
3951 Clouds 28 1007 83 10000 2.57 250 21:24 07.01.2021
3952 Clouds 28 1008 83 10000 2.57 250 20:46 07.01.2021
3953 Clouds 28 1008 83 10000 2.57 250 20:28 07.01.2021
3954 Clouds 28 1008 83 10000 1.54 220 19:43 07.01.2021
3955 Clouds 28 1009 89 10000 2.06 260 19:20 07.01.2021
3956 Clouds 28 1009 89 10000 2.06 260 18:30 07.01.2021
3957 Clouds 28 1009 78 10000 1.03 0 17:47 07.01.2021
3958 Clouds 28 1009 78 10000 1.03 0 17:27 07.01.2021
3959 Clouds 28 1008 78 10000 1.03 0 16:53 07.01.2021
3960 Clouds 28 1008 78 10000 1.03 0 16:27 07.01.2021
3961 Clouds 28 1008 78 10000 1.54 300 15:41 07.01.2021
3962 Clouds 30 1007 74 10000 1.03 0 14:57 07.01.2021
3963 Clouds 30 1007 74 10000 1.03 0 14:27 07.01.2021
3964 Clouds 30 1006 74 10000 2.06 280 13:45 07.01.2021
3965 Clouds 28 1006 73 10000 1.54 72 13:18 07.01.2021
3966 Clear 28 1006 74 10000 1.44 59 12:42 07.01.2021
3967 Clouds 29 1005 79 9000 3.1 90 11:57 07.01.2021
3968 Clouds 29 1005 79 9000 3.1 90 11:57 07.01.2021
3969 Clouds 29 1005 79 9000 3.1 90 11:36 07.01.2021
3970 Clouds 30 1006 74 10000 2.1 310 10:51 07.01.2021
3971 Clouds 30 1006 74 10000 2.1 310 10:31 07.01.2021
3972 Clouds 30 1007 74 10000 2.1 320 09:48 07.01.2021
3973 Clouds 30 1008 74 10000 1.5 50 09:20 07.01.2021
3974 Clouds 30 1008 74 10000 1.5 50 08:29 07.01.2021
3975 Clouds 30 1008 74 10000 2.1 10 07:53 07.01.2021
3976 Clouds 30 1008 74 10000 2.1 10 07:30 07.01.2021
3977 Clouds 29 1009 74 10000 2.1 60 05:26 07.01.2021
3978 Clouds 27 1007 88 10000 2.1 30 00:32 07.01.2021
3979 Clouds 27 1007 88 10000 0.5 0 23:51 06.01.2021
3980 Clouds 27 1007 88 10000 2.1 70 22:47 06.01.2021
3981 Clouds 27 1008 88 10000 2.1 10 21:56 06.01.2021
3982 Clouds 27 1008 88 10000 2.1 10 21:38 06.01.2021
3983 Clouds 27 1009 88 10000 2.6 340 21:19 06.01.2021
3984 Clouds 27 1009 88 10000 2.6 340 20:39 06.01.2021
3985 Clouds 27 1009 88 10000 2.1 20 20:18 06.01.2021
3986 Clouds 27 1009 88 10000 2.1 20 19:38 06.01.2021
3987 Clouds 28 1009 78 10000 2.1 340 19:19 06.01.2021
3988 Clouds 28 1009 78 10000 2.1 340 18:42 06.01.2021
3989 Clouds 28 1010 78 10000 2.6 310 18:24 06.01.2021
3990 Clouds 28 1010 78 10000 2.6 310 17:43 06.01.2021
3991 Clouds 28 1010 78 10000 2.6 290 17:24 06.01.2021
3992 Clouds 28 1010 78 10000 2.6 290 16:42 06.01.2021
3993 Clouds 28 1009 78 10000 1 0 16:20 06.01.2021
3994 Clouds 28 1009 78 10000 1 0 16:20 06.01.2021
3995 Clouds 28 1009 78 10000 1 0 15:53 06.01.2021
3996 Clouds 28 1009 78 10000 1 0 15:32 06.01.2021
3997 Rain 28 1008 78 10000 1.5 330 14:52 06.01.2021
3998 Rain 29 1008 74 10000 1.5 350 14:21 06.01.2021
3999 Rain 29 1008 74 10000 1.5 350 13:47 06.01.2021
4000 Rain 29 1007 70 10000 1.5 330 13:24 06.01.2021
4001 Rain 29 1007 70 10000 1.5 330 12:49 06.01.2021
4002 Clouds 30 1007 79 10000 2.1 300 12:26 06.01.2021
4003 Clouds 30 1007 79 10000 2.1 300 11:39 06.01.2021
4004 Clouds 29 1008 79 10000 1.5 330 11:20 06.01.2021
4005 Rain 29 1008 79 10000 1.5 330 10:29 06.01.2021
4006 Rain 29 1008 74 10000 1.5 330 09:51 06.01.2021
4007 Rain 30 1009 70 10000 3.1 310 09:21 06.01.2021
4008 Clouds 30 1009 70 10000 3.1 310 08:41 06.01.2021
4009 Clouds 29 1010 74 10000 3.6 300 07:59 06.01.2021
4010 Clouds 29 1010 74 10000 5.1 270 07:18 06.01.2021
4011 Rain 28 1010 78 10000 4.1 280 05:51 06.01.2021
4012 Clouds 27 1011 83 10000 3.6 280 04:41 06.01.2021
4013 Clouds 26 1009 88 9000 4.1 290 02:47 06.01.2021
4014 Clouds 26 1009 88 9000 4.1 290 02:26 06.01.2021
4015 Clouds 26 1009 88 9000 5.1 290 01:34 06.01.2021
4016 Rain 26 1009 94 8000 3.1 310 23:34 05.01.2021
4017 Rain 26 1009 94 7000 2.6 290 22:45 05.01.2021
4018 Rain 26 1009 94 7000 2.6 250 22:22 05.01.2021
4019 Rain 26 1009 94 7000 2.6 250 21:57 05.01.2021
4020 Rain 26 1010 100 6000 1.5 170 20:58 05.01.2021
4021 Rain 26 1011 94 6000 2.6 160 20:28 05.01.2021
4022 Rain 26 1011 94 6000 2.6 160 19:45 05.01.2021
4023 Rain 28 1010 77 10000 3.73 233 19:23 05.01.2021
4024 Rain 28 1010 77 10000 3.73 233 18:46 05.01.2021
4025 Rain 26 1012 94 6000 4.6 210 18:28 05.01.2021
4026 Rain 26 1012 94 6000 4.6 210 17:53 05.01.2021
4027 Rain 26 1011 94 6000 3.6 220 17:31 05.01.2021
4028 Rain 26 1011 94 6000 3.6 220 16:53 05.01.2021
4029 Rain 26 1010 94 6000 6.2 220 16:23 05.01.2021
4030 Rain 26 1010 94 6000 6.2 220 15:58 05.01.2021
4031 Clouds 26 1010 94 6000 6.2 220 15:34 05.01.2021
4032 Clouds 26 1009 94 6000 8.7 210 14:47 05.01.2021
4033 Rain 28 1008 88 6000 4.1 200 13:55 05.01.2021
4034 Clouds 28 1008 88 6000 4.1 200 13:36 05.01.2021
4035 Clouds 28 1007 83 8000 4.1 190 12:52 05.01.2021
4036 Rain 28 1007 83 8000 4.1 190 12:29 05.01.2021
4037 Rain 30 1007 79 8000 4.1 170 11:53 05.01.2021
4038 Clouds 29 1008 83 8000 3.1 170 11:29 05.01.2021
4039 -273 0 0 0 0 0 11:28 05.01.2021
4040 Clouds 29 1008 83 8000 3.1 170 11:28 05.01.2021
4041 Clouds 29 1008 83 8000 3.1 170 10:44 05.01.2021
4042 Clouds 29 1009 83 8000 3.1 190 10:18 05.01.2021
4043 Clouds 29 1009 83 8000 3.1 190 09:41 05.01.2021
4044 Rain 29 1009 79 8000 3.6 160 08:45 05.01.2021
4045 Rain 29 1010 79 8000 4.6 110 08:19 05.01.2021
4046 Clouds 27 1011 88 8000 5.7 90 05:32 05.01.2021
4047 Rain 25 1010 100 8000 4.1 100 03:39 05.01.2021
4048 Rain 28 1007 78 10000 5.31 23 00:23 05.01.2021
4049 Rain 28 1007 78 10000 5.31 23 23:42 04.01.2021
4050 Rain 26 1008 94 8000 4.1 110 23:22 04.01.2021
4051 Clouds 26 1008 94 8000 4.1 110 22:46 04.01.2021
4052 Clouds 27 1008 88 9000 3.6 90 22:19 04.01.2021
4053 Clouds 27 1008 88 9000 3.6 90 21:40 04.01.2021
4054 Rain 27 1009 88 9000 3.1 40 21:20 04.01.2021
4055 Thunderstorm 27 1009 88 9000 3.1 40 20:38 04.01.2021
4056 Rain 28 1009 83 10000 3.6 20 20:19 04.01.2021
4057 Clouds 28 1009 83 10000 3.6 20 19:42 04.01.2021
4058 Clouds 28 1009 83 10000 5.1 50 19:19 04.01.2021
4059 Clouds 28 1009 83 10000 5.1 50 18:44 04.01.2021
4060 Rain 28 1010 83 10000 4.6 50 17:56 04.01.2021
4061 Rain 28 1010 83 10000 4.6 50 17:37 04.01.2021
4062 Rain 28 1009 83 10000 4.6 70 17:18 04.01.2021
4063 Rain 28 1009 83 10000 4.6 70 16:40 04.01.2021
4064 Rain 27 1008 88 10000 5.1 70 16:22 04.01.2021
4065 Rain 27 1008 88 10000 5.1 70 15:47 04.01.2021
4066 Rain 27 1008 88 10000 6.7 60 15:21 04.01.2021
4067 Clouds 28 1007 78 10000 6.7 70 13:57 04.01.2021
4068 Rain 28 1007 78 10000 6.7 70 13:36 04.01.2021
4069 Rain 27 1006 88 8000 5.7 110 12:55 04.01.2021
4070 Clouds 27 1006 88 8000 5.7 110 12:30 04.01.2021
4071 Rain 27 1006 88 8000 6.2 110 11:41 04.01.2021
4072 Rain 28 1007 83 8000 3.1 80 11:18 04.01.2021
4073 Rain 28 1007 83 8000 3.1 80 10:44 04.01.2021
4074 Rain 28 1008 83 8000 2.6 90 10:22 04.01.2021
4075 Rain 28 1008 83 8000 2.6 90 09:36 04.01.2021
4076 Clouds 28 1008 77 10000 4.05 23 09:18 04.01.2021
4077 Clouds 28 1009 76 10000 3.42 25 08:23 04.01.2021
4078 Clouds 28 1009 76 10000 3.42 25 07:47 04.01.2021
4079 Clouds 29 1010 83 8000 2.6 60 05:42 04.01.2021
4080 Clouds 27 1010 88 8000 5.7 70 05:20 04.01.2021
4081 Clouds 28 1008 83 8000 4.1 60 02:26 04.01.2021
4082 Clouds 27 1007 88 8000 4.1 70 00:24 04.01.2021
4083 Clouds 27 1007 88 8000 4.1 70 23:38 03.01.2021
4084 Clouds 27 1007 94 8000 4.1 70 22:58 03.01.2021
4085 Clouds 27 1007 94 8000 4.1 70 22:39 03.01.2021
4086 Clouds 28 1008 88 8000 3.1 40 22:21 03.01.2021
4087 Clouds 28 1008 88 8000 3.1 40 21:41 03.01.2021
4088 Clouds 28 1008 88 8000 3.1 30 21:23 03.01.2021
4089 Clouds 28 1008 88 8000 3.1 30 20:41 03.01.2021
4090 Clouds 28 1009 88 8000 3.1 30 20:19 03.01.2021
4091 Clouds 28 1009 88 8000 3.1 30 19:46 03.01.2021
4092 Clouds 28 1009 88 8000 3.1 30 19:27 03.01.2021
4093 Clouds 28 1009 88 8000 4.6 30 18:46 03.01.2021
4094 Clouds 28 1009 83 8000 4.6 40 18:25 03.01.2021
4095 Clouds 28 1009 83 8000 4.6 40 17:53 03.01.2021
4096 Clouds 29 1008 79 8000 5.7 30 17:27 03.01.2021
4097 Clouds 29 1008 79 8000 5.7 30 16:55 03.01.2021
4098 Clouds 29 1008 79 8000 5.7 30 16:36 03.01.2021
4099 Clouds 29 1008 79 8000 5.1 40 16:18 03.01.2021
4100 Clouds 29 1008 79 8000 5.1 40 15:40 03.01.2021
4101 Clouds 29 1007 79 8000 6.7 40 14:59 03.01.2021
4102 Clouds 29 1007 79 8000 6.7 40 14:33 03.01.2021
4103 Clouds 29 1006 79 8000 6.2 40 13:52 03.01.2021
4104 Clouds 29 1006 79 8000 6.2 40 13:25 03.01.2021
4105 Clouds 30 1005 74 8000 7.2 50 12:57 03.01.2021
4106 Rain 30 1006 74 8000 7.2 50 11:44 03.01.2021
4107 Rain 30 1007 74 8000 8.2 50 11:26 03.01.2021
4108 Rain 30 1007 74 8000 8.2 50 10:56 03.01.2021
4109 Clouds 30 1007 74 8000 8.2 50 10:31 03.01.2021
4110 Clouds 31 1007 74 8000 7.7 70 09:43 03.01.2021
4111 Rain 31 1009 74 8000 6.7 50 09:23 03.01.2021
4112 Clouds 31 1009 74 8000 6.7 60 07:59 03.01.2021
4113 Clouds 31 1010 74 8000 6.7 70 06:51 03.01.2021
4114 Clouds 28 1008 83 8000 5.7 80 02:59 03.01.2021
4115 Clouds 28 1008 83 8000 7.2 70 02:22 03.01.2021
4116 Clouds 28 1007 83 8000 5.7 70 00:25 03.01.2021
4117 Clouds 28 1007 83 8000 5.7 70 23:42 02.01.2021
4118 Clouds 28 1008 83 8000 5.1 70 23:18 02.01.2021
4119 Clouds 28 1008 83 8000 5.1 70 22:45 02.01.2021
4120 Clouds 28 1008 83 8000 5.1 70 22:27 02.01.2021
4121 Clouds 28 1008 83 8000 5.7 70 21:38 02.01.2021
4122 Clouds 28 1009 83 8000 7.2 70 21:20 02.01.2021
4123 Clouds 28 1009 83 8000 7.2 70 20:41 02.01.2021
4124 Clouds 28 1010 83 8000 7.2 60 20:21 02.01.2021
4125 Clouds 28 1010 83 8000 7.2 60 19:43 02.01.2021
4126 Clouds 28 1010 83 8000 7.2 60 19:43 02.01.2021
4127 Clouds 28 1010 83 8000 7.2 60 19:19 02.01.2021
4128 Clouds 28 1010 83 8000 7.2 60 18:43 02.01.2021
4129 Clouds 28 1009 78 8000 8.7 70 18:25 02.01.2021
4130 Clouds 28 1009 78 8000 8.7 70 17:46 02.01.2021
4131 Clouds 28 1009 78 8000 7.7 60 17:26 02.01.2021
4132 Clouds 28 1009 78 8000 7.7 60 16:41 02.01.2021
4133 Clouds 28 1008 78 7000 8.2 70 16:20 02.01.2021
4134 Clouds 28 1008 78 7000 8.2 70 15:43 02.01.2021
4135 Clouds 29 1008 74 7000 8.7 70 15:25 02.01.2021
4136 Clouds 29 1008 74 7000 8.7 70 14:37 02.01.2021
4137 Clouds 29 1007 79 10000 7.2 50 14:18 02.01.2021
4138 Clouds 29 1007 79 10000 7.2 50 13:39 02.01.2021
4139 Clouds 30 1007 74 8000 7.7 50 12:54 02.01.2021
4140 Clouds 30 1007 74 8000 7.7 50 12:54 02.01.2021
4141 Clouds 30 1007 74 8000 7.7 50 12:32 02.01.2021
4142 Clouds 30 1007 74 8000 7.2 50 11:49 02.01.2021
4143 Clouds 31 1007 74 8000 7.7 50 11:22 02.01.2021
4144 Clouds 31 1007 74 8000 7.7 50 10:56 02.01.2021
4145 Clouds 31 1007 74 8000 7.7 50 10:31 02.01.2021
4146 Clouds 31 1008 70 8000 7.7 40 09:54 02.01.2021
4147 Clouds 31 1008 70 8000 7.7 40 09:28 02.01.2021
4148 Rain 30 1011 74 8000 7.7 40 08:51 02.01.2021
4149 Rain 30 1011 74 8000 7.7 40 08:28 02.01.2021
4150 Rain 29 1010 79 8000 7.7 40 07:49 02.01.2021
4151 Clouds 29 1011 83 8000 7.2 40 07:22 02.01.2021
4152 Clouds 29 1011 83 8000 7.2 40 06:52 02.01.2021
4153 Clouds 27 1011 94 8000 3.6 340 05:45 02.01.2021
4154 Clouds 27 1008 88 10000 4.6 70 00:59 02.01.2021
4155 Clouds 27 1008 88 10000 4.6 70 00:37 02.01.2021
4156 Clouds 27 1008 88 10000 4.6 70 00:37 02.01.2021
4157 Clouds 27 1008 88 10000 5.7 60 23:57 01.01.2021
4158 Clouds 27 1008 88 10000 7.2 70 23:23 01.01.2021
4159 Clouds 27 1008 88 10000 7.2 70 22:48 01.01.2021
4160 Clouds 27 1008 88 10000 7.2 70 22:26 01.01.2021
4161 Clouds 27 1009 88 10000 5.7 70 21:58 01.01.2021
4162 Clouds 27 1009 88 10000 5.7 70 21:39 01.01.2021
4163 Clouds 27 1010 83 10000 6.7 70 21:19 01.01.2021
4164 Clouds 27 1010 83 10000 6.7 70 20:43 01.01.2021
4165 Clouds 27 1010 83 10000 8.7 60 20:18 01.01.2021
4166 Clouds 27 1010 83 10000 8.7 60 19:41 01.01.2021
4167 Clouds 27 1010 83 10000 9.3 70 19:20 01.01.2021
4168 Clouds 27 1010 83 10000 9.3 70 18:42 01.01.2021
4169 Clouds 27 1010 88 9000 9.8 70 18:23 01.01.2021
4170 Clouds 27 1010 88 9000 9.8 70 17:44 01.01.2021
4171 Clouds 27 1009 83 10000 7.7 60 17:23 01.01.2021
4172 Rain 27 1009 83 10000 7.7 60 16:45 01.01.2021
4173 Rain 27 1008 83 10000 6.7 70 16:25 01.01.2021
4174 Clouds 27 1008 83 10000 6.7 70 15:39 01.01.2021
4175 Rain 27 1007 83 9000 6.7 80 14:44 01.01.2021
4176 Rain 27 1007 83 9000 6.7 80 14:25 01.01.2021
4177 Rain 27 1007 88 9000 6.7 80 13:38 01.01.2021
4178 Rain 27 1007 94 10000 7.7 80 12:51 01.01.2021
4179 Clouds 27 1007 94 10000 7.7 80 12:27 01.01.2021
4180 Clouds 28 1008 88 10000 4.1 80 11:42 01.01.2021
4181 Clouds 28 1008 88 9000 5.1 80 11:19 01.01.2021
4182 Rain 28 1008 88 9000 5.1 80 10:56 01.01.2021
4183 Rain 28 1009 83 10000 3.1 80 10:26 01.01.2021
4184 Rain 28 1009 83 10000 3.1 80 09:31 01.01.2021
4185 Rain 29 1010 79 10000 1.5 350 08:30 01.01.2021
4186 Clouds 25 1011 94 9000 1.5 310 07:22 01.01.2021
4187 Clouds 27 1011 78 10000 4.65 56 04:51 01.01.2021
4188 Clouds 25 1008 94 8000 5.1 130 01:58 01.01.2021
4189 Rain 27 1007 88 9000 3.1 90 00:33 01.01.2021
4190 Clouds 28 1007 83 10000 3.1 20 23:41 31.12.2020
4191 Clouds 28 1008 88 10000 2.1 40 23:21 31.12.2020
4192 Clouds 28 1008 88 10000 2.1 40 22:42 31.12.2020
4193 Clouds 28 1008 88 10000 2.1 40 22:24 31.12.2020
4194 Rain 28 1008 83 10000 3.1 40 21:57 31.12.2020
4195 Clouds 28 1008 83 10000 3.1 40 21:39 31.12.2020
4196 Clouds 28 1009 83 10000 4.6 70 21:20 31.12.2020
4197 Clouds 28 1009 83 10000 4.6 70 20:31 31.12.2020
4198 Clouds 28 1009 83 10000 4.6 70 19:52 31.12.2020
4199 Clouds 28 1009 83 10000 4.6 70 19:34 31.12.2020
4200 Clouds 28 1010 83 10000 5.1 70 18:58 31.12.2020
4201 Clouds 28 1009 88 10000 4.1 60 18:26 31.12.2020
4202 Clouds 28 1009 88 10000 4.1 60 17:59 31.12.2020
4203 Clouds 28 1009 88 10000 4.1 60 17:40 31.12.2020
4204 Clouds 28 1009 78 10000 4.1 60 17:21 31.12.2020
4205 Clouds 28 1009 78 10000 4.1 60 16:39 31.12.2020
4206 Rain 29 1008 79 10000 5.1 60 16:20 31.12.2020
4207 Clouds 29 1008 79 10000 5.1 60 15:43 31.12.2020
4208 Clouds 29 1008 79 10000 4.1 70 15:20 31.12.2020
4209 Clouds 29 1008 79 10000 4.1 70 14:43 31.12.2020
4210 Clouds 29 1007 79 10000 3.6 60 14:24 31.12.2020
4211 Clouds 29 1007 79 10000 3.6 60 13:59 31.12.2020
4212 Clouds 29 1007 79 10000 3.6 60 13:38 31.12.2020
4213 Clouds 30 1007 74 10000 4.6 80 13:19 31.12.2020
4214 Clouds 30 1007 74 10000 4.6 80 12:50 31.12.2020
4215 Rain 30 1007 74 10000 4.6 80 12:32 31.12.2020
4216 Rain 30 1007 74 10000 5.1 80 11:48 31.12.2020
4217 Rain 30 1007 74 10000 5.1 80 11:30 31.12.2020
4218 Rain 31 1007 74 10000 5.7 90 10:46 31.12.2020
4219 Clouds 30 1008 79 10000 5.1 90 10:27 31.12.2020
4220 Clouds 30 1008 79 10000 5.1 90 09:50 31.12.2020
4221 Clouds 30 1008 79 10000 5.1 90 09:26 31.12.2020
4222 Rain 31 1009 74 10000 6.7 90 08:50 31.12.2020
4223 Rain 31 1009 74 10000 6.7 90 08:31 31.12.2020
4224 Rain 31 1010 74 10000 6.7 90 07:56 31.12.2020
4225 Clouds 31 1010 74 10000 6.2 80 07:25 31.12.2020
4226 Clouds 30 1010 79 10000 6.7 90 05:30 31.12.2020
4227 Clouds 28 1008 83 10000 6.2 70 03:38 31.12.2020
4228 Clouds 28 1008 83 10000 6.2 70 02:44 31.12.2020
4229 Clouds 28 1007 88 10000 6.2 80 02:25 31.12.2020
4230 Clouds 28 1007 88 10000 6.2 80 01:43 31.12.2020
4231 Clear 28 1008 79 10000 4.77 93 01:21 31.12.2020
4232 Clear 28 1008 80 10000 4.98 95 00:43 31.12.2020
4233 Clear 28 1007 81 10000 4.68 89 23:43 30.12.2020
4234 Clear 28 1007 80 10000 4.79 82 23:19 30.12.2020
4235 Clear 28 1007 80 10000 4.79 82 22:45 30.12.2020
4236 Clear 28 1007 79 10000 4.78 81 22:27 30.12.2020
4237 Clouds 28 1009 88 10000 5.7 70 21:39 30.12.2020
4238 Clouds 28 1009 88 10000 5.7 70 21:20 30.12.2020
4239 Clouds 28 1009 88 10000 5.7 70 20:41 30.12.2020
4240 Clouds 28 1009 83 10000 5.7 80 20:20 30.12.2020
4241 Clouds 28 1009 78 10000 4.97 74 19:39 30.12.2020
4242 Clouds 28 1009 78 10000 5.14 75 19:20 30.12.2020
4243 Clouds 28 1009 78 10000 4.65 77 18:44 30.12.2020
4244 Clouds 28 1010 78 10000 5.12 75 18:24 30.12.2020
4245 Clouds 28 1010 78 10000 5.12 75 17:50 30.12.2020
4246 Clouds 28 1010 78 10000 5.12 75 17:31 30.12.2020
4247 Clouds 28 1009 77 10000 4.92 79 16:52 30.12.2020
4248 Clouds 28 1008 77 10000 4.47 83 16:27 30.12.2020
4249 Clouds 28 1008 77 10000 4.47 83 15:45 30.12.2020
4250 Clouds 28 1008 77 10000 4.74 83 15:24 30.12.2020
4251 Clouds 28 1008 77 10000 4.74 83 14:43 30.12.2020
4252 Clouds 28 1007 77 10000 4.75 78 14:22 30.12.2020
4253 Clouds 28 1007 77 10000 4.76 73 13:26 30.12.2020
4254 Clouds 28 1006 77 10000 5.26 61 12:28 30.12.2020
4255 Clouds 28 1006 77 10000 5.26 61 11:50 30.12.2020
4256 Clouds 31 1007 74 7000 5.7 70 11:25 30.12.2020
4257 Clouds 31 1007 74 7000 5.7 70 10:59 30.12.2020
4258 Clouds 31 1007 74 7000 5.7 70 10:39 30.12.2020
4259 Clouds 31 1007 74 6000 6.2 70 10:20 30.12.2020
4260 Clouds 31 1007 74 6000 6.2 70 09:47 30.12.2020
4261 Clouds 31 1008 70 6000 5.1 60 09:23 30.12.2020
4262 Clouds 31 1009 70 6000 6.2 70 08:24 30.12.2020
4263 Clouds 30 1009 74 6000 5.7 70 07:29 30.12.2020
4264 Clouds 30 1009 74 6000 5.7 70 06:44 30.12.2020
4265 Clouds 30 1010 74 6000 5.1 60 05:52 30.12.2020
4266 Clouds 30 1010 74 6000 5.1 60 05:31 30.12.2020
4267 Clouds 29 1009 79 6000 4.1 50 04:29 30.12.2020
4268 Clouds 28 1009 83 6000 3.6 50 03:28 30.12.2020
4269 Clouds 27 1008 88 8000 3.6 70 02:38 30.12.2020
4270 Clouds 27 1008 83 8000 4.1 60 01:50 30.12.2020
4271 Clouds 27 1008 83 8000 4.1 60 01:31 30.12.2020
4272 Clouds 27 1007 88 8000 3.1 40 00:47 30.12.2020
4273 Clouds 27 1007 88 8000 3.1 40 00:29 30.12.2020
4274 Clouds 27 1007 88 8000 3.1 40 23:53 29.12.2020
4275 Clouds 27 1007 88 8000 3.1 40 23:35 29.12.2020
4276 Clouds 28 1008 83 8000 2.6 30 22:50 29.12.2020
4277 Clouds 28 1008 83 8000 2.6 30 22:32 29.12.2020
4278 Clouds 28 1009 83 8000 3.1 50 21:59 29.12.2020
4279 Clouds 28 1009 83 8000 3.1 50 21:59 29.12.2020
4280 Clouds 28 1009 83 8000 3.1 50 21:39 29.12.2020
4281 Clouds 28 1009 83 7000 3.1 50 21:21 29.12.2020
4282 Clouds 28 1009 83 7000 3.1 50 20:44 29.12.2020
4283 Clouds 28 1010 83 7000 3.6 70 20:25 29.12.2020
4284 Clouds 28 1010 83 7000 3.6 70 19:45 29.12.2020
4285 Clouds 28 1010 83 7000 4.1 70 19:23 29.12.2020
4286 Clouds 28 1010 83 7000 4.1 70 18:54 29.12.2020
4287 Clouds 28 1010 83 7000 4.1 70 18:29 29.12.2020
4288 Clouds 28 1010 83 7000 4.1 70 17:48 29.12.2020
4289 Clouds 28 1009 83 7000 3.6 50 17:23 29.12.2020
4290 Clouds 28 1009 83 7000 3.6 50 16:56 29.12.2020
4291 Clouds 29 1008 74 7000 4.6 40 16:27 29.12.2020
4292 Clouds 29 1008 74 7000 4.6 40 15:51 29.12.2020
4293 Clouds 29 1008 74 7000 4.6 40 15:33 29.12.2020
4294 Clouds 29 1008 74 7000 3.6 30 14:45 29.12.2020
4295 Clouds 30 1007 70 7000 3.1 10 14:27 29.12.2020
4296 Rain 30 1007 70 7000 3.1 10 13:56 29.12.2020
4297 Clouds 30 1007 74 7000 3.6 360 13:25 29.12.2020
4298 Rain 30 1007 74 7000 3.6 360 12:45 29.12.2020
4299 Rain 30 1007 74 7000 3.6 360 12:26 29.12.2020
4300 Rain 30 1007 74 7000 4.1 360 11:59 29.12.2020
4301 Clouds 30 1007 74 7000 4.1 360 11:32 29.12.2020
4302 Clouds 31 1007 70 7000 4.1 340 10:52 29.12.2020
4303 Clouds 31 1008 70 7000 3.6 340 10:20 29.12.2020
4304 Clouds 31 1008 70 7000 3.6 340 09:40 29.12.2020
4305 Clouds 31 1009 74 8000 3.1 320 09:18 29.12.2020
4306 Clouds 31 1009 74 8000 3.1 320 08:47 29.12.2020
4307 Clouds 31 1010 70 8000 3.1 330 07:40 29.12.2020
4308 Clouds 29 1011 79 8000 2.1 320 07:18 29.12.2020
4309 Clouds 28 1011 76 10000 5.02 339 05:44 29.12.2020
4310 Clouds 27 1008 88 7000 1 0 01:58 29.12.2020
4311 Clouds 28 1008 83 7000 1.5 260 00:26 29.12.2020
4312 Clouds 28 1008 83 7000 1.5 260 23:38 28.12.2020
4313 Clouds 27 1008 88 7000 1.5 270 22:56 28.12.2020
4314 Clouds 27 1009 88 7000 1 0 22:20 28.12.2020
4315 Clouds 27 1009 88 7000 1 0 21:41 28.12.2020
4316 Clouds 27 1010 88 7000 0.5 0 21:20 28.12.2020
4317 Clouds 27 1010 88 7000 0.5 0 20:40 28.12.2020
4318 Clouds 27 1010 88 7000 3.42 348 20:21 28.12.2020
4319 Clouds 27 1010 88 7000 3.42 348 19:42 28.12.2020
4320 Clouds 28 1011 78 7000 1.5 20 19:22 28.12.2020
4321 Clouds 28 1011 78 7000 1.5 20 18:49 28.12.2020
4322 Clouds 28 1011 83 7000 2.1 350 18:28 28.12.2020
4323 Clouds 28 1011 83 7000 2.1 350 17:42 28.12.2020
4324 Clouds 28 1010 83 7000 2.1 320 17:20 28.12.2020
4325 Clouds 28 1010 83 7000 2.1 320 16:34 28.12.2020
4326 Clouds 28 1009 78 7000 2.1 320 15:59 28.12.2020
4327 Clouds 28 1009 78 7000 2.1 320 15:41 28.12.2020
4328 Clouds 28 1009 83 7000 2.6 310 14:56 28.12.2020
4329 Clouds 28 1008 83 7000 3.6 310 13:55 28.12.2020
4330 Clouds 28 1008 83 7000 3.6 310 13:25 28.12.2020
4331 Clouds 28 1008 83 7000 3.6 310 12:41 28.12.2020
4332 Clouds 27 1008 83 7000 5.1 300 12:22 28.12.2020
4333 Clouds 27 1008 83 7000 5.1 300 11:45 28.12.2020
4334 Clouds 28 1008 74 7000 4.1 340 11:24 28.12.2020
4335 Clouds 28 1008 74 7000 4.1 340 10:45 28.12.2020
4336 Clouds 28 1008 74 7000 4.1 340 10:27 28.12.2020
4337 Clouds 28 1009 78 7000 6.2 30 09:46 28.12.2020
4338 Clouds 30 1010 79 7000 2.6 340 09:19 28.12.2020
4339 Clouds 29 1011 83 7000 3.1 300 07:35 28.12.2020
4340 Clouds 30 1011 74 10000 5.1 270 06:50 28.12.2020
4341 Clouds 26 1010 94 8000 1 0 04:31 28.12.2020
4342 Clouds 26 1009 94 10000 1.74 298 02:22 28.12.2020
4343 Clouds 26 1008 94 10000 1.71 329 00:53 28.12.2020
4344 Clouds 27 1009 70 10000 1.4 341 23:46 27.12.2020
4345 Thunderstorm 26 1009 94 10000 1 0 23:19 27.12.2020
4346 Thunderstorm 26 1010 94 8000 0.5 0 21:57 27.12.2020
4347 Thunderstorm 26 1010 94 8000 0.5 0 21:57 27.12.2020
4348 Thunderstorm 26 1010 94 8000 0.5 0 21:26 27.12.2020
4349 Clouds 28 1010 70 10000 1.93 38 20:47 27.12.2020
4350 Clouds 28 1011 83 10000 2.6 100 19:46 27.12.2020
4351 Clouds 28 1011 83 10000 3.1 80 19:21 27.12.2020
4352 Clouds 28 1011 83 10000 3.1 80 18:41 27.12.2020
4353 Clouds 28 1011 78 9000 3.6 70 18:19 27.12.2020
4354 Clouds 28 1011 78 9000 3.6 70 17:43 27.12.2020
4355 Clouds 28 1010 78 9000 4.1 60 17:24 27.12.2020
4356 Clouds 28 1010 78 9000 4.1 60 16:37 27.12.2020
4357 Clouds 29 1009 74 9000 4.1 60 15:56 27.12.2020
4358 Clouds 29 1008 74 10000 4.6 50 14:59 27.12.2020
4359 Clouds 29 1008 74 10000 4.6 50 14:41 27.12.2020
4360 Clouds 30 1007 70 10000 4.1 60 14:22 27.12.2020
4361 Clouds 31 1007 66 10000 5.1 60 13:22 27.12.2020
4362 Clouds 31 1007 66 10000 5.1 60 12:47 27.12.2020
4363 Clouds 31 1007 66 10000 4.6 60 12:18 27.12.2020
4364 Clouds 31 1007 66 10000 4.6 60 11:39 27.12.2020
4365 Clouds 31 1007 66 10000 4.6 60 10:52 27.12.2020
4366 Clouds 31 1007 66 10000 4.6 60 10:25 27.12.2020
4367 Clouds 31 1008 70 10000 4.6 60 09:56 27.12.2020
4368 Clouds 31 1010 70 10000 5.7 70 08:50 27.12.2020
4369 Clouds 30 1011 74 10000 6.7 60 08:26 27.12.2020
4370 Clouds 30 1011 74 10000 6.7 60 07:27 27.12.2020
4371 Clouds 30 1012 74 10000 6.2 70 05:46 27.12.2020
4372 Clouds 29 1012 79 10000 4.6 80 04:32 27.12.2020
4373 Clouds 28 1010 83 10000 5.1 70 03:21 27.12.2020
4374 Clouds 28 1008 83 10000 5.7 80 01:34 27.12.2020
4375 Clouds 28 1009 83 10000 5.1 80 00:24 27.12.2020
4376 Clouds 28 1009 83 10000 5.1 80 23:40 26.12.2020
4377 Clouds 28 1010 83 10000 5.1 70 23:19 26.12.2020
4378 Clouds 28 1010 83 10000 5.1 70 22:36 26.12.2020
4379 Clouds 28 1011 83 10000 5.1 80 22:18 26.12.2020
4380 Clouds 28 1011 83 10000 5.1 80 21:48 26.12.2020
4381 Clouds 28 1011 83 10000 4.6 80 21:24 26.12.2020
4382 Clouds 28 1011 83 10000 4.6 80 20:43 26.12.2020
4383 Clouds 28 1012 88 10000 4.6 90 20:19 26.12.2020
4384 Clouds 28 1012 88 10000 4.6 90 19:29 26.12.2020
4385 Clouds 28 1012 83 10000 4.6 90 18:53 26.12.2020
4386 Clouds 28 1012 83 10000 4.6 90 18:32 26.12.2020
4387 Clouds 28 1011 83 10000 6.2 80 17:44 26.12.2020
4388 Clouds 29 1011 79 10000 6.2 80 17:26 26.12.2020
4389 Clouds 29 1011 79 10000 6.2 80 16:37 26.12.2020
4390 Clouds 29 1010 79 10000 5.1 90 15:52 26.12.2020
4391 Clouds 29 1009 79 10000 6.2 80 15:19 26.12.2020
4392 Clouds 29 1009 79 10000 6.2 80 14:29 26.12.2020
4393 Clouds 30 1008 74 10000 6.2 80 13:56 26.12.2020
4394 Clouds 30 1008 74 10000 6.2 80 13:56 26.12.2020
4395 Clouds 30 1008 74 10000 6.2 80 13:36 26.12.2020
4396 Clouds 30 1008 74 10000 6.2 80 12:53 26.12.2020
4397 Clouds 30 1008 74 10000 6.2 80 12:35 26.12.2020
4398 Clouds 31 1008 70 10000 6.2 80 11:59 26.12.2020
4399 Clouds 31 1008 70 10000 6.2 80 11:41 26.12.2020
4400 Clouds 31 1008 70 10000 6.2 80 11:19 26.12.2020
4401 Clouds 31 1008 70 10000 6.2 80 10:43 26.12.2020
4402 Clouds 32 1009 70 10000 6.7 90 10:23 26.12.2020
4403 Clouds 32 1009 70 10000 6.7 90 09:41 26.12.2020
4404 Clouds 32 1010 66 10000 6.7 80 08:54 26.12.2020
4405 Clouds 31 1011 74 10000 6.7 90 08:18 26.12.2020
4406 Clouds 31 1011 70 10000 6.7 90 07:20 26.12.2020
4407 Clouds 29 1011 79 10000 6.7 90 04:39 26.12.2020
4408 Clouds 28 1009 83 10000 6.2 80 02:34 26.12.2020
4409 Clouds 28 1008 83 10000 5.7 90 00:34 26.12.2020
4410 Clouds 28 1008 83 10000 5.1 100 23:49 25.12.2020
4411 Clouds 28 1008 83 10000 5.1 100 23:28 25.12.2020
4412 Clouds 28 1009 83 10000 5.7 100 22:51 25.12.2020
4413 Clouds 28 1009 83 10000 5.7 100 22:26 25.12.2020
4414 Clouds 28 1009 78 10000 4.58 107 21:42 25.12.2020
4415 Clouds 28 1010 88 10000 5.1 100 21:23 25.12.2020
4416 Clouds 28 1010 88 10000 5.1 100 20:44 25.12.2020
4417 Clouds 28 1010 83 10000 5.7 100 20:26 25.12.2020
4418 Clouds 28 1010 83 10000 5.7 100 19:42 25.12.2020
4419 Clouds 29 1011 79 10000 5.1 110 18:43 25.12.2020
4420 Clouds 29 1010 79 10000 5.1 110 18:25 25.12.2020
4421 Clouds 29 1010 79 10000 5.1 110 17:35 25.12.2020
4422 Clouds 29 1010 83 10000 5.1 110 16:51 25.12.2020
4423 Clouds 29 1009 79 10000 5.1 110 16:21 25.12.2020
4424 Clouds 29 1009 79 10000 5.1 110 15:49 25.12.2020
4425 Clouds 29 1008 79 10000 6.2 110 15:26 25.12.2020
4426 Clouds 29 1008 79 10000 6.2 110 14:32 25.12.2020
4427 Clouds 30 1007 84 10000 5.7 90 13:49 25.12.2020
4428 Clouds 30 1007 84 10000 5.7 90 13:26 25.12.2020
4429 Clouds 31 1007 74 10000 6.2 100 12:58 25.12.2020
4430 Clouds 31 1007 74 10000 6.2 100 12:27 25.12.2020
4431 Clouds 32 1007 70 10000 5.7 90 11:48 25.12.2020
4432 Clouds 31 1007 74 10000 6.7 100 11:24 25.12.2020
4433 Clouds 31 1007 74 10000 6.7 100 11:24 25.12.2020
4434 Clouds 31 1007 74 10000 6.7 100 10:47 25.12.2020
4435 Clouds 32 1008 70 10000 7.2 100 10:19 25.12.2020
4436 Clouds 31 1009 74 10000 6.7 100 09:26 25.12.2020
4437 Clouds 31 1009 74 10000 6.7 100 08:40 25.12.2020
4438 Clouds 32 1009 70 10000 6.7 100 07:35 25.12.2020
4439 Clouds 31 1010 74 10000 4.6 110 06:44 25.12.2020
4440 Clouds 28 1009 83 10000 3.1 130 02:36 25.12.2020
4441 Clouds 28 1008 83 10000 3.1 110 00:35 25.12.2020
4442 Clouds 28 1008 83 10000 3.1 110 23:32 24.12.2020
4443 Clouds 28 1008 83 10000 3.1 110 22:56 24.12.2020
4444 Clouds 28 1009 83 10000 3.6 130 22:25 24.12.2020
4445 Clouds 28 1009 83 10000 3.6 130 21:53 24.12.2020
4446 Clouds 28 1009 83 10000 3.6 130 21:25 24.12.2020
4447 Clouds 28 1010 83 10000 2.1 120 19:56 24.12.2020
4448 Clouds 28 1010 78 10000 3.1 130 18:22 24.12.2020
4449 Clouds 28 1010 78 10000 3.1 130 17:42 24.12.2020
4450 Clouds 28 1009 83 10000 3.6 150 17:21 24.12.2020
4451 Clouds 28 1008 83 10000 2.6 130 16:26 24.12.2020
4452 Clouds 28 1008 83 10000 2.6 130 15:49 24.12.2020
4453 Clouds 28 1008 83 10000 2.6 130 15:26 24.12.2020
4454 Clouds 29 1007 79 10000 3.1 130 14:57 24.12.2020
4455 Clouds 29 1007 79 10000 3.1 130 14:38 24.12.2020
4456 Clouds 29 1007 79 10000 3.1 130 14:38 24.12.2020
4457 Clouds 29 1007 79 10000 2.6 130 14:20 24.12.2020
4458 Clouds 29 1007 79 10000 2.6 130 13:39 24.12.2020
4459 Rain 30 1006 74 10000 3.6 140 13:19 24.12.2020
4460 Clouds 30 1006 74 10000 3.6 140 12:40 24.12.2020
4461 Clouds 31 1006 70 10000 4.6 200 12:19 24.12.2020
4462 Clouds 31 1006 70 10000 4.6 200 11:38 24.12.2020
4463 Clouds 31 1007 74 10000 3.6 140 11:19 24.12.2020
4464 Clouds 31 1007 74 10000 3.6 140 10:46 24.12.2020
4465 Clouds 31 1008 74 10000 3.6 130 10:27 24.12.2020
4466 Clouds 31 1008 74 10000 3.6 130 09:50 24.12.2020
4467 Clouds 30 1009 74 10000 4.1 140 09:23 24.12.2020
4468 Clouds 31 1009 70 10000 2.6 140 07:57 24.12.2020
4469 Clouds 31 1009 70 10000 2.6 140 07:37 24.12.2020
4470 Clouds 30 1009 79 10000 3.1 130 06:34 24.12.2020
4471 Clouds 27 1009 88 10000 3.6 150 04:24 24.12.2020
4472 Clouds 26 1008 88 10000 2.1 140 01:53 24.12.2020
4473 Clouds 26 1007 88 10000 2.1 160 01:30 24.12.2020
4474 Clouds 26 1007 88 10000 2.1 160 00:55 24.12.2020
4475 Clouds 26 1008 88 10000 1.5 160 00:19 24.12.2020
4476 Clouds 26 1008 88 10000 1.5 160 23:40 23.12.2020
4477 Clouds 27 1008 83 10000 2.1 170 23:21 23.12.2020
4478 Clouds 27 1008 83 10000 2.1 170 22:50 23.12.2020
4479 Clouds 26 1009 94 10000 2.1 170 22:29 23.12.2020
4480 Clouds 26 1009 94 10000 2.1 170 21:49 23.12.2020
4481 Clouds 26 1010 94 10000 1 0 21:23 23.12.2020
4482 Clouds 26 1010 94 10000 1 0 20:47 23.12.2020
4483 Clouds 27 1011 88 10000 3.03 244 20:28 23.12.2020
4484 Rain 27 1011 88 10000 3.03 244 19:59 23.12.2020
4485 Clouds 27 1011 88 10000 3.03 244 19:38 23.12.2020
4486 Clouds 27 1010 88 10000 1 0 19:19 23.12.2020
4487 Clouds 27 1010 88 10000 1 0 18:46 23.12.2020
4488 Clouds 28 1010 83 10000 1 0 18:20 23.12.2020
4489 Clouds 28 1010 83 10000 5.09 248 17:36 23.12.2020
4490 Clouds 28 1010 83 10000 5.54 246 17:18 23.12.2020
4491 Clouds 28 1010 83 10000 5.54 246 16:40 23.12.2020
4492 Clouds 28 1009 83 10000 1.5 250 16:22 23.12.2020
4493 Clouds 28 1009 83 10000 1.5 250 15:50 23.12.2020
4494 Clouds 28 1008 83 10000 2.1 250 15:27 23.12.2020
4495 Clouds 28 1008 83 10000 2.1 250 14:58 23.12.2020
4496 Clouds 28 1008 83 10000 2.1 250 14:37 23.12.2020
4497 Clouds 30 1007 74 10000 2.1 250 14:19 23.12.2020
4498 Clouds 30 1007 74 10000 2.1 250 13:43 23.12.2020
4499 Clouds 30 1007 74 10000 3.6 250 13:19 23.12.2020
4500 Clouds 30 1007 74 10000 3.6 250 12:47 23.12.2020
4501 Clouds 29 1007 83 10000 4.1 260 12:24 23.12.2020
4502 Clouds 29 1007 83 10000 4.1 260 11:46 23.12.2020
4503 Clouds 29 1007 79 10000 4.6 260 11:19 23.12.2020
4504 Rain 29 1007 79 10000 4.6 260 10:42 23.12.2020
4505 Clouds 30 1008 74 10000 4.6 250 10:24 23.12.2020
4506 Clouds 30 1008 74 10000 4.6 250 09:33 23.12.2020
4507 Clouds 29 1009 79 10000 4.1 250 08:45 23.12.2020
4508 Clouds 28 1009 83 10000 4.1 260 08:20 23.12.2020
4509 Clouds 28 1009 83 10000 4.1 260 07:27 23.12.2020
4510 Clouds 27 1010 88 10000 5.7 260 06:41 23.12.2020
4511 Clouds 27 1010 94 8000 1.5 200 05:39 23.12.2020
4512 Clouds 26 1010 94 7000 2.6 200 04:57 23.12.2020
4513 Clouds 27 1007 83 10000 6.7 150 00:34 23.12.2020
4514 Clouds 27 1007 88 10000 5.1 130 23:58 22.12.2020
4515 Clouds 27 1007 88 10000 5.1 130 23:33 22.12.2020
4516 Clouds 28 1008 88 10000 5.1 120 22:44 22.12.2020
4517 Clouds 28 1008 88 10000 5.1 120 22:25 22.12.2020
4518 Clouds 27 1009 88 10000 5.1 120 21:59 22.12.2020
4519 Clouds 27 1009 88 10000 5.1 120 21:38 22.12.2020
4520 Clouds 27 1010 88 10000 5.1 110 21:19 22.12.2020
4521 Clouds 27 1010 88 10000 5.1 110 20:48 22.12.2020
4522 Clouds 27 1011 88 10000 4.6 110 20:21 22.12.2020
4523 Clouds 27 1011 88 10000 4.6 110 20:21 22.12.2020
4524 Clouds 27 1011 88 10000 4.6 110 19:44 22.12.2020
4525 Clouds 27 1011 88 10000 3.6 110 19:22 22.12.2020
4526 Clouds 27 1011 88 10000 3.6 110 18:54 22.12.2020
4527 Clouds 27 1011 88 10000 3.6 110 18:30 22.12.2020
4528 Clouds 27 1011 88 10000 3.1 110 17:59 22.12.2020
4529 Clouds 27 1010 88 10000 4.1 140 17:26 22.12.2020
4530 Clouds 27 1010 88 10000 4.1 140 16:56 22.12.2020
4531 Clouds 27 1010 88 10000 4.1 140 16:37 22.12.2020
4532 Rain 26 1010 94 10000 5.7 170 16:19 22.12.2020
4533 Clouds 26 1010 94 10000 5.7 170 15:43 22.12.2020
4534 Clouds 28 1009 88 10000 2.6 160 15:23 22.12.2020
4535 Clouds 28 1009 88 10000 2.6 160 14:45 22.12.2020
4536 Clouds 27 1008 94 9000 4.1 160 14:27 22.12.2020
4537 Clouds 27 1008 94 9000 4.1 160 13:50 22.12.2020
4538 Rain 30 1008 74 10000 3.6 170 13:20 22.12.2020
4539 Rain 30 1008 74 10000 3.6 170 12:58 22.12.2020
4540 Rain 30 1008 74 10000 3.6 170 12:39 22.12.2020
4541 Rain 29 1007 79 10000 4.6 200 12:19 22.12.2020
4542 Clouds 29 1007 79 10000 4.6 200 11:42 22.12.2020
4543 Clouds 29 1007 79 10000 4.6 200 11:22 22.12.2020
4544 Clouds 29 1007 79 10000 4.6 200 10:55 22.12.2020
4545 Clouds 29 1009 79 10000 4.1 210 10:27 22.12.2020
4546 Rain 29 1009 79 10000 4.1 210 09:58 22.12.2020
4547 Rain 29 1009 79 10000 4.1 210 09:30 22.12.2020
4548 Rain 28 1010 83 10000 4.1 190 08:58 22.12.2020
4549 Rain 28 1010 83 10000 4.1 190 08:39 22.12.2020
4550 Rain 28 1011 83 10000 4.6 200 08:19 22.12.2020
4551 Rain 28 1011 83 10000 4.6 200 07:27 22.12.2020
4552 Clouds 27 1011 88 10000 3.1 200 06:34 22.12.2020
4553 Rain 27 1011 88 10000 4.1 180 05:33 22.12.2020
4554 Rain 25 1009 94 8000 6.2 200 02:31 22.12.2020
4555 Rain 25 1008 94 5000 5.7 180 00:26 22.12.2020
4556 Rain 25 1009 94 5000 7.2 170 23:50 21.12.2020
4557 Rain 27 1008 80 10000 7.43 115 23:22 21.12.2020
4558 Rain 24 1009 100 3000 7.7 170 22:37 21.12.2020
4559 Rain 24 1009 100 3000 7.7 170 22:19 21.12.2020
4560 Rain 24 1009 100 3000 7.7 170 22:19 21.12.2020
4561 Rain 24 1009 100 3000 7.7 170 21:47 21.12.2020
4562 Clouds 24 1009 100 3000 7.7 170 21:28 21.12.2020
4563 Clouds 26 1009 87 10000 4.75 74 20:45 21.12.2020
4564 Clouds 26 1010 94 7000 7.2 120 20:21 21.12.2020
4565 Clouds 26 1010 94 7000 7.2 120 19:54 21.12.2020
4566 Clouds 26 1010 94 7000 7.2 120 19:36 21.12.2020
4567 Clouds 26 1011 94 2000 9.3 100 19:18 21.12.2020
4568 Clouds 26 1011 94 2000 9.3 100 18:44 21.12.2020
4569 Clouds 27 1011 88 9000 5.7 80 18:25 21.12.2020
4570 Clouds 27 1011 88 9000 5.7 80 17:42 21.12.2020
4571 Clouds 27 1010 88 9000 75.1 80 17:23 21.12.2020
4572 Clouds 27 1010 88 9000 75.1 80 16:45 21.12.2020
4573 Clouds 26 1009 94 8000 3.1 50 16:21 21.12.2020
4574 Clouds 26 1009 94 8000 3.1 50 15:43 21.12.2020
4575 Clouds 26 1009 94 8000 8.2 70 14:58 21.12.2020
4576 Clouds 26 1009 94 8000 8.2 70 14:36 21.12.2020
4577 Clouds 27 1008 88 8000 5.7 60 14:18 21.12.2020
4578 Rain 27 1008 88 8000 5.7 60 13:41 21.12.2020
4579 Rain 26 1007 94 8000 5.1 90 13:22 21.12.2020
4580 Rain 26 1007 94 8000 5.1 90 12:42 21.12.2020
4581 Rain 26 1008 94 8000 7.2 80 12:22 21.12.2020
4582 Rain 26 1008 94 8000 7.2 80 11:43 21.12.2020
4583 Rain 26 1008 88 9000 6.7 70 11:22 21.12.2020
4584 Rain 26 1008 88 9000 6.7 70 10:58 21.12.2020
4585 Rain 26 1008 88 9000 6.7 70 10:39 21.12.2020
4586 Rain 25 1008 90 8230 8.02 58 09:58 21.12.2020
4587 Rain 25 1008 90 8230 8.02 58 09:40 21.12.2020
4588 Rain 25 1008 90 8230 8.02 58 09:40 21.12.2020
4589 Rain 26 1010 94 9000 9.3 70 09:22 21.12.2020
4590 Rain 26 1010 94 9000 9.3 70 08:29 21.12.2020
4591 Rain 26 1012 94 7000 6.7 40 07:27 21.12.2020
4592 Rain 28 1011 83 10000 6.7 80 05:40 21.12.2020
4593 Clouds 27 1011 83 10000 8.2 60 04:31 21.12.2020
4594 Clouds 27 1008 83 10000 9.3 80 00:37 21.12.2020
4595 Rain 27 1008 88 10000 9.3 80 23:51 20.12.2020
4596 Clouds 27 1009 88 10000 8.7 70 23:21 20.12.2020
4597 Clouds 27 1009 88 10000 8.7 70 22:45 20.12.2020
4598 Thunderstorm 27 1010 88 10000 8.7 70 22:25 20.12.2020
4599 Thunderstorm 27 1010 88 10000 8.7 70 21:58 20.12.2020
4600 Clouds 27 1010 88 10000 6.7 50 21:38 20.12.2020
4601 Clouds 27 1010 88 10000 6.7 50 21:18 20.12.2020
4602 Clouds 27 1010 88 10000 6.7 50 20:44 20.12.2020
4603 Clouds 26 1011 94 10000 5.1 90 20:21 20.12.2020
4604 Clouds 26 1011 94 10000 5.1 90 19:43 20.12.2020
4605 Clouds 28 1012 83 10000 6.7 70 19:22 20.12.2020
4606 Clouds 28 1012 83 10000 6.7 70 18:54 20.12.2020
4607 Clouds 28 1012 83 10000 6.7 70 18:36 20.12.2020
4608 Clouds 28 1012 88 10000 4.6 90 17:47 20.12.2020
4609 Clouds 28 1012 88 10000 4.6 90 17:28 20.12.2020
4610 Clouds 27 1011 88 10000 4.6 70 16:57 20.12.2020
4611 Clouds 27 1011 88 10000 4.6 70 16:38 20.12.2020
4612 Clouds 27 1010 88 10000 5.1 80 16:19 20.12.2020
4613 Clouds 27 1010 88 10000 5.1 80 15:37 20.12.2020
4614 Clouds 27 1010 88 8000 4.6 50 15:18 20.12.2020
4615 Clouds 27 1010 88 8000 4.6 50 14:38 20.12.2020
4616 Clouds 28 1009 78 10000 5.7 80 14:19 20.12.2020
4617 Clouds 28 1009 78 10000 5.7 80 13:41 20.12.2020
4618 Clouds 28 1008 83 9000 7.2 70 13:21 20.12.2020
4619 Clouds 28 1008 83 9000 7.2 70 12:49 20.12.2020
4620 Clouds 28 1009 83 10000 4.6 50 12:22 20.12.2020
4621 Clouds 28 1009 83 10000 4.6 50 11:49 20.12.2020
4622 Clouds 27 1009 88 10000 6.2 70 11:26 20.12.2020
4623 Clouds 27 1009 88 10000 6.2 70 10:49 20.12.2020
4624 Clouds 26 1010 100 10000 3.1 330 10:21 20.12.2020
4625 Clouds 26 1010 100 10000 3.1 330 09:55 20.12.2020
4626 Clouds 27 1009 79 4395 6.86 68 09:36 20.12.2020
4627 Clouds 28 1009 78 4561 6.36 74 09:18 20.12.2020
4628 Clouds 28 1009 78 4561 6.36 74 08:44 20.12.2020
4629 Clouds 29 1011 83 10000 6.2 60 08:25 20.12.2020
4630 Clouds 28 1012 83 8000 8.7 60 07:21 20.12.2020
4631 Clouds 27 1010 88 10000 6.2 100 02:47 20.12.2020
4632 Clouds 28 1009 79 10000 8.63 84 00:59 20.12.2020
4633 Clouds 28 1009 80 10000 8.93 85 23:41 19.12.2020
4634 Clouds 28 1009 81 10000 8.24 93 23:18 19.12.2020
4635 Clouds 28 1009 81 10000 8.24 93 23:18 19.12.2020
4636 Rain 28 1009 81 10000 8.24 93 22:44 19.12.2020
4637 Rain 27 1010 88 6000 7.7 80 22:24 19.12.2020
4638 Clouds 27 1010 88 6000 7.7 80 21:45 19.12.2020
4639 Clouds 27 1010 88 6000 7.7 80 21:26 19.12.2020
4640 Rain 27 1011 88 8000 7.7 70 20:59 19.12.2020
4641 Rain 27 1011 88 8000 7.7 70 20:37 19.12.2020
4642 Thunderstorm 27 1011 94 9000 9.8 90 20:18 19.12.2020
4643 Rain 27 1011 94 9000 9.8 90 19:46 19.12.2020
4644 Rain 27 1011 94 9000 9.8 90 19:24 19.12.2020
4645 Clouds 27 1012 83 9000 8.7 100 18:34 19.12.2020
4646 Clouds 27 1012 83 9000 8.7 100 17:57 19.12.2020
4647 Clouds 27 1012 83 9000 8.7 100 17:37 19.12.2020
4648 Clouds 28 1011 88 10000 7.2 70 17:19 19.12.2020
4649 Clouds 28 1011 88 10000 7.2 70 16:40 19.12.2020
4650 Clouds 29 1010 83 10000 6.7 80 16:22 19.12.2020
4651 Clouds 29 1010 83 10000 6.7 80 15:54 19.12.2020
4652 Clouds 29 1009 79 10000 6.7 80 15:26 19.12.2020
4653 Clouds 29 1009 79 10000 6.7 80 14:39 19.12.2020
4654 Clouds 29 1008 83 10000 5.1 100 13:59 19.12.2020
4655 Rain 29 1008 83 10000 5.1 100 13:40 19.12.2020
4656 Rain 31 1008 74 9000 6.7 100 13:18 19.12.2020
4657 Clouds 31 1008 74 9000 6.7 100 12:42 19.12.2020
4658 Clouds 31 1008 74 10000 6.7 90 12:24 19.12.2020
4659 Clouds 31 1008 74 10000 6.7 90 11:53 19.12.2020
4660 Clouds 31 1008 74 10000 6.7 90 11:33 19.12.2020
4661 Clouds 32 1008 70 10000 6.7 90 10:42 19.12.2020
4662 Clouds 31 1009 74 10000 6.7 100 10:21 19.12.2020
4663 Clouds 31 1009 74 10000 6.7 100 09:42 19.12.2020
4664 Clouds 30 1010 79 10000 7.2 90 08:59 19.12.2020
4665 Clouds 29 1011 83 10000 7.2 70 08:24 19.12.2020
4666 Clouds 29 1011 83 10000 7.2 70 07:23 19.12.2020
4667 Clouds 31 1011 74 10000 6.2 80 06:51 19.12.2020
4668 Clouds 30 1011 79 10000 5.7 80 06:18 19.12.2020
4669 Clouds 30 1011 79 10000 5.7 80 06:18 19.12.2020
4670 Clouds 30 1011 74 10000 6.7 70 05:18 19.12.2020
4671 Clouds 28 1008 78 10000 7.2 80 01:36 19.12.2020
4672 Clouds 28 1008 83 10000 6.2 80 00:36 19.12.2020
4673 Clouds 28 1008 83 10000 7.2 80 00:18 19.12.2020
4674 Clouds 28 1008 83 10000 7.2 80 23:44 18.12.2020
4675 Clouds 28 1009 83 10000 6.7 90 23:22 18.12.2020
4676 Clouds 28 1009 83 10000 6.7 90 22:45 18.12.2020
4677 Clouds 28 1009 83 10000 5.1 80 22:21 18.12.2020
4678 Clouds 28 1009 83 10000 5.1 80 21:47 18.12.2020
4679 Clouds 28 1010 83 10000 5.7 90 21:28 18.12.2020
4680 Clouds 28 1010 83 10000 5.7 90 20:40 18.12.2020
4681 Clouds 28 1011 83 10000 4.6 90 20:20 18.12.2020
4682 Clouds 28 1011 83 10000 4.6 90 19:42 18.12.2020
4683 Clouds 28 1011 83 10000 4.1 80 19:20 18.12.2020
4684 Clouds 28 1011 83 10000 4.1 80 18:41 18.12.2020
4685 Clouds 28 1011 78 10000 3.1 20 18:23 18.12.2020
4686 Clouds 28 1011 83 10000 3.1 60 17:24 18.12.2020
4687 Clouds 28 1011 83 10000 3.1 60 16:53 18.12.2020
4688 Clouds 29 1010 74 10000 3.1 60 16:28 18.12.2020
4689 Clouds 29 1010 74 10000 3.1 60 16:00 18.12.2020
4690 Clouds 29 1010 74 10000 3.1 60 15:41 18.12.2020
4691 Clouds 29 1009 74 10000 5.1 80 15:22 18.12.2020
4692 Clouds 29 1009 74 10000 5.1 80 14:55 18.12.2020
4693 Clouds 30 1009 70 10000 3.1 30 14:22 18.12.2020
4694 Clouds 30 1009 70 10000 3.1 30 13:50 18.12.2020
4695 Clouds 30 1009 70 10000 3.1 30 13:31 18.12.2020
4696 Clouds 30 1008 74 10000 3.6 70 12:50 18.12.2020
4697 Clouds 30 1008 74 10000 3.6 70 12:22 18.12.2020
4698 Clouds 30 1009 74 10000 2.1 70 11:23 18.12.2020
4699 Clouds 30 1009 74 10000 2.1 70 10:40 18.12.2020
4700 Clouds 30 1010 74 10000 2.6 70 10:20 18.12.2020
4701 Clouds 30 1010 74 10000 2.6 70 09:39 18.12.2020
4702 Clouds 32 1011 66 10000 3.1 70 09:21 18.12.2020
4703 Clouds 32 1011 66 10000 3.1 70 08:55 18.12.2020
4704 Clouds 32 1011 66 10000 3.1 70 08:30 18.12.2020
4705 Clouds 31 1011 70 10000 3.1 70 07:46 18.12.2020
4706 Clouds 30 1012 74 10000 3.6 70 07:18 18.12.2020
4707 Clouds 30 1012 74 10000 3.6 70 06:51 18.12.2020
4708 Clouds 30 1011 74 10000 4.1 70 05:42 18.12.2020
4709 Clouds 29 1011 79 10000 4.1 70 04:51 18.12.2020
4710 Clouds 28 1009 83 10000 3.1 90 02:24 18.12.2020
4711 Clouds 28 1009 83 10000 3.1 90 01:40 18.12.2020
4712 Clouds 27 1009 88 10000 3.1 50 00:27 18.12.2020
4713 Clouds 28 1009 83 10000 1 0 23:50 17.12.2020
4714 Clouds 28 1009 83 10000 2.1 70 23:19 17.12.2020
4715 Clouds 28 1009 83 10000 2.1 70 22:47 17.12.2020
4716 Clouds 28 1009 83 10000 2.1 70 22:26 17.12.2020
4717 Clouds 28 1010 83 10000 2.1 100 21:43 17.12.2020
4718 Clouds 28 1010 83 10000 2.6 90 21:19 17.12.2020
4719 Clouds 28 1010 83 10000 2.6 90 20:43 17.12.2020
4720 Clouds 28 1011 83 10000 3.1 70 20:19 17.12.2020
4721 Clouds 28 1011 83 10000 3.1 70 19:49 17.12.2020
4722 Clouds 28 1012 83 10000 2.1 60 19:25 17.12.2020
4723 Clouds 28 1012 83 10000 2.1 60 18:47 17.12.2020
4724 Clouds 28 1012 83 10000 3.6 70 18:27 17.12.2020
4725 Clouds 28 1012 83 10000 3.6 70 17:58 17.12.2020
4726 Clouds 28 1012 83 10000 3.6 70 17:36 17.12.2020
4727 Clouds 28 1011 83 10000 4.6 60 17:18 17.12.2020
4728 Clouds 28 1011 83 10000 4.6 60 16:37 17.12.2020
4729 Clouds 28 1010 83 10000 1.5 340 16:18 17.12.2020
4730 Clouds 28 1010 83 10000 1.5 340 15:41 17.12.2020
4731 Clouds 28 1010 83 10000 2.6 280 15:20 17.12.2020
4732 Clouds 28 1010 83 10000 2.6 280 14:47 17.12.2020
4733 Clouds 29 1009 79 10000 2.6 250 14:19 17.12.2020
4734 Clouds 29 1009 79 10000 2.6 250 13:42 17.12.2020
4735 Rain 30 1009 70 10000 2.6 310 12:58 17.12.2020
4736 Clouds 30 1009 70 10000 2.6 310 12:38 17.12.2020
4737 Clouds 30 1009 74 10000 2.6 310 12:20 17.12.2020
4738 Clouds 30 1009 74 10000 2.6 310 11:40 17.12.2020
4739 Clouds 31 1010 70 10000 3.1 280 11:20 17.12.2020
4740 Clouds 31 1010 70 10000 3.1 280 10:40 17.12.2020
4741 Clouds 32 1011 66 10000 2.6 290 09:36 17.12.2020
4742 Clouds 31 1011 70 10000 2.6 290 08:40 17.12.2020
4743 Clouds 31 1012 70 10000 2.1 300 07:42 17.12.2020
4744 Clouds 31 1013 70 10000 2.1 300 07:20 17.12.2020
4745 Clouds 31 1013 70 10000 2.1 300 06:47 17.12.2020
4746 Clouds 31 1013 70 10000 2.1 300 06:27 17.12.2020
4747 Clouds 27 1011 83 10000 1 0 03:29 17.12.2020
4748 Clouds 27 1010 83 10000 0.5 0 00:20 17.12.2020
4749 Clouds 27 1010 83 10000 0.5 0 23:38 16.12.2020
4750 Clouds 27 1010 83 10000 4.01 35 23:18 16.12.2020
4751 Clouds 27 1010 83 10000 4.01 35 22:47 16.12.2020
4752 Clouds 27 1010 83 10000 4.25 41 22:28 16.12.2020
4753 Clouds 28 1011 78 10000 1.5 120 21:42 16.12.2020
4754 Clouds 28 1012 78 10000 1.5 100 21:22 16.12.2020
4755 Clouds 28 1012 78 10000 1.5 100 20:49 16.12.2020
4756 Clouds 28 1012 78 10000 2.1 100 20:20 16.12.2020
4757 Clouds 28 1012 78 10000 2.1 100 19:38 16.12.2020
4758 Clouds 28 1012 74 10000 2.6 100 19:18 16.12.2020
4759 Clouds 28 1012 74 10000 2.6 100 18:44 16.12.2020
4760 Clouds 28 1012 74 10000 2.1 100 18:22 16.12.2020
4761 Clouds 28 1012 74 10000 2.1 100 17:36 16.12.2020
4762 Clouds 28 1011 74 10000 2.1 100 16:46 16.12.2020
4763 Clouds 28 1010 74 10000 2.6 90 16:28 16.12.2020
4764 Clouds 28 1010 74 10000 2.6 90 15:58 16.12.2020
4765 Clouds 28 1010 74 10000 2.6 90 15:39 16.12.2020
4766 Clouds 29 1009 74 10000 2.6 90 15:18 16.12.2020
4767 Clouds 29 1009 74 10000 2.6 90 14:44 16.12.2020
4768 Clouds 30 1009 70 10000 2.6 100 14:25 16.12.2020
4769 Clouds 30 1009 70 10000 2.6 100 13:41 16.12.2020
4770 Clouds 31 1008 66 10000 3.1 100 13:20 16.12.2020
4771 Clouds 31 1008 66 10000 3.1 100 12:43 16.12.2020
4772 Clouds 31 1008 66 10000 2.6 100 11:51 16.12.2020
4773 Clouds 31 1008 66 10000 2.6 100 11:31 16.12.2020
4774 Clouds 31 1009 66 10000 3.6 90 10:56 16.12.2020
4775 Clouds 31 1009 66 10000 3.6 90 10:36 16.12.2020
4776 Clouds 31 1010 66 10000 4.6 90 09:56 16.12.2020
4777 Clouds 31 1010 66 10000 4.6 90 09:32 16.12.2020
4778 Clouds 31 1011 70 10000 5.1 90 08:23 16.12.2020
4779 Clouds 31 1011 70 10000 5.1 90 07:45 16.12.2020
4780 Clouds 31 1012 70 10000 5.1 90 07:20 16.12.2020
4781 Clouds 28 1011 83 10000 3.6 90 03:37 16.12.2020
4782 Clouds 27 1010 83 10000 3.6 80 01:59 16.12.2020
4783 Clouds 27 1010 83 10000 2.1 110 23:50 15.12.2020
4784 Clouds 27 1010 83 10000 2.1 110 23:32 15.12.2020
4785 Clouds 27 1010 83 10000 3.6 100 22:42 15.12.2020
4786 Clouds 27 1011 83 10000 5.1 100 22:22 15.12.2020
4787 Clouds 27 1011 83 10000 5.1 100 21:48 15.12.2020
4788 Clouds 27 1012 88 10000 6.2 100 21:24 15.12.2020
4789 Clouds 27 1012 88 10000 6.2 100 20:46 15.12.2020
4790 Clouds 27 1012 88 10000 3.1 110 20:27 15.12.2020
4791 Clouds 27 1012 88 10000 3.1 110 19:55 15.12.2020
4792 Rain 27 1012 88 10000 3.1 110 19:34 15.12.2020
4793 Rain 27 1013 88 10000 3.1 130 18:44 15.12.2020
4794 Clouds 27 1013 83 10000 3.1 110 18:24 15.12.2020
4795 Rain 27 1013 83 10000 3.1 110 17:59 15.12.2020
4796 Rain 27 1013 83 10000 3.1 110 17:41 15.12.2020
4797 Rain 28 1012 83 10000 1.5 130 17:20 15.12.2020
4798 Rain 28 1012 83 10000 1.5 130 17:20 15.12.2020
4799 Clouds 28 1012 83 10000 1.5 130 16:33 15.12.2020
4800 Clouds 28 1011 78 10000 2.1 150 15:55 15.12.2020
4801 Clouds 28 1011 78 10000 2.1 150 15:32 15.12.2020
4802 Clouds 29 1010 79 10000 2.6 170 14:49 15.12.2020
4803 Clouds 30 1009 70 10000 2.1 130 14:23 15.12.2020
4804 Clouds 30 1009 70 10000 2.1 130 13:52 15.12.2020
4805 Clouds 30 1009 70 10000 2.1 130 13:33 15.12.2020
4806 Clouds 30 1009 74 10000 2.6 120 12:47 15.12.2020
4807 Clouds 31 1008 66 10000 3.1 100 12:22 15.12.2020
4808 Clouds 31 1008 66 10000 3.1 100 11:57 15.12.2020
4809 Clouds 31 1008 66 10000 3.1 100 11:39 15.12.2020
4810 Clouds 31 1009 70 10000 3.1 110 11:20 15.12.2020
4811 Clouds 31 1009 70 10000 3.1 110 10:39 15.12.2020
4812 Clouds 31 1009 70 10000 3.1 100 09:53 15.12.2020
4813 Clouds 31 1009 70 10000 3.1 100 09:32 15.12.2020
4814 Clouds 31 1010 70 10000 3.1 110 08:58 15.12.2020
4815 Clouds 31 1010 70 10000 3.1 110 08:30 15.12.2020
4816 Clouds 31 1011 74 10000 3.6 90 07:54 15.12.2020
4817 Clouds 31 1011 74 10000 3.6 90 07:33 15.12.2020
4818 Clouds 31 1011 70 10000 3.1 100 06:37 15.12.2020
4819 Clouds 27 1010 83 10000 2.1 50 04:20 15.12.2020
4820 Clouds 27 1009 88 10000 3.1 80 00:36 15.12.2020
4821 Clouds 27 1009 88 10000 1 0 23:28 14.12.2020
4822 Clouds 27 1009 88 10000 1 0 22:59 14.12.2020
4823 Clouds 27 1009 88 10000 1 0 22:37 14.12.2020
4824 Clouds 28 1010 83 10000 3.21 45 21:54 14.12.2020
4825 Clouds 28 1010 83 10000 3.21 45 21:35 14.12.2020
4826 Clouds 28 1011 83 10000 1.5 50 20:52 14.12.2020
4827 Clouds 28 1011 83 10000 1.5 50 20:30 14.12.2020
4828 Clouds 28 1011 83 10000 2.6 22 19:55 14.12.2020
4829 Clouds 28 1011 83 10000 2.6 22 19:30 14.12.2020
4830 Clouds 28 1011 78 10000 1 0 18:53 14.12.2020
4831 Clouds 28 1011 78 10000 1 0 18:32 14.12.2020
4832 Clouds 28 1011 78 10000 2.1 300 17:53 14.12.2020
4833 Clouds 29 1011 79 10000 2.6 280 17:31 14.12.2020
4834 Clouds 29 1011 79 10000 2.6 280 16:53 14.12.2020
4835 Clouds 29 1010 79 10000 4.1 280 16:29 14.12.2020
4836 Clouds 29 1010 79 10000 4.1 280 15:50 14.12.2020
4837 Clouds 29 1009 74 10000 3.1 320 15:25 14.12.2020
4838 Clouds 29 1009 74 10000 3.1 320 14:45 14.12.2020
4839 Clouds 30 1008 70 10000 3.1 300 14:26 14.12.2020
4840 Clouds 30 1008 70 10000 3.1 300 13:47 14.12.2020
4841 Clouds 31 1008 66 10000 3.6 310 13:24 14.12.2020
4842 Clouds 31 1008 66 10000 3.6 310 12:53 14.12.2020
4843 Clouds 31 1008 66 10000 3.6 300 12:29 14.12.2020
4844 Clouds 31 1008 66 10000 3.6 300 11:36 14.12.2020
4845 Clouds 32 1008 66 10000 5.7 290 10:48 14.12.2020
4846 Clouds 32 1008 66 10000 5.7 290 10:27 14.12.2020
4847 Clouds 31 1009 70 10000 5.1 290 09:44 14.12.2020
4848 Clouds 32 1010 66 10000 4.1 300 08:49 14.12.2020
4849 Clouds 32 1010 66 10000 4.1 300 08:30 14.12.2020
4850 Clouds 31 1011 70 10000 3.6 320 07:49 14.12.2020
4851 Clouds 31 1011 66 10000 3.6 310 06:48 14.12.2020
4852 Clouds 30 1011 70 10000 4.1 310 05:37 14.12.2020
4853 Clouds 29 1009 74 10000 3.6 320 02:39 14.12.2020
4854 Clouds 28 1008 78 10000 4.6 300 00:56 14.12.2020
4855 Clouds 28 1008 78 10000 4.6 300 00:34 14.12.2020
4856 Clouds 28 1008 78 10000 3.6 290 23:58 13.12.2020
4857 Clouds 28 1008 78 10000 3.6 290 23:40 13.12.2020
4858 Clouds 29 1008 74 10000 5.1 300 22:51 13.12.2020
4859 Clouds 29 1009 74 10000 3.6 310 22:21 13.12.2020
4860 Clouds 29 1009 74 10000 3.6 310 21:50 13.12.2020
4861 Clouds 29 1009 74 10000 3.6 310 21:29 13.12.2020
4862 Clouds 29 1010 74 10000 5.1 300 20:42 13.12.2020
4863 Clouds 29 1010 74 10000 5.1 300 20:23 13.12.2020
4864 Clouds 29 1010 74 10000 5.1 300 19:43 13.12.2020
4865 Clouds 29 1011 74 10000 4.6 310 19:22 13.12.2020
4866 Clouds 29 1011 74 10000 4.6 310 19:22 13.12.2020
4867 Clouds 29 1011 74 10000 4.6 310 18:44 13.12.2020
4868 Clouds 29 1010 74 10000 4.6 310 18:21 13.12.2020
4869 Clouds 29 1010 74 10000 4.6 310 17:59 13.12.2020
4870 Clouds 29 1010 74 10000 4.6 310 17:41 13.12.2020
4871 Clouds 29 1010 74 10000 4.1 320 17:18 13.12.2020
4872 Clouds 29 1010 74 10000 4.1 320 16:39 13.12.2020
4873 Clouds 29 1008 74 10000 3.1 290 16:19 13.12.2020
4874 Clouds 29 1008 74 10000 3.1 290 15:45 13.12.2020
4875 Clouds 29 1009 74 10000 3.6 290 15:24 13.12.2020
4876 Clouds 29 1009 74 10000 3.6 290 14:45 13.12.2020
4877 Clouds 29 1009 74 10000 3.6 290 14:27 13.12.2020
4878 Clouds 30 1008 74 10000 3.6 280 13:45 13.12.2020
4879 Clouds 30 1008 74 10000 3.6 280 13:27 13.12.2020
4880 Clouds 29 1008 74 10000 5.1 300 12:55 13.12.2020
4881 Clouds 29 1008 74 10000 5.7 290 12:24 13.12.2020
4882 Clouds 29 1008 74 10000 5.7 290 11:51 13.12.2020
4883 Clouds 29 1008 74 10000 5.7 290 11:28 13.12.2020
4884 Clouds 30 1009 70 10000 5.1 280 10:42 13.12.2020
4885 Clouds 31 1010 66 10000 5.1 280 10:18 13.12.2020
4886 Rain 31 1010 66 10000 5.1 280 09:31 13.12.2020
4887 Rain 30 1011 70 10000 4.6 290 08:47 13.12.2020
4888 Rain 30 1012 70 10000 6.2 290 08:23 13.12.2020
4889 Clouds 30 1012 70 10000 5.7 270 05:50 13.12.2020
4890 Clouds 27 1011 78 9000 3.6 280 02:43 13.12.2020
4891 Clouds 26 1010 88 9000 8.2 250 01:59 13.12.2020
4892 Clouds 28 1011 75 10000 4.84 336 01:33 13.12.2020
4893 Clouds 28 1010 74 10000 4.09 324 00:33 13.12.2020
4894 Clouds 28 1010 75 10000 4.35 321 23:33 12.12.2020
4895 Clouds 28 1010 75 10000 4.07 324 22:58 12.12.2020
4896 Clouds 28 1010 74 10000 3.83 328 22:28 12.12.2020
4897 Clouds 28 1010 74 10000 3.83 328 21:46 12.12.2020
4898 Clouds 28 1011 83 10000 1.5 320 21:19 12.12.2020
4899 Clouds 28 1011 83 10000 1.5 320 20:44 12.12.2020
4900 Clouds 28 1012 83 10000 2.1 320 20:21 12.12.2020
4901 Clouds 28 1012 83 10000 2.1 320 19:51 12.12.2020
4902 Clouds 28 1012 83 10000 2.1 320 19:33 12.12.2020
4903 Clouds 28 1012 83 10000 1.5 360 18:55 12.12.2020
4904 Clouds 28 1012 83 10000 1.5 360 18:36 12.12.2020
4905 Clouds 28 1012 83 10000 2.1 330 18:18 12.12.2020
4906 Clouds 28 1012 83 10000 2.1 330 17:40 12.12.2020
4907 Clouds 28 1011 78 10000 1.5 360 16:42 12.12.2020
4908 Clouds 28 1010 78 10000 2.1 310 15:57 12.12.2020
4909 Clouds 28 1010 78 10000 2.1 310 15:39 12.12.2020
4910 Rain 28 1010 78 10000 2.1 310 14:54 12.12.2020
4911 Clouds 28 1009 78 10000 2.6 310 14:21 12.12.2020
4912 Clouds 28 1009 78 10000 2.6 310 13:41 12.12.2020
4913 Clouds 22 1009 100 10000 3.1 360 13:22 12.12.2020
4914 Clouds 22 1009 100 10000 3.1 360 12:33 12.12.2020
4915 Rain 29 1010 74 10000 2.1 360 11:19 12.12.2020
4916 Rain 29 1010 74 10000 2.1 360 10:45 12.12.2020
4917 Clouds 29 1011 83 10000 1.5 330 09:23 12.12.2020
4918 Clouds 28 1012 78 10000 2.6 280 07:26 12.12.2020
4919 Clouds 25 1010 94 9000 2.6 260 01:39 12.12.2020
4920 Clouds 28 1010 71 10000 2.55 270 23:21 11.12.2020
4921 Clouds 28 1011 83 10000 2.6 60 20:57 11.12.2020
4922 Rain 29 1012 79 10000 2.1 330 19:42 11.12.2020
4923 Rain 28 1012 83 10000 2.1 330 16:49 11.12.2020
4924 Clouds 28 1010 83 10000 2.6 300 14:37 11.12.2020
4925 Clouds 29 1009 74 10000 3.1 360 13:42 11.12.2020
4926 Clouds 30 1009 74 10000 5.1 270 12:22 11.12.2020
4927 Clouds 30 1009 74 10000 5.1 270 11:52 11.12.2020
4928 Clouds 30 1009 74 10000 5.1 270 11:30 11.12.2020
4929 Clouds 31 1009 74 10000 2.1 290 10:40 11.12.2020
4930 Clouds 31 1012 70 10000 2.1 310 07:31 11.12.2020
4931 Clouds 30 1012 74 10000 2.6 340 05:36 11.12.2020
4932 Clouds 28 1010 83 10000 1.29 219 02:58 11.12.2020
4933 Clouds 28 1009 83 10000 1 0 00:48 11.12.2020
4934 Clouds 28 1010 83 10000 0.5 0 23:27 10.12.2020
4935 Clouds 28 1011 83 10000 1.5 60 21:37 10.12.2020
4936 Clouds 28 1012 83 10000 3.1 40 20:51 10.12.2020
4937 Clouds 28 1012 83 10000 1 0 20:26 10.12.2020
4938 Clouds 28 1012 83 10000 1 0 19:29 10.12.2020
4939 Clouds 29 1013 79 10000 1.5 270 18:48 10.12.2020
4940 Clouds 28 1013 71 10000 3.13 102 17:29 10.12.2020
4941 Clouds 29 1011 79 10000 3.1 250 15:58 10.12.2020
4942 Clouds 30 1011 74 10000 3.6 250 15:21 10.12.2020
4943 Clouds 30 1011 74 10000 3.6 250 14:43 10.12.2020
4944 Clouds 30 1009 74 10000 3.6 250 13:42 10.12.2020
4945 Clouds 32 1009 66 10000 4.1 250 12:21 10.12.2020
4946 Clouds 31 1010 70 10000 3.1 270 10:54 10.12.2020
4947 Clouds 31 1011 70 10000 1.5 160 08:27 10.12.2020
4948 Clouds 32 1012 70 10000 3.1 140 07:28 10.12.2020
4949 Clouds 31 1012 74 10000 2.6 160 05:51 10.12.2020
4950 Clouds 28 1010 78 10000 2.6 190 02:40 10.12.2020
4951 Clouds 28 1010 78 10000 2.6 190 01:32 10.12.2020
4952 Clouds 28 1009 83 10000 3.6 170 23:44 09.12.2020
4953 Clouds 29 1010 79 10000 4.6 160 20:39 09.12.2020
4954 Clouds 29 1011 79 10000 3.6 160 19:46 09.12.2020
4955 Clouds 29 1011 79 10000 4.1 160 18:39 09.12.2020
4956 Clouds 29 1011 83 10000 4.6 160 17:29 09.12.2020
4957 Clouds 29 1010 79 10000 4.1 160 16:40 09.12.2020
4958 Clouds 29 1010 79 10000 3.1 160 16:20 09.12.2020
4959 Clouds 30 1009 74 10000 4.1 150 14:51 09.12.2020
4960 Clouds 30 1009 74 10000 4.1 150 14:26 09.12.2020
4961 Clouds 31 1008 66 10000 4.1 140 13:37 09.12.2020
4962 Clouds 31 1008 70 10000 4.1 150 13:18 09.12.2020
4963 Clouds 31 1008 70 10000 4.1 150 12:31 09.12.2020
4964 Clouds 31 1008 70 10000 3.6 130 11:37 09.12.2020
4965 Clouds 32 1010 66 10000 4.1 140 09:51 09.12.2020
4966 Clouds 32 1010 66 10000 4.1 140 08:36 09.12.2020
4967 Clouds 31 1012 74 10000 3.1 150 06:43 09.12.2020
4968 Clouds 31 1012 70 10000 2.6 140 05:28 09.12.2020
4969 Clouds 28 1010 83 10000 3.1 160 02:41 09.12.2020
4970 Clouds 28 1009 83 10000 3.1 180 00:37 09.12.2020
4971 Clouds 29 1010 79 10000 3.1 190 23:34 08.12.2020
4972 Clouds 29 1011 79 10000 3.1 180 22:22 08.12.2020
4973 Clouds 29 1012 79 10000 3.1 150 20:39 08.12.2020
4974 Clouds 29 1012 79 10000 3.6 160 19:30 08.12.2020
4975 Clouds 29 1013 79 10000 3.6 160 18:35 08.12.2020
4976 Clouds 29 1012 79 10000 3.1 150 16:39 08.12.2020
4977 Clouds 30 1010 74 10000 2.6 190 15:18 08.12.2020
4978 Clouds 31 1009 70 10000 3.6 190 13:49 08.12.2020
4979 Clouds 32 1008 70 10000 3.6 200 12:41 08.12.2020
4980 Clouds 33 1008 66 10000 4.1 200 11:53 08.12.2020
4981 Clouds 33 1009 66 10000 3.1 200 10:54 08.12.2020
4982 Clouds 33 1009 66 10000 3.1 200 10:34 08.12.2020
4983 Clouds 33 1010 63 10000 3.1 200 09:38 08.12.2020
4984 Clouds 32 1011 66 10000 3.6 200 07:35 08.12.2020
4985 Clouds 31 1011 70 10000 3.6 220 05:26 08.12.2020
4986 Clouds 28 1010 83 10000 3.6 210 02:24 08.12.2020
4987 Clouds 28 1009 83 10000 4.6 210 00:44 08.12.2020
4988 Clouds 28 1010 88 10000 2.1 230 23:18 07.12.2020
4989 Clouds 28 1011 83 10000 2.1 250 22:20 07.12.2020
4990 Clouds 29 1012 83 10000 3.6 290 21:26 07.12.2020
4991 Clouds 29 1012 83 10000 3.1 240 19:23 07.12.2020
4992 Clouds 29 1012 83 10000 3.6 250 17:55 07.12.2020
4993 Clouds 29 1011 83 10000 3.6 250 17:19 07.12.2020
4994 Clouds 29 1010 83 10000 5.1 250 16:28 07.12.2020
4995 Clouds 30 1009 79 10000 5.1 260 15:24 07.12.2020
4996 Clouds 31 1009 74 10000 5.1 260 14:28 07.12.2020
4997 Clouds 31 1009 74 10000 5.1 260 13:36 07.12.2020
4998 Clouds 31 1008 74 10000 5.1 270 12:28 07.12.2020
4999 Clouds 31 1008 74 10000 6.7 270 11:42 07.12.2020
5000 Clouds 31 1008 74 10000 5.7 270 10:32 07.12.2020
5001 Clouds 32 1010 70 10000 5.1 250 08:56 07.12.2020
5002 Clouds 32 1010 66 10000 5.7 270 07:30 07.12.2020
5003 Clouds 30 1010 79 9000 5.1 270 05:26 07.12.2020
5004 Clouds 29 1009 83 9000 5.7 260 03:45 07.12.2020
5005 Clouds 29 1008 79 9000 6.2 260 00:39 07.12.2020
5006 Clouds 29 1009 79 9000 7.2 260 22:48 06.12.2020
5007 Clouds 29 1009 79 9000 7.7 260 21:44 06.12.2020
5008 Clouds 29 1010 79 10000 6.2 260 20:41 06.12.2020
5009 Clouds 29 1010 79 10000 6.7 250 20:19 06.12.2020
5010 Clouds 29 1011 79 10000 6.7 250 19:20 06.12.2020
5011 Clouds 29 1011 79 10000 6.2 250 17:28 06.12.2020
5012 Clouds 29 1010 79 8000 7.7 250 16:33 06.12.2020
5013 Clouds 30 1008 74 8000 7.2 250 14:46 06.12.2020
5014 Clouds 31 1007 74 8000 5.7 250 12:59 06.12.2020
5015 Clouds 31 1007 74 8000 5.7 250 12:30 06.12.2020
5016 Clouds 31 1007 74 8000 6.2 240 11:41 06.12.2020
5017 Clouds 31 1007 74 8000 6.2 240 11:41 06.12.2020
5018 Clouds 31 1008 74 8000 6.7 240 11:22 06.12.2020
5019 Clouds 31 1008 74 8000 6.7 240 10:34 06.12.2020
5020 Clouds 31 1009 74 8000 6.7 250 08:59 06.12.2020
5021 Clouds 32 1010 70 8000 6.7 250 07:26 06.12.2020
5022 Clouds 30 1010 79 8000 6.2 240 04:41 06.12.2020
5023 Clouds 29 1007 79 8000 6.2 250 00:45 06.12.2020
5024 Rain 29 1007 79 8000 6.2 250 00:26 06.12.2020
5025 Clouds 29 1007 79 8000 6.2 250 23:55 05.12.2020
5026 Clouds 29 1008 79 8000 5.7 240 22:24 05.12.2020
5027 Clouds 29 1008 83 8000 5.1 260 21:54 05.12.2020
5028 Clouds 29 1008 83 8000 5.1 260 21:28 05.12.2020
5029 Clouds 29 1009 79 8000 5.1 300 19:54 05.12.2020
5030 Clouds 29 1009 79 8000 5.1 300 18:46 05.12.2020
5031 Clouds 29 1009 79 8000 5.1 300 17:39 05.12.2020
5032 Clouds 29 1009 79 8000 5.1 300 16:45 05.12.2020
5033 Clouds 29 1009 79 8000 5.1 300 16:24 05.12.2020
5034 Clouds 28 1009 77 10000 6.1 285 14:30 05.12.2020
5035 Clouds 30 1006 74 8000 5.1 300 12:35 05.12.2020
5036 Rain 31 1006 66 9000 7.2 300 11:50 05.12.2020
5037 Clouds 31 1007 66 9000 5.7 300 10:34 05.12.2020
5038 Rain 30 1009 74 9000 6.7 310 08:27 05.12.2020
5039 Clouds 28 1009 78 10000 6.97 281 07:47 05.12.2020
5040 Clouds 30 1010 74 9000 6.2 290 05:30 05.12.2020
5041 Clouds 29 1007 74 10000 7.7 290 23:57 04.12.2020
5042 Clouds 29 1007 94 10000 6.7 290 22:47 04.12.2020
5043 Clouds 29 1010 83 10000 8.2 280 20:35 04.12.2020
5044 Clouds 29 1010 83 10000 8.7 270 18:54 04.12.2020
5045 Clouds 29 1010 83 10000 7.7 270 18:28 04.12.2020
5046 Clouds 29 1010 83 10000 7.7 270 17:41 04.12.2020
5047 Clouds 29 1009 79 10000 6.7 270 15:54 04.12.2020
5048 Clouds 30 1008 74 10000 7.2 270 15:20 04.12.2020
5049 Clouds 30 1007 74 10000 8.2 270 13:36 04.12.2020
5050 Clouds 31 1007 70 10000 7.2 280 13:18 04.12.2020
5051 Clouds 31 1007 70 10000 8.2 280 12:19 04.12.2020
5052 Clouds 31 1007 70 10000 7.7 290 10:35 04.12.2020
5053 Clouds 31 1009 70 10000 7.7 290 08:29 04.12.2020
5054 Clouds 31 1009 70 10000 6.2 290 06:40 04.12.2020
5055 Clouds 29 1009 79 10000 6.2 290 04:52 04.12.2020
5056 Rain 29 1007 79 10000 6.7 310 01:20 04.12.2020
5057 Clouds 29 1008 83 10000 5.7 300 22:47 03.12.2020
5058 Clouds 29 1010 83 10000 6.7 270 21:22 03.12.2020
5059 Clouds 29 1010 83 10000 6.7 270 20:41 03.12.2020
5060 Clouds 29 1011 83 10000 7.2 280 19:22 03.12.2020
5061 Clouds 29 1011 83 10000 7.2 280 18:41 03.12.2020
5062 Clouds 29 1010 83 10000 6.2 280 17:21 03.12.2020
5063 Clouds 29 1009 83 10000 7.2 300 15:59 03.12.2020
5064 Clouds 29 1009 83 10000 7.2 300 15:32 03.12.2020
5065 Clouds 29 1008 83 10000 7.7 280 14:49 03.12.2020
5066 Clouds 30 1007 74 10000 6.7 280 13:55 03.12.2020
5067 Clouds 31 1007 74 10000 6.2 280 12:46 03.12.2020
5068 Clouds 31 1007 74 10000 9.3 280 12:23 03.12.2020
5069 Clouds 31 1008 74 10000 8.2 280 10:54 03.12.2020
5070 Clouds 31 1009 74 10000 8.2 290 08:41 03.12.2020
5071 Clouds 29 1010 83 10000 7.2 270 03:57 03.12.2020
5072 Clouds 29 1008 79 10000 7.2 280 01:54 03.12.2020
5073 Clouds 29 1008 79 10000 6.7 270 00:28 03.12.2020
5074 Clouds 29 1009 83 10000 6.7 260 22:46 02.12.2020
5075 Clouds 28 1010 88 10000 5.7 260 21:50 02.12.2020
5076 Clouds 28 1010 88 10000 6.2 270 20:51 02.12.2020
5077 Clouds 28 1010 88 10000 6.2 270 20:33 02.12.2020
5078 Clouds 28 1011 88 10000 4.6 250 19:50 02.12.2020
5079 Clouds 28 1011 83 10000 3.1 280 17:51 02.12.2020
5080 Clouds 28 1011 83 10000 3.1 320 17:31 02.12.2020
5081 Clouds 28 1011 83 10000 3.1 320 16:42 02.12.2020
5082 Clouds 29 1009 79 10000 3.1 320 14:33 02.12.2020
5083 Rain 29 1008 79 10000 5.7 300 11:33 02.12.2020
5084 Rain 28 1009 83 10000 5.7 300 10:26 02.12.2020
5085 Clouds 30 1011 74 10000 4.1 270 07:51 02.12.2020
5086 Thunderstorm 27 1010 88 10000 7.2 280 00:50 02.12.2020
5087 Clouds 28 1010 72 10000 2.59 300 22:21 01.12.2020
5088 Clouds 28 1011 74 9631 3.79 327 19:57 01.12.2020
5089 Clouds 29 1012 79 10000 2.1 10 19:33 01.12.2020
5090 Clouds 29 1011 79 10000 3.1 30 17:27 01.12.2020
5091 Clouds 29 1010 79 10000 2.6 30 15:24 01.12.2020
5092 Clouds 29 1008 83 10000 3.6 30 13:37 01.12.2020
5093 Rain 30 1009 79 10000 2.1 360 11:44 01.12.2020
5094 Rain 30 1009 79 10000 2.1 360 11:26 01.12.2020
5095 Clouds 30 1009 79 10000 2.6 360 10:32 01.12.2020
5096 Clear 28 1010 73 10000 3.5 6 08:18 01.12.2020
5097 Clouds 28 1012 73 10000 2.72 11 06:46 01.12.2020
5098 Clouds 28 1011 74 10000 2.63 77 01:44 01.12.2020
5099 Clouds 27 1010 94 9000 1.5 130 00:52 01.12.2020
5100 Clouds 27 1011 88 9000 0.5 0 23:21 30.11.2020
5101 Clouds 27 1011 88 9000 0.5 0 22:42 30.11.2020
5102 Clouds 27 1011 88 9000 0.5 0 22:23 30.11.2020
5103 Clouds 28 1012 88 10000 4.6 90 20:47 30.11.2020
5104 Thunderstorm 28 1012 88 10000 4.6 90 19:42 30.11.2020
5105 Thunderstorm 28 1012 88 10000 4.6 90 19:42 30.11.2020
5106 Thunderstorm 28 1012 78 10000 5.1 60 18:23 30.11.2020
5107 Thunderstorm 28 1012 78 10000 5.1 60 17:47 30.11.2020
5108 Clouds 28 1013 78 10000 4.59 33 16:54 30.11.2020
5109 Clouds 28 1011 83 9000 5.7 50 15:46 30.11.2020
5110 Clouds 30 1009 74 10000 2.1 90 14:24 30.11.2020
5111 Clouds 30 1008 74 10000 0.5 0 13:42 30.11.2020
5112 Clouds 31 1008 70 10000 2.1 80 12:26 30.11.2020
5113 Clouds 31 1008 70 10000 2.1 100 11:57 30.11.2020
5114 Clouds 31 1009 70 10000 2.6 100 10:26 30.11.2020
5115 Clouds 32 1009 70 10000 3.1 90 09:43 30.11.2020
5116 Clouds 31 1012 70 10000 3.1 100 06:48 30.11.2020
5117 Clouds 28 1009 78 10000 3.1 90 23:39 29.11.2020
5118 Clouds 28 1010 78 10000 3.6 100 21:47 29.11.2020
5119 Clouds 28 1010 78 10000 3.6 100 21:28 29.11.2020
5120 Clouds 28 1012 78 10000 3.1 80 19:46 29.11.2020
5121 Clouds 28 1012 83 10000 4.1 70 17:46 29.11.2020
5122 Clouds 28 1012 83 10000 4.1 70 17:46 29.11.2020
5123 Clouds 29 1009 74 10000 3.6 70 14:54 29.11.2020
5124 Clouds 30 1008 70 10000 3.6 90 12:58 29.11.2020
5125 Clouds 31 1008 70 10000 3.6 80 11:41 29.11.2020
5126 Clouds 31 1009 70 10000 3.1 80 09:26 29.11.2020
5127 Clouds 32 1010 66 10000 2.6 100 08:37 29.11.2020
5128 Clouds 28 1010 74 10000 2.1 90 04:21 29.11.2020
5129 Clouds 28 1010 78 10000 2.6 130 23:19 28.11.2020
5130 Clouds 28 1010 78 10000 2.6 130 22:55 28.11.2020
5131 Clouds 28 1011 78 9000 2.1 120 20:27 28.11.2020
5132 Clouds 27 1012 83 9000 1.5 110 19:38 28.11.2020
5133 Clouds 26 1012 88 9000 1 0 19:19 28.11.2020
5134 Clouds 26 1012 88 9000 1 0 18:27 28.11.2020
5135 Clouds 26 1012 88 9000 2.13 17 17:40 28.11.2020
5136 Clouds 27 1011 83 9000 2.27 13 16:39 28.11.2020
5137 Clouds 29 1009 74 9000 1 0 14:31 28.11.2020
5138 Clouds 31 1008 70 9000 2.1 290 11:29 28.11.2020
5139 Clouds 32 1010 66 9000 2.1 260 09:38 28.11.2020
5140 Clouds 29 1011 74 10000 2.6 290 03:56 28.11.2020
5141 Clouds 28 1010 78 10000 2.1 290 03:24 28.11.2020
5142 Clouds 28 1010 78 10000 2.1 270 00:49 28.11.2020
5143 Clouds 28 1010 78 10000 3.1 290 22:55 27.11.2020
5144 Clouds 28 1010 78 10000 2.6 300 21:27 27.11.2020
5145 Clouds 29 1011 74 10000 3.6 290 20:30 27.11.2020
5146 Clouds 29 1011 83 10000 3.6 290 19:25 27.11.2020
5147 Clouds 28 1011 83 10000 2.1 250 18:28 27.11.2020
5148 Clouds 29 1010 79 10000 3.1 240 14:46 27.11.2020
5149 Clouds 30 1009 74 10000 4.1 290 13:25 27.11.2020
5150 Clouds 30 1009 74 10000 4.1 290 12:47 27.11.2020
5151 Clouds 30 1009 74 10000 4.1 290 11:35 27.11.2020
5152 Clouds 30 1009 74 10000 4.1 300 10:50 27.11.2020
5153 Clouds 30 1010 74 10000 4.1 300 09:57 27.11.2020
5154 Clouds 28 1012 71 10000 4.93 298 07:26 27.11.2020
5155 Clouds 28 1009 73 10000 5.53 311 22:28 26.11.2020
5156 Rain 28 1009 73 10000 5.53 311 21:56 26.11.2020
5157 Rain 29 1010 74 10000 5.7 300 20:52 26.11.2020
5158 Clouds 29 1011 79 10000 6.7 270 18:42 26.11.2020
5159 Clouds 29 1011 79 10000 6.2 270 17:52 26.11.2020
5160 Clouds 29 1009 74 10000 5.7 290 14:57 26.11.2020
5161 Rain 30 1008 74 10000 5.7 270 13:42 26.11.2020
5162 Clouds 31 1008 70 10000 6.7 270 12:42 26.11.2020
5163 Clouds 30 1007 74 10000 4.6 290 11:44 26.11.2020
5164 Clouds 31 1008 70 10000 6.7 290 10:35 26.11.2020
5165 Clouds 31 1009 74 10000 4.6 270 09:48 26.11.2020
5166 Clouds 31 1009 74 10000 4.6 270 09:29 26.11.2020
5167 Clouds 30 1010 79 10000 4.1 280 08:39 26.11.2020
5168 Clouds 31 1011 70 10000 6.2 270 06:49 26.11.2020
5169 Clouds 28 1008 83 10000 5.1 270 23:54 25.11.2020
5170 Clouds 28 1010 83 10000 3.1 270 20:46 25.11.2020
5171 Clouds 28 1010 83 10000 3.6 270 19:55 25.11.2020
5172 Clouds 28 1011 83 10000 3.1 260 18:28 25.11.2020
5173 Clouds 29 1010 79 10000 3.6 260 16:44 25.11.2020
5174 Clouds 28 1009 83 10000 3.6 260 15:40 25.11.2020
5175 Clouds 29 1008 79 10000 3.6 300 13:57 25.11.2020
5176 Clouds 29 1008 79 10000 3.6 300 13:38 25.11.2020
5177 Clouds 31 1007 74 10000 3.1 270 11:58 25.11.2020
5178 Clouds 32 1007 75 10000 3.1 300 11:18 25.11.2020
5179 Clouds 31 1009 70 10000 4.1 290 09:19 25.11.2020
5180 Clouds 31 1009 70 10000 4.1 290 08:44 25.11.2020
5181 Clouds 28 1010 78 10000 2.6 260 03:59 25.11.2020
5182 Clouds 28 1009 78 10000 3.1 270 02:26 25.11.2020
5183 Clouds 28 1008 78 10000 2.6 270 00:24 25.11.2020
5184 Clouds 27 1008 83 10000 1.5 280 23:52 24.11.2020
5185 Clouds 27 1008 83 10000 1.5 280 23:34 24.11.2020
5186 Clouds 28 1008 78 10000 2.65 327 21:51 24.11.2020
5187 Clouds 28 1008 78 10000 2.65 327 21:30 24.11.2020
5188 Clouds 28 1009 78 10000 1.5 330 20:42 24.11.2020
5189 Clouds 28 1011 78 10000 2.6 350 18:57 24.11.2020
5190 Clouds 29 1010 74 10000 1.5 330 17:31 24.11.2020
5191 Clouds 29 1010 74 10000 1.5 330 16:54 24.11.2020
5192 Clouds 29 1010 74 10000 1.5 330 16:35 24.11.2020
5193 Clouds 29 1009 74 10000 2.6 340 15:54 24.11.2020
5194 Clouds 29 1009 79 10000 2.1 350 15:19 24.11.2020
5195 Clouds 29 1009 79 10000 2.1 350 14:43 24.11.2020
5196 Clouds 28 1009 73 10000 4.96 310 12:55 24.11.2020
5197 Clouds 31 1008 70 10000 2.6 310 12:22 24.11.2020
5198 Clouds 31 1008 70 10000 2.6 310 11:58 24.11.2020
5199 Clouds 31 1008 70 10000 2.6 330 10:47 24.11.2020
5200 Clouds 31 1008 70 10000 2.6 330 10:25 24.11.2020
5201 Clouds 31 1009 70 10000 2.1 330 09:35 24.11.2020
5202 Clouds 31 1010 66 10000 2.6 320 08:27 24.11.2020
5203 Clouds 30 1012 70 10000 2.1 330 04:49 24.11.2020
5204 Clouds 30 1012 70 10000 2.1 330 04:49 24.11.2020
5205 Clouds 28 1009 74 10000 2.6 330 23:32 23.11.2020
5206 Clouds 28 1010 74 10000 3.1 330 21:46 23.11.2020
5207 Clouds 29 1011 74 10000 4.1 330 20:58 23.11.2020
5208 Clouds 29 1011 74 10000 4.1 330 20:28 23.11.2020
5209 Clouds 28 1012 83 10000 2.6 30 19:36 23.11.2020
5210 Clouds 29 1012 74 10000 4.1 10 17:28 23.11.2020
5211 Clouds 29 1011 74 10000 3.1 350 16:54 23.11.2020
5212 Clouds 30 1010 74 10000 2.1 360 14:50 23.11.2020
5213 Clouds 30 1009 74 10000 2.6 340 13:55 23.11.2020
5214 Clouds 31 1009 70 10000 3.1 350 12:40 23.11.2020
5215 Clouds 31 1009 70 10000 3.1 320 11:56 23.11.2020
5216 Clouds 31 1009 70 10000 3.1 320 11:37 23.11.2020
5217 Clouds 31 1010 74 10000 2.6 320 09:47 23.11.2020
5218 Clouds 31 1011 70 10000 3.1 330 08:51 23.11.2020
5219 Clouds 31 1012 70 10000 3.1 310 07:56 23.11.2020
5220 Clouds 27 1011 88 10000 2.6 340 02:39 23.11.2020
5221 Clouds 27 1010 83 9000 4.6 60 23:48 22.11.2020
5222 Clouds 28 1010 83 10000 1.5 330 22:23 22.11.2020
5223 Clouds 28 1011 78 10000 1.5 330 21:24 22.11.2020
5224 Clouds 29 1012 79 10000 1.5 350 20:20 22.11.2020
5225 Clouds 29 1012 79 10000 2.1 350 19:23 22.11.2020
5226 Clouds 29 1013 74 10000 2.6 10 18:19 22.11.2020
5227 Clouds 29 1012 79 10000 2.6 350 16:26 22.11.2020
5228 Clouds 29 1010 74 10000 2.6 350 15:25 22.11.2020
5229 Rain 30 1010 70 10000 2.6 360 13:27 22.11.2020
5230 Clouds 30 1009 70 10000 3.1 340 12:43 22.11.2020
5231 Clouds 31 1009 70 10000 2.6 320 11:39 22.11.2020
5232 Clouds 32 1009 66 10000 2.6 310 10:50 22.11.2020
5233 Clouds 32 1009 66 10000 2.6 310 10:32 22.11.2020
5234 Clouds 29 1012 74 10000 2.1 320 04:33 22.11.2020
5235 Clouds 27 1009 88 10000 2.1 50 23:56 21.11.2020
5236 Clouds 27 1010 88 10000 1.5 40 22:41 21.11.2020
5237 Clouds 27 1010 88 10000 1.5 10 21:31 21.11.2020
5238 Clouds 27 1011 88 10000 2.6 50 20:49 21.11.2020
5239 Clouds 27 1011 88 10000 4.6 60 20:20 21.11.2020
5240 Clouds 27 1011 88 10000 4.6 60 19:42 21.11.2020
5241 Clouds 28 1012 83 10000 6.2 70 18:54 21.11.2020
5242 Clouds 29 1012 79 10000 3.6 70 17:30 21.11.2020
5243 Clouds 29 1012 79 10000 3.6 70 16:44 21.11.2020
5244 Clouds 28 1011 78 10000 4.1 70 15:41 21.11.2020
5245 Clouds 29 1010 83 10000 4.1 70 15:20 21.11.2020
5246 Clouds 29 1010 83 10000 4.1 70 14:42 21.11.2020
5247 Clouds 30 1008 74 10000 2.1 350 12:44 21.11.2020
5248 Clouds 32 1009 66 10000 2.6 350 12:22 21.11.2020
5249 Clouds 32 1009 66 10000 2.6 350 11:49 21.11.2020
5250 Clouds 32 1009 66 10000 2.6 360 10:28 21.11.2020
5251 Clouds 31 1010 70 10000 3.6 320 08:52 21.11.2020
5252 Clouds 31 1012 74 10000 2.6 360 08:19 21.11.2020
5253 Clouds 30 1012 74 10000 3.1 360 05:42 21.11.2020
5254 Clear 28 1011 70 10000 2.13 16 02:52 21.11.2020
5255 Clouds 28 1009 71 10000 2.25 6 00:22 21.11.2020
5256 Clouds 28 1009 83 10000 3.1 300 22:45 20.11.2020
5257 Clouds 28 1010 83 10000 3.1 290 21:44 20.11.2020
5258 Clouds 29 1011 74 10000 2.1 310 21:21 20.11.2020
5259 Clouds 29 1011 74 10000 2.1 310 19:55 20.11.2020
5260 Clouds 29 1011 74 10000 2.1 320 18:54 20.11.2020
5261 Clouds 29 1011 74 10000 2.1 320 18:27 20.11.2020
5262 Clouds 28 1011 78 10000 1.5 310 17:30 20.11.2020
5263 Clouds 29 1010 83 10000 1 0 16:47 20.11.2020
5264 Clouds 29 1010 74 10000 2.1 310 15:59 20.11.2020
5265 Clouds 29 1010 74 10000 2.1 310 15:59 20.11.2020
5266 Clouds 29 1010 74 10000 2.1 310 15:39 20.11.2020
5267 Clouds 31 1008 66 10000 2.6 270 13:51 20.11.2020
5268 Clouds 31 1008 70 10000 3.1 270 13:19 20.11.2020
5269 Clouds 31 1008 70 10000 3.1 270 12:41 20.11.2020
5270 Clouds 31 1008 70 10000 3.6 290 11:50 20.11.2020
5271 Clouds 31 1008 70 10000 3.6 290 11:21 20.11.2020
5272 Clouds 31 1009 70 10000 3.1 290 09:47 20.11.2020
5273 Clouds 31 1010 70 10000 2.6 300 08:29 20.11.2020
5274 Clouds 28 1010 66 10000 1.67 223 07:47 20.11.2020
5275 Clouds 29 1010 79 10000 2.1 230 03:45 20.11.2020
5276 Clouds 28 1008 83 10000 2.6 230 23:38 19.11.2020
5277 Clouds 28 1009 83 10000 3.6 230 22:30 19.11.2020
5278 Clouds 28 1009 83 10000 3.1 200 21:52 19.11.2020
5279 Rain 28 1010 83 10000 3.6 200 20:53 19.11.2020
5280 Clouds 29 1011 79 10000 3.1 200 20:19 19.11.2020
5281 Clouds 29 1011 79 10000 3.1 200 19:26 19.11.2020
5282 Clouds 29 1011 79 10000 2.6 200 18:35 19.11.2020
5283 Clouds 29 1010 79 10000 3.1 200 17:21 19.11.2020
5284 Clouds 29 1009 79 10000 2.6 200 16:26 19.11.2020
5285 Clouds 29 1009 79 10000 2.6 200 15:29 19.11.2020
5286 Clouds 30 1007 74 10000 3.1 200 13:49 19.11.2020
5287 Clouds 30 1007 74 10000 3.1 200 13:30 19.11.2020
5288 Clouds 30 1007 74 10000 3.1 210 12:51 19.11.2020
5289 Clouds 30 1007 74 10000 3.1 210 12:28 19.11.2020
5290 Clouds 31 1007 70 10000 3.1 250 11:40 19.11.2020
5291 Clouds 31 1007 70 10000 3.1 250 11:20 19.11.2020
5292 Clouds 31 1007 70 10000 3.1 250 10:29 19.11.2020
5293 Clouds 31 1008 66 10000 2.6 220 09:47 19.11.2020
5294 Clouds 31 1008 66 10000 2.6 220 09:26 19.11.2020
5295 Clouds 31 1010 70 10000 2.6 220 08:21 19.11.2020
5296 Clouds 30 1010 74 10000 3.1 260 07:30 19.11.2020
5297 Clouds 28 1008 83 10000 2.6 230 01:46 19.11.2020
5298 Clouds 28 1008 83 10000 2.1 240 00:32 19.11.2020
5299 Clouds 28 1008 83 10000 1.5 230 23:31 18.11.2020
5300 Clouds 28 1008 83 10000 2.6 260 22:58 18.11.2020
5301 Clouds 28 1008 83 10000 2.6 260 22:27 18.11.2020
5302 Clouds 28 1009 83 10000 3.6 260 21:43 18.11.2020
5303 Clouds 28 1009 83 10000 3.6 260 21:24 18.11.2020
5304 Clouds 28 1009 83 10000 4.1 260 20:31 18.11.2020
5305 Clouds 28 1010 83 10000 4.1 260 19:37 18.11.2020
5306 Clouds 28 1010 83 10000 4.6 270 18:58 18.11.2020
5307 Clouds 28 1010 83 10000 4.6 270 18:39 18.11.2020
5308 Rain 28 1010 83 10000 5.1 270 17:41 18.11.2020
5309 Clouds 29 1009 79 10000 7.2 270 16:26 18.11.2020
5310 Rain 29 1009 79 10000 7.2 270 15:57 18.11.2020
5311 Clouds 29 1008 79 10000 7.7 270 14:41 18.11.2020
5312 Rain 28 1008 75 10000 7.52 248 13:47 18.11.2020
5313 Clouds 29 1007 79 10000 7.2 270 13:21 18.11.2020
5314 Rain 29 1007 79 10000 7.2 270 12:42 18.11.2020
5315 Rain 28 1007 88 10000 8.7 270 11:42 18.11.2020
5316 Rain 28 1007 88 10000 8.7 270 11:42 18.11.2020
5317 Clouds 29 1007 79 10000 9.3 280 10:54 18.11.2020
5318 Clouds 29 1007 79 10000 9.3 280 10:27 18.11.2020
5319 Rain 28 1009 83 10000 9.8 260 08:23 18.11.2020
5320 Clouds 27 1010 88 10000 10.3 240 06:37 18.11.2020
5321 Clouds 27 1007 88 8000 7.2 250 02:51 18.11.2020
5322 Rain 25 1006 94 7000 6.2 300 00:18 18.11.2020
5323 Rain 25 1007 100 7000 4.6 250 23:21 17.11.2020
5324 Rain 25 1007 100 7000 4.6 250 22:29 17.11.2020
5325 Rain 25 1007 100 7000 4.6 250 22:29 17.11.2020
5326 Rain 26 1007 94 7000 5.1 290 21:58 17.11.2020
5327 Rain 26 1007 94 7000 5.1 290 21:39 17.11.2020
5328 Rain 26 1007 94 7000 3.1 290 20:58 17.11.2020
5329 Rain 26 1007 94 7000 3.1 290 20:40 17.11.2020
5330 Rain 26 1009 94 7000 3.6 290 20:22 17.11.2020
5331 Clouds 25 1009 94 7000 3.1 280 18:36 17.11.2020
5332 Clouds 27 1009 88 8000 5.7 280 17:47 17.11.2020
5333 Rain 26 1008 94 10000 3.6 320 16:59 17.11.2020
5334 Rain 26 1008 94 10000 3.6 320 16:29 17.11.2020
5335 Clouds 26 1008 88 10000 3.1 350 15:45 17.11.2020
5336 Clouds 25 1007 94 8000 2.1 350 15:27 17.11.2020
5337 Clouds 25 1007 94 8000 2.1 350 14:56 17.11.2020
5338 Clouds 25 1007 94 8000 2.1 350 14:28 17.11.2020
5339 Rain 25 1006 94 7000 3.1 20 13:38 17.11.2020
5340 Rain 26 1006 94 7000 5.1 20 13:18 17.11.2020
5341 Rain 26 1006 94 7000 5.1 20 12:40 17.11.2020
5342 Rain 26 1006 94 7000 4.6 10 11:44 17.11.2020
5343 Rain 26 1007 94 8000 5.7 10 10:50 17.11.2020
5344 Rain 26 1007 94 8000 5.7 10 10:23 17.11.2020
5345 Rain 26 1006 90 4661 8.56 273 09:51 17.11.2020
5346 Rain 27 1008 88 9000 8.7 330 09:27 17.11.2020
5347 Rain 28 1009 78 10000 8.2 310 08:23 17.11.2020
5348 Rain 26 1008 89 2377 7.18 264 07:44 17.11.2020
5349 Rain 28 1009 78 10000 8.7 290 06:34 17.11.2020
5350 Clouds 28 1007 83 10000 9.3 290 03:31 17.11.2020
5351 Clouds 27 1006 83 10000 10.3 280 02:53 17.11.2020
5352 Clouds 27 1006 83 10000 10.3 270 01:23 17.11.2020
5353 Clouds 27 1006 83 10000 10.3 260 00:53 17.11.2020
5354 Clouds 26 1006 94 7000 10.8 260 23:48 16.11.2020
5355 Clouds 26 1006 94 7000 10.8 260 23:29 16.11.2020
5356 Rain 26 1006 94 7000 11.8 250 22:43 16.11.2020
5357 Rain 27 1007 83 10000 4.73 265 22:20 16.11.2020
5358 Rain 27 1007 83 10000 4.73 265 21:45 16.11.2020
5359 Rain 27 1008 81 6402 3.6 265 21:24 16.11.2020
5360 Rain 27 1008 81 6402 3.6 265 20:37 16.11.2020
5361 Rain 27 1008 80 6584 2.75 268 20:19 16.11.2020
5362 Rain 27 1008 80 6584 2.75 268 19:38 16.11.2020
5363 Rain 27 1009 79 5211 1.93 295 19:19 16.11.2020
5364 Rain 27 1009 80 8838 2.61 307 18:31 16.11.2020
5365 Clouds 27 1010 78 6189 2.53 347 17:47 16.11.2020
5366 Clouds 28 1007 88 6000 6.2 10 17:21 16.11.2020
5367 Clouds 28 1007 88 6000 6.2 10 16:53 16.11.2020
5368 Clouds 28 1007 88 6000 6.2 10 16:28 16.11.2020
5369 Clouds 28 1006 83 10000 4.1 360 15:51 16.11.2020
5370 Clouds 28 1006 83 10000 4.1 360 15:29 16.11.2020
5371 Clouds 29 1006 83 10000 3.6 350 14:55 16.11.2020
5372 Clouds 29 1006 83 10000 3.6 350 14:28 16.11.2020
5373 Clouds 29 1006 83 10000 4.6 360 13:31 16.11.2020
5374 Clouds 30 1005 79 10000 4.1 350 12:33 16.11.2020
5375 Clouds 30 1006 79 10000 4.6 340 11:44 16.11.2020
5376 Clouds 30 1006 79 10000 5.1 340 11:24 16.11.2020
5377 Clouds 30 1006 79 10000 5.1 340 10:47 16.11.2020
5378 Clouds 30 1006 79 10000 5.1 340 10:26 16.11.2020
5379 Clouds 30 1007 79 10000 4.6 350 09:53 16.11.2020
5380 Clouds 30 1007 79 10000 4.6 350 09:35 16.11.2020
5381 Clouds 30 1008 79 10000 4.6 340 08:49 16.11.2020
5382 Clouds 30 1009 79 10000 4.6 10 08:22 16.11.2020
5383 Clouds 30 1009 79 10000 3.6 350 07:36 16.11.2020
5384 Clouds 30 1009 79 10000 3.6 350 06:47 16.11.2020
5385 Clouds 29 1009 83 10000 4.6 340 05:49 16.11.2020
5386 Clouds 27 1008 94 10000 2.1 350 03:58 16.11.2020
5387 Clouds 26 1006 94 10000 2.1 20 01:46 16.11.2020
5388 Clouds 28 1006 78 10000 5.18 332 00:53 16.11.2020
5389 Clouds 26 1007 94 9000 3.6 360 23:33 15.11.2020
5390 Clouds 26 1007 94 9000 3.6 360 22:58 15.11.2020
5391 Clouds 27 1007 94 9000 3.6 50 22:27 15.11.2020
5392 Clouds 27 1007 94 9000 3.6 50 21:59 15.11.2020
5393 Clouds 27 1007 94 9000 3.6 50 21:36 15.11.2020
5394 Rain 25 1008 100 8000 8.2 40 21:18 15.11.2020
5395 Rain 25 1008 100 8000 8.2 40 20:40 15.11.2020
5396 Rain 29 1008 83 10000 3.6 30 19:57 15.11.2020
5397 Thunderstorm 28 1008 88 10000 3.6 30 19:39 15.11.2020
5398 Thunderstorm 28 1008 88 10000 3.6 30 19:39 15.11.2020
5399 Rain 28 1008 88 10000 3.6 30 19:20 15.11.2020
5400 Thunderstorm 28 1008 88 10000 3.6 30 18:45 15.11.2020
5401 Rain 28 1008 88 10000 3.6 30 18:25 15.11.2020
5402 Rain 28 1008 88 10000 3.6 30 17:58 15.11.2020
5403 Thunderstorm 28 1008 88 10000 3.6 30 17:39 15.11.2020
5404 Rain 28 1008 88 10000 5.7 20 17:20 15.11.2020
5405 Rain 28 1008 88 10000 5.7 20 16:41 15.11.2020
5406 Rain 27 1007 94 10000 3.1 40 16:19 15.11.2020
5407 Clouds 27 1007 94 10000 3.1 40 15:43 15.11.2020
5408 Clouds 27 1007 94 10000 3.1 40 15:24 15.11.2020
5409 Clouds 27 1006 94 6000 7.2 70 14:53 15.11.2020
5410 Clouds 27 1006 94 6000 7.2 70 14:26 15.11.2020
5411 Clouds 29 1005 83 10000 6.7 70 13:43 15.11.2020
5412 Clouds 29 1005 89 9000 5.7 70 13:21 15.11.2020
5413 Clouds 29 1005 89 9000 5.7 70 12:46 15.11.2020
5414 Clouds 29 1005 89 9000 5.7 70 12:46 15.11.2020
5415 Clouds 30 1005 79 6000 4.1 70 12:19 15.11.2020
5416 Clouds 30 1005 79 6000 4.1 70 11:44 15.11.2020
5417 Clouds 31 1006 79 10000 6.2 90 11:18 15.11.2020
5418 Clouds 31 1006 79 10000 6.2 90 10:51 15.11.2020
5419 Clouds 31 1006 79 10000 6.2 90 10:30 15.11.2020
5420 Clouds 30 1006 79 10000 5.7 70 09:52 15.11.2020
5421 Clouds 30 1006 79 10000 5.7 70 09:32 15.11.2020
5422 Clouds 29 1007 83 10000 5.7 70 08:55 15.11.2020
5423 Clouds 29 1007 83 10000 5.7 70 08:32 15.11.2020
5424 Clouds 29 1008 71 10000 2.51 29 07:44 15.11.2020
5425 Clouds 30 1009 79 10000 4.6 40 06:25 15.11.2020
5426 Clouds 28 1009 88 10000 3.6 50 04:52 15.11.2020
5427 Clouds 28 1007 75 10000 2.25 311 01:37 15.11.2020
5428 Clouds 26 1006 100 8000 3.6 360 00:30 15.11.2020
5429 Clouds 26 1006 100 8000 3.6 360 23:44 14.11.2020
5430 Clouds 26 1006 100 6000 4.6 30 22:54 14.11.2020
5431 Clouds 26 1006 100 6000 4.6 30 22:33 14.11.2020
5432 Thunderstorm 27 1007 94 10000 3.1 340 21:56 14.11.2020
5433 Thunderstorm 27 1007 94 10000 3.1 340 21:37 14.11.2020
5434 Rain 27 1008 88 10000 2.6 340 21:19 14.11.2020
5435 Rain 27 1008 88 10000 2.6 340 20:37 14.11.2020
5436 Rain 27 1009 88 10000 2.1 360 20:19 14.11.2020
5437 Rain 27 1009 94 10000 2.1 350 19:36 14.11.2020
5438 Rain 27 1009 94 10000 2.1 350 18:57 14.11.2020
5439 Rain 27 1009 94 10000 2.1 350 18:38 14.11.2020
5440 Rain 26 1009 100 10000 1.5 30 18:20 14.11.2020
5441 Rain 26 1009 100 10000 1.5 30 17:44 14.11.2020
5442 Rain 26 1009 100 10000 1.5 30 17:25 14.11.2020
5443 Rain 26 1008 94 10000 2.6 30 16:52 14.11.2020
5444 Clouds 26 1008 94 10000 2.6 30 16:31 14.11.2020
5445 Clouds 26 1007 100 10000 4.1 40 15:53 14.11.2020
5446 Clouds 26 1007 100 10000 4.1 40 15:31 14.11.2020
5447 Clouds 27 1006 94 9000 5.1 30 14:54 14.11.2020
5448 Rain 27 1006 94 9000 5.1 30 14:29 14.11.2020
5449 Rain 27 1006 94 9000 5.7 20 13:51 14.11.2020
5450 Rain 27 1006 94 9000 5.7 20 13:29 14.11.2020
5451 Rain 27 1005 88 9000 3.6 10 12:49 14.11.2020
5452 Rain 27 1005 88 9000 3.6 10 12:30 14.11.2020
5453 Clouds 28 1006 78 9000 4.1 10 11:55 14.11.2020
5454 Rain 28 1006 78 9000 4.1 10 11:36 14.11.2020
5455 Clouds 29 1006 83 10000 5.1 290 10:51 14.11.2020
5456 Clouds 29 1006 83 10000 5.1 290 10:27 14.11.2020
5457 Clouds 29 1006 83 10000 5.1 290 10:27 14.11.2020
5458 Rain 30 1007 79 10000 1 0 09:58 14.11.2020
5459 Rain 30 1007 79 10000 1 0 09:40 14.11.2020
5460 Clouds 28 1008 88 8000 0.5 0 09:22 14.11.2020
5461 Rain 28 1008 88 8000 0.5 0 08:40 14.11.2020
5462 Clouds 30 1009 79 10000 1.5 360 08:18 14.11.2020
5463 Clouds 28 1008 77 10000 6.17 3 07:41 14.11.2020
5464 Clouds 29 1009 83 10000 2.6 360 06:43 14.11.2020
5465 Clouds 28 1009 88 10000 3.1 10 06:20 14.11.2020
5466 Clouds 27 1009 94 10000 3.6 10 04:45 14.11.2020
5467 Clouds 27 1007 88 6000 8.2 50 01:42 14.11.2020
5468 Clouds 28 1007 83 10000 3.6 350 00:24 14.11.2020
5469 Clouds 28 1006 88 10000 4.1 340 23:33 13.11.2020
5470 Clouds 28 1007 83 10000 3.1 350 22:58 13.11.2020
5471 Clouds 28 1007 83 10000 3.1 350 22:39 13.11.2020
5472 Clouds 28 1008 83 10000 4.1 340 22:20 13.11.2020
5473 Clouds 28 1008 83 10000 4.1 340 21:44 13.11.2020
5474 Clouds 28 1008 83 10000 4.1 340 21:23 13.11.2020
5475 Clouds 28 1009 83 10000 4.1 340 20:51 13.11.2020
5476 Clouds 28 1009 83 10000 4.1 340 20:32 13.11.2020
5477 Clouds 28 1010 83 10000 3.1 350 19:54 13.11.2020
5478 Clouds 28 1010 83 10000 3.1 350 19:36 13.11.2020
5479 Clouds 28 1010 83 10000 3.1 350 19:36 13.11.2020
5480 Clouds 28 1010 83 10000 5.1 340 19:18 13.11.2020
5481 Clouds 28 1010 83 10000 5.1 340 18:32 13.11.2020
5482 Clouds 28 1010 83 10000 5.1 330 17:43 13.11.2020
5483 Clouds 28 1009 83 10000 5.1 300 17:21 13.11.2020
5484 Clouds 28 1009 83 10000 5.1 300 16:51 13.11.2020
5485 Clouds 28 1009 83 10000 5.1 310 16:25 13.11.2020
5486 Clouds 28 1009 83 10000 5.1 310 16:25 13.11.2020
5487 Clouds 28 1009 83 10000 5.1 310 15:59 13.11.2020
5488 Clouds 28 1009 83 10000 5.1 310 15:39 13.11.2020
5489 Clouds 27 1008 88 10000 5.7 290 15:21 13.11.2020
5490 Clouds 27 1008 88 10000 5.7 290 14:37 13.11.2020
5491 Clouds 27 1008 88 10000 5.7 280 14:18 13.11.2020
5492 Clouds 27 1008 88 10000 5.7 280 13:32 13.11.2020
5493 Clouds 27 1007 94 8000 6.2 310 12:55 13.11.2020
5494 Clouds 27 1007 94 8000 6.2 310 12:37 13.11.2020
5495 Clouds 30 1007 74 8000 4.6 260 12:18 13.11.2020
5496 Clouds 30 1007 74 8000 4.6 260 11:45 13.11.2020
5497 Clouds 30 1007 79 8000 2.6 280 11:20 13.11.2020
5498 Clouds 30 1007 79 8000 2.6 280 10:47 13.11.2020
5499 Clouds 30 1007 79 8000 2.6 280 10:47 13.11.2020
5500 Clouds 30 1007 79 8000 2.6 280 10:29 13.11.2020
5501 Clouds 30 1009 74 7000 3.1 240 09:47 13.11.2020
5502 Clouds 30 1009 74 7000 3.1 240 09:27 13.11.2020
5503 Clouds 30 1009 74 7000 3.1 240 09:27 13.11.2020
5504 Clouds 30 1009 74 7000 3.1 240 09:27 13.11.2020
5505 Clouds 30 1010 79 8000 2.6 240 08:53 13.11.2020
5506 Clouds 30 1010 79 8000 2.6 240 08:26 13.11.2020
5507 Clouds 28 1009 71 10000 2.56 344 07:50 13.11.2020
5508 Clouds 31 1011 74 8000 1.5 190 07:27 13.11.2020
5509 Clouds 31 1011 74 8000 1.5 190 06:55 13.11.2020
5510 Clouds 31 1011 74 8000 1.5 190 06:36 13.11.2020
5511 Clouds 29 1011 83 8000 2.1 210 05:41 13.11.2020
5512 Rain 27 1009 88 8000 2.1 170 03:41 13.11.2020
5513 Clouds 27 1008 88 8000 2.1 180 01:42 13.11.2020
5514 Rain 27 1008 88 8000 2.1 210 00:35 13.11.2020
5515 Rain 27 1008 88 8000 2.1 180 23:49 12.11.2020
5516 Rain 26 1009 94 8000 0.5 0 23:21 12.11.2020
5517 Rain 26 1009 94 8000 0.5 0 22:54 12.11.2020
5518 Rain 26 1010 94 8000 2.49 350 22:36 12.11.2020
5519 Rain 26 1010 94 8000 2.29 4 21:58 12.11.2020
5520 Rain 26 1010 94 8000 2.29 4 21:39 12.11.2020
5521 Rain 26 1010 94 8000 2.1 70 21:21 12.11.2020
5522 Clouds 26 1010 94 8000 2.1 70 20:41 12.11.2020
5523 Rain 28 1011 88 8000 1.5 60 20:23 12.11.2020
5524 Rain 28 1011 88 8000 1.5 60 19:53 12.11.2020
5525 Clouds 28 1011 88 8000 1.5 60 19:34 12.11.2020
5526 Clouds 27 1011 88 10000 1 0 18:58 12.11.2020
5527 Clouds 27 1011 88 10000 1 0 18:39 12.11.2020
5528 Clouds 27 1011 88 10000 1.5 150 18:19 12.11.2020
5529 Clouds 27 1011 88 10000 1.5 150 17:40 12.11.2020
5530 Clouds 26 1010 94 9000 1.5 140 17:22 12.11.2020
5531 Clouds 26 1010 94 9000 1.5 140 16:44 12.11.2020
5532 Clouds 29 1011 73 10000 2.34 28 16:23 12.11.2020
5533 Clouds 29 1011 73 10000 2.34 28 15:47 12.11.2020
5534 Clouds 27 1009 88 6000 2.1 210 15:28 12.11.2020
5535 Clouds 27 1009 88 6000 2.1 210 14:47 12.11.2020
5536 Clouds 27 1009 88 6000 2.1 210 14:28 12.11.2020
5537 Clouds 31 1008 70 7000 2.1 350 13:58 12.11.2020
5538 Clouds 31 1008 70 7000 2.1 350 13:40 12.11.2020
5539 Clouds 31 1007 70 8000 1.5 320 13:19 12.11.2020
5540 Clouds 29 1008 68 10000 2.49 13 12:44 12.11.2020
5541 Clouds 31 1007 70 8000 1.5 80 12:24 12.11.2020
5542 Clouds 31 1007 70 8000 1.5 80 11:53 12.11.2020
5543 Clouds 31 1007 70 8000 1.5 80 11:30 12.11.2020
5544 Clouds 31 1008 74 8000 2.1 80 10:49 12.11.2020
5545 Clouds 31 1008 74 8000 2.1 80 10:29 12.11.2020
5546 Clouds 32 1009 66 8000 3.1 90 09:51 12.11.2020
5547 Clouds 32 1009 66 8000 3.1 90 09:27 12.11.2020
5548 Clouds 31 1010 74 8000 2.6 80 08:58 12.11.2020
5549 Clouds 31 1010 74 8000 2.6 80 08:40 12.11.2020
5550 Clouds 31 1011 74 8000 2.6 90 08:20 12.11.2020
5551 Clouds 31 1011 74 8000 2.6 90 07:54 12.11.2020
5552 Clouds 31 1011 74 8000 2.6 90 07:30 12.11.2020
5553 Clouds 31 1011 74 8000 2.6 90 06:51 12.11.2020
5554 Clouds 31 1011 74 8000 1.5 90 06:22 12.11.2020
5555 Clouds 28 1010 83 10000 0.5 0 03:45 12.11.2020
5556 Clouds 27 1009 88 10000 3.02 17 03:19 12.11.2020
5557 Clouds 28 1008 83 10000 2.38 339 00:28 12.11.2020
5558 Clouds 28 1008 83 10000 1 0 23:42 11.11.2020
5559 Clouds 28 1008 83 10000 1 0 23:24 11.11.2020
5560 Clouds 28 1008 83 10000 1 0 22:47 11.11.2020
5561 Clouds 28 1009 83 10000 1 0 22:22 11.11.2020
5562 Clouds 28 1009 83 10000 1 0 21:56 11.11.2020
5563 Clouds 28 1009 83 10000 1 0 21:38 11.11.2020
5564 Clouds 28 1010 83 10000 0.37 349 21:19 11.11.2020
5565 Clouds 28 1010 83 10000 0.37 349 20:42 11.11.2020
5566 Clouds 29 1011 79 10000 1.5 150 20:22 11.11.2020
5567 Clouds 29 1011 79 10000 1.5 150 19:55 11.11.2020
5568 Clouds 28 1011 83 10000 2.1 120 19:37 11.11.2020
5569 Rain 28 1011 83 10000 2.1 120 19:18 11.11.2020
5570 Rain 28 1011 83 10000 2.1 120 19:18 11.11.2020
5571 Rain 28 1011 83 10000 2.1 120 18:41 11.11.2020
5572 Clouds 29 1011 79 10000 2.1 130 18:21 11.11.2020
5573 Clouds 29 1011 79 10000 2.1 130 17:37 11.11.2020
5574 Clouds 29 1010 79 10000 2.1 140 17:19 11.11.2020
5575 Clouds 29 1010 79 10000 2.1 140 16:39 11.11.2020
5576 Clouds 29 1010 79 10000 2.1 140 16:39 11.11.2020
5577 Clouds 29 1009 79 10000 1.5 140 16:21 11.11.2020
5578 Clouds 29 1009 79 10000 1.5 140 15:41 11.11.2020
5579 Clouds 29 1008 79 10000 1.5 130 15:23 11.11.2020
5580 Clouds 29 1008 79 10000 1.5 130 14:47 11.11.2020
5581 Clouds 29 1008 79 10000 1.5 130 14:28 11.11.2020
5582 Rain 30 1008 74 10000 1.5 100 13:49 11.11.2020
5583 Clouds 30 1008 74 10000 1.5 100 13:24 11.11.2020
5584 Clouds 31 1007 74 10000 1.5 250 12:22 11.11.2020
5585 Clouds 31 1007 74 10000 1.5 250 11:58 11.11.2020
5586 Clouds 31 1007 74 10000 1.5 250 11:40 11.11.2020
5587 Clouds 31 1008 74 10000 1.5 270 11:20 11.11.2020
5588 Clouds 31 1008 70 10000 2.1 280 10:39 11.11.2020
5589 Clouds 31 1008 70 10000 2.1 280 10:19 11.11.2020
5590 Clouds 31 1008 70 10000 2.1 280 09:43 11.11.2020
5591 Clouds 31 1009 70 10000 1.73 27 09:24 11.11.2020
5592 Clouds 31 1009 70 10000 1.73 27 08:45 11.11.2020
5593 Clouds 31 1009 70 10000 2.14 33 08:25 11.11.2020
5594 Clouds 28 1009 72 10000 2.14 33 07:49 11.11.2020
5595 Clouds 31 1011 66 10000 2.1 310 06:33 11.11.2020
5596 Clouds 30 1010 74 10000 1.5 300 05:52 11.11.2020
5597 Clouds 27 1009 83 10000 2.6 310 02:29 11.11.2020
5598 Thunderstorm 27 1008 88 10000 2.1 320 00:58 11.11.2020
5599 Thunderstorm 27 1008 88 10000 2.1 320 00:25 11.11.2020
5600 Thunderstorm 27 1008 88 10000 1.5 300 23:42 10.11.2020
5601 Thunderstorm 27 1008 88 10000 3.1 320 23:23 10.11.2020
5602 Thunderstorm 27 1008 88 10000 3.1 320 22:51 10.11.2020
5603 Thunderstorm 27 1008 88 10000 3.1 320 22:26 10.11.2020
5604 Thunderstorm 27 1008 88 10000 3.1 320 21:42 10.11.2020
5605 Clouds 27 1009 94 10000 2.1 20 21:24 10.11.2020
5606 Clouds 27 1009 94 10000 2.1 20 20:58 10.11.2020
5607 Clouds 27 1009 94 10000 2.1 20 20:40 10.11.2020
5608 Clouds 27 1009 94 10000 1.5 160 20:22 10.11.2020
5609 Clouds 27 1009 94 10000 1.5 160 19:46 10.11.2020
5610 Clouds 27 1009 94 10000 1.5 160 19:25 10.11.2020
5611 Clouds 27 1009 94 10000 2.1 170 18:56 10.11.2020
5612 Clouds 27 1009 94 10000 2.1 170 18:37 10.11.2020
5613 Clouds 27 1009 94 10000 1.5 180 18:18 10.11.2020
5614 Clouds 27 1009 94 10000 1.5 180 17:42 10.11.2020
5615 Clouds 27 1009 88 10000 0.5 0 17:24 10.11.2020
5616 Clouds 27 1009 88 10000 0.5 0 16:42 10.11.2020
5617 Clouds 27 1008 88 10000 3.1 280 16:23 10.11.2020
5618 Clouds 27 1008 88 10000 3.1 280 15:55 10.11.2020
5619 Clouds 27 1008 88 10000 3.1 280 15:37 10.11.2020
5620 Clouds 27 1007 88 10000 1 0 15:18 10.11.2020
5621 Clouds 27 1007 88 10000 1 0 14:40 10.11.2020
5622 Rain 26 1007 94 9000 2.6 40 14:19 10.11.2020
5623 Rain 26 1007 94 9000 2.6 40 13:40 10.11.2020
5624 Rain 29 1007 72 10000 3.86 13 13:21 10.11.2020
5625 Rain 29 1007 72 10000 3.24 17 12:56 10.11.2020
5626 Rain 29 1007 72 10000 3.24 17 12:37 10.11.2020
5627 Rain 29 1007 71 10000 3.64 7 12:18 10.11.2020
5628 Rain 30 1008 79 10000 6.2 260 11:36 10.11.2020
5629 Rain 30 1008 79 10000 6.2 260 11:18 10.11.2020
5630 Rain 30 1008 79 10000 6.2 260 10:42 10.11.2020
5631 Rain 31 1009 74 10000 5.1 280 10:22 10.11.2020
5632 Clouds 31 1009 74 10000 5.1 280 09:46 10.11.2020
5633 Clouds 31 1009 74 10000 5.1 280 09:25 10.11.2020
5634 Clouds 30 1009 74 10000 3.6 340 08:55 10.11.2020
5635 Clouds 30 1009 74 10000 3.6 340 08:29 10.11.2020
5636 Rain 29 1009 72 7718 4.17 354 07:46 10.11.2020
5637 Rain 29 1011 74 10000 3.1 340 07:25 10.11.2020
5638 Rain 29 1011 74 10000 3.1 340 06:41 10.11.2020
5639 Rain 30 1011 79 10000 3.1 310 05:56 10.11.2020
5640 Rain 29 1011 83 10000 4.6 290 05:24 10.11.2020
5641 Clouds 28 1009 83 10000 3.6 290 02:48 10.11.2020
5642 Clouds 28 1008 83 10000 4.1 290 01:32 10.11.2020
5643 Clouds 28 1008 83 10000 2.6 300 00:23 10.11.2020
5644 Clouds 28 1008 83 10000 2.6 300 23:38 09.11.2020
5645 Clouds 28 1009 83 10000 2.1 320 22:54 09.11.2020
5646 Clouds 28 1009 83 10000 2.1 320 22:36 09.11.2020
5647 Clouds 28 1009 83 10000 3.1 10 22:18 09.11.2020
5648 Clouds 28 1009 83 10000 3.1 10 21:39 09.11.2020
5649 Clouds 28 1010 83 10000 2.6 40 21:19 09.11.2020
5650 Clouds 28 1010 83 10000 2.6 40 20:39 09.11.2020
5651 Clouds 28 1011 83 10000 2.1 20 20:21 09.11.2020
5652 Clouds 28 1011 83 10000 2.1 20 19:42 09.11.2020
5653 Clouds 28 1011 83 10000 2.1 20 19:22 09.11.2020
5654 Clouds 28 1011 83 10000 1 0 18:46 09.11.2020
5655 Clouds 28 1011 83 10000 1 0 18:46 09.11.2020
5656 Clouds 29 1011 79 10000 2.1 10 18:21 09.11.2020
5657 Clouds 29 1011 79 10000 2.1 10 17:58 09.11.2020
5658 Clouds 29 1011 79 10000 2.1 10 17:39 09.11.2020
5659 Clouds 29 1011 74 10000 2.1 30 17:21 09.11.2020
5660 Clouds 29 1011 74 10000 2.1 30 16:38 09.11.2020
5661 Clouds 29 1011 79 10000 2.1 30 16:19 09.11.2020
5662 Clouds 29 1011 79 10000 2.1 30 15:42 09.11.2020
5663 Clouds 29 1010 79 10000 3.1 50 15:23 09.11.2020
5664 Clouds 29 1010 79 10000 3.1 50 14:44 09.11.2020
5665 Clouds 29 1010 79 10000 3.1 50 14:26 09.11.2020
5666 Clouds 29 1009 79 10000 4.6 50 13:51 09.11.2020
5667 Clouds 30 1009 74 10000 4.6 40 13:21 09.11.2020
5668 Clouds 30 1009 74 10000 4.6 40 12:47 09.11.2020
5669 Clouds 30 1009 74 10000 4.6 40 12:26 09.11.2020
5670 Clouds 30 1009 74 10000 4.1 30 11:57 09.11.2020
5671 Clouds 30 1009 74 10000 4.1 30 11:38 09.11.2020
5672 Clouds 31 1009 74 10000 4.1 360 11:19 09.11.2020
5673 Clouds 31 1009 74 10000 4.1 360 10:42 09.11.2020
5674 Clouds 31 1009 74 10000 4.1 360 10:23 09.11.2020
5675 Clouds 30 1011 70 10000 5.1 30 09:45 09.11.2020
5676 Clouds 30 1011 70 10000 5.1 30 09:23 09.11.2020
5677 Rain 31 1011 66 10000 4.1 20 08:39 09.11.2020
5678 Clouds 31 1012 70 10000 3.1 360 08:19 09.11.2020
5679 Clouds 31 1012 70 10000 3.1 360 07:39 09.11.2020
5680 Clouds 30 1013 79 10000 4.1 360 07:19 09.11.2020
5681 Clouds 30 1013 79 10000 4.1 360 06:31 09.11.2020
5682 Rain 29 1011 74 10000 4.21 59 03:22 09.11.2020
5683 Clouds 26 1011 94 10000 2.6 30 01:43 09.11.2020
5684 Clouds 27 1011 88 10000 2.1 10 00:58 09.11.2020
5685 Clouds 27 1010 88 10000 1.5 310 23:53 08.11.2020
5686 Clouds 27 1010 88 10000 1.5 310 23:30 08.11.2020
5687 Clouds 26 1011 94 10000 1.5 300 22:46 08.11.2020
5688 Clouds 26 1011 94 10000 1.5 290 22:23 08.11.2020
5689 Clouds 26 1011 94 10000 1.5 290 21:55 08.11.2020
5690 Clouds 26 1011 94 10000 1.5 290 21:55 08.11.2020
5691 Clouds 26 1011 94 10000 1.5 290 21:37 08.11.2020
5692 Clouds 28 1011 75 10000 2.84 65 21:18 08.11.2020
5693 Clouds 26 1013 94 9000 4.6 110 20:39 08.11.2020
5694 Clouds 26 1013 94 9000 4.6 110 20:39 08.11.2020
5695 Clouds 26 1013 94 9000 4.6 110 20:39 08.11.2020
5696 Clouds 26 1013 94 9000 4.6 110 20:21 08.11.2020
5697 Clouds 26 1013 94 9000 4.6 110 20:20 08.11.2020
5698 Rain 26 1013 94 9000 4.6 110 19:56 08.11.2020
5699 Rain 26 1013 94 9000 4.6 110 19:37 08.11.2020
5700 Rain 29 1013 83 10000 1.5 360 19:19 08.11.2020
5701 Rain 29 1013 83 10000 1.5 360 18:45 08.11.2020
5702 Rain 29 1013 83 10000 1.5 340 18:21 08.11.2020
5703 Clouds 29 1013 83 10000 1.5 340 17:57 08.11.2020
5704 Rain 29 1013 83 10000 1.5 340 17:37 08.11.2020
5705 Rain 29 1012 83 10000 2.1 350 17:18 08.11.2020
5706 Rain 29 1012 83 10000 2.1 350 16:46 08.11.2020
5707 Rain 29 1011 83 10000 2.1 200 16:21 08.11.2020
5708 Drizzle 29 1011 83 10000 2.1 200 15:50 08.11.2020
5709 Drizzle 29 1011 83 10000 2.1 200 15:28 08.11.2020
5710 Clouds 30 1011 79 10000 2.1 180 14:59 08.11.2020
5711 Clouds 30 1011 79 10000 2.1 180 14:38 08.11.2020
5712 Clouds 30 1010 79 10000 2.1 140 14:20 08.11.2020
5713 Clouds 30 1010 79 10000 2.1 140 13:41 08.11.2020
5714 Clouds 31 1010 74 10000 3.1 100 13:20 08.11.2020
5715 Clear 29 1010 66 10000 1.79 83 12:42 08.11.2020
5716 Clouds 32 1010 70 10000 2.6 120 12:23 08.11.2020
5717 Clouds 32 1010 70 10000 2.6 120 11:56 08.11.2020
5718 Clouds 32 1010 70 10000 2.6 120 11:38 08.11.2020
5719 Clouds 32 1011 70 10000 3.6 100 11:20 08.11.2020
5720 Clear 29 1010 68 10000 2.03 96 10:49 08.11.2020
5721 Clouds 32 1011 70 10000 3.1 100 10:18 08.11.2020
5722 Clear 29 1010 68 10000 2.3 97 09:42 08.11.2020
5723 Clouds 32 1012 70 10000 4.6 100 09:24 08.11.2020
5724 Clear 29 1011 69 10000 2.26 106 08:49 08.11.2020
5725 Clear 29 1011 69 10000 2.26 106 08:30 08.11.2020
5726 Clear 29 1012 70 10000 2.39 117 07:53 08.11.2020
5727 Clouds 31 1013 74 10000 5.1 100 07:33 08.11.2020
5728 Clouds 29 1013 70 10000 2.68 124 06:50 08.11.2020
5729 Clouds 29 1013 71 10000 2.96 145 05:55 08.11.2020
5730 Rain 29 1013 71 10000 3.01 142 05:26 08.11.2020
5731 Clouds 29 1013 71 10000 2.85 136 03:39 08.11.2020
5732 Clouds 29 1011 70 10000 2.43 142 01:49 08.11.2020
5733 Clouds 29 1011 70 10000 2.43 147 01:18 08.11.2020
5734 Rain 29 1010 70 10000 1.81 162 00:23 08.11.2020
5735 Clouds 29 1010 70 10000 1.81 162 23:43 07.11.2020
5736 Rain 29 1010 70 10000 2.31 158 23:24 07.11.2020
5737 Clouds 29 1010 70 10000 2.31 158 22:41 07.11.2020
5738 Rain 29 1010 70 10000 2.39 149 22:21 07.11.2020
5739 Rain 29 1010 70 10000 2.39 149 21:45 07.11.2020
5740 Rain 29 1010 71 10000 2.28 123 21:22 07.11.2020
5741 Rain 29 1010 71 10000 2.28 123 20:50 07.11.2020
5742 Clouds 28 1012 88 10000 2.1 120 20:32 07.11.2020
5743 Clouds 28 1012 88 10000 2.1 120 19:57 07.11.2020
5744 Clouds 28 1012 88 10000 2.1 120 19:39 07.11.2020
5745 Clouds 28 1013 83 10000 2.1 130 19:19 07.11.2020
5746 Clouds 28 1013 83 10000 2.1 130 18:38 07.11.2020
5747 Clouds 28 1013 83 10000 2.1 110 18:20 07.11.2020
5748 Clouds 28 1013 83 10000 2.1 110 17:43 07.11.2020
5749 Clouds 28 1013 83 10000 2.1 110 17:43 07.11.2020
5750 Clouds 28 1012 83 10000 3.1 110 17:23 07.11.2020
5751 Clouds 28 1012 83 10000 3.1 110 16:42 07.11.2020
5752 Clouds 28 1012 83 10000 3.1 110 16:23 07.11.2020
5753 Clouds 28 1011 83 10000 3.1 110 15:45 07.11.2020
5754 Clouds 28 1010 78 10000 3.1 130 15:23 07.11.2020
5755 Clouds 28 1010 78 10000 3.1 130 14:55 07.11.2020
5756 Clouds 28 1010 78 10000 3.1 130 14:37 07.11.2020
5757 Clouds 28 1010 78 10000 6.2 120 14:18 07.11.2020
5758 Rain 28 1010 78 10000 6.2 120 13:39 07.11.2020
5759 Rain 28 1010 83 10000 5.7 80 13:21 07.11.2020
5760 Clouds 28 1010 83 10000 5.7 80 12:33 07.11.2020
5761 Clouds 29 1009 83 10000 2.6 110 11:45 07.11.2020
5762 Clouds 29 1009 83 10000 2.6 110 11:25 07.11.2020
5763 Clouds 29 1010 83 10000 4.1 90 10:56 07.11.2020
5764 Rain 29 1010 83 10000 4.1 90 10:38 07.11.2020
5765 Rain 29 1010 79 10000 3.6 120 10:20 07.11.2020
5766 Rain 29 1010 79 10000 3.6 120 09:47 07.11.2020
5767 Rain 31 1011 74 10000 7.7 110 09:21 07.11.2020
5768 Rain 31 1011 74 10000 7.7 110 08:43 07.11.2020
5769 Rain 28 1012 88 8000 4.1 60 08:22 07.11.2020
5770 Rain 28 1012 88 8000 4.1 60 07:37 07.11.2020
5771 Clouds 31 1012 79 9000 3.6 70 06:48 07.11.2020
5772 Clouds 29 1013 83 10000 3.1 60 05:40 07.11.2020
5773 Clouds 29 1012 83 9000 4.1 50 03:25 07.11.2020
5774 Clouds 28 1011 88 9000 3.6 30 02:28 07.11.2020
5775 Clouds 28 1010 88 9000 3.1 60 01:26 07.11.2020
5776 Clouds 28 1009 83 9000 3.6 50 00:29 07.11.2020
5777 Clouds 28 1009 88 9000 3.6 50 23:32 06.11.2020
5778 Clouds 28 1010 88 9000 4.1 60 22:46 06.11.2020
5779 Clouds 29 1010 79 9000 4.1 60 22:20 06.11.2020
5780 Clouds 29 1010 79 9000 4.1 60 21:59 06.11.2020
5781 Clouds 29 1010 79 9000 4.1 60 21:41 06.11.2020
5782 Clouds 29 1011 83 9000 3.6 60 21:19 06.11.2020
5783 Clouds 29 1011 83 9000 3.6 60 20:43 06.11.2020
5784 Clouds 29 1011 83 9000 4.1 60 20:20 06.11.2020
5785 Clouds 28 1011 76 10000 3.37 54 19:45 06.11.2020
5786 Clouds 29 1012 79 9000 4.1 60 19:27 06.11.2020
5787 Clouds 29 1012 79 9000 4.1 60 18:47 06.11.2020
5788 Clouds 29 1012 79 9000 4.1 60 18:28 06.11.2020
5789 Clouds 29 1012 83 9000 3.1 70 17:53 06.11.2020
5790 Clouds 29 1012 83 9000 3.1 70 17:35 06.11.2020
5791 Clouds 29 1011 83 9000 2.6 30 16:59 06.11.2020
5792 Clouds 29 1011 83 9000 2.6 30 16:39 06.11.2020
5793 Clouds 30 1011 74 9000 2.1 40 16:20 06.11.2020
5794 Clouds 30 1011 74 9000 2.1 40 15:41 06.11.2020
5795 Clouds 30 1010 74 9000 1.5 10 15:22 06.11.2020
5796 Clouds 30 1010 74 9000 1.5 10 14:41 06.11.2020
5797 Clouds 31 1009 74 9000 1.5 250 14:18 06.11.2020
5798 Clouds 31 1009 74 9000 1.5 250 14:18 06.11.2020
5799 Clouds 31 1009 74 9000 1.5 250 13:42 06.11.2020
5800 Clouds 30 1009 74 8000 1.5 60 13:19 06.11.2020
5801 Clouds 30 1009 74 8000 1.5 60 12:42 06.11.2020
5802 Clouds 31 1009 74 8000 2.1 20 12:22 06.11.2020
5803 Clouds 31 1009 74 8000 2.1 20 11:38 06.11.2020
5804 Clouds 31 1010 70 7000 2.1 50 10:59 06.11.2020
5805 Clouds 31 1010 70 7000 2.1 50 10:36 06.11.2020
5806 Clouds 32 1010 70 7000 2.6 90 09:58 06.11.2020
5807 Clouds 32 1010 70 7000 2.6 90 09:38 06.11.2020
5808 Clouds 32 1011 66 7000 2.1 80 09:20 06.11.2020
5809 Clouds 32 1011 66 7000 2.1 80 08:47 06.11.2020
5810 Clouds 32 1011 66 7000 2.1 80 08:28 06.11.2020
5811 Clouds 31 1012 74 7000 2.6 90 07:44 06.11.2020
5812 Clouds 31 1012 74 7000 2.6 100 07:21 06.11.2020
5813 Clouds 31 1012 74 7000 2.6 100 06:41 06.11.2020
5814 Clouds 31 1012 74 7000 2.1 100 05:39 06.11.2020
5815 Clouds 27 1010 88 9000 2.73 58 02:52 06.11.2020
5816 Clouds 27 1009 88 9000 2.54 40 00:34 06.11.2020
5817 Clouds 28 1010 88 9000 2.43 40 23:56 05.11.2020
5818 Clouds 28 1010 88 9000 2.13 42 23:26 05.11.2020
5819 Clouds 28 1010 88 9000 1 0 22:48 05.11.2020
5820 Clouds 28 1011 88 9000 1.5 70 22:26 05.11.2020
5821 Clouds 28 1011 88 9000 1.5 70 21:57 05.11.2020
5822 Clouds 28 1011 88 9000 1.5 70 21:38 05.11.2020
5823 Clouds 28 1011 88 9000 1.5 80 21:19 05.11.2020
5824 Clouds 28 1011 88 9000 1.5 80 20:44 05.11.2020
5825 Clouds 28 1011 88 9000 1.5 80 20:24 05.11.2020
5826 Clouds 29 1012 83 9000 1.5 80 19:57 05.11.2020
5827 Clouds 29 1012 83 9000 1.5 80 19:38 05.11.2020
5828 Clouds 29 1012 83 9000 1.5 90 19:18 05.11.2020
5829 Clouds 29 1012 83 9000 1.5 90 18:41 05.11.2020
5830 Clouds 29 1012 83 9000 1 0 18:22 05.11.2020
5831 Clouds 29 1012 83 9000 1 0 17:46 05.11.2020
5832 Clouds 29 1011 79 9000 1.5 160 17:25 05.11.2020
5833 Clouds 29 1011 79 9000 1.5 160 16:49 05.11.2020
5834 Clouds 29 1011 79 9000 1.5 160 16:28 05.11.2020
5835 Clouds 29 1010 79 10000 1.5 260 15:55 05.11.2020
5836 Clouds 29 1010 79 10000 1.5 260 15:36 05.11.2020
5837 Clouds 30 1010 74 10000 2.6 280 15:18 05.11.2020
5838 Clouds 30 1010 74 10000 2.6 280 14:42 05.11.2020
5839 Clouds 31 1009 70 10000 2.6 280 14:23 05.11.2020
5840 Clouds 31 1009 70 10000 2.6 280 13:40 05.11.2020
5841 Clouds 31 1008 70 10000 2.6 280 13:18 05.11.2020
5842 Clouds 31 1008 70 10000 2.6 280 12:42 05.11.2020
5843 Clouds 32 1009 66 10000 2.1 300 12:23 05.11.2020
5844 Clouds 32 1009 66 10000 2.1 300 11:43 05.11.2020
5845 Clouds 32 1009 70 10000 3.1 300 11:23 05.11.2020
5846 Clouds 32 1009 70 10000 3.1 300 10:49 05.11.2020
5847 Clouds 32 1009 70 10000 3.1 300 10:28 05.11.2020
5848 Clouds 32 1009 70 10000 3.1 300 10:28 05.11.2020
5849 Clouds 32 1010 70 10000 2.6 300 09:50 05.11.2020
5850 Clouds 32 1010 70 10000 2.6 300 09:25 05.11.2020
5851 Clouds 32 1011 70 10000 2.6 270 08:55 05.11.2020
5852 Clouds 32 1011 70 10000 2.6 270 08:36 05.11.2020
5853 Clouds 32 1011 70 10000 2.6 260 08:18 05.11.2020
5854 Clouds 32 1011 70 10000 2.6 260 07:28 05.11.2020
5855 Clouds 31 1012 74 10000 2.6 250 06:50 05.11.2020
5856 Clouds 31 1012 74 10000 2.6 250 06:32 05.11.2020
5857 Clouds 29 1011 83 10000 2.1 190 03:45 05.11.2020
5858 Clouds 27 1009 88 10000 2.6 160 00:38 05.11.2020
5859 Clouds 28 1009 70 10000 0.9 161 00:18 05.11.2020
5860 Thunderstorm 28 1009 83 9000 2.1 170 23:36 04.11.2020
5861 Thunderstorm 28 1009 83 9000 2.1 170 23:18 04.11.2020
5862 Thunderstorm 28 1009 83 9000 2.1 170 22:41 04.11.2020
5863 Clouds 28 1009 69 10000 0.52 206 22:21 04.11.2020
5864 Clouds 28 1009 69 10000 0.52 206 21:47 04.11.2020
5865 Clouds 28 1010 88 9000 2.1 200 21:27 04.11.2020
5866 Clouds 28 1010 88 9000 2.1 200 20:54 04.11.2020
5867 Clouds 28 1010 88 9000 2.1 200 20:35 04.11.2020
5868 Clouds 29 1011 83 9000 1.5 230 19:59 04.11.2020
5869 Clouds 28 1010 68 10000 0.65 213 19:40 04.11.2020
5870 Clouds 29 1011 83 9000 2.1 230 19:22 04.11.2020
5871 Clouds 29 1011 83 9000 2.1 230 18:41 04.11.2020
5872 Clouds 29 1011 83 9000 2.1 230 18:22 04.11.2020
5873 Clouds 29 1011 83 9000 2.1 230 17:47 04.11.2020
5874 Clouds 29 1011 83 9000 2.1 230 17:27 04.11.2020
5875 Clouds 29 1010 79 9000 2.6 230 16:56 04.11.2020
5876 Clouds 29 1010 79 9000 2.6 230 16:36 04.11.2020
5877 Clouds 29 1009 79 9000 2.1 240 16:18 04.11.2020
5878 Clouds 29 1009 79 9000 2.1 240 15:41 04.11.2020
5879 Clouds 30 1009 74 9000 3.1 220 15:23 04.11.2020
5880 Clouds 30 1009 74 9000 3.1 220 14:45 04.11.2020
5881 Clouds 30 1009 74 9000 3.1 220 14:24 04.11.2020
5882 Clouds 30 1008 74 9000 2.6 220 13:51 04.11.2020
5883 Clouds 31 1008 70 9000 3.1 250 13:22 04.11.2020
5884 Clouds 31 1008 70 9000 3.1 250 12:58 04.11.2020
5885 Clouds 31 1008 70 9000 3.1 250 12:40 04.11.2020
5886 Clouds 30 1008 74 9000 3.1 250 12:22 04.11.2020
5887 Clouds 30 1008 74 9000 3.1 250 11:45 04.11.2020
5888 Clouds 30 1009 74 9000 2.1 240 11:21 04.11.2020
5889 Clouds 30 1009 74 9000 2.1 240 10:49 04.11.2020
5890 Clouds 30 1009 74 9000 2.1 240 10:24 04.11.2020
5891 Clouds 30 1010 74 9000 2.1 240 09:55 04.11.2020
5892 Clouds 30 1010 74 9000 2.1 240 09:28 04.11.2020
5893 Clouds 31 1011 74 9000 2.6 210 08:49 04.11.2020
5894 Clouds 31 1011 74 9000 2.6 210 08:23 04.11.2020
5895 Clouds 31 1012 74 9000 3.6 200 07:57 04.11.2020
5896 Clouds 30 1012 79 9000 1.5 230 07:31 04.11.2020
5897 Clouds 30 1012 79 9000 1.5 230 06:59 04.11.2020
5898 Clouds 30 1012 79 9000 1.5 230 06:39 04.11.2020
5899 Clouds 29 1012 79 9000 2.1 250 04:59 04.11.2020
5900 Clouds 28 1011 83 9000 1.5 240 02:31 04.11.2020
5901 Clouds 28 1010 83 9000 1.5 240 01:38 04.11.2020
5902 Clouds 28 1009 83 9000 2.6 260 23:59 03.11.2020
5903 Clouds 28 1009 83 9000 2.6 260 23:26 03.11.2020
5904 Clouds 28 1010 83 9000 2.6 270 22:55 03.11.2020
5905 Clouds 28 1010 83 9000 2.6 270 22:37 03.11.2020
5906 Clouds 29 1011 79 9000 2.1 270 22:18 03.11.2020
5907 Clouds 29 1011 79 9000 2.1 270 21:41 03.11.2020
5908 Clouds 29 1011 79 9000 2.1 270 21:23 03.11.2020
5909 Clouds 29 1012 79 9000 2.1 270 20:48 03.11.2020
5910 Clouds 29 1012 79 9000 2.1 270 20:27 03.11.2020
5911 Clouds 29 1012 79 9000 2.6 250 19:55 03.11.2020
5912 Clouds 29 1012 79 9000 2.6 250 19:37 03.11.2020
5913 Clouds 29 1012 79 9000 3.6 250 19:18 03.11.2020
5914 Clouds 29 1012 79 9000 3.6 250 18:40 03.11.2020
5915 Clouds 29 1012 79 9000 3.6 250 18:19 03.11.2020
5916 Clouds 29 1012 79 9000 3.6 250 17:45 03.11.2020
5917 Clouds 29 1012 74 9000 3.1 250 17:27 03.11.2020
5918 Clouds 29 1012 74 9000 3.1 250 16:51 03.11.2020
5919 Clouds 29 1012 74 9000 3.1 250 16:30 03.11.2020
5920 Clouds 29 1011 74 9000 3.6 250 15:53 03.11.2020
5921 Clouds 29 1011 74 9000 3.6 250 15:30 03.11.2020
5922 Clouds 30 1010 70 9000 4.1 250 14:57 03.11.2020
5923 Clouds 30 1010 70 9000 4.1 250 14:38 03.11.2020
5924 Clouds 30 1010 74 9000 3.6 250 14:19 03.11.2020
5925 Clouds 30 1010 74 9000 3.6 250 13:40 03.11.2020
5926 Clouds 31 1009 74 9000 4.1 250 13:21 03.11.2020
5927 Clear 29 1010 66 10000 1.78 302 12:44 03.11.2020
5928 Clouds 31 1009 74 9000 2.6 260 12:21 03.11.2020
5929 Clouds 31 1009 74 9000 2.6 260 11:46 03.11.2020
5930 Clouds 31 1009 74 9000 2.6 260 11:23 03.11.2020
5931 Clouds 31 1010 74 9000 3.1 270 10:55 03.11.2020
5932 Clouds 31 1010 74 9000 3.1 270 10:37 03.11.2020
5933 Clouds 31 1011 74 9000 3.1 280 10:18 03.11.2020
5934 Clouds 31 1011 74 9000 3.1 280 09:44 03.11.2020
5935 Clouds 31 1012 74 9000 3.1 260 09:22 03.11.2020
5936 Clouds 31 1012 74 9000 3.1 260 08:48 03.11.2020
5937 Clouds 31 1012 74 9000 3.1 260 08:29 03.11.2020
5938 Clouds 31 1012 70 9000 3.1 270 07:41 03.11.2020
5939 Clouds 31 1013 70 9000 3.1 280 07:19 03.11.2020
5940 Clouds 31 1013 70 9000 2.6 270 06:21 03.11.2020
5941 Clouds 30 1012 74 9000 2.1 280 04:34 03.11.2020
5942 Clouds 28 1010 83 10000 2.1 290 00:44 03.11.2020
5943 Clouds 28 1010 83 10000 2.6 290 00:20 03.11.2020
5944 Clouds 28 1010 83 10000 2.6 290 23:43 02.11.2020
5945 Clouds 28 1010 83 10000 2.6 280 23:20 02.11.2020
5946 Clouds 28 1010 83 10000 2.6 280 22:43 02.11.2020
5947 Clouds 28 1010 83 10000 2.6 280 22:24 02.11.2020
5948 Clouds 29 1011 79 10000 2.6 310 21:39 02.11.2020
5949 Clouds 29 1012 79 10000 2.1 310 21:21 02.11.2020
5950 Clouds 29 1012 79 10000 2.1 310 20:55 02.11.2020
5951 Clouds 29 1012 79 10000 2.1 310 20:37 02.11.2020
5952 Clouds 29 1012 79 10000 3.1 300 20:18 02.11.2020
5953 Clouds 29 1012 79 10000 3.1 300 19:43 02.11.2020
5954 Clouds 29 1012 79 10000 3.1 300 19:24 02.11.2020
5955 Clouds 29 1013 83 10000 1.5 320 18:43 02.11.2020
5956 Clouds 29 1013 83 10000 1.5 320 18:43 02.11.2020
5957 Clouds 29 1013 83 10000 2.1 300 18:21 02.11.2020
5958 Clouds 29 1013 83 10000 2.1 300 17:58 02.11.2020
5959 Clouds 29 1013 83 10000 2.1 300 17:40 02.11.2020
5960 Clouds 29 1011 83 10000 4.1 300 17:20 02.11.2020
5961 Clouds 29 1011 83 10000 4.1 300 16:42 02.11.2020
5962 Clouds 29 1011 83 9000 4.1 300 16:23 02.11.2020
5963 Clouds 29 1011 83 9000 4.1 300 15:42 02.11.2020
5964 Clouds 29 1011 83 9000 4.1 300 15:24 02.11.2020
5965 Clouds 29 1010 83 9000 3.1 280 14:57 02.11.2020
5966 Clouds 30 1010 79 10000 3.6 280 14:21 02.11.2020
5967 Clouds 30 1010 79 10000 3.6 280 13:58 02.11.2020
5968 Clouds 30 1010 79 10000 3.6 280 13:40 02.11.2020
5969 Clouds 30 1009 79 10000 2.6 260 13:21 02.11.2020
5970 Clouds 30 1009 74 10000 4.1 280 12:33 02.11.2020
5971 Clouds 30 1009 74 10000 4.1 280 11:59 02.11.2020
5972 Clouds 30 1009 74 10000 4.1 280 11:39 02.11.2020
5973 Clouds 31 1010 70 10000 4.6 270 11:19 02.11.2020
5974 Clouds 31 1010 70 10000 4.6 270 10:43 02.11.2020
5975 Clouds 32 1011 70 10000 3.6 260 10:22 02.11.2020
5976 Clouds 32 1011 70 10000 3.6 260 09:51 02.11.2020
5977 Clouds 32 1011 70 10000 3.6 260 09:24 02.11.2020
5978 Clouds 31 1012 70 10000 3.1 270 08:46 02.11.2020
5979 Clouds 31 1012 70 10000 3.1 270 08:26 02.11.2020
5980 Clouds 31 1013 70 10000 3.1 270 07:53 02.11.2020
5981 Clouds 31 1013 70 10000 3.1 270 07:25 02.11.2020
5982 Clouds 31 1013 70 10000 2.1 270 06:36 02.11.2020
5983 Clouds 29 1012 79 10000 2.1 280 03:55 02.11.2020
5984 Clouds 28 1010 78 10000 2.6 290 01:25 02.11.2020
5985 Clouds 28 1010 83 10000 2.1 270 00:36 02.11.2020
5986 Clouds 28 1010 83 10000 2.6 280 23:45 01.11.2020
5987 Clouds 28 1010 83 10000 2.6 280 23:25 01.11.2020
5988 Clouds 28 1010 83 10000 3.1 270 22:48 01.11.2020
5989 Clouds 28 1010 83 10000 3.1 270 22:27 01.11.2020
5990 Clouds 28 1010 83 10000 3.1 270 22:27 01.11.2020
5991 Clouds 28 1011 83 10000 2.6 280 21:59 01.11.2020
5992 Clouds 28 1011 83 10000 2.6 280 21:41 01.11.2020
5993 Clouds 28 1011 83 10000 2.6 280 21:23 01.11.2020
5994 Clouds 28 1012 83 10000 2.6 280 20:43 01.11.2020
5995 Clouds 28 1012 83 10000 2.6 280 20:25 01.11.2020
5996 Clouds 28 1012 71 10000 2.64 291 19:45 01.11.2020
5997 Clouds 29 1012 74 10000 3.1 290 19:26 01.11.2020
5998 Clouds 29 1012 74 10000 3.1 290 18:55 01.11.2020
5999 Clouds 29 1012 74 10000 3.1 290 18:37 01.11.2020
6000 Clouds 29 1012 79 10000 3.1 270 18:18 01.11.2020
6001 Clouds 29 1012 79 10000 3.1 270 17:43 01.11.2020
6002 Clouds 29 1012 79 10000 3.1 270 17:25 01.11.2020
6003 Clouds 29 1011 74 10000 3.1 260 16:42 01.11.2020
6004 Clouds 29 1011 74 10000 3.1 260 16:24 01.11.2020
6005 Clouds 29 1011 74 10000 2.1 270 15:55 01.11.2020
6006 Clouds 30 1010 70 10000 2.6 270 15:37 01.11.2020
6007 Clouds 30 1010 70 10000 2.6 270 15:18 01.11.2020
6008 Clouds 30 1010 70 10000 2.6 270 14:45 01.11.2020
6009 Clouds 30 1009 74 10000 2.1 270 14:22 01.11.2020
6010 Clouds 30 1009 74 10000 2.1 270 13:50 01.11.2020
6011 Clouds 30 1009 74 10000 2.1 270 13:32 01.11.2020
6012 Clouds 31 1009 70 9000 3.1 270 12:58 01.11.2020
6013 Clouds 31 1009 70 9000 3.1 270 12:38 01.11.2020
6014 Clouds 31 1009 70 9000 3.1 260 12:18 01.11.2020
6015 Clouds 31 1009 70 9000 3.1 260 11:46 01.11.2020
6016 Clouds 31 1009 70 9000 2.6 280 11:18 01.11.2020
6017 Clouds 31 1009 70 9000 2.6 280 10:42 01.11.2020
6018 Clouds 31 1009 70 9000 2.6 280 10:23 01.11.2020
6019 Clouds 32 1010 66 9000 2.1 290 09:48 01.11.2020
6020 Clouds 32 1011 66 9000 2.1 290 08:55 01.11.2020
6021 Clouds 31 1012 70 9000 2.6 270 08:36 01.11.2020
6022 Clouds 31 1012 70 9000 2.6 270 07:50 01.11.2020
6023 Clouds 30 1013 74 10000 1.5 270 06:23 01.11.2020
6024 Clouds 27 1010 88 10000 1.5 330 01:58 01.11.2020
6025 Clouds 27 1010 88 10000 1.5 330 01:23 01.11.2020
6026 Clouds 28 1010 71 10000 2.99 342 23:42 31.10.2020
6027 Clouds 28 1010 83 10000 2.96 342 23:23 31.10.2020
6028 Clouds 28 1010 83 10000 2.96 342 22:44 31.10.2020
6029 Clouds 28 1010 83 10000 2.83 337 22:23 31.10.2020
6030 Clouds 28 1011 78 10000 0.5 0 21:46 31.10.2020
6031 Clouds 28 1012 83 8000 1.5 360 21:21 31.10.2020
6032 Clouds 28 1012 83 8000 1.5 360 20:41 31.10.2020
6033 Clouds 28 1012 83 10000 1.5 360 20:20 31.10.2020
6034 Clear 28 1011 72 10000 2.31 331 19:44 31.10.2020
6035 Clouds 29 1012 79 10000 1 0 19:25 31.10.2020
6036 Clouds 29 1012 79 10000 1 0 18:59 31.10.2020
6037 Clouds 29 1012 79 10000 1 0 18:41 31.10.2020
6038 Clouds 29 1011 79 10000 1.5 340 17:47 31.10.2020
6039 Clouds 29 1011 79 10000 1.5 340 17:27 31.10.2020
6040 Clouds 29 1011 79 10000 1.5 300 16:56 31.10.2020
6041 Clouds 29 1011 79 10000 1.5 300 16:37 31.10.2020
6042 Clouds 29 1010 79 10000 1.5 300 15:56 31.10.2020
6043 Clouds 29 1010 79 10000 1.5 300 15:26 31.10.2020
6044 Clouds 29 1009 79 10000 1.5 300 14:58 31.10.2020
6045 Clouds 29 1009 79 10000 1.5 300 14:37 31.10.2020
6046 Clouds 30 1008 74 10000 2.1 300 14:18 31.10.2020
6047 Clouds 29 1010 67 10000 2.4 293 13:43 31.10.2020
6048 Clouds 30 1008 74 10000 2.6 320 13:20 31.10.2020
6049 Clouds 30 1008 74 10000 2.6 320 12:27 31.10.2020
6050 Clouds 31 1008 70 10000 2.6 310 11:47 31.10.2020
6051 Clouds 31 1008 70 10000 2.6 310 11:28 31.10.2020
6052 Clouds 31 1009 74 10000 2.6 340 10:54 31.10.2020
6053 Clouds 31 1009 74 10000 2.6 340 10:33 31.10.2020
6054 Clouds 31 1009 74 10000 2.6 330 09:42 31.10.2020
6055 Clouds 30 1010 74 10000 2.6 310 09:20 31.10.2020
6056 Clouds 30 1010 74 10000 2.6 310 08:28 31.10.2020
6057 Clouds 28 1010 69 10000 2.62 325 07:49 31.10.2020
6058 Clouds 31 1012 74 10000 2.1 310 07:26 31.10.2020
6059 Clouds 31 1012 74 10000 2.1 310 06:38 31.10.2020
6060 Clouds 28 1011 83 10000 2.6 320 03:50 31.10.2020
6061 Clouds 28 1011 83 10000 3.1 320 03:21 31.10.2020
6062 Clouds 28 1010 88 10000 3.1 300 01:29 31.10.2020
6063 Clouds 28 1010 83 10000 3.6 290 00:46 31.10.2020
6064 Clouds 28 1009 76 10000 4.19 326 23:50 30.10.2020
6065 Clouds 28 1010 83 10000 1.5 310 23:24 30.10.2020
6066 Clouds 28 1010 83 10000 1.5 310 22:45 30.10.2020
6067 Clouds 28 1010 83 10000 1.5 310 22:24 30.10.2020
6068 Clouds 28 1010 83 10000 3.1 290 21:55 30.10.2020
6069 Clouds 28 1010 83 10000 3.1 290 21:37 30.10.2020
6070 Clouds 28 1011 83 10000 3.6 280 21:18 30.10.2020
6071 Clouds 28 1011 83 10000 3.6 280 20:39 30.10.2020
6072 Clouds 28 1011 83 10000 4.1 290 20:20 30.10.2020
6073 Clouds 28 1011 75 10000 3.88 320 19:46 30.10.2020
6074 Clouds 28 1011 88 10000 3.1 290 19:19 30.10.2020
6075 Clouds 28 1011 88 10000 3.1 290 18:50 30.10.2020
6076 Clouds 28 1012 88 10000 3.6 290 18:28 30.10.2020
6077 Clouds 28 1012 88 10000 3.6 290 17:49 30.10.2020
6078 Clouds 29 1011 79 10000 4.1 290 17:24 30.10.2020
6079 Clouds 29 1011 79 10000 4.1 290 16:57 30.10.2020
6080 Clouds 28 1012 75 10000 3.55 305 16:37 30.10.2020
6081 Rain 28 1011 75 10000 3.93 303 16:19 30.10.2020
6082 Clouds 28 1011 75 10000 3.93 303 15:40 30.10.2020
6083 Clouds 28 1010 75 10000 4.16 301 15:20 30.10.2020
6084 Clouds 28 1010 75 10000 4.16 301 14:44 30.10.2020
6085 Clouds 29 1010 74 10000 4.31 299 14:25 30.10.2020
6086 Clouds 29 1010 74 10000 4.31 299 13:46 30.10.2020
6087 Clouds 29 1009 73 10000 4.24 299 13:22 30.10.2020
6088 Clouds 29 1009 73 10000 4.24 299 12:54 30.10.2020
6089 Clouds 28 1008 73 10000 4.57 295 12:23 30.10.2020
6090 Clouds 28 1008 73 10000 4.57 295 11:56 30.10.2020
6091 Clouds 28 1008 73 10000 4.67 296 11:23 30.10.2020
6092 Clouds 28 1008 73 10000 4.67 296 10:56 30.10.2020
6093 Clouds 28 1008 73 10000 4.67 296 10:37 30.10.2020
6094 Clouds 28 1009 73 10000 4.76 299 10:19 30.10.2020
6095 Clouds 28 1009 73 10000 4.76 299 09:43 30.10.2020
6096 Clouds 28 1009 73 10000 4.75 294 09:20 30.10.2020
6097 Clouds 28 1009 72 10000 4.56 297 08:36 30.10.2020
6098 Clouds 28 1010 73 10000 4.39 301 08:18 30.10.2020
6099 Clouds 28 1010 73 10000 4.39 301 08:18 30.10.2020
6100 Clouds 28 1010 73 10000 4.39 301 07:45 30.10.2020
6101 Clouds 28 1011 74 10000 4.54 304 07:26 30.10.2020
6102 Clouds 28 1012 75 10000 4.84 304 06:20 30.10.2020
6103 Rain 28 1012 74 10000 4.17 301 04:23 30.10.2020
6104 Clouds 28 1011 75 10000 3.95 287 01:39 30.10.2020
6105 Clouds 28 1010 75 10000 4.76 280 00:31 30.10.2020
6106 Clouds 28 1009 75 10000 4.7 274 23:47 29.10.2020
6107 Rain 28 1009 76 10000 4.64 271 23:29 29.10.2020
6108 Clouds 28 1009 76 10000 4.64 271 22:48 29.10.2020
6109 Rain 28 1009 77 10000 4.76 275 22:27 29.10.2020
6110 Clouds 28 1009 77 10000 4.76 275 21:51 29.10.2020
6111 Rain 28 1010 76 10000 3.98 283 21:26 29.10.2020
6112 Clouds 28 1010 76 10000 3.98 283 20:59 29.10.2020
6113 Clouds 28 1010 76 10000 3.98 283 20:39 29.10.2020
6114 Clouds 28 1011 76 10000 3.42 292 20:18 29.10.2020
6115 Clouds 28 1011 76 10000 3.42 292 19:39 29.10.2020
6116 Rain 28 1012 77 10000 4.42 289 19:21 29.10.2020
6117 Clouds 28 1012 77 10000 4.42 289 18:46 29.10.2020
6118 Rain 28 1012 77 10000 4.69 287 18:26 29.10.2020
6119 Clouds 28 1012 77 10000 4.69 287 17:43 29.10.2020
6120 Rain 28 1011 76 10000 4.29 288 17:24 29.10.2020
6121 Clouds 28 1011 76 10000 4.29 288 16:58 29.10.2020
6122 Clouds 28 1011 76 10000 4.29 288 16:37 29.10.2020
6123 Clouds 28 1011 76 10000 4.88 287 16:18 29.10.2020
6124 Rain 28 1011 76 10000 4.88 287 15:41 29.10.2020
6125 Rain 28 1010 76 10000 5.13 287 15:22 29.10.2020
6126 Rain 28 1010 76 10000 5.13 287 14:59 29.10.2020
6127 Clouds 28 1010 76 10000 5.13 287 14:40 29.10.2020
6128 Rain 28 1010 77 10000 5.69 285 14:20 29.10.2020
6129 Clouds 28 1010 77 10000 5.69 285 13:45 29.10.2020
6130 Rain 28 1009 77 10000 5.55 283 13:26 29.10.2020
6131 Clouds 28 1009 77 10000 6.42 276 12:43 29.10.2020
6132 Rain 28 1008 76 10000 5.94 276 12:19 29.10.2020
6133 Rain 28 1008 76 10000 5.94 276 11:49 29.10.2020
6134 Rain 28 1008 76 10000 5.42 279 11:26 29.10.2020
6135 Rain 28 1008 76 10000 5.42 279 10:58 29.10.2020
6136 Clouds 28 1008 76 10000 5.42 279 10:36 29.10.2020
6137 Rain 28 1009 76 10000 5.38 281 10:18 29.10.2020
6138 Clouds 28 1009 76 10000 5.38 281 09:46 29.10.2020
6139 Rain 28 1009 76 10000 5.44 284 09:20 29.10.2020
6140 Clouds 28 1009 76 10000 5.44 284 08:40 29.10.2020
6141 Clouds 28 1010 76 10000 5.01 284 08:19 29.10.2020
6142 Clouds 28 1010 76 10000 5.01 284 07:48 29.10.2020
6143 Clouds 28 1012 76 10000 4.86 282 06:58 29.10.2020
6144 Clouds 28 1012 75 10000 4.27 286 06:24 29.10.2020
6145 Clouds 28 1012 75 10000 4.31 284 04:47 29.10.2020
6146 Rain 28 1010 75 10000 4.98 288 02:18 29.10.2020
6147 Clouds 28 1009 75 10000 5.44 288 00:38 29.10.2020
6148 Rain 28 1009 75 10000 5.38 282 00:18 29.10.2020
6149 Rain 28 1009 75 10000 4.67 283 23:23 28.10.2020
6150 Clouds 28 1009 75 10000 4.67 283 22:59 28.10.2020
6151 Clouds 28 1009 75 10000 4.67 283 22:41 28.10.2020
6152 Rain 28 1009 75 10000 5 285 22:22 28.10.2020
6153 Clouds 28 1009 75 10000 5 285 21:44 28.10.2020
6154 Rain 28 1010 74 10000 5.24 284 21:25 28.10.2020
6155 Clouds 28 1010 74 10000 5.24 284 20:43 28.10.2020
6156 Clouds 28 1012 78 10000 6.2 300 20:23 28.10.2020
6157 Clouds 28 1012 78 10000 6.2 300 19:53 28.10.2020
6158 Clouds 28 1011 74 10000 5.06 288 19:31 28.10.2020
6159 Clouds 28 1012 74 10000 4.89 287 18:52 28.10.2020
6160 Rain 28 1012 76 10000 5.86 280 18:22 28.10.2020
6161 Clouds 28 1012 76 10000 5.86 280 17:59 28.10.2020
6162 Clouds 28 1012 76 10000 5.86 280 17:41 28.10.2020
6163 Rain 28 1012 76 10000 5.79 276 17:21 28.10.2020
6164 Clouds 28 1012 76 10000 5.79 276 16:47 28.10.2020
6165 Rain 28 1011 76 10000 6.06 274 16:28 28.10.2020
6166 Clouds 28 1011 76 10000 6.06 274 15:41 28.10.2020
6167 Rain 28 1011 75 10000 5.88 274 15:19 28.10.2020
6168 Clouds 28 1011 75 10000 5.88 274 14:46 28.10.2020
6169 Clouds 29 1009 79 10000 2.1 330 14:27 28.10.2020
6170 Clouds 28 1009 75 10000 6.25 274 12:59 28.10.2020
6171 Clouds 28 1009 75 10000 6.64 273 12:36 28.10.2020
6172 Rain 28 1008 75 10000 6.7 273 12:18 28.10.2020
6173 Clouds 28 1008 75 10000 6.7 273 11:42 28.10.2020
6174 Rain 28 1009 74 10000 6.71 273 11:21 28.10.2020
6175 Clouds 28 1009 74 10000 6.71 273 10:53 28.10.2020
6176 Clouds 28 1009 74 10000 6.71 273 10:33 28.10.2020
6177 Clouds 28 1009 74 10000 6.45 270 09:56 28.10.2020
6178 Clouds 25 1012 100 2000 10.3 270 09:37 28.10.2020
6179 Clouds 25 1012 100 2000 10.3 270 09:19 28.10.2020
6180 Rain 28 1009 74 10000 6.08 264 08:43 28.10.2020
6181 Rain 28 1011 74 10000 5.93 261 08:23 28.10.2020
6182 Rain 28 1011 74 10000 5.93 261 07:44 28.10.2020
6183 Rain 28 1012 74 10000 5.78 263 07:26 28.10.2020
6184 Rain 28 1012 74 7089 5.26 267 06:40 28.10.2020
6185 Rain 28 1012 73 10000 4.56 272 05:48 28.10.2020
6186 Clouds 28 1012 74 10000 4.44 269 04:52 28.10.2020
6187 Rain 28 1012 75 10000 4.49 276 04:23 28.10.2020
6188 Rain 28 1010 77 7543 4.07 286 02:25 28.10.2020
6189 Clouds 28 1009 78 10000 5.31 278 00:51 28.10.2020
6190 Clouds 28 1009 77 10000 5.19 288 23:51 27.10.2020
6191 Rain 28 1008 78 10000 5.07 292 23:23 27.10.2020
6192 Clouds 28 1008 78 10000 5.07 292 22:55 27.10.2020
6193 Clouds 28 1008 78 10000 5.07 292 22:37 27.10.2020
6194 Rain 28 1009 78 10000 4.94 293 22:18 27.10.2020
6195 Clouds 28 1009 78 10000 4.94 293 21:54 27.10.2020
6196 Clouds 28 1009 78 10000 4.94 293 21:36 27.10.2020
6197 Rain 28 1010 77 10000 4.68 291 21:18 27.10.2020
6198 Clouds 28 1010 77 10000 4.68 291 20:39 27.10.2020
6199 Clouds 28 1010 77 10000 4.5 294 20:20 27.10.2020
6200 Clouds 28 1010 77 10000 4.5 294 19:39 27.10.2020
6201 Rain 28 1011 76 10000 4.57 300 19:20 27.10.2020
6202 Clouds 28 1011 76 10000 4.57 300 18:58 27.10.2020
6203 Clouds 29 1011 83 10000 3.6 320 18:39 27.10.2020
6204 Clouds 29 1011 83 10000 3.6 320 18:18 27.10.2020
6205 Clouds 28 1011 77 10000 3.38 315 17:42 27.10.2020
6206 Clouds 29 1010 79 10000 4.6 300 17:21 27.10.2020
6207 Clouds 29 1010 79 10000 4.6 300 17:21 27.10.2020
6208 Clouds 29 1010 79 10000 4.6 300 17:21 27.10.2020
6209 Clouds 29 1010 79 10000 4.6 300 17:21 27.10.2020
6210 Clouds 29 1010 79 10000 4.6 300 16:48 27.10.2020
6211 Clouds 29 1010 79 10000 4.6 300 16:25 27.10.2020
6212 Clouds 29 1010 79 10000 5.7 290 15:48 27.10.2020
6213 Clouds 29 1010 79 10000 5.7 290 15:30 27.10.2020
6214 Clouds 29 1009 83 10000 4.1 290 14:57 27.10.2020
6215 Clouds 29 1009 83 10000 4.1 290 14:39 27.10.2020
6216 Clouds 30 1008 74 10000 4.6 290 14:20 27.10.2020
6217 Clouds 30 1008 74 10000 4.6 290 13:33 27.10.2020
6218 Clouds 30 1008 74 10000 4.6 300 12:59 27.10.2020
6219 Clouds 30 1008 74 10000 4.6 300 12:39 27.10.2020
6220 Clouds 30 1008 70 10000 4.6 300 12:20 27.10.2020
6221 Clouds 30 1008 70 10000 4.6 300 11:42 27.10.2020
6222 Clouds 31 1008 74 10000 4.1 300 11:22 27.10.2020
6223 Clouds 31 1008 74 10000 4.1 300 10:47 27.10.2020
6224 Clouds 31 1008 74 10000 4.1 300 10:26 27.10.2020
6225 Clouds 31 1009 74 10000 4.1 300 09:46 27.10.2020
6226 Clouds 31 1009 74 10000 4.1 300 09:25 27.10.2020
6227 Clouds 31 1010 70 10000 4.6 300 08:39 27.10.2020
6228 Clouds 31 1011 70 10000 5.1 290 08:19 27.10.2020
6229 Clouds 31 1011 70 10000 5.1 290 07:45 27.10.2020
6230 Clouds 31 1011 70 10000 5.1 290 07:25 27.10.2020
6231 Clouds 30 1012 74 10000 5.1 290 06:22 27.10.2020
6232 Clouds 30 1012 74 10000 5.1 290 06:22 27.10.2020
6233 Clouds 30 1012 74 10000 5.1 290 05:52 27.10.2020
6234 Clouds 30 1012 74 10000 5.1 290 05:34 27.10.2020
6235 Clouds 30 1011 74 10000 4.6 290 04:44 27.10.2020
6236 Clouds 28 1010 83 10000 4.6 290 02:33 27.10.2020
6237 Clouds 28 1009 83 10000 4.1 290 00:57 27.10.2020
6238 Clouds 28 1009 83 10000 3.6 300 23:46 26.10.2020
6239 Clouds 28 1009 83 10000 3.6 310 23:22 26.10.2020
6240 Clouds 28 1009 83 10000 3.6 310 22:47 26.10.2020
6241 Clouds 28 1009 83 10000 3.6 310 22:26 26.10.2020
6242 Clear 28 1009 76 10000 3.91 305 21:49 26.10.2020
6243 Clouds 28 1010 83 10000 3.6 310 21:21 26.10.2020
6244 Clouds 28 1010 83 10000 3.6 310 20:58 26.10.2020
6245 Clouds 28 1010 83 10000 3.6 310 20:39 26.10.2020
6246 Clouds 29 1011 79 10000 4.6 300 20:19 26.10.2020
6247 Clear 28 1010 76 10000 3.94 310 19:47 26.10.2020
6248 Clouds 29 1011 74 10000 4.1 310 19:24 26.10.2020
6249 Clouds 28 1011 76 10000 3.58 307 18:45 26.10.2020
6250 Clouds 29 1011 79 10000 4.6 300 18:25 26.10.2020
6251 Clouds 29 1011 79 10000 4.6 300 17:59 26.10.2020
6252 Clouds 29 1011 79 10000 4.6 300 17:39 26.10.2020
6253 Clouds 29 1010 79 10000 4.6 300 17:21 26.10.2020
6254 Clouds 29 1010 79 10000 4.6 300 16:43 26.10.2020
6255 Clouds 29 1010 79 10000 4.1 300 16:21 26.10.2020
6256 Clouds 29 1010 79 10000 4.1 300 15:43 26.10.2020
6257 Clouds 29 1009 79 10000 5.1 300 15:25 26.10.2020
6258 Clouds 29 1009 79 10000 5.1 300 14:53 26.10.2020
6259 Clouds 29 1009 79 10000 5.1 300 14:34 26.10.2020
6260 Clouds 29 1009 79 10000 4.6 300 13:46 26.10.2020
6261 Clouds 29 1009 79 10000 4.6 300 13:27 26.10.2020
6262 Clouds 30 1008 74 10000 4.6 300 12:57 26.10.2020
6263 Rain 30 1008 74 10000 4.6 300 12:33 26.10.2020
6264 Rain 30 1008 79 10000 5.1 300 11:57 26.10.2020
6265 Rain 30 1008 79 10000 5.1 300 11:39 26.10.2020
6266 Rain 31 1009 74 10000 5.1 290 11:21 26.10.2020
6267 Clouds 31 1009 74 10000 5.1 290 10:49 26.10.2020
6268 Clouds 31 1009 74 10000 5.1 290 10:26 26.10.2020
6269 Clouds 30 1010 74 10000 5.1 290 09:56 26.10.2020
6270 Clouds 30 1010 74 10000 5.1 290 09:31 26.10.2020
6271 Clouds 31 1011 70 10000 5.1 290 08:55 26.10.2020
6272 Rain 31 1011 70 10000 5.1 290 08:25 26.10.2020
6273 Clouds 31 1011 74 10000 4.6 290 07:48 26.10.2020
6274 Clouds 31 1011 74 10000 4.6 290 07:28 26.10.2020
6275 Clouds 28 1012 78 10000 4.81 286 05:46 26.10.2020
6276 Clouds 28 1012 79 10000 4.87 278 04:20 26.10.2020
6277 Clouds 28 1011 79 10000 4.84 272 03:21 26.10.2020
6278 Clouds 28 1011 79 10000 4.84 272 03:21 26.10.2020
6279 Clouds 28 1011 79 10000 4.84 272 03:21 26.10.2020
6280 Clouds 28 1010 83 10000 4.6 300 01:34 26.10.2020
6281 Clouds 28 1010 83 10000 5.7 300 00:39 26.10.2020
6282 Clouds 28 1009 83 10000 5.7 300 00:20 26.10.2020
6283 Clouds 28 1009 83 10000 5.7 300 23:37 25.10.2020
6284 Clouds 28 1010 83 10000 6.2 300 22:59 25.10.2020
6285 Clouds 28 1010 83 10000 6.2 300 22:39 25.10.2020
6286 Clouds 28 1010 88 10000 5.1 290 22:19 25.10.2020
6287 Clouds 28 1010 88 10000 5.1 290 21:39 25.10.2020
6288 Clouds 28 1011 88 10000 3.6 290 21:19 25.10.2020
6289 Clouds 28 1011 88 10000 3.6 290 20:44 25.10.2020
6290 Clouds 28 1012 88 10000 5.1 290 20:25 25.10.2020
6291 Clouds 28 1012 88 10000 5.1 290 19:57 25.10.2020
6292 Clouds 27 1012 83 10000 5.1 300 19:38 25.10.2020
6293 Rain 27 1012 83 10000 5.1 300 19:19 25.10.2020
6294 Rain 27 1012 83 10000 5.1 300 18:41 25.10.2020
6295 Rain 27 1012 88 10000 7.7 300 18:22 25.10.2020
6296 Rain 27 1012 88 10000 7.7 300 17:57 25.10.2020
6297 Rain 27 1012 88 10000 7.7 300 17:38 25.10.2020
6298 Rain 27 1012 78 10000 7.2 320 17:19 25.10.2020
6299 Rain 28 1012 78 10000 6.63 277 16:46 25.10.2020
6300 Rain 26 1011 88 8000 10.8 300 16:28 25.10.2020
6301 Rain 26 1011 88 8000 10.8 300 15:50 25.10.2020
6302 Rain 26 1011 88 8000 10.8 300 15:29 25.10.2020
6303 Rain 28 1011 78 10000 6.21 272 14:55 25.10.2020
6304 Clouds 29 1009 79 10000 7.2 290 14:31 25.10.2020
6305 Clouds 29 1009 79 10000 7.2 290 13:55 25.10.2020
6306 Clouds 29 1009 79 10000 7.2 290 13:37 25.10.2020
6307 Clouds 31 1008 70 10000 7.7 270 13:18 25.10.2020
6308 Clouds 28 1009 79 10000 5.99 267 12:40 25.10.2020
6309 Clouds 30 1008 79 10000 6.7 270 12:22 25.10.2020
6310 Clouds 30 1008 79 10000 6.7 270 11:43 25.10.2020
6311 Clouds 30 1009 79 10000 6.7 270 11:21 25.10.2020
6312 Clouds 28 1008 79 10000 5.1 266 10:48 25.10.2020
6313 Clouds 31 1009 74 10000 6.7 270 10:26 25.10.2020
6314 Clouds 31 1009 74 10000 6.7 270 09:55 25.10.2020
6315 Clouds 31 1009 74 10000 6.7 270 09:37 25.10.2020
6316 Clouds 30 1010 79 10000 5.7 260 09:19 25.10.2020
6317 Clouds 30 1010 79 10000 5.7 260 08:40 25.10.2020
6318 Clouds 30 1011 79 10000 4.1 270 08:22 25.10.2020
6319 Clouds 28 1010 81 10000 5.08 255 07:46 25.10.2020
6320 Clouds 29 1012 83 10000 3.6 280 07:18 25.10.2020
6321 Clouds 29 1012 83 10000 3.6 280 06:30 25.10.2020
6322 Clouds 29 1012 83 10000 6.7 280 05:22 25.10.2020
6323 Clouds 29 1012 83 10000 6.7 280 04:51 25.10.2020
6324 Clouds 28 1011 77 10000 4.7 256 02:42 25.10.2020
6325 Clouds 27 1009 94 10000 1.5 310 00:54 25.10.2020
6326 Clouds 27 1009 94 10000 1.5 310 00:31 25.10.2020
6327 Clouds 28 1010 88 10000 3.1 30 23:59 24.10.2020
6328 Clouds 28 1009 77 10000 4.98 257 23:40 24.10.2020
6329 Clouds 28 1010 88 10000 4.6 10 23:20 24.10.2020
6330 Clouds 28 1010 77 10000 5.03 264 22:41 24.10.2020
6331 Clouds 29 1011 83 10000 4.6 250 22:23 24.10.2020
6332 Clouds 29 1011 83 10000 4.6 250 21:56 24.10.2020
6333 Clouds 29 1011 83 10000 4.6 250 21:37 24.10.2020
6334 Clouds 29 1012 83 10000 4.1 240 21:19 24.10.2020
6335 Clouds 28 1011 77 10000 4.16 259 20:43 24.10.2020
6336 Clouds 29 1012 83 10000 3.6 260 20:20 24.10.2020
6337 Clouds 29 1012 83 10000 3.6 260 19:42 24.10.2020
6338 Clouds 29 1012 83 10000 3.6 260 19:23 24.10.2020
6339 Clouds 29 1011 83 10000 4.1 260 18:54 24.10.2020
6340 Clouds 29 1011 83 10000 4.1 260 18:31 24.10.2020
6341 Clouds 28 1012 80 10000 4.36 265 17:54 24.10.2020
6342 Clouds 29 1009 83 10000 5.7 250 17:27 24.10.2020
6343 Clouds 29 1009 83 10000 5.7 250 16:57 24.10.2020
6344 Clouds 29 1009 83 10000 5.7 250 16:39 24.10.2020
6345 Clouds 30 1008 79 10000 6.2 260 15:58 24.10.2020
6346 Clouds 30 1008 79 10000 7.7 250 15:38 24.10.2020
6347 Clouds 30 1008 79 10000 7.7 250 15:18 24.10.2020
6348 Clouds 30 1008 79 10000 7.7 250 14:39 24.10.2020
6349 Clouds 31 1007 74 10000 7.7 240 14:21 24.10.2020
6350 Clouds 31 1007 74 10000 7.7 240 13:44 24.10.2020
6351 Clouds 31 1007 74 10000 8.7 240 13:20 24.10.2020
6352 Clouds 31 1007 74 10000 8.7 240 12:41 24.10.2020
6353 Clouds 31 1008 70 10000 5.7 240 12:20 24.10.2020
6354 Clouds 28 1009 78 10000 5.41 264 11:50 24.10.2020
6355 Clouds 31 1009 74 10000 6.7 240 11:23 24.10.2020
6356 Clouds 31 1009 74 10000 6.7 240 10:48 24.10.2020
6357 Clouds 31 1009 74 10000 6.7 240 10:29 24.10.2020
6358 Clouds 28 1009 78 10000 4.66 275 09:48 24.10.2020
6359 Clouds 31 1010 70 10000 6.7 250 09:27 24.10.2020
6360 Clouds 31 1010 70 10000 6.7 250 08:58 24.10.2020
6361 Clouds 31 1011 74 10000 5.1 250 08:19 24.10.2020
6362 Clouds 31 1011 74 10000 5.1 250 07:51 24.10.2020
6363 Clouds 30 1011 79 10000 5.7 250 07:21 24.10.2020
6364 Clouds 30 1011 79 10000 5.7 250 06:51 24.10.2020
6365 Clouds 27 1012 80 10000 4.53 265 05:47 24.10.2020
6366 Clouds 27 1009 83 10000 6.7 250 02:26 24.10.2020
6367 Clouds 27 1008 94 10000 5.7 250 00:57 24.10.2020
6368 Clouds 27 1008 94 10000 5.7 250 00:37 24.10.2020
6369 Clouds 27 1008 94 10000 5.7 250 00:37 24.10.2020
6370 Clouds 27 1008 82 10000 6.66 269 00:19 24.10.2020
6371 Clouds 27 1008 82 10000 6.66 269 23:43 23.10.2020
6372 Clouds 28 1009 88 10000 5.7 250 23:22 23.10.2020
6373 Clouds 27 1009 81 10000 6.88 266 22:42 23.10.2020
6374 Clouds 29 1010 83 10000 5.7 250 22:22 23.10.2020
6375 Clouds 29 1010 83 10000 5.7 250 21:59 23.10.2020
6376 Clouds 29 1010 83 10000 5.1 250 21:39 23.10.2020
6377 Clouds 29 1010 83 10000 5.1 250 21:21 23.10.2020
6378 Clouds 28 1010 83 10000 6.2 250 20:39 23.10.2020
6379 Clouds 28 1010 83 10000 6.2 250 20:20 23.10.2020
6380 Clouds 28 1010 80 10000 6.4 266 19:48 23.10.2020
6381 Clouds 27 1010 83 10000 5.1 250 19:29 23.10.2020
6382 Clouds 28 1011 79 10000 6.34 261 18:49 23.10.2020
6383 Clouds 29 1010 83 9000 9.8 250 18:30 23.10.2020
6384 Clouds 28 1011 79 10000 6.37 257 17:47 23.10.2020
6385 Clouds 29 1009 83 10000 6.2 250 17:23 23.10.2020
6386 Clouds 29 1009 83 10000 6.2 250 16:56 23.10.2020
6387 Clouds 29 1009 83 10000 6.2 250 16:56 23.10.2020
6388 Clouds 29 1009 83 10000 6.2 250 16:56 23.10.2020
6389 Clouds 29 1009 83 10000 6.2 250 16:56 23.10.2020
6390 Clouds 29 1009 83 10000 6.2 250 16:35 23.10.2020
6391 Clouds 29 1008 79 10000 8.2 250 15:59 23.10.2020
6392 Clouds 29 1008 79 10000 8.2 250 15:40 23.10.2020
6393 Clouds 29 1008 83 10000 7.2 240 15:20 23.10.2020
6394 Clouds 29 1008 83 10000 7.2 240 14:49 23.10.2020
6395 Clouds 29 1008 83 10000 7.2 240 14:30 23.10.2020
6396 Clouds 28 1008 80 10000 6.7 262 13:44 23.10.2020
6397 Clouds 31 1007 74 10000 7.2 250 13:24 23.10.2020
6398 Clouds 31 1007 74 10000 7.2 250 12:52 23.10.2020
6399 Clouds 32 1008 75 10000 7.2 250 12:31 23.10.2020
6400 Clouds 32 1008 75 10000 7.2 250 11:59 23.10.2020
6401 Clouds 28 1008 79 10000 6.41 262 11:41 23.10.2020
6402 Clouds 32 1008 75 10000 7.2 250 11:20 23.10.2020
6403 Clouds 32 1008 75 10000 7.2 250 10:39 23.10.2020
6404 Clouds 31 1009 74 10000 6.7 240 10:20 23.10.2020
6405 Clouds 31 1009 74 10000 6.7 240 09:43 23.10.2020
6406 Clouds 31 1009 74 10000 6.7 240 09:23 23.10.2020
6407 Clouds 31 1010 70 10000 5.1 250 08:52 23.10.2020
6408 Clouds 31 1010 70 10000 5.1 250 08:28 23.10.2020
6409 Clouds 29 1011 79 10000 4.6 240 07:28 23.10.2020
6410 Clouds 29 1010 74 10000 5.1 260 06:52 23.10.2020
6411 Clouds 28 1010 78 10000 5.1 260 06:20 23.10.2020
6412 Rain 25 1009 94 10000 7.7 290 04:42 23.10.2020
6413 Clouds 27 1008 88 10000 5.1 280 02:32 23.10.2020
6414 Clouds 26 1008 88 10000 5.1 260 00:56 23.10.2020
6415 Clouds 26 1008 88 10000 5.1 260 00:33 23.10.2020
6416 Clouds 28 1008 83 10000 3.6 290 23:40 22.10.2020
6417 Clouds 28 1008 83 10000 4.1 290 23:19 22.10.2020
6418 Clouds 28 1008 83 10000 4.1 290 22:47 22.10.2020
6419 Clouds 28 1008 83 10000 4.1 290 22:26 22.10.2020
6420 Clouds 28 1009 83 10000 5.7 280 21:58 22.10.2020
6421 Clouds 28 1009 83 10000 5.7 280 21:39 22.10.2020
6422 Clouds 28 1009 83 10000 5.1 270 21:20 22.10.2020
6423 Clouds 28 1009 80 10000 6.16 279 20:44 22.10.2020
6424 Clouds 28 1010 88 10000 5.1 270 20:25 22.10.2020
6425 Clouds 28 1010 80 10000 6.41 279 19:44 22.10.2020
6426 Clouds 29 1010 79 10000 5.7 270 19:21 22.10.2020
6427 Clouds 29 1010 79 10000 5.7 270 18:58 22.10.2020
6428 Clouds 29 1010 79 10000 5.7 270 18:37 22.10.2020
6429 Clouds 29 1009 79 10000 7.7 270 18:18 22.10.2020
6430 Clouds 29 1009 79 10000 7.7 270 17:43 22.10.2020
6431 Clouds 29 1009 79 10000 6.2 270 17:20 22.10.2020
6432 Clouds 29 1009 79 10000 6.2 270 16:45 22.10.2020
6433 Clouds 29 1009 79 10000 6.2 270 16:24 22.10.2020
6434 Clouds 29 1008 79 10000 6.7 270 15:49 22.10.2020
6435 Clouds 29 1008 79 10000 6.7 270 15:27 22.10.2020
6436 Clouds 29 1008 83 10000 5.7 270 14:55 22.10.2020
6437 Clouds 29 1007 83 10000 6.2 250 14:36 22.10.2020
6438 Clouds 29 1007 83 10000 6.2 250 14:18 22.10.2020
6439 Clouds 28 1008 79 10000 6.72 267 13:41 22.10.2020
6440 Clouds 30 1007 79 10000 4.1 270 13:22 22.10.2020
6441 Clouds 30 1007 79 10000 4.1 270 12:31 22.10.2020
6442 Clouds 29 1008 83 10000 4.1 300 11:58 22.10.2020
6443 Clouds 29 1008 83 10000 4.1 300 11:38 22.10.2020
6444 Clouds 28 1009 88 10000 5.7 290 11:18 22.10.2020
6445 Rain 28 1009 88 10000 5.7 290 10:46 22.10.2020
6446 Rain 28 1009 88 10000 5.7 290 10:24 22.10.2020
6447 Rain 28 1010 83 10000 3.6 280 09:42 22.10.2020
6448 Rain 27 1011 88 9000 4.6 280 09:21 22.10.2020
6449 Rain 27 1011 88 9000 4.6 280 08:41 22.10.2020
6450 Rain 26 1012 94 7000 7.2 270 08:23 22.10.2020
6451 Clouds 26 1012 94 7000 7.2 270 07:43 22.10.2020
6452 Clouds 28 1011 88 10000 5.7 250 07:18 22.10.2020
6453 Clouds 28 1011 88 10000 5.7 250 06:41 22.10.2020
6454 Clouds 29 1011 83 10000 6.2 250 06:23 22.10.2020
6455 Clouds 29 1011 83 10000 6.2 250 05:38 22.10.2020
6456 Clouds 26 1009 94 10000 4.1 250 03:25 22.10.2020
6457 Clouds 28 1008 80 10000 5.67 268 00:50 22.10.2020
6458 Clouds 25 1009 94 9000 2.6 250 00:21 22.10.2020
6459 Clouds 25 1009 94 9000 2.6 250 23:42 21.10.2020
6460 Clouds 27 1009 88 10000 5.7 240 22:59 21.10.2020
6461 Clouds 27 1009 88 10000 5.7 240 22:37 21.10.2020
6462 Clouds 28 1010 88 10000 5.1 250 22:19 21.10.2020
6463 Clouds 28 1009 79 10000 5.45 276 21:45 21.10.2020
6464 Clouds 28 1010 83 10000 5.1 280 21:20 21.10.2020
6465 Clouds 28 1010 83 10000 5.1 280 20:57 21.10.2020
6466 Clouds 29 1010 79 10000 5.1 280 20:39 21.10.2020
6467 Clouds 29 1010 79 10000 5.1 280 20:18 21.10.2020
6468 Clouds 28 1011 79 10000 5.79 279 19:40 21.10.2020
6469 Clouds 29 1010 83 10000 6.2 270 19:22 21.10.2020
6470 Clouds 28 1011 78 10000 5.96 277 18:52 21.10.2020
6471 Clouds 29 1010 79 10000 3.6 250 18:30 21.10.2020
6472 Clouds 29 1010 79 10000 3.6 250 17:50 21.10.2020
6473 Clouds 29 1009 83 10000 4.6 260 17:22 21.10.2020
6474 Clouds 29 1009 83 10000 4.6 260 16:58 21.10.2020
6475 Clouds 29 1009 83 10000 4.6 260 16:38 21.10.2020
6476 Clouds 30 1008 79 10000 5.1 250 16:19 21.10.2020
6477 Clear 28 1009 78 10000 6.09 267 15:45 21.10.2020
6478 Clouds 31 1008 74 10000 5.7 260 15:21 21.10.2020
6479 Clouds 31 1008 74 10000 5.7 260 14:49 21.10.2020
6480 Clouds 31 1007 74 10000 7.2 250 14:29 21.10.2020
6481 Clear 28 1008 79 10000 7.02 267 13:57 21.10.2020
6482 Clouds 32 1007 70 10000 7.2 250 13:39 21.10.2020
6483 Clouds 32 1007 70 10000 7.2 250 13:20 21.10.2020
6484 Clouds 32 1007 70 10000 7.2 250 12:38 21.10.2020
6485 Clouds 33 1009 70 10000 6.7 250 12:19 21.10.2020
6486 Clear 28 1007 80 10000 6.5 266 11:41 21.10.2020
6487 Clouds 32 1009 70 10000 7.2 250 11:20 21.10.2020
6488 Clouds 32 1009 70 10000 7.2 250 10:47 21.10.2020
6489 Clouds 32 1009 70 10000 6.7 250 10:26 21.10.2020
6490 Clouds 32 1009 70 10000 6.7 250 09:58 21.10.2020
6491 Clouds 30 1010 79 10000 6.2 240 09:39 21.10.2020
6492 Clouds 30 1010 79 10000 6.2 240 08:57 21.10.2020
6493 Clouds 31 1011 74 10000 5.7 260 08:39 21.10.2020
6494 Clouds 31 1011 74 10000 5.7 260 08:21 21.10.2020
6495 Clouds 28 1011 80 10000 6.13 257 07:41 21.10.2020
6496 Clouds 31 1011 74 10000 5.1 250 06:59 21.10.2020
6497 Clouds 30 1011 79 10000 5.7 250 06:33 21.10.2020
6498 Clouds 29 1010 83 10000 5.1 250 05:23 21.10.2020
6499 Clouds 28 1009 83 10000 5.7 250 02:37 21.10.2020
6500 Clouds 28 1009 83 10000 5.1 250 00:25 21.10.2020
6501 Clouds 29 1009 83 10000 5.1 250 23:28 20.10.2020
6502 Clouds 28 1010 88 10000 4.6 260 22:38 20.10.2020
6503 Clouds 28 1010 88 10000 4.6 260 22:20 20.10.2020
6504 Clouds 28 1010 88 10000 4.6 260 21:47 20.10.2020
6505 Clouds 28 1010 88 10000 3.6 260 21:19 20.10.2020
6506 Clouds 28 1010 88 10000 3.6 260 20:43 20.10.2020
6507 Clouds 28 1010 88 10000 3.6 260 20:23 20.10.2020
6508 Clouds 28 1011 83 10000 3.1 240 19:45 20.10.2020
6509 Clouds 29 1010 83 10000 3.6 230 19:22 20.10.2020
6510 Clouds 29 1010 83 10000 3.6 230 18:59 20.10.2020
6511 Clouds 29 1010 83 10000 4.6 270 18:38 20.10.2020
6512 Clouds 29 1010 83 10000 4.6 270 17:51 20.10.2020
6513 Clouds 29 1010 83 10000 4.6 270 17:33 20.10.2020
6514 Clouds 29 1008 79 10000 5.7 270 16:59 20.10.2020
6515 Clouds 28 1010 79 10000 5.64 270 16:40 20.10.2020
6516 Clouds 29 1008 83 10000 6.2 280 16:22 20.10.2020
6517 Clouds 28 1009 79 10000 6.13 267 15:46 20.10.2020
6518 Clouds 29 1007 79 10000 5.7 280 15:27 20.10.2020
6519 Clouds 28 1008 79 10000 6.03 267 14:45 20.10.2020
6520 Clouds 30 1007 79 10000 5.7 270 14:25 20.10.2020
6521 Clouds 30 1007 79 10000 5.7 270 13:58 20.10.2020
6522 Rain 28 1007 80 10000 6.57 266 13:40 20.10.2020
6523 Clouds 31 1007 74 10000 4.6 280 13:19 20.10.2020
6524 Clouds 31 1007 74 10000 4.6 280 12:49 20.10.2020
6525 Clouds 31 1007 74 10000 4.6 280 12:30 20.10.2020
6526 Clouds 31 1007 74 10000 4.6 280 12:30 20.10.2020
6527 Clouds 31 1007 74 10000 5.7 270 11:47 20.10.2020
6528 Clouds 31 1008 70 10000 5.1 270 11:28 20.10.2020
6529 Clouds 28 1007 78 10000 6.4 272 10:43 20.10.2020
6530 Clouds 30 1009 74 10000 4.6 240 10:25 20.10.2020
6531 Clouds 30 1009 74 10000 4.6 240 09:44 20.10.2020
6532 Clouds 28 1008 80 10000 6.57 271 09:44 20.10.2020
6533 Clouds 31 1009 74 10000 5.7 280 09:20 20.10.2020
6534 Clouds 28 1009 79 10000 5.63 269 08:40 20.10.2020
6535 Clouds 31 1010 74 10000 5.1 270 08:19 20.10.2020
6536 Clouds 31 1010 74 10000 5.1 270 07:44 20.10.2020
6537 Clouds 31 1010 79 10000 5.1 270 07:21 20.10.2020
6538 Clouds 30 1009 74 10000 6.2 270 06:20 20.10.2020
6539 Clouds 28 1008 83 10000 5.1 270 04:27 20.10.2020
6540 Clouds 28 1008 83 10000 5.1 290 02:30 20.10.2020
6541 Clouds 28 1008 88 10000 5.1 290 01:22 20.10.2020
6542 Clouds 28 1008 88 10000 5.1 290 00:51 20.10.2020
6543 Clouds 28 1008 88 10000 5.1 290 00:26 20.10.2020
6544 Clouds 28 1008 83 10000 5.7 290 23:51 19.10.2020
6545 Clouds 28 1008 83 10000 5.7 290 23:26 19.10.2020
6546 Clouds 29 1009 79 10000 6.2 290 22:54 19.10.2020
6547 Clouds 29 1009 74 10000 6.2 290 22:26 19.10.2020
6548 Clouds 29 1009 74 10000 6.2 290 21:57 19.10.2020
6549 Clouds 29 1009 74 10000 6.2 290 21:39 19.10.2020
6550 Clouds 29 1010 74 10000 5.7 280 21:18 19.10.2020
6551 Clouds 28 1009 80 10000 5.16 278 20:42 19.10.2020
6552 Clouds 29 1010 74 10000 6.2 280 20:24 19.10.2020
6553 Clouds 28 1010 80 10000 5.35 281 19:45 19.10.2020
6554 Clouds 29 1010 74 10000 6.7 290 19:19 19.10.2020
6555 Clouds 29 1010 74 10000 6.7 290 18:50 19.10.2020
6556 Clouds 29 1010 74 10000 6.7 290 18:28 19.10.2020
6557 Clouds 29 1009 79 10000 6.2 280 17:47 19.10.2020
6558 Clouds 29 1009 79 10000 6.2 280 17:27 19.10.2020
6559 Clouds 29 1008 79 10000 5.7 290 16:54 19.10.2020
6560 Clouds 29 1008 79 10000 6.2 290 16:30 19.10.2020
6561 Clouds 28 1009 78 10000 5.53 286 15:57 19.10.2020
6562 Clouds 28 1009 78 10000 5.53 286 15:36 19.10.2020
6563 Clouds 28 1008 78 10000 6.11 281 15:18 19.10.2020
6564 Clouds 28 1008 78 10000 6.11 281 14:40 19.10.2020
6565 Clouds 28 1008 79 10000 6.56 283 14:21 19.10.2020
6566 Clouds 28 1008 79 10000 6.56 283 13:44 19.10.2020
6567 Clouds 28 1007 79 10000 6.7 284 13:26 19.10.2020
6568 Clouds 28 1007 79 10000 6.68 284 12:45 19.10.2020
6569 Clouds 28 1007 80 10000 6.78 284 12:26 19.10.2020
6570 Clouds 28 1007 80 10000 6.78 284 11:51 19.10.2020
6571 Clouds 31 1008 74 10000 6.7 280 11:24 19.10.2020
6572 Clouds 31 1008 74 10000 6.7 280 10:45 19.10.2020
6573 Clouds 31 1008 74 10000 6.7 280 10:25 19.10.2020
6574 Clouds 31 1008 74 10000 6.7 280 09:58 19.10.2020
6575 Clouds 31 1008 74 10000 6.7 280 09:37 19.10.2020
6576 Clouds 31 1009 74 10000 5.7 290 09:18 19.10.2020
6577 Clouds 28 1009 78 10000 6.37 283 08:44 19.10.2020
6578 Clouds 30 1010 74 10000 5.7 290 08:21 19.10.2020
6579 Clouds 28 1010 79 10000 6.71 277 07:21 19.10.2020
6580 Clouds 28 1010 79 10000 6.71 277 06:45 19.10.2020
6581 Clouds 30 1010 74 10000 5.7 290 05:36 19.10.2020
6582 Clouds 28 1008 83 10000 5.7 280 03:46 19.10.2020
6583 Clouds 29 1008 79 10000 5.7 290 01:43 19.10.2020
6584 Clouds 29 1008 79 10000 5.7 280 00:42 19.10.2020
6585 Clouds 29 1008 79 10000 6.2 280 23:57 18.10.2020
6586 Clouds 29 1009 83 10000 6.2 290 23:38 18.10.2020
6587 Clouds 29 1009 83 10000 6.2 290 23:19 18.10.2020
6588 Clouds 29 1009 83 10000 6.2 290 22:44 18.10.2020
6589 Clouds 28 1009 83 10000 4.6 290 22:19 18.10.2020
6590 Clouds 28 1009 83 10000 4.6 290 21:43 18.10.2020
6591 Clouds 28 1010 83 10000 4.1 300 21:21 18.10.2020
6592 Clouds 28 1010 76 10000 5.96 292 20:45 18.10.2020
6593 Clouds 28 1010 83 10000 5.1 320 20:24 18.10.2020
6594 Clouds 28 1010 83 10000 5.1 320 19:50 18.10.2020
6595 Clouds 28 1010 83 10000 5.1 320 19:27 18.10.2020
6596 Clouds 29 1010 83 10000 5.7 270 18:51 18.10.2020
6597 Clouds 29 1010 83 10000 5.7 270 18:31 18.10.2020
6598 Clouds 29 1010 79 10000 5.7 290 17:59 18.10.2020
6599 Clouds 29 1010 79 10000 5.7 290 17:41 18.10.2020
6600 Clouds 29 1009 79 10000 7.2 280 17:22 18.10.2020
6601 Clouds 29 1009 79 10000 7.2 280 16:43 18.10.2020
6602 Clouds 29 1009 79 10000 7.2 280 16:24 18.10.2020
6603 Clouds 29 1008 74 10000 7.2 280 15:43 18.10.2020
6604 Clouds 30 1007 70 10000 8.2 280 15:22 18.10.2020
6605 Clouds 30 1007 70 10000 8.2 280 14:58 18.10.2020
6606 Clouds 30 1007 70 10000 8.2 280 14:37 18.10.2020
6607 Clouds 30 1007 74 10000 7.7 280 14:18 18.10.2020
6608 Clouds 30 1007 74 10000 7.7 280 13:41 18.10.2020
6609 Clouds 31 1006 74 10000 7.7 280 13:23 18.10.2020
6610 Clouds 31 1006 74 10000 7.7 280 12:43 18.10.2020
6611 Clouds 31 1007 70 10000 8.2 280 12:23 18.10.2020
6612 Clouds 31 1007 70 10000 8.2 280 11:47 18.10.2020
6613 Clouds 31 1007 70 10000 8.2 280 11:29 18.10.2020
6614 Clouds 31 1008 74 10000 7.2 270 10:59 18.10.2020
6615 Clouds 31 1008 74 10000 7.2 270 10:39 18.10.2020
6616 Clouds 31 1008 74 10000 7.2 270 10:18 18.10.2020
6617 Clouds 31 1008 74 10000 7.2 270 09:44 18.10.2020
6618 Clouds 30 1009 74 10000 6.7 270 09:20 18.10.2020
6619 Clouds 30 1009 74 10000 6.7 270 08:52 18.10.2020
6620 Clouds 30 1009 74 10000 6.7 270 08:26 18.10.2020
6621 Clouds 28 1010 78 10000 6.96 286 07:56 18.10.2020
6622 Clouds 29 1010 79 10000 6.7 290 05:58 18.10.2020
6623 Clouds 29 1008 74 10000 6.7 290 03:55 18.10.2020
6624 Clouds 29 1008 70 10000 7.2 290 02:54 18.10.2020
6625 Clouds 29 1007 74 10000 6.7 290 01:33 18.10.2020
6626 Clouds 29 1007 74 10000 6.7 280 00:46 18.10.2020
6627 Clouds 29 1008 74 10000 7.2 280 00:22 18.10.2020
6628 Clouds 29 1008 74 10000 7.2 280 23:41 17.10.2020
6629 Clouds 30 1008 74 10000 6.2 280 23:21 17.10.2020
6630 Clouds 30 1008 74 10000 6.2 280 22:57 17.10.2020
6631 Clouds 30 1008 74 10000 6.2 280 22:39 17.10.2020
6632 Clouds 29 1009 74 10000 6.7 290 22:18 17.10.2020
6633 Clouds 29 1009 74 10000 6.7 290 21:43 17.10.2020
6634 Clouds 29 1010 79 10000 7.2 290 21:21 17.10.2020
6635 Clouds 29 1010 79 10000 7.2 290 20:46 17.10.2020
6636 Clouds 28 1010 78 10000 7.12 286 20:21 17.10.2020
6637 Clouds 28 1010 78 10000 6.8 286 19:45 17.10.2020
6638 Clouds 29 1009 79 10000 6.2 300 19:24 17.10.2020
6639 Clouds 29 1009 79 10000 6.2 300 18:47 17.10.2020
6640 Clouds 29 1009 79 10000 6.2 300 18:28 17.10.2020
6641 Clouds 29 1008 79 10000 7.7 290 17:58 17.10.2020
6642 Clouds 29 1008 79 10000 7.7 290 17:39 17.10.2020
6643 Clouds 29 1007 79 10000 7.7 290 17:20 17.10.2020
6644 Clouds 29 1007 79 10000 7.7 290 16:47 17.10.2020
6645 Clouds 29 1007 79 10000 7.7 290 16:22 17.10.2020
6646 Clouds 29 1007 79 10000 7.7 290 15:43 17.10.2020
6647 Clouds 30 1006 74 10000 7.7 280 15:23 17.10.2020
6648 Clouds 30 1006 74 10000 7.7 280 14:59 17.10.2020
6649 Clouds 30 1006 74 10000 7.7 280 14:38 17.10.2020